<?xml version="1.0" encoding="UTF-8" standalone="no" ?>
<gpx xmlns="http://www.topografix.com/GPX/1/1" xmlns:xsi="http://www.w3.org/2001/XMLSchema-instance" xsi:schemaLocation="http://www.topografix.com/GPX/1/1 http://www.topografix.com/GPX/1/1/gpx.xsd" version="1.1" creator="VisuGPX - https://www.visugpx.com">
  <metadata>
    <name>VTT - Vers le Pilat</name>
    <desc><![CDATA[Belle rando sur des terrains variés. A faire en été pour l'ombrage.]]></desc>
  </metadata>
  <trk>
    <name><![CDATA[26-FEV-17 13:56:05]]></name>
    <trkseg>
      <trkpt lat="45.36836" lon="4.52738">
        <ele>1196.5</ele>
        <time>2017-02-26T08:54:17Z</time>
      </trkpt>
      <trkpt lat="45.36837" lon="4.52737">
        <ele>1199.86</ele>
        <time>2017-02-26T08:54:28Z</time>
      </trkpt>
      <trkpt lat="45.36837" lon="4.5274">
        <ele>1202.75</ele>
        <time>2017-02-26T08:54:58Z</time>
      </trkpt>
      <trkpt lat="45.36836" lon="4.52738">
        <ele>1202.75</ele>
        <time>2017-02-26T08:55:39Z</time>
      </trkpt>
      <trkpt lat="45.36835" lon="4.52738">
        <ele>1202.75</ele>
        <time>2017-02-26T08:56:23Z</time>
      </trkpt>
      <trkpt lat="45.36835" lon="4.52738">
        <ele>1203.23</ele>
        <time>2017-02-26T08:57:09Z</time>
      </trkpt>
      <trkpt lat="45.36836" lon="4.52739">
        <ele>1203.23</ele>
        <time>2017-02-26T08:57:39Z</time>
      </trkpt>
      <trkpt lat="45.36836" lon="4.52739">
        <ele>1199.38</ele>
        <time>2017-02-26T08:57:45Z</time>
      </trkpt>
      <trkpt lat="45.36755" lon="4.52905">
        <ele>1200.34</ele>
        <time>2017-02-26T09:03:59Z</time>
      </trkpt>
      <trkpt lat="45.36754" lon="4.52904">
        <ele>1200.34</ele>
        <time>2017-02-26T09:04:00Z</time>
      </trkpt>
      <trkpt lat="45.3676" lon="4.52869">
        <ele>1200.34</ele>
        <time>2017-02-26T09:04:14Z</time>
      </trkpt>
      <trkpt lat="45.36757" lon="4.52844">
        <ele>1201.79</ele>
        <time>2017-02-26T09:04:23Z</time>
      </trkpt>
      <trkpt lat="45.36763" lon="4.52824">
        <ele>1202.27</ele>
        <time>2017-02-26T09:04:32Z</time>
      </trkpt>
      <trkpt lat="45.36772" lon="4.52817">
        <ele>1202.27</ele>
        <time>2017-02-26T09:04:38Z</time>
      </trkpt>
      <trkpt lat="45.36774" lon="4.52794">
        <ele>1202.75</ele>
        <time>2017-02-26T09:04:48Z</time>
      </trkpt>
      <trkpt lat="45.3677" lon="4.52791">
        <ele>1202.75</ele>
        <time>2017-02-26T09:04:51Z</time>
      </trkpt>
      <trkpt lat="45.36745" lon="4.52783">
        <ele>1204.19</ele>
        <time>2017-02-26T09:05:05Z</time>
      </trkpt>
      <trkpt lat="45.36725" lon="4.52772">
        <ele>1205.63</ele>
        <time>2017-02-26T09:05:17Z</time>
      </trkpt>
      <trkpt lat="45.36698" lon="4.5276">
        <ele>1207.07</ele>
        <time>2017-02-26T09:05:32Z</time>
      </trkpt>
      <trkpt lat="45.36674" lon="4.52744">
        <ele>1209</ele>
        <time>2017-02-26T09:05:47Z</time>
      </trkpt>
      <trkpt lat="45.36648" lon="4.52731">
        <ele>1211.4</ele>
        <time>2017-02-26T09:06:02Z</time>
      </trkpt>
      <trkpt lat="45.36627" lon="4.52722">
        <ele>1213.8</ele>
        <time>2017-02-26T09:06:15Z</time>
      </trkpt>
      <trkpt lat="45.36624" lon="4.5272">
        <ele>1214.28</ele>
        <time>2017-02-26T09:06:17Z</time>
      </trkpt>
      <trkpt lat="45.36601" lon="4.52713">
        <ele>1217.17</ele>
        <time>2017-02-26T09:06:31Z</time>
      </trkpt>
      <trkpt lat="45.36599" lon="4.52713">
        <ele>1217.17</ele>
        <time>2017-02-26T09:06:32Z</time>
      </trkpt>
      <trkpt lat="45.36594" lon="4.5271">
        <ele>1218.13</ele>
        <time>2017-02-26T09:06:35Z</time>
      </trkpt>
      <trkpt lat="45.36581" lon="4.52698">
        <ele>1220.05</ele>
        <time>2017-02-26T09:06:45Z</time>
      </trkpt>
      <trkpt lat="45.36569" lon="4.52687">
        <ele>1222.45</ele>
        <time>2017-02-26T09:06:54Z</time>
      </trkpt>
      <trkpt lat="45.36566" lon="4.52684">
        <ele>1222.93</ele>
        <time>2017-02-26T09:06:56Z</time>
      </trkpt>
      <trkpt lat="45.36557" lon="4.52673">
        <ele>1224.86</ele>
        <time>2017-02-26T09:07:04Z</time>
      </trkpt>
      <trkpt lat="45.36539" lon="4.52654">
        <ele>1227.26</ele>
        <time>2017-02-26T09:07:18Z</time>
      </trkpt>
      <trkpt lat="45.36522" lon="4.52641">
        <ele>1229.18</ele>
        <time>2017-02-26T09:07:29Z</time>
      </trkpt>
      <trkpt lat="45.36508" lon="4.52632">
        <ele>1231.59</ele>
        <time>2017-02-26T09:07:40Z</time>
      </trkpt>
      <trkpt lat="45.36508" lon="4.5263">
        <ele>1231.59</ele>
        <time>2017-02-26T09:07:42Z</time>
      </trkpt>
      <trkpt lat="45.36511" lon="4.52628">
        <ele>1232.07</ele>
        <time>2017-02-26T09:07:45Z</time>
      </trkpt>
      <trkpt lat="45.36517" lon="4.5262">
        <ele>1233.03</ele>
        <time>2017-02-26T09:07:50Z</time>
      </trkpt>
      <trkpt lat="45.36534" lon="4.52602">
        <ele>1235.91</ele>
        <time>2017-02-26T09:08:03Z</time>
      </trkpt>
      <trkpt lat="45.36541" lon="4.52595">
        <ele>1237.83</ele>
        <time>2017-02-26T09:08:10Z</time>
      </trkpt>
      <trkpt lat="45.36551" lon="4.52576">
        <ele>1240.24</ele>
        <time>2017-02-26T09:08:20Z</time>
      </trkpt>
      <trkpt lat="45.36562" lon="4.52542">
        <ele>1242.16</ele>
        <time>2017-02-26T09:08:35Z</time>
      </trkpt>
      <trkpt lat="45.36571" lon="4.52508">
        <ele>1243.12</ele>
        <time>2017-02-26T09:08:48Z</time>
      </trkpt>
      <trkpt lat="45.36581" lon="4.52473">
        <ele>1243.6</ele>
        <time>2017-02-26T09:09:02Z</time>
      </trkpt>
      <trkpt lat="45.36592" lon="4.52431">
        <ele>1244.08</ele>
        <time>2017-02-26T09:09:18Z</time>
      </trkpt>
      <trkpt lat="45.36604" lon="4.52391">
        <ele>1244.08</ele>
        <time>2017-02-26T09:09:33Z</time>
      </trkpt>
      <trkpt lat="45.36613" lon="4.52357">
        <ele>1243.6</ele>
        <time>2017-02-26T09:09:45Z</time>
      </trkpt>
      <trkpt lat="45.36621" lon="4.52334">
        <ele>1242.64</ele>
        <time>2017-02-26T09:09:54Z</time>
      </trkpt>
      <trkpt lat="45.36621" lon="4.52334">
        <ele>1242.16</ele>
        <time>2017-02-26T09:10:10Z</time>
      </trkpt>
      <trkpt lat="45.36621" lon="4.52334">
        <ele>1242.16</ele>
        <time>2017-02-26T09:10:20Z</time>
      </trkpt>
      <trkpt lat="45.36623" lon="4.52332">
        <ele>1242.16</ele>
        <time>2017-02-26T09:10:22Z</time>
      </trkpt>
      <trkpt lat="45.36628" lon="4.52309">
        <ele>1240.72</ele>
        <time>2017-02-26T09:10:29Z</time>
      </trkpt>
      <trkpt lat="45.36625" lon="4.52301">
        <ele>1240.24</ele>
        <time>2017-02-26T09:10:34Z</time>
      </trkpt>
      <trkpt lat="45.36616" lon="4.52291">
        <ele>1239.28</ele>
        <time>2017-02-26T09:10:40Z</time>
      </trkpt>
      <trkpt lat="45.36614" lon="4.52277">
        <ele>1237.83</ele>
        <time>2017-02-26T09:10:43Z</time>
      </trkpt>
      <trkpt lat="45.36613" lon="4.52255">
        <ele>1235.43</ele>
        <time>2017-02-26T09:10:46Z</time>
      </trkpt>
      <trkpt lat="45.36613" lon="4.52241">
        <ele>1234.47</ele>
        <time>2017-02-26T09:10:48Z</time>
      </trkpt>
      <trkpt lat="45.36612" lon="4.52228">
        <ele>1233.51</ele>
        <time>2017-02-26T09:10:50Z</time>
      </trkpt>
      <trkpt lat="45.36611" lon="4.52222">
        <ele>1233.03</ele>
        <time>2017-02-26T09:10:51Z</time>
      </trkpt>
      <trkpt lat="45.3661" lon="4.52216">
        <ele>1232.55</ele>
        <time>2017-02-26T09:10:52Z</time>
      </trkpt>
      <trkpt lat="45.36608" lon="4.5221">
        <ele>1232.07</ele>
        <time>2017-02-26T09:10:53Z</time>
      </trkpt>
      <trkpt lat="45.36606" lon="4.52205">
        <ele>1231.11</ele>
        <time>2017-02-26T09:10:54Z</time>
      </trkpt>
      <trkpt lat="45.36605" lon="4.522">
        <ele>1230.62</ele>
        <time>2017-02-26T09:10:55Z</time>
      </trkpt>
      <trkpt lat="45.36604" lon="4.52195">
        <ele>1229.66</ele>
        <time>2017-02-26T09:10:56Z</time>
      </trkpt>
      <trkpt lat="45.36606" lon="4.5219">
        <ele>1229.18</ele>
        <time>2017-02-26T09:10:57Z</time>
      </trkpt>
      <trkpt lat="45.36608" lon="4.52186">
        <ele>1228.7</ele>
        <time>2017-02-26T09:10:58Z</time>
      </trkpt>
      <trkpt lat="45.36611" lon="4.52183">
        <ele>1228.22</ele>
        <time>2017-02-26T09:10:59Z</time>
      </trkpt>
      <trkpt lat="45.36614" lon="4.52181">
        <ele>1227.74</ele>
        <time>2017-02-26T09:11:00Z</time>
      </trkpt>
      <trkpt lat="45.36618" lon="4.52178">
        <ele>1227.26</ele>
        <time>2017-02-26T09:11:01Z</time>
      </trkpt>
      <trkpt lat="45.36635" lon="4.52166">
        <ele>1226.3</ele>
        <time>2017-02-26T09:11:07Z</time>
      </trkpt>
      <trkpt lat="45.36637" lon="4.52164">
        <ele>1226.3</ele>
        <time>2017-02-26T09:11:08Z</time>
      </trkpt>
      <trkpt lat="45.36639" lon="4.52162">
        <ele>1226.3</ele>
        <time>2017-02-26T09:11:09Z</time>
      </trkpt>
      <trkpt lat="45.36642" lon="4.52162">
        <ele>1226.78</ele>
        <time>2017-02-26T09:11:12Z</time>
      </trkpt>
      <trkpt lat="45.36652" lon="4.52159">
        <ele>1224.38</ele>
        <time>2017-02-26T09:11:16Z</time>
      </trkpt>
      <trkpt lat="45.36658" lon="4.52152">
        <ele>1223.9</ele>
        <time>2017-02-26T09:11:19Z</time>
      </trkpt>
      <trkpt lat="45.36661" lon="4.52148">
        <ele>1221.97</ele>
        <time>2017-02-26T09:11:20Z</time>
      </trkpt>
      <trkpt lat="45.36665" lon="4.52147">
        <ele>1221.49</ele>
        <time>2017-02-26T09:11:21Z</time>
      </trkpt>
      <trkpt lat="45.36669" lon="4.52146">
        <ele>1221.01</ele>
        <time>2017-02-26T09:11:22Z</time>
      </trkpt>
      <trkpt lat="45.36677" lon="4.52144">
        <ele>1220.53</ele>
        <time>2017-02-26T09:11:24Z</time>
      </trkpt>
      <trkpt lat="45.36681" lon="4.52139">
        <ele>1220.05</ele>
        <time>2017-02-26T09:11:25Z</time>
      </trkpt>
      <trkpt lat="45.36685" lon="4.52132">
        <ele>1219.09</ele>
        <time>2017-02-26T09:11:26Z</time>
      </trkpt>
      <trkpt lat="45.36687" lon="4.52124">
        <ele>1217.65</ele>
        <time>2017-02-26T09:11:27Z</time>
      </trkpt>
      <trkpt lat="45.3669" lon="4.52115">
        <ele>1215.24</ele>
        <time>2017-02-26T09:11:28Z</time>
      </trkpt>
      <trkpt lat="45.36694" lon="4.52106">
        <ele>1214.28</ele>
        <time>2017-02-26T09:11:29Z</time>
      </trkpt>
      <trkpt lat="45.36697" lon="4.52097">
        <ele>1212.84</ele>
        <time>2017-02-26T09:11:30Z</time>
      </trkpt>
      <trkpt lat="45.36705" lon="4.52069">
        <ele>1209.48</ele>
        <time>2017-02-26T09:11:33Z</time>
      </trkpt>
      <trkpt lat="45.3671" lon="4.52057">
        <ele>1208.51</ele>
        <time>2017-02-26T09:11:35Z</time>
      </trkpt>
      <trkpt lat="45.36712" lon="4.52047">
        <ele>1207.07</ele>
        <time>2017-02-26T09:11:38Z</time>
      </trkpt>
      <trkpt lat="45.36713" lon="4.52047">
        <ele>1207.07</ele>
        <time>2017-02-26T09:11:48Z</time>
      </trkpt>
      <trkpt lat="45.36714" lon="4.52047">
        <ele>1207.07</ele>
        <time>2017-02-26T09:11:52Z</time>
      </trkpt>
      <trkpt lat="45.36713" lon="4.52042">
        <ele>1206.59</ele>
        <time>2017-02-26T09:12:03Z</time>
      </trkpt>
      <trkpt lat="45.36715" lon="4.52039">
        <ele>1206.11</ele>
        <time>2017-02-26T09:12:04Z</time>
      </trkpt>
      <trkpt lat="45.36717" lon="4.52034">
        <ele>1205.63</ele>
        <time>2017-02-26T09:12:05Z</time>
      </trkpt>
      <trkpt lat="45.36725" lon="4.52011">
        <ele>1201.79</ele>
        <time>2017-02-26T09:12:08Z</time>
      </trkpt>
      <trkpt lat="45.36735" lon="4.5198">
        <ele>1197.94</ele>
        <time>2017-02-26T09:12:11Z</time>
      </trkpt>
      <trkpt lat="45.36742" lon="4.51956">
        <ele>1194.58</ele>
        <time>2017-02-26T09:12:13Z</time>
      </trkpt>
      <trkpt lat="45.36749" lon="4.51933">
        <ele>1190.25</ele>
        <time>2017-02-26T09:12:15Z</time>
      </trkpt>
      <trkpt lat="45.36763" lon="4.51892">
        <ele>1186.88</ele>
        <time>2017-02-26T09:12:19Z</time>
      </trkpt>
      <trkpt lat="45.36769" lon="4.5187">
        <ele>1184.96</ele>
        <time>2017-02-26T09:12:22Z</time>
      </trkpt>
      <trkpt lat="45.36773" lon="4.51852">
        <ele>1184</ele>
        <time>2017-02-26T09:12:25Z</time>
      </trkpt>
      <trkpt lat="45.36786" lon="4.51809">
        <ele>1183.04</ele>
        <time>2017-02-26T09:12:36Z</time>
      </trkpt>
      <trkpt lat="45.36792" lon="4.51792">
        <ele>1182.08</ele>
        <time>2017-02-26T09:12:40Z</time>
      </trkpt>
      <trkpt lat="45.36795" lon="4.51787">
        <ele>1181.12</ele>
        <time>2017-02-26T09:12:41Z</time>
      </trkpt>
      <trkpt lat="45.36798" lon="4.51782">
        <ele>1181.12</ele>
        <time>2017-02-26T09:12:42Z</time>
      </trkpt>
      <trkpt lat="45.36801" lon="4.51777">
        <ele>1180.64</ele>
        <time>2017-02-26T09:12:43Z</time>
      </trkpt>
      <trkpt lat="45.36803" lon="4.51771">
        <ele>1180.16</ele>
        <time>2017-02-26T09:12:44Z</time>
      </trkpt>
      <trkpt lat="45.36819" lon="4.51733">
        <ele>1176.79</ele>
        <time>2017-02-26T09:12:49Z</time>
      </trkpt>
      <trkpt lat="45.36825" lon="4.51717">
        <ele>1176.31</ele>
        <time>2017-02-26T09:12:51Z</time>
      </trkpt>
      <trkpt lat="45.36831" lon="4.51702">
        <ele>1176.31</ele>
        <time>2017-02-26T09:12:53Z</time>
      </trkpt>
      <trkpt lat="45.36833" lon="4.51695">
        <ele>1176.31</ele>
        <time>2017-02-26T09:12:54Z</time>
      </trkpt>
      <trkpt lat="45.36836" lon="4.5168">
        <ele>1175.35</ele>
        <time>2017-02-26T09:12:56Z</time>
      </trkpt>
      <trkpt lat="45.36838" lon="4.51673">
        <ele>1174.87</ele>
        <time>2017-02-26T09:12:57Z</time>
      </trkpt>
      <trkpt lat="45.36841" lon="4.51666">
        <ele>1174.39</ele>
        <time>2017-02-26T09:12:58Z</time>
      </trkpt>
      <trkpt lat="45.36845" lon="4.51661">
        <ele>1174.39</ele>
        <time>2017-02-26T09:12:59Z</time>
      </trkpt>
      <trkpt lat="45.36847" lon="4.51656">
        <ele>1174.87</ele>
        <time>2017-02-26T09:13:00Z</time>
      </trkpt>
      <trkpt lat="45.36848" lon="4.51651">
        <ele>1174.87</ele>
        <time>2017-02-26T09:13:01Z</time>
      </trkpt>
      <trkpt lat="45.36848" lon="4.51647">
        <ele>1174.87</ele>
        <time>2017-02-26T09:13:02Z</time>
      </trkpt>
      <trkpt lat="45.36847" lon="4.51643">
        <ele>1174.87</ele>
        <time>2017-02-26T09:13:03Z</time>
      </trkpt>
      <trkpt lat="45.36844" lon="4.51641">
        <ele>1175.35</ele>
        <time>2017-02-26T09:13:04Z</time>
      </trkpt>
      <trkpt lat="45.36842" lon="4.51639">
        <ele>1175.35</ele>
        <time>2017-02-26T09:13:05Z</time>
      </trkpt>
      <trkpt lat="45.36841" lon="4.51638">
        <ele>1175.35</ele>
        <time>2017-02-26T09:13:06Z</time>
      </trkpt>
      <trkpt lat="45.36841" lon="4.51636">
        <ele>1175.35</ele>
        <time>2017-02-26T09:13:07Z</time>
      </trkpt>
      <trkpt lat="45.3684" lon="4.51633">
        <ele>1174.87</ele>
        <time>2017-02-26T09:13:08Z</time>
      </trkpt>
      <trkpt lat="45.36839" lon="4.51629">
        <ele>1174.39</ele>
        <time>2017-02-26T09:13:09Z</time>
      </trkpt>
      <trkpt lat="45.36832" lon="4.51595">
        <ele>1171.02</ele>
        <time>2017-02-26T09:13:14Z</time>
      </trkpt>
      <trkpt lat="45.36824" lon="4.51559">
        <ele>1166.7</ele>
        <time>2017-02-26T09:13:18Z</time>
      </trkpt>
      <trkpt lat="45.36822" lon="4.5155">
        <ele>1166.22</ele>
        <time>2017-02-26T09:13:19Z</time>
      </trkpt>
      <trkpt lat="45.3682" lon="4.51541">
        <ele>1165.74</ele>
        <time>2017-02-26T09:13:20Z</time>
      </trkpt>
      <trkpt lat="45.36818" lon="4.51531">
        <ele>1165.26</ele>
        <time>2017-02-26T09:13:21Z</time>
      </trkpt>
      <trkpt lat="45.36816" lon="4.51521">
        <ele>1164.29</ele>
        <time>2017-02-26T09:13:22Z</time>
      </trkpt>
      <trkpt lat="45.36814" lon="4.51511">
        <ele>1163.33</ele>
        <time>2017-02-26T09:13:23Z</time>
      </trkpt>
      <trkpt lat="45.36809" lon="4.51479">
        <ele>1159.97</ele>
        <time>2017-02-26T09:13:26Z</time>
      </trkpt>
      <trkpt lat="45.36804" lon="4.51445">
        <ele>1156.12</ele>
        <time>2017-02-26T09:13:29Z</time>
      </trkpt>
      <trkpt lat="45.36801" lon="4.514">
        <ele>1152.76</ele>
        <time>2017-02-26T09:13:33Z</time>
      </trkpt>
      <trkpt lat="45.368" lon="4.51381">
        <ele>1151.8</ele>
        <time>2017-02-26T09:13:35Z</time>
      </trkpt>
      <trkpt lat="45.36799" lon="4.51364">
        <ele>1150.84</ele>
        <time>2017-02-26T09:13:37Z</time>
      </trkpt>
      <trkpt lat="45.368" lon="4.51337">
        <ele>1149.39</ele>
        <time>2017-02-26T09:13:40Z</time>
      </trkpt>
      <trkpt lat="45.368" lon="4.51328">
        <ele>1148.91</ele>
        <time>2017-02-26T09:13:41Z</time>
      </trkpt>
      <trkpt lat="45.36799" lon="4.51319">
        <ele>1148.43</ele>
        <time>2017-02-26T09:13:42Z</time>
      </trkpt>
      <trkpt lat="45.36797" lon="4.5131">
        <ele>1148.43</ele>
        <time>2017-02-26T09:13:43Z</time>
      </trkpt>
      <trkpt lat="45.36793" lon="4.51303">
        <ele>1147.95</ele>
        <time>2017-02-26T09:13:44Z</time>
      </trkpt>
      <trkpt lat="45.36789" lon="4.51295">
        <ele>1147.47</ele>
        <time>2017-02-26T09:13:45Z</time>
      </trkpt>
      <trkpt lat="45.36778" lon="4.51272">
        <ele>1145.55</ele>
        <time>2017-02-26T09:13:48Z</time>
      </trkpt>
      <trkpt lat="45.36774" lon="4.51263">
        <ele>1145.07</ele>
        <time>2017-02-26T09:13:49Z</time>
      </trkpt>
      <trkpt lat="45.3677" lon="4.51255">
        <ele>1144.59</ele>
        <time>2017-02-26T09:13:50Z</time>
      </trkpt>
      <trkpt lat="45.36746" lon="4.51213">
        <ele>1141.22</ele>
        <time>2017-02-26T09:13:55Z</time>
      </trkpt>
      <trkpt lat="45.36741" lon="4.51205">
        <ele>1140.74</ele>
        <time>2017-02-26T09:13:56Z</time>
      </trkpt>
      <trkpt lat="45.3673" lon="4.5119">
        <ele>1139.78</ele>
        <time>2017-02-26T09:13:58Z</time>
      </trkpt>
      <trkpt lat="45.36648" lon="4.51091">
        <ele>1136.9</ele>
        <time>2017-02-26T09:14:13Z</time>
      </trkpt>
      <trkpt lat="45.36586" lon="4.51018">
        <ele>1134.01</ele>
        <time>2017-02-26T09:14:25Z</time>
      </trkpt>
      <trkpt lat="45.36576" lon="4.51005">
        <ele>1133.05</ele>
        <time>2017-02-26T09:14:27Z</time>
      </trkpt>
      <trkpt lat="45.36546" lon="4.50957">
        <ele>1129.69</ele>
        <time>2017-02-26T09:14:33Z</time>
      </trkpt>
      <trkpt lat="45.36533" lon="4.50927">
        <ele>1128.24</ele>
        <time>2017-02-26T09:14:36Z</time>
      </trkpt>
      <trkpt lat="45.36509" lon="4.50878">
        <ele>1124.88</ele>
        <time>2017-02-26T09:14:41Z</time>
      </trkpt>
      <trkpt lat="45.36492" lon="4.50838">
        <ele>1122</ele>
        <time>2017-02-26T09:14:45Z</time>
      </trkpt>
      <trkpt lat="45.36491" lon="4.50827">
        <ele>1121.52</ele>
        <time>2017-02-26T09:14:46Z</time>
      </trkpt>
      <trkpt lat="45.36491" lon="4.50816">
        <ele>1121.03</ele>
        <time>2017-02-26T09:14:47Z</time>
      </trkpt>
      <trkpt lat="45.36492" lon="4.50805">
        <ele>1120.07</ele>
        <time>2017-02-26T09:14:48Z</time>
      </trkpt>
      <trkpt lat="45.36495" lon="4.50794">
        <ele>1120.07</ele>
        <time>2017-02-26T09:14:49Z</time>
      </trkpt>
      <trkpt lat="45.36499" lon="4.50785">
        <ele>1119.59</ele>
        <time>2017-02-26T09:14:50Z</time>
      </trkpt>
      <trkpt lat="45.36503" lon="4.50776">
        <ele>1119.11</ele>
        <time>2017-02-26T09:14:51Z</time>
      </trkpt>
      <trkpt lat="45.36509" lon="4.50768">
        <ele>1118.63</ele>
        <time>2017-02-26T09:14:52Z</time>
      </trkpt>
      <trkpt lat="45.36514" lon="4.50761">
        <ele>1118.15</ele>
        <time>2017-02-26T09:14:53Z</time>
      </trkpt>
      <trkpt lat="45.36527" lon="4.50743">
        <ele>1117.67</ele>
        <time>2017-02-26T09:14:56Z</time>
      </trkpt>
      <trkpt lat="45.36563" lon="4.50703">
        <ele>1114.79</ele>
        <time>2017-02-26T09:15:03Z</time>
      </trkpt>
      <trkpt lat="45.36573" lon="4.50694">
        <ele>1114.31</ele>
        <time>2017-02-26T09:15:05Z</time>
      </trkpt>
      <trkpt lat="45.36578" lon="4.50691">
        <ele>1113.82</ele>
        <time>2017-02-26T09:15:06Z</time>
      </trkpt>
      <trkpt lat="45.36583" lon="4.50688">
        <ele>1113.82</ele>
        <time>2017-02-26T09:15:07Z</time>
      </trkpt>
      <trkpt lat="45.36589" lon="4.50684">
        <ele>1112.86</ele>
        <time>2017-02-26T09:15:08Z</time>
      </trkpt>
      <trkpt lat="45.36594" lon="4.50681">
        <ele>1112.38</ele>
        <time>2017-02-26T09:15:09Z</time>
      </trkpt>
      <trkpt lat="45.366" lon="4.50679">
        <ele>1111.9</ele>
        <time>2017-02-26T09:15:10Z</time>
      </trkpt>
      <trkpt lat="45.36604" lon="4.50679">
        <ele>1111.9</ele>
        <time>2017-02-26T09:15:11Z</time>
      </trkpt>
      <trkpt lat="45.36607" lon="4.5068">
        <ele>1112.38</ele>
        <time>2017-02-26T09:15:12Z</time>
      </trkpt>
      <trkpt lat="45.36609" lon="4.5068">
        <ele>1112.38</ele>
        <time>2017-02-26T09:15:13Z</time>
      </trkpt>
      <trkpt lat="45.3661" lon="4.50679">
        <ele>1112.38</ele>
        <time>2017-02-26T09:15:14Z</time>
      </trkpt>
      <trkpt lat="45.36609" lon="4.50678">
        <ele>1112.38</ele>
        <time>2017-02-26T09:15:15Z</time>
      </trkpt>
      <trkpt lat="45.36608" lon="4.50678">
        <ele>1112.38</ele>
        <time>2017-02-26T09:15:16Z</time>
      </trkpt>
      <trkpt lat="45.36607" lon="4.50678">
        <ele>1112.38</ele>
        <time>2017-02-26T09:15:17Z</time>
      </trkpt>
      <trkpt lat="45.36601" lon="4.5068">
        <ele>1112.86</ele>
        <time>2017-02-26T09:15:22Z</time>
      </trkpt>
      <trkpt lat="45.36599" lon="4.50679">
        <ele>1112.86</ele>
        <time>2017-02-26T09:15:23Z</time>
      </trkpt>
      <trkpt lat="45.36573" lon="4.50688">
        <ele>1114.31</ele>
        <time>2017-02-26T09:15:39Z</time>
      </trkpt>
      <trkpt lat="45.36542" lon="4.50717">
        <ele>1116.71</ele>
        <time>2017-02-26T09:15:55Z</time>
      </trkpt>
      <trkpt lat="45.36532" lon="4.50733">
        <ele>1121.52</ele>
        <time>2017-02-26T09:16:02Z</time>
      </trkpt>
      <trkpt lat="45.3653" lon="4.50734">
        <ele>1119.11</ele>
        <time>2017-02-26T09:16:03Z</time>
      </trkpt>
      <trkpt lat="45.36527" lon="4.50739">
        <ele>1118.15</ele>
        <time>2017-02-26T09:16:05Z</time>
      </trkpt>
      <trkpt lat="45.36501" lon="4.50781">
        <ele>1121.03</ele>
        <time>2017-02-26T09:16:21Z</time>
      </trkpt>
      <trkpt lat="45.36491" lon="4.50831">
        <ele>1123.92</ele>
        <time>2017-02-26T09:16:36Z</time>
      </trkpt>
      <trkpt lat="45.36493" lon="4.50838">
        <ele>1123.92</ele>
        <time>2017-02-26T09:16:38Z</time>
      </trkpt>
      <trkpt lat="45.36497" lon="4.50866">
        <ele>1125.36</ele>
        <time>2017-02-26T09:16:50Z</time>
      </trkpt>
      <trkpt lat="45.36494" lon="4.50873">
        <ele>1123.92</ele>
        <time>2017-02-26T09:16:52Z</time>
      </trkpt>
      <trkpt lat="45.36491" lon="4.50875">
        <ele>1123.92</ele>
        <time>2017-02-26T09:16:53Z</time>
      </trkpt>
      <trkpt lat="45.36488" lon="4.50875">
        <ele>1123.92</ele>
        <time>2017-02-26T09:16:54Z</time>
      </trkpt>
      <trkpt lat="45.36485" lon="4.50874">
        <ele>1123.92</ele>
        <time>2017-02-26T09:16:55Z</time>
      </trkpt>
      <trkpt lat="45.36481" lon="4.50872">
        <ele>1123.44</ele>
        <time>2017-02-26T09:16:56Z</time>
      </trkpt>
      <trkpt lat="45.36438" lon="4.5085">
        <ele>1120.07</ele>
        <time>2017-02-26T09:17:05Z</time>
      </trkpt>
      <trkpt lat="45.36433" lon="4.50845">
        <ele>1119.11</ele>
        <time>2017-02-26T09:17:06Z</time>
      </trkpt>
      <trkpt lat="45.36428" lon="4.50839">
        <ele>1118.15</ele>
        <time>2017-02-26T09:17:07Z</time>
      </trkpt>
      <trkpt lat="45.36407" lon="4.50803">
        <ele>1117.19</ele>
        <time>2017-02-26T09:17:12Z</time>
      </trkpt>
      <trkpt lat="45.36405" lon="4.50794">
        <ele>1117.19</ele>
        <time>2017-02-26T09:17:13Z</time>
      </trkpt>
      <trkpt lat="45.36405" lon="4.50786">
        <ele>1116.71</ele>
        <time>2017-02-26T09:17:14Z</time>
      </trkpt>
      <trkpt lat="45.36406" lon="4.50778">
        <ele>1116.71</ele>
        <time>2017-02-26T09:17:15Z</time>
      </trkpt>
      <trkpt lat="45.36408" lon="4.5077">
        <ele>1116.23</ele>
        <time>2017-02-26T09:17:16Z</time>
      </trkpt>
      <trkpt lat="45.36411" lon="4.50762">
        <ele>1115.75</ele>
        <time>2017-02-26T09:17:17Z</time>
      </trkpt>
      <trkpt lat="45.36413" lon="4.50754">
        <ele>1114.79</ele>
        <time>2017-02-26T09:17:18Z</time>
      </trkpt>
      <trkpt lat="45.36414" lon="4.50745">
        <ele>1114.31</ele>
        <time>2017-02-26T09:17:19Z</time>
      </trkpt>
      <trkpt lat="45.36414" lon="4.50735">
        <ele>1112.86</ele>
        <time>2017-02-26T09:17:20Z</time>
      </trkpt>
      <trkpt lat="45.36415" lon="4.50724">
        <ele>1111.42</ele>
        <time>2017-02-26T09:17:21Z</time>
      </trkpt>
      <trkpt lat="45.36417" lon="4.50702">
        <ele>1109.5</ele>
        <time>2017-02-26T09:17:23Z</time>
      </trkpt>
      <trkpt lat="45.36419" lon="4.50692">
        <ele>1108.54</ele>
        <time>2017-02-26T09:17:24Z</time>
      </trkpt>
      <trkpt lat="45.36422" lon="4.50683">
        <ele>1108.06</ele>
        <time>2017-02-26T09:17:25Z</time>
      </trkpt>
      <trkpt lat="45.36426" lon="4.50675">
        <ele>1107.1</ele>
        <time>2017-02-26T09:17:26Z</time>
      </trkpt>
      <trkpt lat="45.36431" lon="4.50667">
        <ele>1106.61</ele>
        <time>2017-02-26T09:17:27Z</time>
      </trkpt>
      <trkpt lat="45.36435" lon="4.5066">
        <ele>1106.13</ele>
        <time>2017-02-26T09:17:28Z</time>
      </trkpt>
      <trkpt lat="45.36439" lon="4.50654">
        <ele>1106.13</ele>
        <time>2017-02-26T09:17:29Z</time>
      </trkpt>
      <trkpt lat="45.36442" lon="4.50649">
        <ele>1106.13</ele>
        <time>2017-02-26T09:17:30Z</time>
      </trkpt>
      <trkpt lat="45.36444" lon="4.50644">
        <ele>1105.65</ele>
        <time>2017-02-26T09:17:31Z</time>
      </trkpt>
      <trkpt lat="45.36446" lon="4.50639">
        <ele>1105.65</ele>
        <time>2017-02-26T09:17:39Z</time>
      </trkpt>
      <trkpt lat="45.36446" lon="4.50641">
        <ele>1105.65</ele>
        <time>2017-02-26T09:17:46Z</time>
      </trkpt>
      <trkpt lat="45.36442" lon="4.50649">
        <ele>1105.65</ele>
        <time>2017-02-26T09:17:51Z</time>
      </trkpt>
      <trkpt lat="45.36441" lon="4.50651">
        <ele>1105.65</ele>
        <time>2017-02-26T09:17:52Z</time>
      </trkpt>
      <trkpt lat="45.36439" lon="4.50653">
        <ele>1105.65</ele>
        <time>2017-02-26T09:17:53Z</time>
      </trkpt>
      <trkpt lat="45.36438" lon="4.50656">
        <ele>1106.61</ele>
        <time>2017-02-26T09:17:54Z</time>
      </trkpt>
      <trkpt lat="45.36437" lon="4.50659">
        <ele>1106.13</ele>
        <time>2017-02-26T09:17:55Z</time>
      </trkpt>
      <trkpt lat="45.36419" lon="4.50689">
        <ele>1108.54</ele>
        <time>2017-02-26T09:18:07Z</time>
      </trkpt>
      <trkpt lat="45.36407" lon="4.50699">
        <ele>1108.06</ele>
        <time>2017-02-26T09:18:12Z</time>
      </trkpt>
      <trkpt lat="45.36396" lon="4.50713">
        <ele>1106.13</ele>
        <time>2017-02-26T09:18:15Z</time>
      </trkpt>
      <trkpt lat="45.36377" lon="4.50732">
        <ele>1104.21</ele>
        <time>2017-02-26T09:18:19Z</time>
      </trkpt>
      <trkpt lat="45.36372" lon="4.50736">
        <ele>1103.73</ele>
        <time>2017-02-26T09:18:20Z</time>
      </trkpt>
      <trkpt lat="45.36366" lon="4.50738">
        <ele>1103.73</ele>
        <time>2017-02-26T09:18:21Z</time>
      </trkpt>
      <trkpt lat="45.36345" lon="4.50756">
        <ele>1100.37</ele>
        <time>2017-02-26T09:18:25Z</time>
      </trkpt>
      <trkpt lat="45.36337" lon="4.50765">
        <ele>1100.85</ele>
        <time>2017-02-26T09:18:27Z</time>
      </trkpt>
      <trkpt lat="45.36325" lon="4.50778">
        <ele>1100.85</ele>
        <time>2017-02-26T09:18:33Z</time>
      </trkpt>
      <trkpt lat="45.36324" lon="4.50777">
        <ele>1100.85</ele>
        <time>2017-02-26T09:18:34Z</time>
      </trkpt>
      <trkpt lat="45.36321" lon="4.50776">
        <ele>1101.33</ele>
        <time>2017-02-26T09:18:36Z</time>
      </trkpt>
      <trkpt lat="45.3632" lon="4.50775">
        <ele>1101.81</ele>
        <time>2017-02-26T09:18:37Z</time>
      </trkpt>
      <trkpt lat="45.36319" lon="4.50774">
        <ele>1101.81</ele>
        <time>2017-02-26T09:18:38Z</time>
      </trkpt>
      <trkpt lat="45.36318" lon="4.50772">
        <ele>1101.81</ele>
        <time>2017-02-26T09:18:39Z</time>
      </trkpt>
      <trkpt lat="45.36316" lon="4.50771">
        <ele>1102.29</ele>
        <time>2017-02-26T09:18:40Z</time>
      </trkpt>
      <trkpt lat="45.36315" lon="4.5077">
        <ele>1102.29</ele>
        <time>2017-02-26T09:18:41Z</time>
      </trkpt>
      <trkpt lat="45.36309" lon="4.50765">
        <ele>1104.21</ele>
        <time>2017-02-26T09:18:47Z</time>
      </trkpt>
      <trkpt lat="45.36309" lon="4.50763">
        <ele>1104.21</ele>
        <time>2017-02-26T09:18:48Z</time>
      </trkpt>
      <trkpt lat="45.36308" lon="4.50761">
        <ele>1104.69</ele>
        <time>2017-02-26T09:18:49Z</time>
      </trkpt>
      <trkpt lat="45.36307" lon="4.5076">
        <ele>1104.69</ele>
        <time>2017-02-26T09:18:50Z</time>
      </trkpt>
      <trkpt lat="45.36307" lon="4.50758">
        <ele>1105.17</ele>
        <time>2017-02-26T09:18:51Z</time>
      </trkpt>
      <trkpt lat="45.36304" lon="4.5075">
        <ele>1106.13</ele>
        <time>2017-02-26T09:18:55Z</time>
      </trkpt>
      <trkpt lat="45.36302" lon="4.50748">
        <ele>1106.13</ele>
        <time>2017-02-26T09:18:56Z</time>
      </trkpt>
      <trkpt lat="45.36299" lon="4.50744">
        <ele>1107.1</ele>
        <time>2017-02-26T09:18:59Z</time>
      </trkpt>
      <trkpt lat="45.36299" lon="4.50741">
        <ele>1107.1</ele>
        <time>2017-02-26T09:19:00Z</time>
      </trkpt>
      <trkpt lat="45.36299" lon="4.50739">
        <ele>1107.58</ele>
        <time>2017-02-26T09:19:01Z</time>
      </trkpt>
      <trkpt lat="45.36298" lon="4.50737">
        <ele>1107.58</ele>
        <time>2017-02-26T09:19:02Z</time>
      </trkpt>
      <trkpt lat="45.36298" lon="4.50735">
        <ele>1107.58</ele>
        <time>2017-02-26T09:19:03Z</time>
      </trkpt>
      <trkpt lat="45.36295" lon="4.50729">
        <ele>1108.06</ele>
        <time>2017-02-26T09:19:06Z</time>
      </trkpt>
      <trkpt lat="45.36291" lon="4.50707">
        <ele>1109.5</ele>
        <time>2017-02-26T09:19:15Z</time>
      </trkpt>
      <trkpt lat="45.36289" lon="4.50703">
        <ele>1109.98</ele>
        <time>2017-02-26T09:19:17Z</time>
      </trkpt>
      <trkpt lat="45.36288" lon="4.50701">
        <ele>1109.98</ele>
        <time>2017-02-26T09:19:18Z</time>
      </trkpt>
      <trkpt lat="45.36287" lon="4.50698">
        <ele>1110.46</ele>
        <time>2017-02-26T09:19:19Z</time>
      </trkpt>
      <trkpt lat="45.36286" lon="4.50696">
        <ele>1110.46</ele>
        <time>2017-02-26T09:19:20Z</time>
      </trkpt>
      <trkpt lat="45.36285" lon="4.50694">
        <ele>1110.94</ele>
        <time>2017-02-26T09:19:21Z</time>
      </trkpt>
      <trkpt lat="45.36284" lon="4.50692">
        <ele>1110.94</ele>
        <time>2017-02-26T09:19:22Z</time>
      </trkpt>
      <trkpt lat="45.36283" lon="4.50691">
        <ele>1110.94</ele>
        <time>2017-02-26T09:19:23Z</time>
      </trkpt>
      <trkpt lat="45.36282" lon="4.50689">
        <ele>1111.42</ele>
        <time>2017-02-26T09:19:24Z</time>
      </trkpt>
      <trkpt lat="45.36281" lon="4.50688">
        <ele>1111.9</ele>
        <time>2017-02-26T09:19:25Z</time>
      </trkpt>
      <trkpt lat="45.36271" lon="4.50669">
        <ele>1113.82</ele>
        <time>2017-02-26T09:19:36Z</time>
      </trkpt>
      <trkpt lat="45.3627" lon="4.50667">
        <ele>1113.82</ele>
        <time>2017-02-26T09:19:37Z</time>
      </trkpt>
      <trkpt lat="45.3627" lon="4.50665">
        <ele>1114.31</ele>
        <time>2017-02-26T09:19:38Z</time>
      </trkpt>
      <trkpt lat="45.36269" lon="4.50663">
        <ele>1114.31</ele>
        <time>2017-02-26T09:19:39Z</time>
      </trkpt>
      <trkpt lat="45.36269" lon="4.5066">
        <ele>1114.79</ele>
        <time>2017-02-26T09:19:40Z</time>
      </trkpt>
      <trkpt lat="45.36269" lon="4.50658">
        <ele>1114.79</ele>
        <time>2017-02-26T09:19:41Z</time>
      </trkpt>
      <trkpt lat="45.36268" lon="4.50656">
        <ele>1114.79</ele>
        <time>2017-02-26T09:19:42Z</time>
      </trkpt>
      <trkpt lat="45.36267" lon="4.50654">
        <ele>1115.27</ele>
        <time>2017-02-26T09:19:43Z</time>
      </trkpt>
      <trkpt lat="45.36266" lon="4.50652">
        <ele>1115.27</ele>
        <time>2017-02-26T09:19:44Z</time>
      </trkpt>
      <trkpt lat="45.36266" lon="4.50649">
        <ele>1115.75</ele>
        <time>2017-02-26T09:19:45Z</time>
      </trkpt>
      <trkpt lat="45.36265" lon="4.50633">
        <ele>1116.71</ele>
        <time>2017-02-26T09:19:52Z</time>
      </trkpt>
      <trkpt lat="45.36264" lon="4.50631">
        <ele>1116.71</ele>
        <time>2017-02-26T09:19:53Z</time>
      </trkpt>
      <trkpt lat="45.36263" lon="4.50629">
        <ele>1116.71</ele>
        <time>2017-02-26T09:19:54Z</time>
      </trkpt>
      <trkpt lat="45.36263" lon="4.50627">
        <ele>1117.19</ele>
        <time>2017-02-26T09:19:55Z</time>
      </trkpt>
      <trkpt lat="45.36262" lon="4.50624">
        <ele>1116.71</ele>
        <time>2017-02-26T09:19:56Z</time>
      </trkpt>
      <trkpt lat="45.36261" lon="4.50622">
        <ele>1116.71</ele>
        <time>2017-02-26T09:19:57Z</time>
      </trkpt>
      <trkpt lat="45.36258" lon="4.5062">
        <ele>1117.67</ele>
        <time>2017-02-26T09:20:02Z</time>
      </trkpt>
      <trkpt lat="45.36258" lon="4.50623">
        <ele>1117.67</ele>
        <time>2017-02-26T09:20:04Z</time>
      </trkpt>
      <trkpt lat="45.36258" lon="4.50624">
        <ele>1117.67</ele>
        <time>2017-02-26T09:20:05Z</time>
      </trkpt>
      <trkpt lat="45.36258" lon="4.50626">
        <ele>1117.67</ele>
        <time>2017-02-26T09:20:06Z</time>
      </trkpt>
      <trkpt lat="45.36258" lon="4.50628">
        <ele>1117.67</ele>
        <time>2017-02-26T09:20:07Z</time>
      </trkpt>
      <trkpt lat="45.36257" lon="4.5063">
        <ele>1117.67</ele>
        <time>2017-02-26T09:20:08Z</time>
      </trkpt>
      <trkpt lat="45.36256" lon="4.50632">
        <ele>1118.15</ele>
        <time>2017-02-26T09:20:09Z</time>
      </trkpt>
      <trkpt lat="45.36255" lon="4.50634">
        <ele>1118.15</ele>
        <time>2017-02-26T09:20:10Z</time>
      </trkpt>
      <trkpt lat="45.36255" lon="4.50641">
        <ele>1118.15</ele>
        <time>2017-02-26T09:20:16Z</time>
      </trkpt>
      <trkpt lat="45.36255" lon="4.50643">
        <ele>1118.15</ele>
        <time>2017-02-26T09:20:17Z</time>
      </trkpt>
      <trkpt lat="45.36254" lon="4.50645">
        <ele>1118.63</ele>
        <time>2017-02-26T09:20:18Z</time>
      </trkpt>
      <trkpt lat="45.36254" lon="4.50649">
        <ele>1118.63</ele>
        <time>2017-02-26T09:20:19Z</time>
      </trkpt>
      <trkpt lat="45.36254" lon="4.50651">
        <ele>1118.63</ele>
        <time>2017-02-26T09:20:20Z</time>
      </trkpt>
      <trkpt lat="45.36253" lon="4.50654">
        <ele>1118.63</ele>
        <time>2017-02-26T09:20:22Z</time>
      </trkpt>
      <trkpt lat="45.36252" lon="4.50657">
        <ele>1119.11</ele>
        <time>2017-02-26T09:20:23Z</time>
      </trkpt>
      <trkpt lat="45.36252" lon="4.5066">
        <ele>1119.11</ele>
        <time>2017-02-26T09:20:24Z</time>
      </trkpt>
      <trkpt lat="45.36251" lon="4.50663">
        <ele>1119.11</ele>
        <time>2017-02-26T09:20:25Z</time>
      </trkpt>
      <trkpt lat="45.36251" lon="4.50666">
        <ele>1119.11</ele>
        <time>2017-02-26T09:20:26Z</time>
      </trkpt>
      <trkpt lat="45.3625" lon="4.50668">
        <ele>1119.11</ele>
        <time>2017-02-26T09:20:27Z</time>
      </trkpt>
      <trkpt lat="45.36249" lon="4.50671">
        <ele>1119.59</ele>
        <time>2017-02-26T09:20:28Z</time>
      </trkpt>
      <trkpt lat="45.36248" lon="4.50678">
        <ele>1120.07</ele>
        <time>2017-02-26T09:20:33Z</time>
      </trkpt>
      <trkpt lat="45.36246" lon="4.50681">
        <ele>1120.07</ele>
        <time>2017-02-26T09:20:35Z</time>
      </trkpt>
      <trkpt lat="45.36246" lon="4.50683">
        <ele>1120.55</ele>
        <time>2017-02-26T09:20:36Z</time>
      </trkpt>
      <trkpt lat="45.36246" lon="4.50684">
        <ele>1120.55</ele>
        <time>2017-02-26T09:20:37Z</time>
      </trkpt>
      <trkpt lat="45.36246" lon="4.50686">
        <ele>1120.55</ele>
        <time>2017-02-26T09:20:38Z</time>
      </trkpt>
      <trkpt lat="45.36246" lon="4.50697">
        <ele>1121.52</ele>
        <time>2017-02-26T09:20:42Z</time>
      </trkpt>
      <trkpt lat="45.36245" lon="4.50701">
        <ele>1121.03</ele>
        <time>2017-02-26T09:20:43Z</time>
      </trkpt>
      <trkpt lat="45.36243" lon="4.50707">
        <ele>1121.52</ele>
        <time>2017-02-26T09:20:44Z</time>
      </trkpt>
      <trkpt lat="45.3624" lon="4.50721">
        <ele>1122</ele>
        <time>2017-02-26T09:20:48Z</time>
      </trkpt>
      <trkpt lat="45.36241" lon="4.50724">
        <ele>1122.48</ele>
        <time>2017-02-26T09:20:49Z</time>
      </trkpt>
      <trkpt lat="45.36242" lon="4.50742">
        <ele>1122.96</ele>
        <time>2017-02-26T09:20:55Z</time>
      </trkpt>
      <trkpt lat="45.36242" lon="4.50745">
        <ele>1122.96</ele>
        <time>2017-02-26T09:20:56Z</time>
      </trkpt>
      <trkpt lat="45.36242" lon="4.50747">
        <ele>1123.44</ele>
        <time>2017-02-26T09:20:57Z</time>
      </trkpt>
      <trkpt lat="45.36242" lon="4.5075">
        <ele>1123.44</ele>
        <time>2017-02-26T09:20:58Z</time>
      </trkpt>
      <trkpt lat="45.36242" lon="4.50752">
        <ele>1123.44</ele>
        <time>2017-02-26T09:20:59Z</time>
      </trkpt>
      <trkpt lat="45.36241" lon="4.50754">
        <ele>1123.92</ele>
        <time>2017-02-26T09:21:00Z</time>
      </trkpt>
      <trkpt lat="45.36241" lon="4.50756">
        <ele>1123.92</ele>
        <time>2017-02-26T09:21:01Z</time>
      </trkpt>
      <trkpt lat="45.36241" lon="4.50758">
        <ele>1123.92</ele>
        <time>2017-02-26T09:21:02Z</time>
      </trkpt>
      <trkpt lat="45.36242" lon="4.50761">
        <ele>1122.96</ele>
        <time>2017-02-26T09:21:03Z</time>
      </trkpt>
      <trkpt lat="45.36242" lon="4.50763">
        <ele>1124.88</ele>
        <time>2017-02-26T09:21:04Z</time>
      </trkpt>
      <trkpt lat="45.36243" lon="4.50769">
        <ele>1123.92</ele>
        <time>2017-02-26T09:21:08Z</time>
      </trkpt>
      <trkpt lat="45.36246" lon="4.50783">
        <ele>1124.4</ele>
        <time>2017-02-26T09:21:20Z</time>
      </trkpt>
      <trkpt lat="45.36251" lon="4.50794">
        <ele>1123.44</ele>
        <time>2017-02-26T09:21:26Z</time>
      </trkpt>
      <trkpt lat="45.36253" lon="4.50797">
        <ele>1123.44</ele>
        <time>2017-02-26T09:21:27Z</time>
      </trkpt>
      <trkpt lat="45.36254" lon="4.508">
        <ele>1123.44</ele>
        <time>2017-02-26T09:21:28Z</time>
      </trkpt>
      <trkpt lat="45.36256" lon="4.50802">
        <ele>1123.44</ele>
        <time>2017-02-26T09:21:29Z</time>
      </trkpt>
      <trkpt lat="45.36257" lon="4.50805">
        <ele>1123.44</ele>
        <time>2017-02-26T09:21:30Z</time>
      </trkpt>
      <trkpt lat="45.36258" lon="4.50808">
        <ele>1123.44</ele>
        <time>2017-02-26T09:21:31Z</time>
      </trkpt>
      <trkpt lat="45.36259" lon="4.50811">
        <ele>1123.44</ele>
        <time>2017-02-26T09:21:32Z</time>
      </trkpt>
      <trkpt lat="45.3626" lon="4.50813">
        <ele>1123.44</ele>
        <time>2017-02-26T09:21:33Z</time>
      </trkpt>
      <trkpt lat="45.36271" lon="4.50839">
        <ele>1124.88</ele>
        <time>2017-02-26T09:21:45Z</time>
      </trkpt>
      <trkpt lat="45.36274" lon="4.50845">
        <ele>1125.36</ele>
        <time>2017-02-26T09:21:48Z</time>
      </trkpt>
      <trkpt lat="45.36275" lon="4.50847">
        <ele>1125.36</ele>
        <time>2017-02-26T09:21:49Z</time>
      </trkpt>
      <trkpt lat="45.36276" lon="4.50849">
        <ele>1125.36</ele>
        <time>2017-02-26T09:21:50Z</time>
      </trkpt>
      <trkpt lat="45.36282" lon="4.50856">
        <ele>1125.84</ele>
        <time>2017-02-26T09:21:54Z</time>
      </trkpt>
      <trkpt lat="45.36283" lon="4.50858">
        <ele>1125.84</ele>
        <time>2017-02-26T09:21:55Z</time>
      </trkpt>
      <trkpt lat="45.36284" lon="4.5086">
        <ele>1126.32</ele>
        <time>2017-02-26T09:21:56Z</time>
      </trkpt>
      <trkpt lat="45.36285" lon="4.50863">
        <ele>1126.32</ele>
        <time>2017-02-26T09:21:57Z</time>
      </trkpt>
      <trkpt lat="45.36286" lon="4.50864">
        <ele>1126.32</ele>
        <time>2017-02-26T09:21:58Z</time>
      </trkpt>
      <trkpt lat="45.36288" lon="4.50866">
        <ele>1126.8</ele>
        <time>2017-02-26T09:21:59Z</time>
      </trkpt>
      <trkpt lat="45.36289" lon="4.50868">
        <ele>1126.8</ele>
        <time>2017-02-26T09:22:00Z</time>
      </trkpt>
      <trkpt lat="45.36293" lon="4.50875">
        <ele>1127.76</ele>
        <time>2017-02-26T09:22:04Z</time>
      </trkpt>
      <trkpt lat="45.36294" lon="4.50877">
        <ele>1127.76</ele>
        <time>2017-02-26T09:22:05Z</time>
      </trkpt>
      <trkpt lat="45.3631" lon="4.50902">
        <ele>1129.21</ele>
        <time>2017-02-26T09:22:18Z</time>
      </trkpt>
      <trkpt lat="45.36329" lon="4.50919">
        <ele>1129.21</ele>
        <time>2017-02-26T09:22:29Z</time>
      </trkpt>
      <trkpt lat="45.3634" lon="4.50926">
        <ele>1129.21</ele>
        <time>2017-02-26T09:22:34Z</time>
      </trkpt>
      <trkpt lat="45.36342" lon="4.50928">
        <ele>1129.21</ele>
        <time>2017-02-26T09:22:35Z</time>
      </trkpt>
      <trkpt lat="45.36344" lon="4.50929">
        <ele>1129.21</ele>
        <time>2017-02-26T09:22:36Z</time>
      </trkpt>
      <trkpt lat="45.36372" lon="4.5095">
        <ele>1128.73</ele>
        <time>2017-02-26T09:22:46Z</time>
      </trkpt>
      <trkpt lat="45.36386" lon="4.5096">
        <ele>1128.73</ele>
        <time>2017-02-26T09:22:51Z</time>
      </trkpt>
      <trkpt lat="45.36388" lon="4.50962">
        <ele>1129.21</ele>
        <time>2017-02-26T09:22:52Z</time>
      </trkpt>
      <trkpt lat="45.3639" lon="4.50965">
        <ele>1129.21</ele>
        <time>2017-02-26T09:22:53Z</time>
      </trkpt>
      <trkpt lat="45.36417" lon="4.50995">
        <ele>1128.73</ele>
        <time>2017-02-26T09:23:03Z</time>
      </trkpt>
      <trkpt lat="45.36435" lon="4.51017">
        <ele>1129.21</ele>
        <time>2017-02-26T09:23:12Z</time>
      </trkpt>
      <trkpt lat="45.3646" lon="4.51045">
        <ele>1129.21</ele>
        <time>2017-02-26T09:23:22Z</time>
      </trkpt>
      <trkpt lat="45.36481" lon="4.51073">
        <ele>1130.65</ele>
        <time>2017-02-26T09:23:32Z</time>
      </trkpt>
      <trkpt lat="45.36484" lon="4.51078">
        <ele>1130.65</ele>
        <time>2017-02-26T09:23:34Z</time>
      </trkpt>
      <trkpt lat="45.36484" lon="4.51081">
        <ele>1130.65</ele>
        <time>2017-02-26T09:23:35Z</time>
      </trkpt>
      <trkpt lat="45.36485" lon="4.51084">
        <ele>1131.13</ele>
        <time>2017-02-26T09:23:36Z</time>
      </trkpt>
      <trkpt lat="45.36486" lon="4.51087">
        <ele>1131.61</ele>
        <time>2017-02-26T09:23:37Z</time>
      </trkpt>
      <trkpt lat="45.36487" lon="4.5109">
        <ele>1132.09</ele>
        <time>2017-02-26T09:23:38Z</time>
      </trkpt>
      <trkpt lat="45.36489" lon="4.51092">
        <ele>1132.09</ele>
        <time>2017-02-26T09:23:39Z</time>
      </trkpt>
      <trkpt lat="45.3649" lon="4.51095">
        <ele>1132.09</ele>
        <time>2017-02-26T09:23:40Z</time>
      </trkpt>
      <trkpt lat="45.36491" lon="4.51099">
        <ele>1132.09</ele>
        <time>2017-02-26T09:23:41Z</time>
      </trkpt>
      <trkpt lat="45.36492" lon="4.51101">
        <ele>1132.09</ele>
        <time>2017-02-26T09:23:42Z</time>
      </trkpt>
      <trkpt lat="45.36493" lon="4.51104">
        <ele>1132.57</ele>
        <time>2017-02-26T09:23:43Z</time>
      </trkpt>
      <trkpt lat="45.36493" lon="4.51107">
        <ele>1132.57</ele>
        <time>2017-02-26T09:23:44Z</time>
      </trkpt>
      <trkpt lat="45.36496" lon="4.51122">
        <ele>1133.53</ele>
        <time>2017-02-26T09:23:50Z</time>
      </trkpt>
      <trkpt lat="45.36497" lon="4.51124">
        <ele>1133.53</ele>
        <time>2017-02-26T09:23:51Z</time>
      </trkpt>
      <trkpt lat="45.36497" lon="4.51127">
        <ele>1133.53</ele>
        <time>2017-02-26T09:23:52Z</time>
      </trkpt>
      <trkpt lat="45.36513" lon="4.51161">
        <ele>1135.45</ele>
        <time>2017-02-26T09:24:04Z</time>
      </trkpt>
      <trkpt lat="45.36513" lon="4.51176">
        <ele>1136.9</ele>
        <time>2017-02-26T09:24:12Z</time>
      </trkpt>
      <trkpt lat="45.36513" lon="4.51178">
        <ele>1137.38</ele>
        <time>2017-02-26T09:24:13Z</time>
      </trkpt>
      <trkpt lat="45.36513" lon="4.5118">
        <ele>1137.38</ele>
        <time>2017-02-26T09:24:14Z</time>
      </trkpt>
      <trkpt lat="45.36513" lon="4.51182">
        <ele>1137.38</ele>
        <time>2017-02-26T09:24:15Z</time>
      </trkpt>
      <trkpt lat="45.36513" lon="4.51184">
        <ele>1137.86</ele>
        <time>2017-02-26T09:24:16Z</time>
      </trkpt>
      <trkpt lat="45.36514" lon="4.51186">
        <ele>1137.86</ele>
        <time>2017-02-26T09:24:17Z</time>
      </trkpt>
      <trkpt lat="45.36512" lon="4.51197">
        <ele>1139.3</ele>
        <time>2017-02-26T09:24:22Z</time>
      </trkpt>
      <trkpt lat="45.36512" lon="4.51199">
        <ele>1139.78</ele>
        <time>2017-02-26T09:24:23Z</time>
      </trkpt>
      <trkpt lat="45.36511" lon="4.51203">
        <ele>1139.78</ele>
        <time>2017-02-26T09:24:25Z</time>
      </trkpt>
      <trkpt lat="45.36511" lon="4.51205">
        <ele>1140.26</ele>
        <time>2017-02-26T09:24:26Z</time>
      </trkpt>
      <trkpt lat="45.36509" lon="4.51228">
        <ele>1142.18</ele>
        <time>2017-02-26T09:24:37Z</time>
      </trkpt>
      <trkpt lat="45.36509" lon="4.5123">
        <ele>1142.66</ele>
        <time>2017-02-26T09:24:38Z</time>
      </trkpt>
      <trkpt lat="45.36509" lon="4.51232">
        <ele>1142.66</ele>
        <time>2017-02-26T09:24:39Z</time>
      </trkpt>
      <trkpt lat="45.36508" lon="4.51242">
        <ele>1143.63</ele>
        <time>2017-02-26T09:24:45Z</time>
      </trkpt>
      <trkpt lat="45.36506" lon="4.51252">
        <ele>1145.07</ele>
        <time>2017-02-26T09:24:52Z</time>
      </trkpt>
      <trkpt lat="45.36505" lon="4.51254">
        <ele>1145.55</ele>
        <time>2017-02-26T09:24:53Z</time>
      </trkpt>
      <trkpt lat="45.36504" lon="4.51258">
        <ele>1146.03</ele>
        <time>2017-02-26T09:24:55Z</time>
      </trkpt>
      <trkpt lat="45.36503" lon="4.5126">
        <ele>1146.03</ele>
        <time>2017-02-26T09:24:56Z</time>
      </trkpt>
      <trkpt lat="45.36503" lon="4.51263">
        <ele>1146.51</ele>
        <time>2017-02-26T09:24:57Z</time>
      </trkpt>
      <trkpt lat="45.36502" lon="4.51266">
        <ele>1146.99</ele>
        <time>2017-02-26T09:24:59Z</time>
      </trkpt>
      <trkpt lat="45.36502" lon="4.51268">
        <ele>1146.99</ele>
        <time>2017-02-26T09:25:00Z</time>
      </trkpt>
      <trkpt lat="45.36502" lon="4.51278">
        <ele>1147.47</ele>
        <time>2017-02-26T09:25:05Z</time>
      </trkpt>
      <trkpt lat="45.36502" lon="4.51281">
        <ele>1147.47</ele>
        <time>2017-02-26T09:25:06Z</time>
      </trkpt>
      <trkpt lat="45.36502" lon="4.51284">
        <ele>1147.95</ele>
        <time>2017-02-26T09:25:07Z</time>
      </trkpt>
      <trkpt lat="45.36503" lon="4.51304">
        <ele>1147.95</ele>
        <time>2017-02-26T09:25:15Z</time>
      </trkpt>
      <trkpt lat="45.36503" lon="4.51306">
        <ele>1147.95</ele>
        <time>2017-02-26T09:25:16Z</time>
      </trkpt>
      <trkpt lat="45.36504" lon="4.51312">
        <ele>1148.43</ele>
        <time>2017-02-26T09:25:20Z</time>
      </trkpt>
      <trkpt lat="45.36503" lon="4.51315">
        <ele>1148.43</ele>
        <time>2017-02-26T09:25:21Z</time>
      </trkpt>
      <trkpt lat="45.36503" lon="4.51317">
        <ele>1148.43</ele>
        <time>2017-02-26T09:25:22Z</time>
      </trkpt>
      <trkpt lat="45.36502" lon="4.51319">
        <ele>1148.43</ele>
        <time>2017-02-26T09:25:23Z</time>
      </trkpt>
      <trkpt lat="45.36502" lon="4.51322">
        <ele>1148.43</ele>
        <time>2017-02-26T09:25:24Z</time>
      </trkpt>
      <trkpt lat="45.36501" lon="4.51326">
        <ele>1148.43</ele>
        <time>2017-02-26T09:25:26Z</time>
      </trkpt>
      <trkpt lat="45.36501" lon="4.51328">
        <ele>1147.95</ele>
        <time>2017-02-26T09:25:27Z</time>
      </trkpt>
      <trkpt lat="45.365" lon="4.5133">
        <ele>1147.95</ele>
        <time>2017-02-26T09:25:28Z</time>
      </trkpt>
      <trkpt lat="45.365" lon="4.51332">
        <ele>1147.95</ele>
        <time>2017-02-26T09:25:29Z</time>
      </trkpt>
      <trkpt lat="45.36499" lon="4.51335">
        <ele>1147.95</ele>
        <time>2017-02-26T09:25:30Z</time>
      </trkpt>
      <trkpt lat="45.36499" lon="4.51337">
        <ele>1148.43</ele>
        <time>2017-02-26T09:25:31Z</time>
      </trkpt>
      <trkpt lat="45.36497" lon="4.51344">
        <ele>1147.95</ele>
        <time>2017-02-26T09:25:35Z</time>
      </trkpt>
      <trkpt lat="45.36496" lon="4.51346">
        <ele>1147.47</ele>
        <time>2017-02-26T09:25:36Z</time>
      </trkpt>
      <trkpt lat="45.36496" lon="4.5135">
        <ele>1147.47</ele>
        <time>2017-02-26T09:25:37Z</time>
      </trkpt>
      <trkpt lat="45.36495" lon="4.51353">
        <ele>1147.47</ele>
        <time>2017-02-26T09:25:38Z</time>
      </trkpt>
      <trkpt lat="45.36495" lon="4.51357">
        <ele>1146.99</ele>
        <time>2017-02-26T09:25:39Z</time>
      </trkpt>
      <trkpt lat="45.36493" lon="4.5137">
        <ele>1146.03</ele>
        <time>2017-02-26T09:25:42Z</time>
      </trkpt>
      <trkpt lat="45.3647" lon="4.51417">
        <ele>1146.51</ele>
        <time>2017-02-26T09:25:52Z</time>
      </trkpt>
      <trkpt lat="45.36457" lon="4.51436">
        <ele>1147.47</ele>
        <time>2017-02-26T09:25:58Z</time>
      </trkpt>
      <trkpt lat="45.36443" lon="4.51454">
        <ele>1147.95</ele>
        <time>2017-02-26T09:26:08Z</time>
      </trkpt>
      <trkpt lat="45.3644" lon="4.51457">
        <ele>1147.95</ele>
        <time>2017-02-26T09:26:15Z</time>
      </trkpt>
      <trkpt lat="45.36434" lon="4.51467">
        <ele>1148.43</ele>
        <time>2017-02-26T09:26:24Z</time>
      </trkpt>
      <trkpt lat="45.36431" lon="4.51472">
        <ele>1148.43</ele>
        <time>2017-02-26T09:26:27Z</time>
      </trkpt>
      <trkpt lat="45.36429" lon="4.51475">
        <ele>1148.43</ele>
        <time>2017-02-26T09:26:28Z</time>
      </trkpt>
      <trkpt lat="45.36427" lon="4.51478">
        <ele>1148.43</ele>
        <time>2017-02-26T09:26:29Z</time>
      </trkpt>
      <trkpt lat="45.36425" lon="4.51482">
        <ele>1148.43</ele>
        <time>2017-02-26T09:26:30Z</time>
      </trkpt>
      <trkpt lat="45.36423" lon="4.51486">
        <ele>1148.43</ele>
        <time>2017-02-26T09:26:31Z</time>
      </trkpt>
      <trkpt lat="45.36421" lon="4.51488">
        <ele>1148.43</ele>
        <time>2017-02-26T09:26:32Z</time>
      </trkpt>
      <trkpt lat="45.36419" lon="4.51491">
        <ele>1148.43</ele>
        <time>2017-02-26T09:26:33Z</time>
      </trkpt>
      <trkpt lat="45.36418" lon="4.51494">
        <ele>1148.43</ele>
        <time>2017-02-26T09:26:34Z</time>
      </trkpt>
      <trkpt lat="45.36416" lon="4.51496">
        <ele>1148.43</ele>
        <time>2017-02-26T09:26:35Z</time>
      </trkpt>
      <trkpt lat="45.36415" lon="4.51498">
        <ele>1148.43</ele>
        <time>2017-02-26T09:26:36Z</time>
      </trkpt>
      <trkpt lat="45.36413" lon="4.515">
        <ele>1148.91</ele>
        <time>2017-02-26T09:26:37Z</time>
      </trkpt>
      <trkpt lat="45.36406" lon="4.51514">
        <ele>1149.39</ele>
        <time>2017-02-26T09:26:43Z</time>
      </trkpt>
      <trkpt lat="45.36401" lon="4.51519">
        <ele>1149.87</ele>
        <time>2017-02-26T09:26:48Z</time>
      </trkpt>
      <trkpt lat="45.364" lon="4.51521">
        <ele>1149.87</ele>
        <time>2017-02-26T09:26:49Z</time>
      </trkpt>
      <trkpt lat="45.36399" lon="4.51524">
        <ele>1149.87</ele>
        <time>2017-02-26T09:26:50Z</time>
      </trkpt>
      <trkpt lat="45.36397" lon="4.51527">
        <ele>1150.35</ele>
        <time>2017-02-26T09:26:51Z</time>
      </trkpt>
      <trkpt lat="45.36396" lon="4.5153">
        <ele>1150.35</ele>
        <time>2017-02-26T09:26:52Z</time>
      </trkpt>
      <trkpt lat="45.36394" lon="4.51532">
        <ele>1150.35</ele>
        <time>2017-02-26T09:26:53Z</time>
      </trkpt>
      <trkpt lat="45.36393" lon="4.51532">
        <ele>1150.35</ele>
        <time>2017-02-26T09:26:54Z</time>
      </trkpt>
      <trkpt lat="45.36391" lon="4.51536">
        <ele>1150.35</ele>
        <time>2017-02-26T09:26:58Z</time>
      </trkpt>
      <trkpt lat="45.36391" lon="4.51539">
        <ele>1150.84</ele>
        <time>2017-02-26T09:26:59Z</time>
      </trkpt>
      <trkpt lat="45.3639" lon="4.51542">
        <ele>1150.84</ele>
        <time>2017-02-26T09:27:00Z</time>
      </trkpt>
      <trkpt lat="45.36389" lon="4.51544">
        <ele>1150.84</ele>
        <time>2017-02-26T09:27:01Z</time>
      </trkpt>
      <trkpt lat="45.36388" lon="4.51546">
        <ele>1150.84</ele>
        <time>2017-02-26T09:27:02Z</time>
      </trkpt>
      <trkpt lat="45.36387" lon="4.51548">
        <ele>1150.84</ele>
        <time>2017-02-26T09:27:03Z</time>
      </trkpt>
      <trkpt lat="45.36375" lon="4.51579">
        <ele>1152.28</ele>
        <time>2017-02-26T09:27:14Z</time>
      </trkpt>
      <trkpt lat="45.3635" lon="4.51633">
        <ele>1153.72</ele>
        <time>2017-02-26T09:27:25Z</time>
      </trkpt>
      <trkpt lat="45.36332" lon="4.5166">
        <ele>1155.64</ele>
        <time>2017-02-26T09:27:37Z</time>
      </trkpt>
      <trkpt lat="45.36312" lon="4.51693">
        <ele>1156.12</ele>
        <time>2017-02-26T09:27:50Z</time>
      </trkpt>
      <trkpt lat="45.36296" lon="4.51714">
        <ele>1157.56</ele>
        <time>2017-02-26T09:28:00Z</time>
      </trkpt>
      <trkpt lat="45.36291" lon="4.51722">
        <ele>1158.05</ele>
        <time>2017-02-26T09:28:03Z</time>
      </trkpt>
      <trkpt lat="45.36289" lon="4.51723">
        <ele>1158.53</ele>
        <time>2017-02-26T09:28:04Z</time>
      </trkpt>
      <trkpt lat="45.36288" lon="4.51723">
        <ele>1158.53</ele>
        <time>2017-02-26T09:28:05Z</time>
      </trkpt>
      <trkpt lat="45.36287" lon="4.51721">
        <ele>1158.53</ele>
        <time>2017-02-26T09:28:06Z</time>
      </trkpt>
      <trkpt lat="45.36286" lon="4.51718">
        <ele>1158.53</ele>
        <time>2017-02-26T09:28:07Z</time>
      </trkpt>
      <trkpt lat="45.36286" lon="4.51716">
        <ele>1158.53</ele>
        <time>2017-02-26T09:28:08Z</time>
      </trkpt>
      <trkpt lat="45.36286" lon="4.51713">
        <ele>1159.01</ele>
        <time>2017-02-26T09:28:09Z</time>
      </trkpt>
      <trkpt lat="45.36286" lon="4.5171">
        <ele>1159.01</ele>
        <time>2017-02-26T09:28:10Z</time>
      </trkpt>
      <trkpt lat="45.3629" lon="4.51668">
        <ele>1160.45</ele>
        <time>2017-02-26T09:28:24Z</time>
      </trkpt>
      <trkpt lat="45.36292" lon="4.51629">
        <ele>1162.37</ele>
        <time>2017-02-26T09:28:37Z</time>
      </trkpt>
      <trkpt lat="45.36287" lon="4.5161">
        <ele>1163.81</ele>
        <time>2017-02-26T09:28:46Z</time>
      </trkpt>
      <trkpt lat="45.36286" lon="4.51609">
        <ele>1164.29</ele>
        <time>2017-02-26T09:28:47Z</time>
      </trkpt>
      <trkpt lat="45.36283" lon="4.51602">
        <ele>1165.26</ele>
        <time>2017-02-26T09:28:51Z</time>
      </trkpt>
      <trkpt lat="45.36283" lon="4.516">
        <ele>1165.26</ele>
        <time>2017-02-26T09:28:52Z</time>
      </trkpt>
      <trkpt lat="45.36282" lon="4.51598">
        <ele>1165.26</ele>
        <time>2017-02-26T09:28:53Z</time>
      </trkpt>
      <trkpt lat="45.36281" lon="4.51596">
        <ele>1165.26</ele>
        <time>2017-02-26T09:28:54Z</time>
      </trkpt>
      <trkpt lat="45.3628" lon="4.51594">
        <ele>1165.74</ele>
        <time>2017-02-26T09:28:55Z</time>
      </trkpt>
      <trkpt lat="45.3628" lon="4.51592">
        <ele>1165.74</ele>
        <time>2017-02-26T09:28:56Z</time>
      </trkpt>
      <trkpt lat="45.3628" lon="4.5159">
        <ele>1166.22</ele>
        <time>2017-02-26T09:28:57Z</time>
      </trkpt>
      <trkpt lat="45.36279" lon="4.51588">
        <ele>1166.22</ele>
        <time>2017-02-26T09:28:58Z</time>
      </trkpt>
      <trkpt lat="45.36279" lon="4.51586">
        <ele>1166.7</ele>
        <time>2017-02-26T09:28:59Z</time>
      </trkpt>
      <trkpt lat="45.36279" lon="4.51584">
        <ele>1166.7</ele>
        <time>2017-02-26T09:29:00Z</time>
      </trkpt>
      <trkpt lat="45.36278" lon="4.51582">
        <ele>1167.18</ele>
        <time>2017-02-26T09:29:01Z</time>
      </trkpt>
      <trkpt lat="45.36278" lon="4.5158">
        <ele>1167.18</ele>
        <time>2017-02-26T09:29:02Z</time>
      </trkpt>
      <trkpt lat="45.36277" lon="4.51578">
        <ele>1167.66</ele>
        <time>2017-02-26T09:29:03Z</time>
      </trkpt>
      <trkpt lat="45.36277" lon="4.51576">
        <ele>1167.66</ele>
        <time>2017-02-26T09:29:04Z</time>
      </trkpt>
      <trkpt lat="45.36276" lon="4.51563">
        <ele>1168.62</ele>
        <time>2017-02-26T09:29:10Z</time>
      </trkpt>
      <trkpt lat="45.36277" lon="4.51561">
        <ele>1168.62</ele>
        <time>2017-02-26T09:29:11Z</time>
      </trkpt>
      <trkpt lat="45.36277" lon="4.5156">
        <ele>1169.1</ele>
        <time>2017-02-26T09:29:12Z</time>
      </trkpt>
      <trkpt lat="45.36277" lon="4.51558">
        <ele>1169.58</ele>
        <time>2017-02-26T09:29:13Z</time>
      </trkpt>
      <trkpt lat="45.36277" lon="4.51555">
        <ele>1169.58</ele>
        <time>2017-02-26T09:29:14Z</time>
      </trkpt>
      <trkpt lat="45.36277" lon="4.51554">
        <ele>1169.58</ele>
        <time>2017-02-26T09:29:15Z</time>
      </trkpt>
      <trkpt lat="45.36278" lon="4.51552">
        <ele>1169.58</ele>
        <time>2017-02-26T09:29:16Z</time>
      </trkpt>
      <trkpt lat="45.36279" lon="4.5155">
        <ele>1170.06</ele>
        <time>2017-02-26T09:29:17Z</time>
      </trkpt>
      <trkpt lat="45.36279" lon="4.51548">
        <ele>1170.06</ele>
        <time>2017-02-26T09:29:18Z</time>
      </trkpt>
      <trkpt lat="45.36281" lon="4.51537">
        <ele>1171.02</ele>
        <time>2017-02-26T09:29:23Z</time>
      </trkpt>
      <trkpt lat="45.36281" lon="4.51536">
        <ele>1171.02</ele>
        <time>2017-02-26T09:29:24Z</time>
      </trkpt>
      <trkpt lat="45.36283" lon="4.51528">
        <ele>1172.47</ele>
        <time>2017-02-26T09:29:29Z</time>
      </trkpt>
      <trkpt lat="45.36282" lon="4.51526">
        <ele>1172.47</ele>
        <time>2017-02-26T09:29:30Z</time>
      </trkpt>
      <trkpt lat="45.36282" lon="4.51524">
        <ele>1172.47</ele>
        <time>2017-02-26T09:29:31Z</time>
      </trkpt>
      <trkpt lat="45.36283" lon="4.51521">
        <ele>1172.95</ele>
        <time>2017-02-26T09:29:32Z</time>
      </trkpt>
      <trkpt lat="45.36283" lon="4.51519">
        <ele>1173.43</ele>
        <time>2017-02-26T09:29:33Z</time>
      </trkpt>
      <trkpt lat="45.36283" lon="4.51513">
        <ele>1173.43</ele>
        <time>2017-02-26T09:29:36Z</time>
      </trkpt>
      <trkpt lat="45.36283" lon="4.5151">
        <ele>1173.91</ele>
        <time>2017-02-26T09:29:38Z</time>
      </trkpt>
      <trkpt lat="45.36284" lon="4.51508">
        <ele>1173.91</ele>
        <time>2017-02-26T09:29:39Z</time>
      </trkpt>
      <trkpt lat="45.36285" lon="4.51503">
        <ele>1174.39</ele>
        <time>2017-02-26T09:29:42Z</time>
      </trkpt>
      <trkpt lat="45.36285" lon="4.51502">
        <ele>1174.87</ele>
        <time>2017-02-26T09:29:43Z</time>
      </trkpt>
      <trkpt lat="45.36286" lon="4.51497">
        <ele>1175.35</ele>
        <time>2017-02-26T09:29:45Z</time>
      </trkpt>
      <trkpt lat="45.36285" lon="4.51495">
        <ele>1175.35</ele>
        <time>2017-02-26T09:29:46Z</time>
      </trkpt>
      <trkpt lat="45.36285" lon="4.51492">
        <ele>1175.35</ele>
        <time>2017-02-26T09:29:47Z</time>
      </trkpt>
      <trkpt lat="45.36286" lon="4.51489">
        <ele>1175.35</ele>
        <time>2017-02-26T09:29:48Z</time>
      </trkpt>
      <trkpt lat="45.36286" lon="4.51487">
        <ele>1175.83</ele>
        <time>2017-02-26T09:29:49Z</time>
      </trkpt>
      <trkpt lat="45.36286" lon="4.51485">
        <ele>1175.83</ele>
        <time>2017-02-26T09:29:50Z</time>
      </trkpt>
      <trkpt lat="45.36286" lon="4.51483">
        <ele>1175.83</ele>
        <time>2017-02-26T09:29:51Z</time>
      </trkpt>
      <trkpt lat="45.36286" lon="4.51472">
        <ele>1176.79</ele>
        <time>2017-02-26T09:29:57Z</time>
      </trkpt>
      <trkpt lat="45.36286" lon="4.51469">
        <ele>1176.79</ele>
        <time>2017-02-26T09:29:58Z</time>
      </trkpt>
      <trkpt lat="45.3629" lon="4.51437">
        <ele>1178.71</ele>
        <time>2017-02-26T09:30:11Z</time>
      </trkpt>
      <trkpt lat="45.36286" lon="4.51409">
        <ele>1180.16</ele>
        <time>2017-02-26T09:30:23Z</time>
      </trkpt>
      <trkpt lat="45.36286" lon="4.51407">
        <ele>1180.16</ele>
        <time>2017-02-26T09:30:24Z</time>
      </trkpt>
      <trkpt lat="45.36286" lon="4.51398">
        <ele>1180.64</ele>
        <time>2017-02-26T09:30:27Z</time>
      </trkpt>
      <trkpt lat="45.36287" lon="4.51395">
        <ele>1180.64</ele>
        <time>2017-02-26T09:30:28Z</time>
      </trkpt>
      <trkpt lat="45.36287" lon="4.51392">
        <ele>1180.64</ele>
        <time>2017-02-26T09:30:29Z</time>
      </trkpt>
      <trkpt lat="45.36288" lon="4.51356">
        <ele>1181.6</ele>
        <time>2017-02-26T09:30:42Z</time>
      </trkpt>
      <trkpt lat="45.36288" lon="4.51353">
        <ele>1181.6</ele>
        <time>2017-02-26T09:30:43Z</time>
      </trkpt>
      <trkpt lat="45.36287" lon="4.51342">
        <ele>1181.6</ele>
        <time>2017-02-26T09:30:47Z</time>
      </trkpt>
      <trkpt lat="45.36286" lon="4.51338">
        <ele>1181.6</ele>
        <time>2017-02-26T09:30:48Z</time>
      </trkpt>
      <trkpt lat="45.36285" lon="4.51335">
        <ele>1181.6</ele>
        <time>2017-02-26T09:30:49Z</time>
      </trkpt>
      <trkpt lat="45.36278" lon="4.51306">
        <ele>1181.6</ele>
        <time>2017-02-26T09:30:58Z</time>
      </trkpt>
      <trkpt lat="45.36269" lon="4.51286">
        <ele>1181.6</ele>
        <time>2017-02-26T09:31:06Z</time>
      </trkpt>
      <trkpt lat="45.36268" lon="4.51286">
        <ele>1182.08</ele>
        <time>2017-02-26T09:31:07Z</time>
      </trkpt>
      <trkpt lat="45.36266" lon="4.51286">
        <ele>1181.6</ele>
        <time>2017-02-26T09:31:08Z</time>
      </trkpt>
      <trkpt lat="45.36265" lon="4.51287">
        <ele>1182.08</ele>
        <time>2017-02-26T09:31:09Z</time>
      </trkpt>
      <trkpt lat="45.36264" lon="4.51287">
        <ele>1182.08</ele>
        <time>2017-02-26T09:31:10Z</time>
      </trkpt>
      <trkpt lat="45.36261" lon="4.5129">
        <ele>1182.56</ele>
        <time>2017-02-26T09:31:13Z</time>
      </trkpt>
      <trkpt lat="45.3626" lon="4.5129">
        <ele>1182.56</ele>
        <time>2017-02-26T09:31:14Z</time>
      </trkpt>
      <trkpt lat="45.36258" lon="4.5129">
        <ele>1182.56</ele>
        <time>2017-02-26T09:31:15Z</time>
      </trkpt>
      <trkpt lat="45.36257" lon="4.51288">
        <ele>1182.56</ele>
        <time>2017-02-26T09:31:16Z</time>
      </trkpt>
      <trkpt lat="45.36257" lon="4.51287">
        <ele>1182.56</ele>
        <time>2017-02-26T09:31:17Z</time>
      </trkpt>
      <trkpt lat="45.36258" lon="4.51286">
        <ele>1183.04</ele>
        <time>2017-02-26T09:31:18Z</time>
      </trkpt>
      <trkpt lat="45.3626" lon="4.51285">
        <ele>1183.04</ele>
        <time>2017-02-26T09:31:19Z</time>
      </trkpt>
      <trkpt lat="45.36261" lon="4.51286">
        <ele>1182.56</ele>
        <time>2017-02-26T09:31:20Z</time>
      </trkpt>
      <trkpt lat="45.36263" lon="4.51287">
        <ele>1182.56</ele>
        <time>2017-02-26T09:31:21Z</time>
      </trkpt>
      <trkpt lat="45.36264" lon="4.51288">
        <ele>1182.56</ele>
        <time>2017-02-26T09:31:22Z</time>
      </trkpt>
      <trkpt lat="45.36265" lon="4.51289">
        <ele>1182.08</ele>
        <time>2017-02-26T09:31:23Z</time>
      </trkpt>
      <trkpt lat="45.36267" lon="4.5129">
        <ele>1182.08</ele>
        <time>2017-02-26T09:31:24Z</time>
      </trkpt>
      <trkpt lat="45.36269" lon="4.51291">
        <ele>1182.08</ele>
        <time>2017-02-26T09:31:25Z</time>
      </trkpt>
      <trkpt lat="45.36271" lon="4.5129">
        <ele>1182.08</ele>
        <time>2017-02-26T09:31:27Z</time>
      </trkpt>
      <trkpt lat="45.36272" lon="4.51288">
        <ele>1181.6</ele>
        <time>2017-02-26T09:31:28Z</time>
      </trkpt>
      <trkpt lat="45.36272" lon="4.51286">
        <ele>1181.6</ele>
        <time>2017-02-26T09:31:29Z</time>
      </trkpt>
      <trkpt lat="45.3627" lon="4.51285">
        <ele>1181.6</ele>
        <time>2017-02-26T09:31:30Z</time>
      </trkpt>
      <trkpt lat="45.36268" lon="4.51283">
        <ele>1181.6</ele>
        <time>2017-02-26T09:31:31Z</time>
      </trkpt>
      <trkpt lat="45.36267" lon="4.51283">
        <ele>1181.6</ele>
        <time>2017-02-26T09:31:32Z</time>
      </trkpt>
      <trkpt lat="45.36265" lon="4.51282">
        <ele>1181.6</ele>
        <time>2017-02-26T09:31:33Z</time>
      </trkpt>
      <trkpt lat="45.36263" lon="4.51281">
        <ele>1181.6</ele>
        <time>2017-02-26T09:31:34Z</time>
      </trkpt>
      <trkpt lat="45.36261" lon="4.51282">
        <ele>1182.08</ele>
        <time>2017-02-26T09:31:35Z</time>
      </trkpt>
      <trkpt lat="45.3626" lon="4.51283">
        <ele>1182.08</ele>
        <time>2017-02-26T09:31:36Z</time>
      </trkpt>
      <trkpt lat="45.36258" lon="4.51284">
        <ele>1182.08</ele>
        <time>2017-02-26T09:31:37Z</time>
      </trkpt>
      <trkpt lat="45.36257" lon="4.51286">
        <ele>1182.56</ele>
        <time>2017-02-26T09:31:38Z</time>
      </trkpt>
      <trkpt lat="45.36255" lon="4.51287">
        <ele>1182.56</ele>
        <time>2017-02-26T09:31:39Z</time>
      </trkpt>
      <trkpt lat="45.36254" lon="4.51287">
        <ele>1182.56</ele>
        <time>2017-02-26T09:31:40Z</time>
      </trkpt>
      <trkpt lat="45.36252" lon="4.51288">
        <ele>1182.56</ele>
        <time>2017-02-26T09:31:41Z</time>
      </trkpt>
      <trkpt lat="45.3625" lon="4.51288">
        <ele>1183.04</ele>
        <time>2017-02-26T09:31:42Z</time>
      </trkpt>
      <trkpt lat="45.3623" lon="4.5129">
        <ele>1184.96</ele>
        <time>2017-02-26T09:31:54Z</time>
      </trkpt>
      <trkpt lat="45.36212" lon="4.51294">
        <ele>1186.4</ele>
        <time>2017-02-26T09:32:05Z</time>
      </trkpt>
      <trkpt lat="45.36205" lon="4.51295">
        <ele>1186.88</ele>
        <time>2017-02-26T09:32:10Z</time>
      </trkpt>
      <trkpt lat="45.362" lon="4.51296">
        <ele>1187.37</ele>
        <time>2017-02-26T09:32:14Z</time>
      </trkpt>
      <trkpt lat="45.36198" lon="4.51296">
        <ele>1187.37</ele>
        <time>2017-02-26T09:32:15Z</time>
      </trkpt>
      <trkpt lat="45.36196" lon="4.51297">
        <ele>1187.37</ele>
        <time>2017-02-26T09:32:16Z</time>
      </trkpt>
      <trkpt lat="45.36194" lon="4.51298">
        <ele>1187.85</ele>
        <time>2017-02-26T09:32:17Z</time>
      </trkpt>
      <trkpt lat="45.36191" lon="4.51298">
        <ele>1187.85</ele>
        <time>2017-02-26T09:32:18Z</time>
      </trkpt>
      <trkpt lat="45.36189" lon="4.51299">
        <ele>1188.33</ele>
        <time>2017-02-26T09:32:19Z</time>
      </trkpt>
      <trkpt lat="45.36187" lon="4.513">
        <ele>1187.85</ele>
        <time>2017-02-26T09:32:20Z</time>
      </trkpt>
      <trkpt lat="45.36185" lon="4.51301">
        <ele>1188.33</ele>
        <time>2017-02-26T09:32:21Z</time>
      </trkpt>
      <trkpt lat="45.36182" lon="4.51302">
        <ele>1188.33</ele>
        <time>2017-02-26T09:32:22Z</time>
      </trkpt>
      <trkpt lat="45.3618" lon="4.51302">
        <ele>1188.81</ele>
        <time>2017-02-26T09:32:23Z</time>
      </trkpt>
      <trkpt lat="45.36178" lon="4.51303">
        <ele>1188.81</ele>
        <time>2017-02-26T09:32:24Z</time>
      </trkpt>
      <trkpt lat="45.36176" lon="4.51303">
        <ele>1188.81</ele>
        <time>2017-02-26T09:32:25Z</time>
      </trkpt>
      <trkpt lat="45.36173" lon="4.51303">
        <ele>1189.29</ele>
        <time>2017-02-26T09:32:26Z</time>
      </trkpt>
      <trkpt lat="45.36171" lon="4.51304">
        <ele>1189.29</ele>
        <time>2017-02-26T09:32:27Z</time>
      </trkpt>
      <trkpt lat="45.36148" lon="4.51308">
        <ele>1191.21</ele>
        <time>2017-02-26T09:32:38Z</time>
      </trkpt>
      <trkpt lat="45.36146" lon="4.51308">
        <ele>1191.21</ele>
        <time>2017-02-26T09:32:39Z</time>
      </trkpt>
      <trkpt lat="45.36144" lon="4.51308">
        <ele>1191.21</ele>
        <time>2017-02-26T09:32:40Z</time>
      </trkpt>
      <trkpt lat="45.36143" lon="4.51309">
        <ele>1191.21</ele>
        <time>2017-02-26T09:32:41Z</time>
      </trkpt>
      <trkpt lat="45.36141" lon="4.5131">
        <ele>1191.21</ele>
        <time>2017-02-26T09:32:42Z</time>
      </trkpt>
      <trkpt lat="45.36139" lon="4.51311">
        <ele>1191.21</ele>
        <time>2017-02-26T09:32:43Z</time>
      </trkpt>
      <trkpt lat="45.36138" lon="4.51312">
        <ele>1191.69</ele>
        <time>2017-02-26T09:32:44Z</time>
      </trkpt>
      <trkpt lat="45.36135" lon="4.51312">
        <ele>1191.69</ele>
        <time>2017-02-26T09:32:45Z</time>
      </trkpt>
      <trkpt lat="45.36133" lon="4.51313">
        <ele>1191.69</ele>
        <time>2017-02-26T09:32:46Z</time>
      </trkpt>
      <trkpt lat="45.36131" lon="4.51314">
        <ele>1191.69</ele>
        <time>2017-02-26T09:32:47Z</time>
      </trkpt>
      <trkpt lat="45.36129" lon="4.51315">
        <ele>1191.69</ele>
        <time>2017-02-26T09:32:48Z</time>
      </trkpt>
      <trkpt lat="45.36117" lon="4.51321">
        <ele>1192.65</ele>
        <time>2017-02-26T09:32:55Z</time>
      </trkpt>
      <trkpt lat="45.36102" lon="4.51327">
        <ele>1193.61</ele>
        <time>2017-02-26T09:33:03Z</time>
      </trkpt>
      <trkpt lat="45.361" lon="4.51328">
        <ele>1193.61</ele>
        <time>2017-02-26T09:33:04Z</time>
      </trkpt>
      <trkpt lat="45.36098" lon="4.51329">
        <ele>1193.61</ele>
        <time>2017-02-26T09:33:05Z</time>
      </trkpt>
      <trkpt lat="45.36096" lon="4.51331">
        <ele>1193.61</ele>
        <time>2017-02-26T09:33:06Z</time>
      </trkpt>
      <trkpt lat="45.36094" lon="4.51332">
        <ele>1194.09</ele>
        <time>2017-02-26T09:33:07Z</time>
      </trkpt>
      <trkpt lat="45.36093" lon="4.51333">
        <ele>1194.09</ele>
        <time>2017-02-26T09:33:08Z</time>
      </trkpt>
      <trkpt lat="45.36091" lon="4.51333">
        <ele>1193.13</ele>
        <time>2017-02-26T09:33:21Z</time>
      </trkpt>
      <trkpt lat="45.36091" lon="4.51333">
        <ele>1190.25</ele>
        <time>2017-02-26T09:33:22Z</time>
      </trkpt>
      <trkpt lat="45.36091" lon="4.51333">
        <ele>1199.86</ele>
        <time>2017-02-26T09:33:23Z</time>
      </trkpt>
      <trkpt lat="45.36091" lon="4.51333">
        <ele>1195.54</ele>
        <time>2017-02-26T09:33:24Z</time>
      </trkpt>
      <trkpt lat="45.36091" lon="4.51333">
        <ele>1194.58</ele>
        <time>2017-02-26T09:33:46Z</time>
      </trkpt>
      <trkpt lat="45.36089" lon="4.51336">
        <ele>1194.58</ele>
        <time>2017-02-26T09:33:57Z</time>
      </trkpt>
      <trkpt lat="45.36087" lon="4.51337">
        <ele>1195.06</ele>
        <time>2017-02-26T09:33:58Z</time>
      </trkpt>
      <trkpt lat="45.36084" lon="4.51339">
        <ele>1195.54</ele>
        <time>2017-02-26T09:34:00Z</time>
      </trkpt>
      <trkpt lat="45.36082" lon="4.5134">
        <ele>1195.06</ele>
        <time>2017-02-26T09:34:01Z</time>
      </trkpt>
      <trkpt lat="45.36079" lon="4.51343">
        <ele>1195.54</ele>
        <time>2017-02-26T09:34:03Z</time>
      </trkpt>
      <trkpt lat="45.36056" lon="4.51353">
        <ele>1196.5</ele>
        <time>2017-02-26T09:34:15Z</time>
      </trkpt>
      <trkpt lat="45.36034" lon="4.51357">
        <ele>1197.46</ele>
        <time>2017-02-26T09:34:25Z</time>
      </trkpt>
      <trkpt lat="45.36001" lon="4.51358">
        <ele>1197.46</ele>
        <time>2017-02-26T09:34:38Z</time>
      </trkpt>
      <trkpt lat="45.35973" lon="4.51354">
        <ele>1197.46</ele>
        <time>2017-02-26T09:34:48Z</time>
      </trkpt>
      <trkpt lat="45.35943" lon="4.51357">
        <ele>1196.98</ele>
        <time>2017-02-26T09:34:56Z</time>
      </trkpt>
      <trkpt lat="45.35915" lon="4.51367">
        <ele>1197.46</ele>
        <time>2017-02-26T09:35:05Z</time>
      </trkpt>
      <trkpt lat="45.35913" lon="4.51367">
        <ele>1197.46</ele>
        <time>2017-02-26T09:35:06Z</time>
      </trkpt>
      <trkpt lat="45.35911" lon="4.51368">
        <ele>1197.46</ele>
        <time>2017-02-26T09:35:07Z</time>
      </trkpt>
      <trkpt lat="45.35907" lon="4.51373">
        <ele>1197.94</ele>
        <time>2017-02-26T09:35:10Z</time>
      </trkpt>
      <trkpt lat="45.35905" lon="4.5137">
        <ele>1197.94</ele>
        <time>2017-02-26T09:35:13Z</time>
      </trkpt>
      <trkpt lat="45.35921" lon="4.51352">
        <ele>1196.02</ele>
        <time>2017-02-26T09:35:21Z</time>
      </trkpt>
      <trkpt lat="45.35921" lon="4.51349">
        <ele>1195.54</ele>
        <time>2017-02-26T09:35:22Z</time>
      </trkpt>
      <trkpt lat="45.35924" lon="4.51342">
        <ele>1195.06</ele>
        <time>2017-02-26T09:35:24Z</time>
      </trkpt>
      <trkpt lat="45.35925" lon="4.51336">
        <ele>1194.09</ele>
        <time>2017-02-26T09:35:25Z</time>
      </trkpt>
      <trkpt lat="45.35927" lon="4.51331">
        <ele>1193.61</ele>
        <time>2017-02-26T09:35:26Z</time>
      </trkpt>
      <trkpt lat="45.3593" lon="4.51326">
        <ele>1193.13</ele>
        <time>2017-02-26T09:35:27Z</time>
      </trkpt>
      <trkpt lat="45.35934" lon="4.5132">
        <ele>1192.17</ele>
        <time>2017-02-26T09:35:28Z</time>
      </trkpt>
      <trkpt lat="45.35937" lon="4.51316">
        <ele>1191.69</ele>
        <time>2017-02-26T09:35:29Z</time>
      </trkpt>
      <trkpt lat="45.3594" lon="4.51312">
        <ele>1191.69</ele>
        <time>2017-02-26T09:35:30Z</time>
      </trkpt>
      <trkpt lat="45.35954" lon="4.51285">
        <ele>1189.29</ele>
        <time>2017-02-26T09:35:34Z</time>
      </trkpt>
      <trkpt lat="45.35959" lon="4.51268">
        <ele>1187.85</ele>
        <time>2017-02-26T09:35:36Z</time>
      </trkpt>
      <trkpt lat="45.35971" lon="4.51237">
        <ele>1184.96</ele>
        <time>2017-02-26T09:35:40Z</time>
      </trkpt>
      <trkpt lat="45.35974" lon="4.51229">
        <ele>1184</ele>
        <time>2017-02-26T09:35:41Z</time>
      </trkpt>
      <trkpt lat="45.35978" lon="4.51221">
        <ele>1183.52</ele>
        <time>2017-02-26T09:35:42Z</time>
      </trkpt>
      <trkpt lat="45.35981" lon="4.51213">
        <ele>1183.04</ele>
        <time>2017-02-26T09:35:43Z</time>
      </trkpt>
      <trkpt lat="45.35984" lon="4.51205">
        <ele>1182.56</ele>
        <time>2017-02-26T09:35:44Z</time>
      </trkpt>
      <trkpt lat="45.35987" lon="4.51196">
        <ele>1182.08</ele>
        <time>2017-02-26T09:35:45Z</time>
      </trkpt>
      <trkpt lat="45.35994" lon="4.51172">
        <ele>1181.12</ele>
        <time>2017-02-26T09:35:48Z</time>
      </trkpt>
      <trkpt lat="45.36001" lon="4.51156">
        <ele>1179.67</ele>
        <time>2017-02-26T09:35:50Z</time>
      </trkpt>
      <trkpt lat="45.36003" lon="4.51143">
        <ele>1178.23</ele>
        <time>2017-02-26T09:35:52Z</time>
      </trkpt>
      <trkpt lat="45.36003" lon="4.51134">
        <ele>1177.27</ele>
        <time>2017-02-26T09:35:53Z</time>
      </trkpt>
      <trkpt lat="45.36004" lon="4.51125">
        <ele>1176.79</ele>
        <time>2017-02-26T09:35:54Z</time>
      </trkpt>
      <trkpt lat="45.36009" lon="4.51108">
        <ele>1174.87</ele>
        <time>2017-02-26T09:35:56Z</time>
      </trkpt>
      <trkpt lat="45.36012" lon="4.51101">
        <ele>1174.39</ele>
        <time>2017-02-26T09:35:57Z</time>
      </trkpt>
      <trkpt lat="45.3602" lon="4.51087">
        <ele>1173.43</ele>
        <time>2017-02-26T09:35:59Z</time>
      </trkpt>
      <trkpt lat="45.36024" lon="4.5108">
        <ele>1173.43</ele>
        <time>2017-02-26T09:36:00Z</time>
      </trkpt>
      <trkpt lat="45.36017" lon="4.51064">
        <ele>1172.47</ele>
        <time>2017-02-26T09:36:05Z</time>
      </trkpt>
      <trkpt lat="45.36008" lon="4.51059">
        <ele>1171.5</ele>
        <time>2017-02-26T09:36:08Z</time>
      </trkpt>
      <trkpt lat="45.35987" lon="4.51053">
        <ele>1170.06</ele>
        <time>2017-02-26T09:36:14Z</time>
      </trkpt>
      <trkpt lat="45.3597" lon="4.51049">
        <ele>1168.62</ele>
        <time>2017-02-26T09:36:19Z</time>
      </trkpt>
      <trkpt lat="45.35965" lon="4.51047">
        <ele>1168.62</ele>
        <time>2017-02-26T09:36:20Z</time>
      </trkpt>
      <trkpt lat="45.35961" lon="4.51047">
        <ele>1168.14</ele>
        <time>2017-02-26T09:36:21Z</time>
      </trkpt>
      <trkpt lat="45.35955" lon="4.51045">
        <ele>1167.66</ele>
        <time>2017-02-26T09:36:22Z</time>
      </trkpt>
      <trkpt lat="45.35951" lon="4.51045">
        <ele>1167.66</ele>
        <time>2017-02-26T09:36:23Z</time>
      </trkpt>
      <trkpt lat="45.35945" lon="4.51044">
        <ele>1167.66</ele>
        <time>2017-02-26T09:36:24Z</time>
      </trkpt>
      <trkpt lat="45.35941" lon="4.51043">
        <ele>1167.18</ele>
        <time>2017-02-26T09:36:25Z</time>
      </trkpt>
      <trkpt lat="45.35931" lon="4.51041">
        <ele>1166.7</ele>
        <time>2017-02-26T09:36:27Z</time>
      </trkpt>
      <trkpt lat="45.35921" lon="4.51038">
        <ele>1166.22</ele>
        <time>2017-02-26T09:36:29Z</time>
      </trkpt>
      <trkpt lat="45.35915" lon="4.51036">
        <ele>1164.77</ele>
        <time>2017-02-26T09:36:30Z</time>
      </trkpt>
      <trkpt lat="45.3591" lon="4.51032">
        <ele>1164.77</ele>
        <time>2017-02-26T09:36:31Z</time>
      </trkpt>
      <trkpt lat="45.35899" lon="4.51025">
        <ele>1163.81</ele>
        <time>2017-02-26T09:36:33Z</time>
      </trkpt>
      <trkpt lat="45.35892" lon="4.51023">
        <ele>1163.33</ele>
        <time>2017-02-26T09:36:34Z</time>
      </trkpt>
      <trkpt lat="45.35878" lon="4.51019">
        <ele>1161.89</ele>
        <time>2017-02-26T09:36:36Z</time>
      </trkpt>
      <trkpt lat="45.35871" lon="4.51019">
        <ele>1161.89</ele>
        <time>2017-02-26T09:36:37Z</time>
      </trkpt>
      <trkpt lat="45.3582" lon="4.51021">
        <ele>1159.49</ele>
        <time>2017-02-26T09:36:44Z</time>
      </trkpt>
      <trkpt lat="45.35789" lon="4.51024">
        <ele>1158.53</ele>
        <time>2017-02-26T09:36:48Z</time>
      </trkpt>
      <trkpt lat="45.35775" lon="4.51026">
        <ele>1158.53</ele>
        <time>2017-02-26T09:36:50Z</time>
      </trkpt>
      <trkpt lat="45.3577" lon="4.51027">
        <ele>1158.53</ele>
        <time>2017-02-26T09:36:51Z</time>
      </trkpt>
      <trkpt lat="45.35764" lon="4.51028">
        <ele>1159.01</ele>
        <time>2017-02-26T09:36:52Z</time>
      </trkpt>
      <trkpt lat="45.35759" lon="4.51031">
        <ele>1158.53</ele>
        <time>2017-02-26T09:36:53Z</time>
      </trkpt>
      <trkpt lat="45.35754" lon="4.51033">
        <ele>1158.53</ele>
        <time>2017-02-26T09:36:54Z</time>
      </trkpt>
      <trkpt lat="45.35748" lon="4.51037">
        <ele>1159.01</ele>
        <time>2017-02-26T09:36:55Z</time>
      </trkpt>
      <trkpt lat="45.35743" lon="4.5104">
        <ele>1159.01</ele>
        <time>2017-02-26T09:36:56Z</time>
      </trkpt>
      <trkpt lat="45.35739" lon="4.51043">
        <ele>1159.01</ele>
        <time>2017-02-26T09:36:57Z</time>
      </trkpt>
      <trkpt lat="45.35734" lon="4.51045">
        <ele>1159.01</ele>
        <time>2017-02-26T09:36:58Z</time>
      </trkpt>
      <trkpt lat="45.35701" lon="4.51071">
        <ele>1159.49</ele>
        <time>2017-02-26T09:37:04Z</time>
      </trkpt>
      <trkpt lat="45.35693" lon="4.51078">
        <ele>1159.49</ele>
        <time>2017-02-26T09:37:06Z</time>
      </trkpt>
      <trkpt lat="45.35689" lon="4.51081">
        <ele>1159.01</ele>
        <time>2017-02-26T09:37:07Z</time>
      </trkpt>
      <trkpt lat="45.35685" lon="4.51084">
        <ele>1158.53</ele>
        <time>2017-02-26T09:37:08Z</time>
      </trkpt>
      <trkpt lat="45.35681" lon="4.51088">
        <ele>1158.53</ele>
        <time>2017-02-26T09:37:09Z</time>
      </trkpt>
      <trkpt lat="45.35677" lon="4.51094">
        <ele>1158.53</ele>
        <time>2017-02-26T09:37:10Z</time>
      </trkpt>
      <trkpt lat="45.35672" lon="4.511">
        <ele>1158.53</ele>
        <time>2017-02-26T09:37:11Z</time>
      </trkpt>
      <trkpt lat="45.35664" lon="4.5111">
        <ele>1158.53</ele>
        <time>2017-02-26T09:37:13Z</time>
      </trkpt>
      <trkpt lat="45.3566" lon="4.51114">
        <ele>1158.05</ele>
        <time>2017-02-26T09:37:14Z</time>
      </trkpt>
      <trkpt lat="45.3565" lon="4.51124">
        <ele>1158.05</ele>
        <time>2017-02-26T09:37:16Z</time>
      </trkpt>
      <trkpt lat="45.35622" lon="4.51152">
        <ele>1159.49</ele>
        <time>2017-02-26T09:37:28Z</time>
      </trkpt>
      <trkpt lat="45.35608" lon="4.5116">
        <ele>1159.49</ele>
        <time>2017-02-26T09:37:37Z</time>
      </trkpt>
      <trkpt lat="45.35607" lon="4.51161">
        <ele>1159.97</ele>
        <time>2017-02-26T09:37:38Z</time>
      </trkpt>
      <trkpt lat="45.35589" lon="4.51175">
        <ele>1160.45</ele>
        <time>2017-02-26T09:37:48Z</time>
      </trkpt>
      <trkpt lat="45.3557" lon="4.51191">
        <ele>1162.37</ele>
        <time>2017-02-26T09:37:59Z</time>
      </trkpt>
      <trkpt lat="45.35569" lon="4.51194">
        <ele>1162.85</ele>
        <time>2017-02-26T09:38:00Z</time>
      </trkpt>
      <trkpt lat="45.35568" lon="4.51196">
        <ele>1162.85</ele>
        <time>2017-02-26T09:38:01Z</time>
      </trkpt>
      <trkpt lat="45.35566" lon="4.51199">
        <ele>1162.85</ele>
        <time>2017-02-26T09:38:02Z</time>
      </trkpt>
      <trkpt lat="45.35548" lon="4.51219">
        <ele>1164.29</ele>
        <time>2017-02-26T09:38:12Z</time>
      </trkpt>
      <trkpt lat="45.35546" lon="4.5122">
        <ele>1164.77</ele>
        <time>2017-02-26T09:38:13Z</time>
      </trkpt>
      <trkpt lat="45.35544" lon="4.51222">
        <ele>1164.77</ele>
        <time>2017-02-26T09:38:14Z</time>
      </trkpt>
      <trkpt lat="45.35525" lon="4.5124">
        <ele>1166.22</ele>
        <time>2017-02-26T09:38:25Z</time>
      </trkpt>
      <trkpt lat="45.35502" lon="4.51264">
        <ele>1167.18</ele>
        <time>2017-02-26T09:38:37Z</time>
      </trkpt>
      <trkpt lat="45.35485" lon="4.51284">
        <ele>1168.62</ele>
        <time>2017-02-26T09:38:48Z</time>
      </trkpt>
      <trkpt lat="45.35468" lon="4.51305">
        <ele>1169.58</ele>
        <time>2017-02-26T09:39:00Z</time>
      </trkpt>
      <trkpt lat="45.35466" lon="4.51308">
        <ele>1169.58</ele>
        <time>2017-02-26T09:39:03Z</time>
      </trkpt>
      <trkpt lat="45.35466" lon="4.51309">
        <ele>1170.06</ele>
        <time>2017-02-26T09:39:04Z</time>
      </trkpt>
      <trkpt lat="45.35465" lon="4.5131">
        <ele>1170.06</ele>
        <time>2017-02-26T09:39:05Z</time>
      </trkpt>
      <trkpt lat="45.35463" lon="4.51313">
        <ele>1170.06</ele>
        <time>2017-02-26T09:39:06Z</time>
      </trkpt>
      <trkpt lat="45.3546" lon="4.51317">
        <ele>1170.06</ele>
        <time>2017-02-26T09:39:07Z</time>
      </trkpt>
      <trkpt lat="45.35458" lon="4.51317">
        <ele>1170.06</ele>
        <time>2017-02-26T09:39:08Z</time>
      </trkpt>
      <trkpt lat="45.35454" lon="4.51321">
        <ele>1170.06</ele>
        <time>2017-02-26T09:39:09Z</time>
      </trkpt>
      <trkpt lat="45.35452" lon="4.51322">
        <ele>1170.54</ele>
        <time>2017-02-26T09:39:10Z</time>
      </trkpt>
      <trkpt lat="45.35436" lon="4.51341">
        <ele>1171.02</ele>
        <time>2017-02-26T09:39:22Z</time>
      </trkpt>
      <trkpt lat="45.35421" lon="4.51373">
        <ele>1172.47</ele>
        <time>2017-02-26T09:39:32Z</time>
      </trkpt>
      <trkpt lat="45.35414" lon="4.514">
        <ele>1173.43</ele>
        <time>2017-02-26T09:39:42Z</time>
      </trkpt>
      <trkpt lat="45.35406" lon="4.51423">
        <ele>1175.35</ele>
        <time>2017-02-26T09:39:52Z</time>
      </trkpt>
      <trkpt lat="45.35392" lon="4.51448">
        <ele>1176.79</ele>
        <time>2017-02-26T09:40:01Z</time>
      </trkpt>
      <trkpt lat="45.35391" lon="4.5145">
        <ele>1176.79</ele>
        <time>2017-02-26T09:40:02Z</time>
      </trkpt>
      <trkpt lat="45.3539" lon="4.51453">
        <ele>1176.79</ele>
        <time>2017-02-26T09:40:03Z</time>
      </trkpt>
      <trkpt lat="45.35388" lon="4.51455">
        <ele>1177.27</ele>
        <time>2017-02-26T09:40:04Z</time>
      </trkpt>
      <trkpt lat="45.35387" lon="4.51458">
        <ele>1177.27</ele>
        <time>2017-02-26T09:40:05Z</time>
      </trkpt>
      <trkpt lat="45.35384" lon="4.51471">
        <ele>1178.23</ele>
        <time>2017-02-26T09:40:10Z</time>
      </trkpt>
      <trkpt lat="45.35384" lon="4.51474">
        <ele>1178.23</ele>
        <time>2017-02-26T09:40:11Z</time>
      </trkpt>
      <trkpt lat="45.35383" lon="4.51477">
        <ele>1178.23</ele>
        <time>2017-02-26T09:40:12Z</time>
      </trkpt>
      <trkpt lat="45.35382" lon="4.51481">
        <ele>1178.23</ele>
        <time>2017-02-26T09:40:13Z</time>
      </trkpt>
      <trkpt lat="45.35381" lon="4.51485">
        <ele>1178.71</ele>
        <time>2017-02-26T09:40:15Z</time>
      </trkpt>
      <trkpt lat="45.3538" lon="4.51487">
        <ele>1178.71</ele>
        <time>2017-02-26T09:40:16Z</time>
      </trkpt>
      <trkpt lat="45.3538" lon="4.51489">
        <ele>1178.71</ele>
        <time>2017-02-26T09:40:17Z</time>
      </trkpt>
      <trkpt lat="45.35381" lon="4.51491">
        <ele>1179.19</ele>
        <time>2017-02-26T09:40:18Z</time>
      </trkpt>
      <trkpt lat="45.35381" lon="4.51492">
        <ele>1179.19</ele>
        <time>2017-02-26T09:40:19Z</time>
      </trkpt>
      <trkpt lat="45.35382" lon="4.51495">
        <ele>1179.19</ele>
        <time>2017-02-26T09:40:20Z</time>
      </trkpt>
      <trkpt lat="45.35382" lon="4.51497">
        <ele>1179.19</ele>
        <time>2017-02-26T09:40:21Z</time>
      </trkpt>
      <trkpt lat="45.35382" lon="4.515">
        <ele>1179.19</ele>
        <time>2017-02-26T09:40:22Z</time>
      </trkpt>
      <trkpt lat="45.35382" lon="4.51502">
        <ele>1179.67</ele>
        <time>2017-02-26T09:40:23Z</time>
      </trkpt>
      <trkpt lat="45.35384" lon="4.5152">
        <ele>1180.16</ele>
        <time>2017-02-26T09:40:27Z</time>
      </trkpt>
      <trkpt lat="45.35386" lon="4.51522">
        <ele>1180.64</ele>
        <time>2017-02-26T09:40:28Z</time>
      </trkpt>
      <trkpt lat="45.35386" lon="4.51526">
        <ele>1180.64</ele>
        <time>2017-02-26T09:40:29Z</time>
      </trkpt>
      <trkpt lat="45.35387" lon="4.51528">
        <ele>1180.64</ele>
        <time>2017-02-26T09:40:30Z</time>
      </trkpt>
      <trkpt lat="45.35387" lon="4.51531">
        <ele>1181.12</ele>
        <time>2017-02-26T09:40:31Z</time>
      </trkpt>
      <trkpt lat="45.35387" lon="4.51533">
        <ele>1181.6</ele>
        <time>2017-02-26T09:40:32Z</time>
      </trkpt>
      <trkpt lat="45.35388" lon="4.51535">
        <ele>1181.6</ele>
        <time>2017-02-26T09:40:48Z</time>
      </trkpt>
      <trkpt lat="45.35388" lon="4.51536">
        <ele>1178.23</ele>
        <time>2017-02-26T09:41:01Z</time>
      </trkpt>
      <trkpt lat="45.35388" lon="4.51536">
        <ele>1184.96</ele>
        <time>2017-02-26T09:41:02Z</time>
      </trkpt>
      <trkpt lat="45.35388" lon="4.51536">
        <ele>1182.08</ele>
        <time>2017-02-26T09:41:03Z</time>
      </trkpt>
      <trkpt lat="45.35388" lon="4.51536">
        <ele>1185.44</ele>
        <time>2017-02-26T09:41:09Z</time>
      </trkpt>
      <trkpt lat="45.35388" lon="4.51536">
        <ele>1181.12</ele>
        <time>2017-02-26T09:41:10Z</time>
      </trkpt>
      <trkpt lat="45.35389" lon="4.51542">
        <ele>1181.12</ele>
        <time>2017-02-26T09:41:30Z</time>
      </trkpt>
      <trkpt lat="45.3539" lon="4.51567">
        <ele>1178.23</ele>
        <time>2017-02-26T09:41:35Z</time>
      </trkpt>
      <trkpt lat="45.35388" lon="4.51575">
        <ele>1177.75</ele>
        <time>2017-02-26T09:41:36Z</time>
      </trkpt>
      <trkpt lat="45.35386" lon="4.51582">
        <ele>1176.79</ele>
        <time>2017-02-26T09:41:37Z</time>
      </trkpt>
      <trkpt lat="45.35383" lon="4.51588">
        <ele>1176.79</ele>
        <time>2017-02-26T09:41:38Z</time>
      </trkpt>
      <trkpt lat="45.35379" lon="4.51594">
        <ele>1176.79</ele>
        <time>2017-02-26T09:41:39Z</time>
      </trkpt>
      <trkpt lat="45.35374" lon="4.51599">
        <ele>1176.79</ele>
        <time>2017-02-26T09:41:40Z</time>
      </trkpt>
      <trkpt lat="45.3537" lon="4.51603">
        <ele>1176.79</ele>
        <time>2017-02-26T09:41:41Z</time>
      </trkpt>
      <trkpt lat="45.35365" lon="4.51606">
        <ele>1177.27</ele>
        <time>2017-02-26T09:41:42Z</time>
      </trkpt>
      <trkpt lat="45.35362" lon="4.51607">
        <ele>1177.27</ele>
        <time>2017-02-26T09:41:43Z</time>
      </trkpt>
      <trkpt lat="45.3536" lon="4.51607">
        <ele>1178.23</ele>
        <time>2017-02-26T09:41:51Z</time>
      </trkpt>
      <trkpt lat="45.35359" lon="4.51608">
        <ele>1178.23</ele>
        <time>2017-02-26T09:42:03Z</time>
      </trkpt>
      <trkpt lat="45.35359" lon="4.51608">
        <ele>1178.23</ele>
        <time>2017-02-26T09:42:20Z</time>
      </trkpt>
      <trkpt lat="45.35358" lon="4.51608">
        <ele>1178.23</ele>
        <time>2017-02-26T09:42:51Z</time>
      </trkpt>
      <trkpt lat="45.35358" lon="4.51608">
        <ele>1178.23</ele>
        <time>2017-02-26T09:43:14Z</time>
      </trkpt>
      <trkpt lat="45.35356" lon="4.51613">
        <ele>1178.23</ele>
        <time>2017-02-26T09:43:18Z</time>
      </trkpt>
      <trkpt lat="45.35354" lon="4.51614">
        <ele>1178.23</ele>
        <time>2017-02-26T09:43:19Z</time>
      </trkpt>
      <trkpt lat="45.35351" lon="4.51615">
        <ele>1178.71</ele>
        <time>2017-02-26T09:43:20Z</time>
      </trkpt>
      <trkpt lat="45.35348" lon="4.51614">
        <ele>1178.71</ele>
        <time>2017-02-26T09:43:21Z</time>
      </trkpt>
      <trkpt lat="45.35346" lon="4.51613">
        <ele>1178.71</ele>
        <time>2017-02-26T09:43:22Z</time>
      </trkpt>
      <trkpt lat="45.35344" lon="4.51612">
        <ele>1178.71</ele>
        <time>2017-02-26T09:43:23Z</time>
      </trkpt>
      <trkpt lat="45.35342" lon="4.51612">
        <ele>1178.71</ele>
        <time>2017-02-26T09:43:24Z</time>
      </trkpt>
      <trkpt lat="45.35339" lon="4.51612">
        <ele>1178.71</ele>
        <time>2017-02-26T09:43:25Z</time>
      </trkpt>
      <trkpt lat="45.35337" lon="4.51611">
        <ele>1179.19</ele>
        <time>2017-02-26T09:43:26Z</time>
      </trkpt>
      <trkpt lat="45.35334" lon="4.51609">
        <ele>1179.19</ele>
        <time>2017-02-26T09:43:27Z</time>
      </trkpt>
      <trkpt lat="45.35332" lon="4.51609">
        <ele>1179.19</ele>
        <time>2017-02-26T09:43:28Z</time>
      </trkpt>
      <trkpt lat="45.35329" lon="4.51607">
        <ele>1179.19</ele>
        <time>2017-02-26T09:43:29Z</time>
      </trkpt>
      <trkpt lat="45.35327" lon="4.51606">
        <ele>1179.67</ele>
        <time>2017-02-26T09:43:30Z</time>
      </trkpt>
      <trkpt lat="45.35299" lon="4.516">
        <ele>1181.12</ele>
        <time>2017-02-26T09:43:41Z</time>
      </trkpt>
      <trkpt lat="45.35271" lon="4.51596">
        <ele>1181.6</ele>
        <time>2017-02-26T09:43:53Z</time>
      </trkpt>
      <trkpt lat="45.35246" lon="4.51593">
        <ele>1183.04</ele>
        <time>2017-02-26T09:44:04Z</time>
      </trkpt>
      <trkpt lat="45.35227" lon="4.51591">
        <ele>1184</ele>
        <time>2017-02-26T09:44:12Z</time>
      </trkpt>
      <trkpt lat="45.35196" lon="4.51597">
        <ele>1184.48</ele>
        <time>2017-02-26T09:44:25Z</time>
      </trkpt>
      <trkpt lat="45.35194" lon="4.51597">
        <ele>1184.48</ele>
        <time>2017-02-26T09:44:26Z</time>
      </trkpt>
      <trkpt lat="45.35187" lon="4.51597">
        <ele>1185.44</ele>
        <time>2017-02-26T09:44:30Z</time>
      </trkpt>
      <trkpt lat="45.35186" lon="4.51599">
        <ele>1185.44</ele>
        <time>2017-02-26T09:44:31Z</time>
      </trkpt>
      <trkpt lat="45.35185" lon="4.51599">
        <ele>1185.44</ele>
        <time>2017-02-26T09:44:32Z</time>
      </trkpt>
      <trkpt lat="45.35183" lon="4.51599">
        <ele>1185.44</ele>
        <time>2017-02-26T09:44:33Z</time>
      </trkpt>
      <trkpt lat="45.3518" lon="4.51599">
        <ele>1185.92</ele>
        <time>2017-02-26T09:44:34Z</time>
      </trkpt>
      <trkpt lat="45.35152" lon="4.51596">
        <ele>1186.4</ele>
        <time>2017-02-26T09:44:45Z</time>
      </trkpt>
      <trkpt lat="45.35121" lon="4.51597">
        <ele>1186.88</ele>
        <time>2017-02-26T09:44:57Z</time>
      </trkpt>
      <trkpt lat="45.351" lon="4.51603">
        <ele>1188.33</ele>
        <time>2017-02-26T09:45:06Z</time>
      </trkpt>
      <trkpt lat="45.35096" lon="4.51605">
        <ele>1188.33</ele>
        <time>2017-02-26T09:45:08Z</time>
      </trkpt>
      <trkpt lat="45.35065" lon="4.51605">
        <ele>1189.29</ele>
        <time>2017-02-26T09:45:20Z</time>
      </trkpt>
      <trkpt lat="45.35054" lon="4.51605">
        <ele>1188.81</ele>
        <time>2017-02-26T09:45:24Z</time>
      </trkpt>
      <trkpt lat="45.3505" lon="4.51602">
        <ele>1188.81</ele>
        <time>2017-02-26T09:45:25Z</time>
      </trkpt>
      <trkpt lat="45.35018" lon="4.51584">
        <ele>1184.96</ele>
        <time>2017-02-26T09:45:33Z</time>
      </trkpt>
      <trkpt lat="45.35012" lon="4.51582">
        <ele>1184</ele>
        <time>2017-02-26T09:45:34Z</time>
      </trkpt>
      <trkpt lat="45.35005" lon="4.51582">
        <ele>1182.08</ele>
        <time>2017-02-26T09:45:35Z</time>
      </trkpt>
      <trkpt lat="45.34987" lon="4.51581">
        <ele>1180.64</ele>
        <time>2017-02-26T09:45:38Z</time>
      </trkpt>
      <trkpt lat="45.34982" lon="4.5158">
        <ele>1180.16</ele>
        <time>2017-02-26T09:45:39Z</time>
      </trkpt>
      <trkpt lat="45.34925" lon="4.51562">
        <ele>1178.23</ele>
        <time>2017-02-26T09:45:47Z</time>
      </trkpt>
      <trkpt lat="45.34898" lon="4.51541">
        <ele>1178.71</ele>
        <time>2017-02-26T09:45:56Z</time>
      </trkpt>
      <trkpt lat="45.34893" lon="4.5153">
        <ele>1179.19</ele>
        <time>2017-02-26T09:45:59Z</time>
      </trkpt>
      <trkpt lat="45.34892" lon="4.51527">
        <ele>1179.19</ele>
        <time>2017-02-26T09:46:00Z</time>
      </trkpt>
      <trkpt lat="45.34879" lon="4.51498">
        <ele>1181.6</ele>
        <time>2017-02-26T09:46:11Z</time>
      </trkpt>
      <trkpt lat="45.34874" lon="4.51492">
        <ele>1182.08</ele>
        <time>2017-02-26T09:46:14Z</time>
      </trkpt>
      <trkpt lat="45.34868" lon="4.51485">
        <ele>1183.04</ele>
        <time>2017-02-26T09:46:18Z</time>
      </trkpt>
      <trkpt lat="45.34866" lon="4.51483">
        <ele>1183.04</ele>
        <time>2017-02-26T09:46:19Z</time>
      </trkpt>
      <trkpt lat="45.34849" lon="4.51463">
        <ele>1185.92</ele>
        <time>2017-02-26T09:46:30Z</time>
      </trkpt>
      <trkpt lat="45.34843" lon="4.51453">
        <ele>1186.88</ele>
        <time>2017-02-26T09:46:40Z</time>
      </trkpt>
      <trkpt lat="45.34841" lon="4.51448">
        <ele>1186.88</ele>
        <time>2017-02-26T09:46:48Z</time>
      </trkpt>
      <trkpt lat="45.34839" lon="4.51442">
        <ele>1187.37</ele>
        <time>2017-02-26T09:46:53Z</time>
      </trkpt>
      <trkpt lat="45.34838" lon="4.51439">
        <ele>1187.37</ele>
        <time>2017-02-26T09:46:54Z</time>
      </trkpt>
      <trkpt lat="45.34837" lon="4.51437">
        <ele>1187.85</ele>
        <time>2017-02-26T09:46:55Z</time>
      </trkpt>
      <trkpt lat="45.34837" lon="4.51435">
        <ele>1187.85</ele>
        <time>2017-02-26T09:46:56Z</time>
      </trkpt>
      <trkpt lat="45.34836" lon="4.51432">
        <ele>1188.33</ele>
        <time>2017-02-26T09:46:57Z</time>
      </trkpt>
      <trkpt lat="45.34835" lon="4.51429">
        <ele>1188.33</ele>
        <time>2017-02-26T09:46:58Z</time>
      </trkpt>
      <trkpt lat="45.34835" lon="4.51426">
        <ele>1188.33</ele>
        <time>2017-02-26T09:46:59Z</time>
      </trkpt>
      <trkpt lat="45.34831" lon="4.51419">
        <ele>1188.81</ele>
        <time>2017-02-26T09:47:02Z</time>
      </trkpt>
      <trkpt lat="45.34814" lon="4.51382">
        <ele>1190.73</ele>
        <time>2017-02-26T09:47:16Z</time>
      </trkpt>
      <trkpt lat="45.34797" lon="4.5135">
        <ele>1191.21</ele>
        <time>2017-02-26T09:47:28Z</time>
      </trkpt>
      <trkpt lat="45.34778" lon="4.51331">
        <ele>1191.69</ele>
        <time>2017-02-26T09:47:36Z</time>
      </trkpt>
      <trkpt lat="45.34776" lon="4.51326">
        <ele>1191.69</ele>
        <time>2017-02-26T09:47:37Z</time>
      </trkpt>
      <trkpt lat="45.34739" lon="4.51283">
        <ele>1191.69</ele>
        <time>2017-02-26T09:47:51Z</time>
      </trkpt>
      <trkpt lat="45.34717" lon="4.51264">
        <ele>1191.69</ele>
        <time>2017-02-26T09:48:00Z</time>
      </trkpt>
      <trkpt lat="45.34712" lon="4.51258">
        <ele>1191.21</ele>
        <time>2017-02-26T09:48:10Z</time>
      </trkpt>
      <trkpt lat="45.34712" lon="4.51258">
        <ele>1191.21</ele>
        <time>2017-02-26T09:48:15Z</time>
      </trkpt>
      <trkpt lat="45.34711" lon="4.51257">
        <ele>1190.73</ele>
        <time>2017-02-26T09:48:16Z</time>
      </trkpt>
      <trkpt lat="45.3471" lon="4.51255">
        <ele>1190.73</ele>
        <time>2017-02-26T09:48:17Z</time>
      </trkpt>
      <trkpt lat="45.34698" lon="4.51206">
        <ele>1188.81</ele>
        <time>2017-02-26T09:48:27Z</time>
      </trkpt>
      <trkpt lat="45.3469" lon="4.51155">
        <ele>1186.88</ele>
        <time>2017-02-26T09:48:36Z</time>
      </trkpt>
      <trkpt lat="45.34703" lon="4.51106">
        <ele>1185.44</ele>
        <time>2017-02-26T09:48:46Z</time>
      </trkpt>
      <trkpt lat="45.34717" lon="4.51067">
        <ele>1188.33</ele>
        <time>2017-02-26T09:48:58Z</time>
      </trkpt>
      <trkpt lat="45.34717" lon="4.51066">
        <ele>1188.33</ele>
        <time>2017-02-26T09:48:59Z</time>
      </trkpt>
      <trkpt lat="45.34719" lon="4.5106">
        <ele>1189.29</ele>
        <time>2017-02-26T09:49:02Z</time>
      </trkpt>
      <trkpt lat="45.34719" lon="4.51057">
        <ele>1189.77</ele>
        <time>2017-02-26T09:49:03Z</time>
      </trkpt>
      <trkpt lat="45.34719" lon="4.51053">
        <ele>1189.77</ele>
        <time>2017-02-26T09:49:04Z</time>
      </trkpt>
      <trkpt lat="45.34718" lon="4.51049">
        <ele>1190.25</ele>
        <time>2017-02-26T09:49:05Z</time>
      </trkpt>
      <trkpt lat="45.34717" lon="4.51047">
        <ele>1190.25</ele>
        <time>2017-02-26T09:49:06Z</time>
      </trkpt>
      <trkpt lat="45.34717" lon="4.51044">
        <ele>1190.25</ele>
        <time>2017-02-26T09:49:07Z</time>
      </trkpt>
      <trkpt lat="45.34718" lon="4.5104">
        <ele>1190.73</ele>
        <time>2017-02-26T09:49:08Z</time>
      </trkpt>
      <trkpt lat="45.34718" lon="4.51036">
        <ele>1190.73</ele>
        <time>2017-02-26T09:49:09Z</time>
      </trkpt>
      <trkpt lat="45.34724" lon="4.5098">
        <ele>1191.21</ele>
        <time>2017-02-26T09:49:21Z</time>
      </trkpt>
      <trkpt lat="45.34724" lon="4.50976">
        <ele>1191.21</ele>
        <time>2017-02-26T09:49:22Z</time>
      </trkpt>
      <trkpt lat="45.34724" lon="4.50971">
        <ele>1191.21</ele>
        <time>2017-02-26T09:49:23Z</time>
      </trkpt>
      <trkpt lat="45.34723" lon="4.50966">
        <ele>1191.21</ele>
        <time>2017-02-26T09:49:24Z</time>
      </trkpt>
      <trkpt lat="45.34722" lon="4.50962">
        <ele>1191.21</ele>
        <time>2017-02-26T09:49:25Z</time>
      </trkpt>
      <trkpt lat="45.34722" lon="4.50957">
        <ele>1191.21</ele>
        <time>2017-02-26T09:49:26Z</time>
      </trkpt>
      <trkpt lat="45.34721" lon="4.50953">
        <ele>1191.21</ele>
        <time>2017-02-26T09:49:27Z</time>
      </trkpt>
      <trkpt lat="45.3472" lon="4.50948">
        <ele>1191.21</ele>
        <time>2017-02-26T09:49:28Z</time>
      </trkpt>
      <trkpt lat="45.34719" lon="4.50944">
        <ele>1191.21</ele>
        <time>2017-02-26T09:49:29Z</time>
      </trkpt>
      <trkpt lat="45.34718" lon="4.50941">
        <ele>1191.21</ele>
        <time>2017-02-26T09:49:30Z</time>
      </trkpt>
      <trkpt lat="45.34716" lon="4.50937">
        <ele>1191.21</ele>
        <time>2017-02-26T09:49:31Z</time>
      </trkpt>
      <trkpt lat="45.34715" lon="4.50934">
        <ele>1191.21</ele>
        <time>2017-02-26T09:49:32Z</time>
      </trkpt>
      <trkpt lat="45.34714" lon="4.5093">
        <ele>1191.21</ele>
        <time>2017-02-26T09:49:33Z</time>
      </trkpt>
      <trkpt lat="45.34713" lon="4.50927">
        <ele>1191.69</ele>
        <time>2017-02-26T09:49:34Z</time>
      </trkpt>
      <trkpt lat="45.34712" lon="4.50924">
        <ele>1191.69</ele>
        <time>2017-02-26T09:49:35Z</time>
      </trkpt>
      <trkpt lat="45.34706" lon="4.50884">
        <ele>1192.17</ele>
        <time>2017-02-26T09:49:47Z</time>
      </trkpt>
      <trkpt lat="45.34705" lon="4.50869">
        <ele>1192.65</ele>
        <time>2017-02-26T09:49:52Z</time>
      </trkpt>
      <trkpt lat="45.34705" lon="4.50868">
        <ele>1193.13</ele>
        <time>2017-02-26T09:49:53Z</time>
      </trkpt>
      <trkpt lat="45.34704" lon="4.50866">
        <ele>1193.13</ele>
        <time>2017-02-26T09:49:54Z</time>
      </trkpt>
      <trkpt lat="45.34703" lon="4.50863">
        <ele>1193.13</ele>
        <time>2017-02-26T09:49:55Z</time>
      </trkpt>
      <trkpt lat="45.34703" lon="4.50861">
        <ele>1193.61</ele>
        <time>2017-02-26T09:49:56Z</time>
      </trkpt>
      <trkpt lat="45.3471" lon="4.50836">
        <ele>1194.09</ele>
        <time>2017-02-26T09:50:06Z</time>
      </trkpt>
      <trkpt lat="45.3471" lon="4.50823">
        <ele>1193.61</ele>
        <time>2017-02-26T09:50:09Z</time>
      </trkpt>
      <trkpt lat="45.34709" lon="4.50816">
        <ele>1194.09</ele>
        <time>2017-02-26T09:50:10Z</time>
      </trkpt>
      <trkpt lat="45.34707" lon="4.50804">
        <ele>1194.09</ele>
        <time>2017-02-26T09:50:12Z</time>
      </trkpt>
      <trkpt lat="45.34698" lon="4.50747">
        <ele>1194.58</ele>
        <time>2017-02-26T09:50:24Z</time>
      </trkpt>
      <trkpt lat="45.34698" lon="4.50732">
        <ele>1195.06</ele>
        <time>2017-02-26T09:50:29Z</time>
      </trkpt>
      <trkpt lat="45.34697" lon="4.50729">
        <ele>1195.06</ele>
        <time>2017-02-26T09:50:30Z</time>
      </trkpt>
      <trkpt lat="45.34696" lon="4.50713">
        <ele>1195.54</ele>
        <time>2017-02-26T09:50:34Z</time>
      </trkpt>
      <trkpt lat="45.34695" lon="4.50708">
        <ele>1195.54</ele>
        <time>2017-02-26T09:50:35Z</time>
      </trkpt>
      <trkpt lat="45.34694" lon="4.50703">
        <ele>1196.02</ele>
        <time>2017-02-26T09:50:36Z</time>
      </trkpt>
      <trkpt lat="45.34693" lon="4.50699">
        <ele>1196.02</ele>
        <time>2017-02-26T09:50:37Z</time>
      </trkpt>
      <trkpt lat="45.34692" lon="4.50695">
        <ele>1196.5</ele>
        <time>2017-02-26T09:50:38Z</time>
      </trkpt>
      <trkpt lat="45.3469" lon="4.50691">
        <ele>1196.5</ele>
        <time>2017-02-26T09:50:39Z</time>
      </trkpt>
      <trkpt lat="45.34688" lon="4.50687">
        <ele>1196.5</ele>
        <time>2017-02-26T09:50:40Z</time>
      </trkpt>
      <trkpt lat="45.34687" lon="4.50683">
        <ele>1196.5</ele>
        <time>2017-02-26T09:50:41Z</time>
      </trkpt>
      <trkpt lat="45.34686" lon="4.50679">
        <ele>1196.98</ele>
        <time>2017-02-26T09:50:42Z</time>
      </trkpt>
      <trkpt lat="45.34673" lon="4.50648">
        <ele>1198.9</ele>
        <time>2017-02-26T09:50:52Z</time>
      </trkpt>
      <trkpt lat="45.34671" lon="4.50646">
        <ele>1198.9</ele>
        <time>2017-02-26T09:50:53Z</time>
      </trkpt>
      <trkpt lat="45.34669" lon="4.50644">
        <ele>1198.9</ele>
        <time>2017-02-26T09:50:54Z</time>
      </trkpt>
      <trkpt lat="45.34667" lon="4.50644">
        <ele>1198.9</ele>
        <time>2017-02-26T09:50:55Z</time>
      </trkpt>
      <trkpt lat="45.34666" lon="4.50643">
        <ele>1199.38</ele>
        <time>2017-02-26T09:50:56Z</time>
      </trkpt>
      <trkpt lat="45.34662" lon="4.50641">
        <ele>1199.38</ele>
        <time>2017-02-26T09:50:58Z</time>
      </trkpt>
      <trkpt lat="45.34661" lon="4.50639">
        <ele>1199.38</ele>
        <time>2017-02-26T09:50:59Z</time>
      </trkpt>
      <trkpt lat="45.3466" lon="4.50637">
        <ele>1199.86</ele>
        <time>2017-02-26T09:51:00Z</time>
      </trkpt>
      <trkpt lat="45.34658" lon="4.50636">
        <ele>1199.86</ele>
        <time>2017-02-26T09:51:01Z</time>
      </trkpt>
      <trkpt lat="45.34655" lon="4.50636">
        <ele>1199.86</ele>
        <time>2017-02-26T09:51:02Z</time>
      </trkpt>
      <trkpt lat="45.34634" lon="4.50636">
        <ele>1201.79</ele>
        <time>2017-02-26T09:51:13Z</time>
      </trkpt>
      <trkpt lat="45.34615" lon="4.50639">
        <ele>1202.75</ele>
        <time>2017-02-26T09:51:22Z</time>
      </trkpt>
      <trkpt lat="45.34591" lon="4.50644">
        <ele>1203.23</ele>
        <time>2017-02-26T09:51:32Z</time>
      </trkpt>
      <trkpt lat="45.34569" lon="4.50654">
        <ele>1204.19</ele>
        <time>2017-02-26T09:51:43Z</time>
      </trkpt>
      <trkpt lat="45.34555" lon="4.50657">
        <ele>1203.71</ele>
        <time>2017-02-26T09:51:48Z</time>
      </trkpt>
      <trkpt lat="45.3455" lon="4.50658">
        <ele>1203.23</ele>
        <time>2017-02-26T09:51:49Z</time>
      </trkpt>
      <trkpt lat="45.34539" lon="4.50662">
        <ele>1202.75</ele>
        <time>2017-02-26T09:51:52Z</time>
      </trkpt>
      <trkpt lat="45.34536" lon="4.50663">
        <ele>1202.75</ele>
        <time>2017-02-26T09:51:53Z</time>
      </trkpt>
      <trkpt lat="45.34533" lon="4.50664">
        <ele>1202.75</ele>
        <time>2017-02-26T09:51:54Z</time>
      </trkpt>
      <trkpt lat="45.34519" lon="4.50665">
        <ele>1202.27</ele>
        <time>2017-02-26T09:51:57Z</time>
      </trkpt>
      <trkpt lat="45.34514" lon="4.50665">
        <ele>1201.79</ele>
        <time>2017-02-26T09:51:58Z</time>
      </trkpt>
      <trkpt lat="45.34509" lon="4.50666">
        <ele>1201.79</ele>
        <time>2017-02-26T09:51:59Z</time>
      </trkpt>
      <trkpt lat="45.34505" lon="4.50667">
        <ele>1201.79</ele>
        <time>2017-02-26T09:52:00Z</time>
      </trkpt>
      <trkpt lat="45.34501" lon="4.50666">
        <ele>1201.79</ele>
        <time>2017-02-26T09:52:01Z</time>
      </trkpt>
      <trkpt lat="45.34476" lon="4.5068">
        <ele>1201.79</ele>
        <time>2017-02-26T09:52:09Z</time>
      </trkpt>
      <trkpt lat="45.34435" lon="4.50695">
        <ele>1202.27</ele>
        <time>2017-02-26T09:52:21Z</time>
      </trkpt>
      <trkpt lat="45.34408" lon="4.50711">
        <ele>1203.71</ele>
        <time>2017-02-26T09:52:32Z</time>
      </trkpt>
      <trkpt lat="45.34407" lon="4.50712">
        <ele>1203.71</ele>
        <time>2017-02-26T09:52:33Z</time>
      </trkpt>
      <trkpt lat="45.34406" lon="4.50712">
        <ele>1203.71</ele>
        <time>2017-02-26T09:52:34Z</time>
      </trkpt>
      <trkpt lat="45.34397" lon="4.50716">
        <ele>1204.19</ele>
        <time>2017-02-26T09:52:38Z</time>
      </trkpt>
      <trkpt lat="45.34395" lon="4.50715">
        <ele>1204.19</ele>
        <time>2017-02-26T09:52:39Z</time>
      </trkpt>
      <trkpt lat="45.34393" lon="4.50716">
        <ele>1204.67</ele>
        <time>2017-02-26T09:52:40Z</time>
      </trkpt>
      <trkpt lat="45.34392" lon="4.50717">
        <ele>1204.67</ele>
        <time>2017-02-26T09:52:41Z</time>
      </trkpt>
      <trkpt lat="45.3439" lon="4.50717">
        <ele>1204.67</ele>
        <time>2017-02-26T09:52:42Z</time>
      </trkpt>
      <trkpt lat="45.34387" lon="4.50719">
        <ele>1204.67</ele>
        <time>2017-02-26T09:52:43Z</time>
      </trkpt>
      <trkpt lat="45.34385" lon="4.50721">
        <ele>1205.15</ele>
        <time>2017-02-26T09:52:44Z</time>
      </trkpt>
      <trkpt lat="45.34383" lon="4.50722">
        <ele>1205.15</ele>
        <time>2017-02-26T09:52:45Z</time>
      </trkpt>
      <trkpt lat="45.34381" lon="4.50723">
        <ele>1205.63</ele>
        <time>2017-02-26T09:52:46Z</time>
      </trkpt>
      <trkpt lat="45.3437" lon="4.50723">
        <ele>1206.11</ele>
        <time>2017-02-26T09:52:51Z</time>
      </trkpt>
      <trkpt lat="45.34368" lon="4.50722">
        <ele>1206.59</ele>
        <time>2017-02-26T09:52:52Z</time>
      </trkpt>
      <trkpt lat="45.34366" lon="4.50721">
        <ele>1206.59</ele>
        <time>2017-02-26T09:52:53Z</time>
      </trkpt>
      <trkpt lat="45.34364" lon="4.50721">
        <ele>1206.59</ele>
        <time>2017-02-26T09:52:54Z</time>
      </trkpt>
      <trkpt lat="45.34362" lon="4.5072">
        <ele>1207.07</ele>
        <time>2017-02-26T09:52:55Z</time>
      </trkpt>
      <trkpt lat="45.3436" lon="4.5072">
        <ele>1207.07</ele>
        <time>2017-02-26T09:52:56Z</time>
      </trkpt>
      <trkpt lat="45.34358" lon="4.5072">
        <ele>1207.07</ele>
        <time>2017-02-26T09:52:57Z</time>
      </trkpt>
      <trkpt lat="45.34356" lon="4.5072">
        <ele>1207.55</ele>
        <time>2017-02-26T09:52:58Z</time>
      </trkpt>
      <trkpt lat="45.34354" lon="4.50721">
        <ele>1207.07</ele>
        <time>2017-02-26T09:52:59Z</time>
      </trkpt>
      <trkpt lat="45.34339" lon="4.50725">
        <ele>1209</ele>
        <time>2017-02-26T09:53:07Z</time>
      </trkpt>
      <trkpt lat="45.34337" lon="4.50726">
        <ele>1209</ele>
        <time>2017-02-26T09:53:08Z</time>
      </trkpt>
      <trkpt lat="45.34335" lon="4.50726">
        <ele>1209.48</ele>
        <time>2017-02-26T09:53:09Z</time>
      </trkpt>
      <trkpt lat="45.34333" lon="4.50727">
        <ele>1209.48</ele>
        <time>2017-02-26T09:53:10Z</time>
      </trkpt>
      <trkpt lat="45.34317" lon="4.50724">
        <ele>1210.92</ele>
        <time>2017-02-26T09:53:18Z</time>
      </trkpt>
      <trkpt lat="45.34311" lon="4.50726">
        <ele>1210.92</ele>
        <time>2017-02-26T09:53:21Z</time>
      </trkpt>
      <trkpt lat="45.34307" lon="4.50727">
        <ele>1211.4</ele>
        <time>2017-02-26T09:53:23Z</time>
      </trkpt>
      <trkpt lat="45.34305" lon="4.50727">
        <ele>1211.4</ele>
        <time>2017-02-26T09:53:24Z</time>
      </trkpt>
      <trkpt lat="45.34304" lon="4.50726">
        <ele>1211.88</ele>
        <time>2017-02-26T09:53:25Z</time>
      </trkpt>
      <trkpt lat="45.34302" lon="4.50724">
        <ele>1211.88</ele>
        <time>2017-02-26T09:53:26Z</time>
      </trkpt>
      <trkpt lat="45.343" lon="4.50723">
        <ele>1212.36</ele>
        <time>2017-02-26T09:53:27Z</time>
      </trkpt>
      <trkpt lat="45.34299" lon="4.50723">
        <ele>1212.36</ele>
        <time>2017-02-26T09:53:28Z</time>
      </trkpt>
      <trkpt lat="45.34276" lon="4.50731">
        <ele>1214.76</ele>
        <time>2017-02-26T09:53:41Z</time>
      </trkpt>
      <trkpt lat="45.34274" lon="4.50732">
        <ele>1214.76</ele>
        <time>2017-02-26T09:53:42Z</time>
      </trkpt>
      <trkpt lat="45.34272" lon="4.50734">
        <ele>1215.24</ele>
        <time>2017-02-26T09:53:44Z</time>
      </trkpt>
      <trkpt lat="45.3427" lon="4.50734">
        <ele>1215.24</ele>
        <time>2017-02-26T09:53:45Z</time>
      </trkpt>
      <trkpt lat="45.34269" lon="4.50734">
        <ele>1215.24</ele>
        <time>2017-02-26T09:53:46Z</time>
      </trkpt>
      <trkpt lat="45.34267" lon="4.50735">
        <ele>1215.72</ele>
        <time>2017-02-26T09:53:47Z</time>
      </trkpt>
      <trkpt lat="45.34265" lon="4.50735">
        <ele>1215.72</ele>
        <time>2017-02-26T09:53:48Z</time>
      </trkpt>
      <trkpt lat="45.34253" lon="4.50738">
        <ele>1218.13</ele>
        <time>2017-02-26T09:53:58Z</time>
      </trkpt>
      <trkpt lat="45.3425" lon="4.50738">
        <ele>1218.13</ele>
        <time>2017-02-26T09:54:00Z</time>
      </trkpt>
      <trkpt lat="45.34248" lon="4.50737">
        <ele>1218.61</ele>
        <time>2017-02-26T09:54:01Z</time>
      </trkpt>
      <trkpt lat="45.3424" lon="4.50739">
        <ele>1219.09</ele>
        <time>2017-02-26T09:54:06Z</time>
      </trkpt>
      <trkpt lat="45.34236" lon="4.50738">
        <ele>1219.57</ele>
        <time>2017-02-26T09:54:09Z</time>
      </trkpt>
      <trkpt lat="45.34234" lon="4.50738">
        <ele>1220.05</ele>
        <time>2017-02-26T09:54:10Z</time>
      </trkpt>
      <trkpt lat="45.34232" lon="4.50738">
        <ele>1220.05</ele>
        <time>2017-02-26T09:54:12Z</time>
      </trkpt>
      <trkpt lat="45.3423" lon="4.50738">
        <ele>1220.05</ele>
        <time>2017-02-26T09:54:13Z</time>
      </trkpt>
      <trkpt lat="45.34224" lon="4.50735">
        <ele>1221.49</ele>
        <time>2017-02-26T09:54:18Z</time>
      </trkpt>
      <trkpt lat="45.34218" lon="4.50733">
        <ele>1221.49</ele>
        <time>2017-02-26T09:54:22Z</time>
      </trkpt>
      <trkpt lat="45.34216" lon="4.50732">
        <ele>1221.49</ele>
        <time>2017-02-26T09:54:23Z</time>
      </trkpt>
      <trkpt lat="45.34215" lon="4.50732">
        <ele>1221.97</ele>
        <time>2017-02-26T09:54:24Z</time>
      </trkpt>
      <trkpt lat="45.34213" lon="4.50731">
        <ele>1221.97</ele>
        <time>2017-02-26T09:54:25Z</time>
      </trkpt>
      <trkpt lat="45.34208" lon="4.50731">
        <ele>1222.45</ele>
        <time>2017-02-26T09:54:29Z</time>
      </trkpt>
      <trkpt lat="45.34206" lon="4.50731">
        <ele>1222.45</ele>
        <time>2017-02-26T09:54:30Z</time>
      </trkpt>
      <trkpt lat="45.34197" lon="4.5073">
        <ele>1223.9</ele>
        <time>2017-02-26T09:54:37Z</time>
      </trkpt>
      <trkpt lat="45.34196" lon="4.50729">
        <ele>1223.9</ele>
        <time>2017-02-26T09:54:38Z</time>
      </trkpt>
      <trkpt lat="45.34184" lon="4.50725">
        <ele>1225.82</ele>
        <time>2017-02-26T09:54:49Z</time>
      </trkpt>
      <trkpt lat="45.34169" lon="4.50714">
        <ele>1227.26</ele>
        <time>2017-02-26T09:55:00Z</time>
      </trkpt>
      <trkpt lat="45.34168" lon="4.50712">
        <ele>1227.26</ele>
        <time>2017-02-26T09:55:01Z</time>
      </trkpt>
      <trkpt lat="45.3415" lon="4.50702">
        <ele>1228.7</ele>
        <time>2017-02-26T09:55:13Z</time>
      </trkpt>
      <trkpt lat="45.34147" lon="4.507">
        <ele>1228.7</ele>
        <time>2017-02-26T09:55:15Z</time>
      </trkpt>
      <trkpt lat="45.34146" lon="4.507">
        <ele>1229.18</ele>
        <time>2017-02-26T09:55:16Z</time>
      </trkpt>
      <trkpt lat="45.34144" lon="4.50698">
        <ele>1229.18</ele>
        <time>2017-02-26T09:55:17Z</time>
      </trkpt>
      <trkpt lat="45.34143" lon="4.50697">
        <ele>1229.66</ele>
        <time>2017-02-26T09:55:18Z</time>
      </trkpt>
      <trkpt lat="45.34136" lon="4.5069">
        <ele>1230.14</ele>
        <time>2017-02-26T09:55:24Z</time>
      </trkpt>
      <trkpt lat="45.34135" lon="4.50687">
        <ele>1230.14</ele>
        <time>2017-02-26T09:55:25Z</time>
      </trkpt>
      <trkpt lat="45.34133" lon="4.50685">
        <ele>1230.14</ele>
        <time>2017-02-26T09:55:26Z</time>
      </trkpt>
      <trkpt lat="45.34122" lon="4.50659">
        <ele>1230.62</ele>
        <time>2017-02-26T09:55:37Z</time>
      </trkpt>
      <trkpt lat="45.34115" lon="4.50642">
        <ele>1231.59</ele>
        <time>2017-02-26T09:55:44Z</time>
      </trkpt>
      <trkpt lat="45.34115" lon="4.5064">
        <ele>1231.59</ele>
        <time>2017-02-26T09:55:45Z</time>
      </trkpt>
      <trkpt lat="45.34106" lon="4.5062">
        <ele>1233.03</ele>
        <time>2017-02-26T09:55:54Z</time>
      </trkpt>
      <trkpt lat="45.34104" lon="4.50617">
        <ele>1233.03</ele>
        <time>2017-02-26T09:55:55Z</time>
      </trkpt>
      <trkpt lat="45.34103" lon="4.50615">
        <ele>1233.03</ele>
        <time>2017-02-26T09:55:56Z</time>
      </trkpt>
      <trkpt lat="45.34102" lon="4.50612">
        <ele>1233.03</ele>
        <time>2017-02-26T09:55:57Z</time>
      </trkpt>
      <trkpt lat="45.341" lon="4.50609">
        <ele>1233.51</ele>
        <time>2017-02-26T09:55:58Z</time>
      </trkpt>
      <trkpt lat="45.34099" lon="4.50606">
        <ele>1233.51</ele>
        <time>2017-02-26T09:55:59Z</time>
      </trkpt>
      <trkpt lat="45.34098" lon="4.50603">
        <ele>1233.51</ele>
        <time>2017-02-26T09:56:00Z</time>
      </trkpt>
      <trkpt lat="45.34097" lon="4.506">
        <ele>1233.51</ele>
        <time>2017-02-26T09:56:01Z</time>
      </trkpt>
      <trkpt lat="45.34087" lon="4.50587">
        <ele>1233.99</ele>
        <time>2017-02-26T09:56:08Z</time>
      </trkpt>
      <trkpt lat="45.34085" lon="4.50585">
        <ele>1233.99</ele>
        <time>2017-02-26T09:56:09Z</time>
      </trkpt>
      <trkpt lat="45.34084" lon="4.50583">
        <ele>1233.99</ele>
        <time>2017-02-26T09:56:10Z</time>
      </trkpt>
      <trkpt lat="45.34082" lon="4.5058">
        <ele>1234.47</ele>
        <time>2017-02-26T09:56:11Z</time>
      </trkpt>
      <trkpt lat="45.34081" lon="4.50577">
        <ele>1234.47</ele>
        <time>2017-02-26T09:56:12Z</time>
      </trkpt>
      <trkpt lat="45.3408" lon="4.50575">
        <ele>1234.47</ele>
        <time>2017-02-26T09:56:13Z</time>
      </trkpt>
      <trkpt lat="45.34079" lon="4.50573">
        <ele>1234.47</ele>
        <time>2017-02-26T09:56:14Z</time>
      </trkpt>
      <trkpt lat="45.34077" lon="4.5057">
        <ele>1234.95</ele>
        <time>2017-02-26T09:56:15Z</time>
      </trkpt>
      <trkpt lat="45.34076" lon="4.50569">
        <ele>1234.95</ele>
        <time>2017-02-26T09:56:16Z</time>
      </trkpt>
      <trkpt lat="45.34061" lon="4.50551">
        <ele>1235.91</ele>
        <time>2017-02-26T09:56:26Z</time>
      </trkpt>
      <trkpt lat="45.34044" lon="4.50523">
        <ele>1236.87</ele>
        <time>2017-02-26T09:56:39Z</time>
      </trkpt>
      <trkpt lat="45.34038" lon="4.50512">
        <ele>1236.87</ele>
        <time>2017-02-26T09:56:46Z</time>
      </trkpt>
      <trkpt lat="45.34036" lon="4.50511">
        <ele>1236.87</ele>
        <time>2017-02-26T09:56:55Z</time>
      </trkpt>
      <trkpt lat="45.34036" lon="4.50511">
        <ele>1236.39</ele>
        <time>2017-02-26T09:56:59Z</time>
      </trkpt>
      <trkpt lat="45.34044" lon="4.50523">
        <ele>1237.83</ele>
        <time>2017-02-26T09:59:12Z</time>
      </trkpt>
      <trkpt lat="45.34043" lon="4.5052">
        <ele>1237.83</ele>
        <time>2017-02-26T09:59:13Z</time>
      </trkpt>
      <trkpt lat="45.34039" lon="4.50508">
        <ele>1237.83</ele>
        <time>2017-02-26T09:59:27Z</time>
      </trkpt>
      <trkpt lat="45.34026" lon="4.50504">
        <ele>1237.83</ele>
        <time>2017-02-26T09:59:38Z</time>
      </trkpt>
      <trkpt lat="45.3402" lon="4.50494">
        <ele>1237.83</ele>
        <time>2017-02-26T09:59:48Z</time>
      </trkpt>
      <trkpt lat="45.34016" lon="4.50486">
        <ele>1237.35</ele>
        <time>2017-02-26T09:59:52Z</time>
      </trkpt>
      <trkpt lat="45.3401" lon="4.50475">
        <ele>1236.87</ele>
        <time>2017-02-26T09:59:57Z</time>
      </trkpt>
      <trkpt lat="45.34003" lon="4.50467">
        <ele>1235.91</ele>
        <time>2017-02-26T10:00:01Z</time>
      </trkpt>
      <trkpt lat="45.33998" lon="4.50464">
        <ele>1235.91</ele>
        <time>2017-02-26T10:00:03Z</time>
      </trkpt>
      <trkpt lat="45.33963" lon="4.50464">
        <ele>1234.95</ele>
        <time>2017-02-26T10:00:14Z</time>
      </trkpt>
      <trkpt lat="45.33936" lon="4.50462">
        <ele>1234.47</ele>
        <time>2017-02-26T10:00:22Z</time>
      </trkpt>
      <trkpt lat="45.33906" lon="4.50466">
        <ele>1232.55</ele>
        <time>2017-02-26T10:00:31Z</time>
      </trkpt>
      <trkpt lat="45.3387" lon="4.50478">
        <ele>1231.11</ele>
        <time>2017-02-26T10:00:40Z</time>
      </trkpt>
      <trkpt lat="45.3384" lon="4.50482">
        <ele>1229.18</ele>
        <time>2017-02-26T10:00:49Z</time>
      </trkpt>
      <trkpt lat="45.33806" lon="4.50492">
        <ele>1225.34</ele>
        <time>2017-02-26T10:00:57Z</time>
      </trkpt>
      <trkpt lat="45.33801" lon="4.50494">
        <ele>1225.34</ele>
        <time>2017-02-26T10:00:58Z</time>
      </trkpt>
      <trkpt lat="45.33796" lon="4.50497">
        <ele>1224.86</ele>
        <time>2017-02-26T10:00:59Z</time>
      </trkpt>
      <trkpt lat="45.33792" lon="4.50499">
        <ele>1224.86</ele>
        <time>2017-02-26T10:01:00Z</time>
      </trkpt>
      <trkpt lat="45.33785" lon="4.50505">
        <ele>1224.86</ele>
        <time>2017-02-26T10:01:01Z</time>
      </trkpt>
      <trkpt lat="45.33782" lon="4.50507">
        <ele>1224.86</ele>
        <time>2017-02-26T10:01:02Z</time>
      </trkpt>
      <trkpt lat="45.33779" lon="4.50512">
        <ele>1224.86</ele>
        <time>2017-02-26T10:01:04Z</time>
      </trkpt>
      <trkpt lat="45.33778" lon="4.50515">
        <ele>1224.86</ele>
        <time>2017-02-26T10:01:05Z</time>
      </trkpt>
      <trkpt lat="45.33775" lon="4.50521">
        <ele>1225.34</ele>
        <time>2017-02-26T10:01:14Z</time>
      </trkpt>
      <trkpt lat="45.33774" lon="4.50523">
        <ele>1225.34</ele>
        <time>2017-02-26T10:01:25Z</time>
      </trkpt>
      <trkpt lat="45.33775" lon="4.50531">
        <ele>1225.82</ele>
        <time>2017-02-26T10:01:35Z</time>
      </trkpt>
      <trkpt lat="45.33778" lon="4.50537">
        <ele>1226.3</ele>
        <time>2017-02-26T10:01:38Z</time>
      </trkpt>
      <trkpt lat="45.33781" lon="4.50546">
        <ele>1226.78</ele>
        <time>2017-02-26T10:01:42Z</time>
      </trkpt>
      <trkpt lat="45.33781" lon="4.50549">
        <ele>1227.26</ele>
        <time>2017-02-26T10:01:43Z</time>
      </trkpt>
      <trkpt lat="45.33782" lon="4.50551">
        <ele>1227.26</ele>
        <time>2017-02-26T10:01:44Z</time>
      </trkpt>
      <trkpt lat="45.33783" lon="4.50552">
        <ele>1227.26</ele>
        <time>2017-02-26T10:01:45Z</time>
      </trkpt>
      <trkpt lat="45.33785" lon="4.50555">
        <ele>1228.22</ele>
        <time>2017-02-26T10:01:47Z</time>
      </trkpt>
      <trkpt lat="45.33786" lon="4.50556">
        <ele>1228.22</ele>
        <time>2017-02-26T10:01:48Z</time>
      </trkpt>
      <trkpt lat="45.33786" lon="4.50558">
        <ele>1228.22</ele>
        <time>2017-02-26T10:01:49Z</time>
      </trkpt>
      <trkpt lat="45.33787" lon="4.50562">
        <ele>1228.7</ele>
        <time>2017-02-26T10:01:51Z</time>
      </trkpt>
      <trkpt lat="45.33788" lon="4.50563">
        <ele>1228.7</ele>
        <time>2017-02-26T10:01:52Z</time>
      </trkpt>
      <trkpt lat="45.33789" lon="4.50569">
        <ele>1229.18</ele>
        <time>2017-02-26T10:01:56Z</time>
      </trkpt>
      <trkpt lat="45.33789" lon="4.50571">
        <ele>1229.66</ele>
        <time>2017-02-26T10:01:57Z</time>
      </trkpt>
      <trkpt lat="45.33791" lon="4.50577">
        <ele>1230.14</ele>
        <time>2017-02-26T10:02:00Z</time>
      </trkpt>
      <trkpt lat="45.33791" lon="4.5058">
        <ele>1230.14</ele>
        <time>2017-02-26T10:02:01Z</time>
      </trkpt>
      <trkpt lat="45.33791" lon="4.50582">
        <ele>1230.14</ele>
        <time>2017-02-26T10:02:02Z</time>
      </trkpt>
      <trkpt lat="45.33792" lon="4.50584">
        <ele>1230.62</ele>
        <time>2017-02-26T10:02:03Z</time>
      </trkpt>
      <trkpt lat="45.33792" lon="4.50587">
        <ele>1230.14</ele>
        <time>2017-02-26T10:02:04Z</time>
      </trkpt>
      <trkpt lat="45.33793" lon="4.50589">
        <ele>1230.62</ele>
        <time>2017-02-26T10:02:05Z</time>
      </trkpt>
      <trkpt lat="45.33793" lon="4.5059">
        <ele>1231.11</ele>
        <time>2017-02-26T10:02:06Z</time>
      </trkpt>
      <trkpt lat="45.33794" lon="4.50592">
        <ele>1231.11</ele>
        <time>2017-02-26T10:02:07Z</time>
      </trkpt>
      <trkpt lat="45.33794" lon="4.50594">
        <ele>1231.11</ele>
        <time>2017-02-26T10:02:08Z</time>
      </trkpt>
      <trkpt lat="45.33795" lon="4.50596">
        <ele>1231.11</ele>
        <time>2017-02-26T10:02:09Z</time>
      </trkpt>
      <trkpt lat="45.33795" lon="4.50602">
        <ele>1231.59</ele>
        <time>2017-02-26T10:02:12Z</time>
      </trkpt>
      <trkpt lat="45.33797" lon="4.50629">
        <ele>1233.51</ele>
        <time>2017-02-26T10:02:25Z</time>
      </trkpt>
      <trkpt lat="45.33797" lon="4.50631">
        <ele>1233.51</ele>
        <time>2017-02-26T10:02:26Z</time>
      </trkpt>
      <trkpt lat="45.33798" lon="4.50636">
        <ele>1233.99</ele>
        <time>2017-02-26T10:02:29Z</time>
      </trkpt>
      <trkpt lat="45.33798" lon="4.50638">
        <ele>1234.47</ele>
        <time>2017-02-26T10:02:30Z</time>
      </trkpt>
      <trkpt lat="45.33798" lon="4.50643">
        <ele>1234.47</ele>
        <time>2017-02-26T10:02:32Z</time>
      </trkpt>
      <trkpt lat="45.33798" lon="4.50645">
        <ele>1234.47</ele>
        <time>2017-02-26T10:02:33Z</time>
      </trkpt>
      <trkpt lat="45.33798" lon="4.50647">
        <ele>1234.47</ele>
        <time>2017-02-26T10:02:34Z</time>
      </trkpt>
      <trkpt lat="45.33798" lon="4.5065">
        <ele>1234.47</ele>
        <time>2017-02-26T10:02:35Z</time>
      </trkpt>
      <trkpt lat="45.33799" lon="4.50652">
        <ele>1234.95</ele>
        <time>2017-02-26T10:02:36Z</time>
      </trkpt>
      <trkpt lat="45.33799" lon="4.50654">
        <ele>1234.95</ele>
        <time>2017-02-26T10:02:37Z</time>
      </trkpt>
      <trkpt lat="45.33799" lon="4.50656">
        <ele>1235.43</ele>
        <time>2017-02-26T10:02:38Z</time>
      </trkpt>
      <trkpt lat="45.338" lon="4.50668">
        <ele>1236.39</ele>
        <time>2017-02-26T10:02:44Z</time>
      </trkpt>
      <trkpt lat="45.33799" lon="4.50671">
        <ele>1236.39</ele>
        <time>2017-02-26T10:02:45Z</time>
      </trkpt>
      <trkpt lat="45.33798" lon="4.50685">
        <ele>1236.87</ele>
        <time>2017-02-26T10:02:51Z</time>
      </trkpt>
      <trkpt lat="45.33799" lon="4.50693">
        <ele>1237.83</ele>
        <time>2017-02-26T10:02:56Z</time>
      </trkpt>
      <trkpt lat="45.33798" lon="4.50695">
        <ele>1237.83</ele>
        <time>2017-02-26T10:02:57Z</time>
      </trkpt>
      <trkpt lat="45.33799" lon="4.50701">
        <ele>1238.32</ele>
        <time>2017-02-26T10:03:00Z</time>
      </trkpt>
      <trkpt lat="45.33799" lon="4.50706">
        <ele>1238.8</ele>
        <time>2017-02-26T10:03:02Z</time>
      </trkpt>
      <trkpt lat="45.33799" lon="4.50713">
        <ele>1239.76</ele>
        <time>2017-02-26T10:03:06Z</time>
      </trkpt>
      <trkpt lat="45.33799" lon="4.50715">
        <ele>1239.76</ele>
        <time>2017-02-26T10:03:07Z</time>
      </trkpt>
      <trkpt lat="45.33799" lon="4.50729">
        <ele>1240.72</ele>
        <time>2017-02-26T10:03:13Z</time>
      </trkpt>
      <trkpt lat="45.33799" lon="4.50731">
        <ele>1240.72</ele>
        <time>2017-02-26T10:03:14Z</time>
      </trkpt>
      <trkpt lat="45.33799" lon="4.50734">
        <ele>1241.2</ele>
        <time>2017-02-26T10:03:15Z</time>
      </trkpt>
      <trkpt lat="45.33799" lon="4.50736">
        <ele>1241.2</ele>
        <time>2017-02-26T10:03:16Z</time>
      </trkpt>
      <trkpt lat="45.33799" lon="4.50739">
        <ele>1241.2</ele>
        <time>2017-02-26T10:03:17Z</time>
      </trkpt>
      <trkpt lat="45.33799" lon="4.50741">
        <ele>1241.68</ele>
        <time>2017-02-26T10:03:18Z</time>
      </trkpt>
      <trkpt lat="45.33799" lon="4.50743">
        <ele>1241.68</ele>
        <time>2017-02-26T10:03:19Z</time>
      </trkpt>
      <trkpt lat="45.338" lon="4.50746">
        <ele>1241.68</ele>
        <time>2017-02-26T10:03:20Z</time>
      </trkpt>
      <trkpt lat="45.33801" lon="4.50748">
        <ele>1242.16</ele>
        <time>2017-02-26T10:03:21Z</time>
      </trkpt>
      <trkpt lat="45.33801" lon="4.50751">
        <ele>1242.16</ele>
        <time>2017-02-26T10:03:22Z</time>
      </trkpt>
      <trkpt lat="45.33802" lon="4.50753">
        <ele>1242.16</ele>
        <time>2017-02-26T10:03:23Z</time>
      </trkpt>
      <trkpt lat="45.33802" lon="4.50755">
        <ele>1242.64</ele>
        <time>2017-02-26T10:03:24Z</time>
      </trkpt>
      <trkpt lat="45.33803" lon="4.50757">
        <ele>1242.64</ele>
        <time>2017-02-26T10:03:25Z</time>
      </trkpt>
      <trkpt lat="45.33804" lon="4.50758">
        <ele>1242.64</ele>
        <time>2017-02-26T10:03:26Z</time>
      </trkpt>
      <trkpt lat="45.3381" lon="4.50794">
        <ele>1245.53</ele>
        <time>2017-02-26T10:03:40Z</time>
      </trkpt>
      <trkpt lat="45.33813" lon="4.50828">
        <ele>1246.01</ele>
        <time>2017-02-26T10:03:53Z</time>
      </trkpt>
      <trkpt lat="45.33815" lon="4.5085">
        <ele>1246.49</ele>
        <time>2017-02-26T10:04:01Z</time>
      </trkpt>
      <trkpt lat="45.33815" lon="4.50878">
        <ele>1245.53</ele>
        <time>2017-02-26T10:04:12Z</time>
      </trkpt>
      <trkpt lat="45.33815" lon="4.50878">
        <ele>1245.04</ele>
        <time>2017-02-26T10:04:35Z</time>
      </trkpt>
      <trkpt lat="45.33815" lon="4.50881">
        <ele>1245.04</ele>
        <time>2017-02-26T10:04:46Z</time>
      </trkpt>
      <trkpt lat="45.33813" lon="4.50888">
        <ele>1244.56</ele>
        <time>2017-02-26T10:04:54Z</time>
      </trkpt>
      <trkpt lat="45.33812" lon="4.50892">
        <ele>1244.08</ele>
        <time>2017-02-26T10:04:55Z</time>
      </trkpt>
      <trkpt lat="45.3381" lon="4.50903">
        <ele>1243.12</ele>
        <time>2017-02-26T10:04:57Z</time>
      </trkpt>
      <trkpt lat="45.33812" lon="4.50941">
        <ele>1240.24</ele>
        <time>2017-02-26T10:05:02Z</time>
      </trkpt>
      <trkpt lat="45.33814" lon="4.50947">
        <ele>1240.24</ele>
        <time>2017-02-26T10:05:03Z</time>
      </trkpt>
      <trkpt lat="45.33816" lon="4.50953">
        <ele>1240.24</ele>
        <time>2017-02-26T10:05:04Z</time>
      </trkpt>
      <trkpt lat="45.33833" lon="4.50985">
        <ele>1242.16</ele>
        <time>2017-02-26T10:05:15Z</time>
      </trkpt>
      <trkpt lat="45.33852" lon="4.50991">
        <ele>1245.04</ele>
        <time>2017-02-26T10:05:29Z</time>
      </trkpt>
      <trkpt lat="45.3386" lon="4.50996">
        <ele>1246.49</ele>
        <time>2017-02-26T10:05:36Z</time>
      </trkpt>
      <trkpt lat="45.33871" lon="4.51003">
        <ele>1247.93</ele>
        <time>2017-02-26T10:05:45Z</time>
      </trkpt>
      <trkpt lat="45.33872" lon="4.51005">
        <ele>1248.41</ele>
        <time>2017-02-26T10:05:46Z</time>
      </trkpt>
      <trkpt lat="45.33873" lon="4.51005">
        <ele>1248.41</ele>
        <time>2017-02-26T10:05:47Z</time>
      </trkpt>
      <trkpt lat="45.33874" lon="4.51006">
        <ele>1248.41</ele>
        <time>2017-02-26T10:05:48Z</time>
      </trkpt>
      <trkpt lat="45.33876" lon="4.51007">
        <ele>1248.89</ele>
        <time>2017-02-26T10:05:49Z</time>
      </trkpt>
      <trkpt lat="45.33878" lon="4.51009">
        <ele>1248.89</ele>
        <time>2017-02-26T10:05:51Z</time>
      </trkpt>
      <trkpt lat="45.33883" lon="4.51014">
        <ele>1249.85</ele>
        <time>2017-02-26T10:05:56Z</time>
      </trkpt>
      <trkpt lat="45.33902" lon="4.51029">
        <ele>1251.77</ele>
        <time>2017-02-26T10:06:10Z</time>
      </trkpt>
      <trkpt lat="45.33917" lon="4.51039">
        <ele>1253.7</ele>
        <time>2017-02-26T10:06:23Z</time>
      </trkpt>
      <trkpt lat="45.3392" lon="4.51041">
        <ele>1254.18</ele>
        <time>2017-02-26T10:06:25Z</time>
      </trkpt>
      <trkpt lat="45.33921" lon="4.51042">
        <ele>1254.18</ele>
        <time>2017-02-26T10:06:26Z</time>
      </trkpt>
      <trkpt lat="45.33923" lon="4.51044">
        <ele>1254.66</ele>
        <time>2017-02-26T10:06:28Z</time>
      </trkpt>
      <trkpt lat="45.33924" lon="4.51045">
        <ele>1254.66</ele>
        <time>2017-02-26T10:06:29Z</time>
      </trkpt>
      <trkpt lat="45.33927" lon="4.51048">
        <ele>1255.14</ele>
        <time>2017-02-26T10:06:32Z</time>
      </trkpt>
      <trkpt lat="45.3393" lon="4.51051">
        <ele>1255.62</ele>
        <time>2017-02-26T10:06:35Z</time>
      </trkpt>
      <trkpt lat="45.33931" lon="4.51052">
        <ele>1256.1</ele>
        <time>2017-02-26T10:06:36Z</time>
      </trkpt>
      <trkpt lat="45.33945" lon="4.51066">
        <ele>1257.54</ele>
        <time>2017-02-26T10:06:47Z</time>
      </trkpt>
      <trkpt lat="45.33952" lon="4.51064">
        <ele>1258.5</ele>
        <time>2017-02-26T10:06:51Z</time>
      </trkpt>
      <trkpt lat="45.33953" lon="4.51064">
        <ele>1258.5</ele>
        <time>2017-02-26T10:06:52Z</time>
      </trkpt>
      <trkpt lat="45.33954" lon="4.51063">
        <ele>1258.98</ele>
        <time>2017-02-26T10:06:53Z</time>
      </trkpt>
      <trkpt lat="45.33962" lon="4.51054">
        <ele>1260.43</ele>
        <time>2017-02-26T10:07:01Z</time>
      </trkpt>
      <trkpt lat="45.33964" lon="4.51051">
        <ele>1260.91</ele>
        <time>2017-02-26T10:07:03Z</time>
      </trkpt>
      <trkpt lat="45.33966" lon="4.5105">
        <ele>1260.91</ele>
        <time>2017-02-26T10:07:04Z</time>
      </trkpt>
      <trkpt lat="45.33967" lon="4.5105">
        <ele>1261.39</ele>
        <time>2017-02-26T10:07:05Z</time>
      </trkpt>
      <trkpt lat="45.33968" lon="4.5105">
        <ele>1261.39</ele>
        <time>2017-02-26T10:07:06Z</time>
      </trkpt>
      <trkpt lat="45.33969" lon="4.51051">
        <ele>1262.35</ele>
        <time>2017-02-26T10:07:07Z</time>
      </trkpt>
      <trkpt lat="45.33983" lon="4.51054">
        <ele>1264.27</ele>
        <time>2017-02-26T10:07:17Z</time>
      </trkpt>
      <trkpt lat="45.33989" lon="4.51051">
        <ele>1265.23</ele>
        <time>2017-02-26T10:07:22Z</time>
      </trkpt>
      <trkpt lat="45.3399" lon="4.5105">
        <ele>1265.71</ele>
        <time>2017-02-26T10:07:23Z</time>
      </trkpt>
      <trkpt lat="45.33991" lon="4.5105">
        <ele>1265.71</ele>
        <time>2017-02-26T10:07:24Z</time>
      </trkpt>
      <trkpt lat="45.33993" lon="4.51051">
        <ele>1265.71</ele>
        <time>2017-02-26T10:07:25Z</time>
      </trkpt>
      <trkpt lat="45.33994" lon="4.51052">
        <ele>1266.19</ele>
        <time>2017-02-26T10:07:26Z</time>
      </trkpt>
      <trkpt lat="45.33995" lon="4.51054">
        <ele>1266.19</ele>
        <time>2017-02-26T10:07:27Z</time>
      </trkpt>
      <trkpt lat="45.33996" lon="4.51055">
        <ele>1266.19</ele>
        <time>2017-02-26T10:07:28Z</time>
      </trkpt>
      <trkpt lat="45.34006" lon="4.51068">
        <ele>1267.16</ele>
        <time>2017-02-26T10:07:39Z</time>
      </trkpt>
      <trkpt lat="45.34011" lon="4.51069">
        <ele>1267.64</ele>
        <time>2017-02-26T10:07:42Z</time>
      </trkpt>
      <trkpt lat="45.34022" lon="4.51081">
        <ele>1268.6</ele>
        <time>2017-02-26T10:07:53Z</time>
      </trkpt>
      <trkpt lat="45.34023" lon="4.51084">
        <ele>1268.6</ele>
        <time>2017-02-26T10:07:54Z</time>
      </trkpt>
      <trkpt lat="45.34023" lon="4.51086">
        <ele>1268.6</ele>
        <time>2017-02-26T10:07:55Z</time>
      </trkpt>
      <trkpt lat="45.34024" lon="4.51088">
        <ele>1268.6</ele>
        <time>2017-02-26T10:07:56Z</time>
      </trkpt>
      <trkpt lat="45.34023" lon="4.5109">
        <ele>1269.08</ele>
        <time>2017-02-26T10:07:57Z</time>
      </trkpt>
      <trkpt lat="45.34024" lon="4.51094">
        <ele>1269.08</ele>
        <time>2017-02-26T10:07:59Z</time>
      </trkpt>
      <trkpt lat="45.34025" lon="4.51096">
        <ele>1269.08</ele>
        <time>2017-02-26T10:08:00Z</time>
      </trkpt>
      <trkpt lat="45.34031" lon="4.51121">
        <ele>1269.56</ele>
        <time>2017-02-26T10:08:12Z</time>
      </trkpt>
      <trkpt lat="45.34032" lon="4.51149">
        <ele>1270.04</ele>
        <time>2017-02-26T10:08:22Z</time>
      </trkpt>
      <trkpt lat="45.34032" lon="4.51152">
        <ele>1270.04</ele>
        <time>2017-02-26T10:08:23Z</time>
      </trkpt>
      <trkpt lat="45.34033" lon="4.51154">
        <ele>1270.04</ele>
        <time>2017-02-26T10:08:24Z</time>
      </trkpt>
      <trkpt lat="45.34033" lon="4.51157">
        <ele>1270.04</ele>
        <time>2017-02-26T10:08:25Z</time>
      </trkpt>
      <trkpt lat="45.34034" lon="4.51159">
        <ele>1270.04</ele>
        <time>2017-02-26T10:08:26Z</time>
      </trkpt>
      <trkpt lat="45.34035" lon="4.51161">
        <ele>1270.04</ele>
        <time>2017-02-26T10:08:27Z</time>
      </trkpt>
      <trkpt lat="45.34036" lon="4.51164">
        <ele>1270.04</ele>
        <time>2017-02-26T10:08:28Z</time>
      </trkpt>
      <trkpt lat="45.34037" lon="4.51166">
        <ele>1270.04</ele>
        <time>2017-02-26T10:08:29Z</time>
      </trkpt>
      <trkpt lat="45.34038" lon="4.51168">
        <ele>1270.04</ele>
        <time>2017-02-26T10:08:30Z</time>
      </trkpt>
      <trkpt lat="45.34039" lon="4.51172">
        <ele>1270.52</ele>
        <time>2017-02-26T10:08:41Z</time>
      </trkpt>
      <trkpt lat="45.34039" lon="4.51172">
        <ele>1270.04</ele>
        <time>2017-02-26T10:09:06Z</time>
      </trkpt>
      <trkpt lat="45.34039" lon="4.51173">
        <ele>1270.04</ele>
        <time>2017-02-26T10:09:38Z</time>
      </trkpt>
      <trkpt lat="45.34039" lon="4.51173">
        <ele>1268.12</ele>
        <time>2017-02-26T10:09:41Z</time>
      </trkpt>
      <trkpt lat="45.34042" lon="4.51194">
        <ele>1270.04</ele>
        <time>2017-02-26T10:11:11Z</time>
      </trkpt>
      <trkpt lat="45.34041" lon="4.51194">
        <ele>1269.56</ele>
        <time>2017-02-26T10:11:12Z</time>
      </trkpt>
      <trkpt lat="45.34041" lon="4.51192">
        <ele>1269.56</ele>
        <time>2017-02-26T10:11:16Z</time>
      </trkpt>
      <trkpt lat="45.34045" lon="4.51191">
        <ele>1269.56</ele>
        <time>2017-02-26T10:11:21Z</time>
      </trkpt>
      <trkpt lat="45.34052" lon="4.51212">
        <ele>1267.64</ele>
        <time>2017-02-26T10:11:26Z</time>
      </trkpt>
      <trkpt lat="45.34054" lon="4.51218">
        <ele>1267.64</ele>
        <time>2017-02-26T10:11:27Z</time>
      </trkpt>
      <trkpt lat="45.34056" lon="4.51223">
        <ele>1267.16</ele>
        <time>2017-02-26T10:11:28Z</time>
      </trkpt>
      <trkpt lat="45.34059" lon="4.5123">
        <ele>1266.67</ele>
        <time>2017-02-26T10:11:29Z</time>
      </trkpt>
      <trkpt lat="45.34062" lon="4.51237">
        <ele>1265.71</ele>
        <time>2017-02-26T10:11:30Z</time>
      </trkpt>
      <trkpt lat="45.34064" lon="4.51244">
        <ele>1265.71</ele>
        <time>2017-02-26T10:11:31Z</time>
      </trkpt>
      <trkpt lat="45.3407" lon="4.51259">
        <ele>1264.27</ele>
        <time>2017-02-26T10:11:33Z</time>
      </trkpt>
      <trkpt lat="45.34073" lon="4.51267">
        <ele>1264.27</ele>
        <time>2017-02-26T10:11:34Z</time>
      </trkpt>
      <trkpt lat="45.34076" lon="4.51275">
        <ele>1263.31</ele>
        <time>2017-02-26T10:11:35Z</time>
      </trkpt>
      <trkpt lat="45.34079" lon="4.51282">
        <ele>1262.83</ele>
        <time>2017-02-26T10:11:36Z</time>
      </trkpt>
      <trkpt lat="45.34082" lon="4.51289">
        <ele>1262.83</ele>
        <time>2017-02-26T10:11:37Z</time>
      </trkpt>
      <trkpt lat="45.34086" lon="4.51296">
        <ele>1262.83</ele>
        <time>2017-02-26T10:11:38Z</time>
      </trkpt>
      <trkpt lat="45.3409" lon="4.51301">
        <ele>1262.83</ele>
        <time>2017-02-26T10:11:39Z</time>
      </trkpt>
      <trkpt lat="45.34095" lon="4.51307">
        <ele>1262.35</ele>
        <time>2017-02-26T10:11:40Z</time>
      </trkpt>
      <trkpt lat="45.341" lon="4.51312">
        <ele>1262.35</ele>
        <time>2017-02-26T10:11:41Z</time>
      </trkpt>
      <trkpt lat="45.34105" lon="4.51318">
        <ele>1261.87</ele>
        <time>2017-02-26T10:11:42Z</time>
      </trkpt>
      <trkpt lat="45.34109" lon="4.51324">
        <ele>1261.39</ele>
        <time>2017-02-26T10:11:43Z</time>
      </trkpt>
      <trkpt lat="45.34112" lon="4.51331">
        <ele>1261.39</ele>
        <time>2017-02-26T10:11:44Z</time>
      </trkpt>
      <trkpt lat="45.34114" lon="4.51339">
        <ele>1260.91</ele>
        <time>2017-02-26T10:11:45Z</time>
      </trkpt>
      <trkpt lat="45.34117" lon="4.51347">
        <ele>1260.43</ele>
        <time>2017-02-26T10:11:46Z</time>
      </trkpt>
      <trkpt lat="45.34129" lon="4.51383">
        <ele>1258.5</ele>
        <time>2017-02-26T10:11:50Z</time>
      </trkpt>
      <trkpt lat="45.34133" lon="4.51391">
        <ele>1258.02</ele>
        <time>2017-02-26T10:11:51Z</time>
      </trkpt>
      <trkpt lat="45.34137" lon="4.51398">
        <ele>1258.02</ele>
        <time>2017-02-26T10:11:52Z</time>
      </trkpt>
      <trkpt lat="45.34142" lon="4.51404">
        <ele>1258.02</ele>
        <time>2017-02-26T10:11:53Z</time>
      </trkpt>
      <trkpt lat="45.34147" lon="4.5141">
        <ele>1258.5</ele>
        <time>2017-02-26T10:11:54Z</time>
      </trkpt>
      <trkpt lat="45.34151" lon="4.51417">
        <ele>1258.5</ele>
        <time>2017-02-26T10:11:55Z</time>
      </trkpt>
      <trkpt lat="45.34155" lon="4.51423">
        <ele>1258.02</ele>
        <time>2017-02-26T10:11:56Z</time>
      </trkpt>
      <trkpt lat="45.34157" lon="4.51431">
        <ele>1258.02</ele>
        <time>2017-02-26T10:11:57Z</time>
      </trkpt>
      <trkpt lat="45.34159" lon="4.51438">
        <ele>1258.5</ele>
        <time>2017-02-26T10:11:58Z</time>
      </trkpt>
      <trkpt lat="45.3416" lon="4.51446">
        <ele>1258.02</ele>
        <time>2017-02-26T10:11:59Z</time>
      </trkpt>
      <trkpt lat="45.34166" lon="4.51491">
        <ele>1258.98</ele>
        <time>2017-02-26T10:12:05Z</time>
      </trkpt>
      <trkpt lat="45.34168" lon="4.51497">
        <ele>1258.5</ele>
        <time>2017-02-26T10:12:06Z</time>
      </trkpt>
      <trkpt lat="45.34176" lon="4.51514">
        <ele>1259.46</ele>
        <time>2017-02-26T10:12:09Z</time>
      </trkpt>
      <trkpt lat="45.34199" lon="4.5157">
        <ele>1261.39</ele>
        <time>2017-02-26T10:12:21Z</time>
      </trkpt>
      <trkpt lat="45.34212" lon="4.51591">
        <ele>1262.35</ele>
        <time>2017-02-26T10:12:27Z</time>
      </trkpt>
      <trkpt lat="45.34218" lon="4.51608">
        <ele>1263.31</ele>
        <time>2017-02-26T10:12:31Z</time>
      </trkpt>
      <trkpt lat="45.34219" lon="4.51613">
        <ele>1263.31</ele>
        <time>2017-02-26T10:12:32Z</time>
      </trkpt>
      <trkpt lat="45.34221" lon="4.51617">
        <ele>1263.31</ele>
        <time>2017-02-26T10:12:33Z</time>
      </trkpt>
      <trkpt lat="45.34222" lon="4.51622">
        <ele>1263.31</ele>
        <time>2017-02-26T10:12:34Z</time>
      </trkpt>
      <trkpt lat="45.34223" lon="4.51626">
        <ele>1263.79</ele>
        <time>2017-02-26T10:12:35Z</time>
      </trkpt>
      <trkpt lat="45.34224" lon="4.51631">
        <ele>1263.79</ele>
        <time>2017-02-26T10:12:36Z</time>
      </trkpt>
      <trkpt lat="45.34225" lon="4.51635">
        <ele>1263.79</ele>
        <time>2017-02-26T10:12:37Z</time>
      </trkpt>
      <trkpt lat="45.34226" lon="4.5164">
        <ele>1263.79</ele>
        <time>2017-02-26T10:12:38Z</time>
      </trkpt>
      <trkpt lat="45.34227" lon="4.51645">
        <ele>1263.79</ele>
        <time>2017-02-26T10:12:39Z</time>
      </trkpt>
      <trkpt lat="45.34232" lon="4.51687">
        <ele>1264.75</ele>
        <time>2017-02-26T10:12:49Z</time>
      </trkpt>
      <trkpt lat="45.34232" lon="4.51691">
        <ele>1265.23</ele>
        <time>2017-02-26T10:12:50Z</time>
      </trkpt>
      <trkpt lat="45.34238" lon="4.51745">
        <ele>1265.23</ele>
        <time>2017-02-26T10:13:02Z</time>
      </trkpt>
      <trkpt lat="45.34243" lon="4.51784">
        <ele>1265.71</ele>
        <time>2017-02-26T10:13:12Z</time>
      </trkpt>
      <trkpt lat="45.34242" lon="4.5179">
        <ele>1265.71</ele>
        <time>2017-02-26T10:13:14Z</time>
      </trkpt>
      <trkpt lat="45.34241" lon="4.51791">
        <ele>1265.71</ele>
        <time>2017-02-26T10:13:24Z</time>
      </trkpt>
      <trkpt lat="45.34241" lon="4.51791">
        <ele>1265.71</ele>
        <time>2017-02-26T10:13:52Z</time>
      </trkpt>
      <trkpt lat="45.34241" lon="4.51791">
        <ele>1265.71</ele>
        <time>2017-02-26T10:14:21Z</time>
      </trkpt>
      <trkpt lat="45.34241" lon="4.51792">
        <ele>1265.71</ele>
        <time>2017-02-26T10:14:53Z</time>
      </trkpt>
      <trkpt lat="45.34241" lon="4.51791">
        <ele>1265.71</ele>
        <time>2017-02-26T10:15:21Z</time>
      </trkpt>
      <trkpt lat="45.34241" lon="4.51791">
        <ele>1265.71</ele>
        <time>2017-02-26T10:15:41Z</time>
      </trkpt>
      <trkpt lat="45.3424" lon="4.51793">
        <ele>1265.71</ele>
        <time>2017-02-26T10:15:42Z</time>
      </trkpt>
      <trkpt lat="45.34239" lon="4.51794">
        <ele>1266.19</ele>
        <time>2017-02-26T10:15:43Z</time>
      </trkpt>
      <trkpt lat="45.34239" lon="4.51796">
        <ele>1265.71</ele>
        <time>2017-02-26T10:15:44Z</time>
      </trkpt>
      <trkpt lat="45.34239" lon="4.51798">
        <ele>1265.71</ele>
        <time>2017-02-26T10:15:45Z</time>
      </trkpt>
      <trkpt lat="45.34239" lon="4.51801">
        <ele>1265.71</ele>
        <time>2017-02-26T10:15:46Z</time>
      </trkpt>
      <trkpt lat="45.34239" lon="4.51805">
        <ele>1265.71</ele>
        <time>2017-02-26T10:15:47Z</time>
      </trkpt>
      <trkpt lat="45.34239" lon="4.51809">
        <ele>1265.71</ele>
        <time>2017-02-26T10:15:48Z</time>
      </trkpt>
      <trkpt lat="45.34239" lon="4.51817">
        <ele>1265.23</ele>
        <time>2017-02-26T10:15:50Z</time>
      </trkpt>
      <trkpt lat="45.34239" lon="4.51821">
        <ele>1265.71</ele>
        <time>2017-02-26T10:15:51Z</time>
      </trkpt>
      <trkpt lat="45.34238" lon="4.51824">
        <ele>1265.23</ele>
        <time>2017-02-26T10:15:52Z</time>
      </trkpt>
      <trkpt lat="45.34238" lon="4.51827">
        <ele>1265.23</ele>
        <time>2017-02-26T10:15:53Z</time>
      </trkpt>
      <trkpt lat="45.34238" lon="4.51828">
        <ele>1265.23</ele>
        <time>2017-02-26T10:15:54Z</time>
      </trkpt>
      <trkpt lat="45.34236" lon="4.51834">
        <ele>1265.23</ele>
        <time>2017-02-26T10:15:56Z</time>
      </trkpt>
      <trkpt lat="45.34235" lon="4.51837">
        <ele>1265.23</ele>
        <time>2017-02-26T10:15:57Z</time>
      </trkpt>
      <trkpt lat="45.34235" lon="4.5184">
        <ele>1264.75</ele>
        <time>2017-02-26T10:15:58Z</time>
      </trkpt>
      <trkpt lat="45.34233" lon="4.5186">
        <ele>1264.75</ele>
        <time>2017-02-26T10:16:04Z</time>
      </trkpt>
      <trkpt lat="45.34231" lon="4.51864">
        <ele>1264.27</ele>
        <time>2017-02-26T10:16:05Z</time>
      </trkpt>
      <trkpt lat="45.34228" lon="4.51869">
        <ele>1264.27</ele>
        <time>2017-02-26T10:16:06Z</time>
      </trkpt>
      <trkpt lat="45.34226" lon="4.51873">
        <ele>1264.27</ele>
        <time>2017-02-26T10:16:07Z</time>
      </trkpt>
      <trkpt lat="45.34224" lon="4.51879">
        <ele>1264.27</ele>
        <time>2017-02-26T10:16:08Z</time>
      </trkpt>
      <trkpt lat="45.3422" lon="4.51889">
        <ele>1264.27</ele>
        <time>2017-02-26T10:16:09Z</time>
      </trkpt>
      <trkpt lat="45.34217" lon="4.51898">
        <ele>1264.27</ele>
        <time>2017-02-26T10:16:10Z</time>
      </trkpt>
      <trkpt lat="45.34215" lon="4.51906">
        <ele>1264.27</ele>
        <time>2017-02-26T10:16:11Z</time>
      </trkpt>
      <trkpt lat="45.34213" lon="4.51914">
        <ele>1264.27</ele>
        <time>2017-02-26T10:16:12Z</time>
      </trkpt>
      <trkpt lat="45.34212" lon="4.51922">
        <ele>1263.79</ele>
        <time>2017-02-26T10:16:13Z</time>
      </trkpt>
      <trkpt lat="45.34203" lon="4.51946">
        <ele>1263.31</ele>
        <time>2017-02-26T10:16:17Z</time>
      </trkpt>
      <trkpt lat="45.34201" lon="4.51953">
        <ele>1263.31</ele>
        <time>2017-02-26T10:16:18Z</time>
      </trkpt>
      <trkpt lat="45.34188" lon="4.52015">
        <ele>1262.83</ele>
        <time>2017-02-26T10:16:28Z</time>
      </trkpt>
      <trkpt lat="45.34185" lon="4.52033">
        <ele>1263.31</ele>
        <time>2017-02-26T10:16:32Z</time>
      </trkpt>
      <trkpt lat="45.34185" lon="4.52036">
        <ele>1263.31</ele>
        <time>2017-02-26T10:16:33Z</time>
      </trkpt>
      <trkpt lat="45.34183" lon="4.5204">
        <ele>1263.31</ele>
        <time>2017-02-26T10:16:34Z</time>
      </trkpt>
      <trkpt lat="45.34182" lon="4.52045">
        <ele>1263.79</ele>
        <time>2017-02-26T10:16:35Z</time>
      </trkpt>
      <trkpt lat="45.34181" lon="4.52049">
        <ele>1263.79</ele>
        <time>2017-02-26T10:16:36Z</time>
      </trkpt>
      <trkpt lat="45.3418" lon="4.52054">
        <ele>1263.79</ele>
        <time>2017-02-26T10:16:37Z</time>
      </trkpt>
      <trkpt lat="45.3418" lon="4.52059">
        <ele>1263.79</ele>
        <time>2017-02-26T10:16:38Z</time>
      </trkpt>
      <trkpt lat="45.34179" lon="4.52064">
        <ele>1263.79</ele>
        <time>2017-02-26T10:16:39Z</time>
      </trkpt>
      <trkpt lat="45.34177" lon="4.52067">
        <ele>1264.27</ele>
        <time>2017-02-26T10:16:40Z</time>
      </trkpt>
      <trkpt lat="45.34175" lon="4.52072">
        <ele>1264.27</ele>
        <time>2017-02-26T10:16:41Z</time>
      </trkpt>
      <trkpt lat="45.34165" lon="4.521">
        <ele>1264.27</ele>
        <time>2017-02-26T10:16:48Z</time>
      </trkpt>
      <trkpt lat="45.34162" lon="4.52104">
        <ele>1264.27</ele>
        <time>2017-02-26T10:16:49Z</time>
      </trkpt>
      <trkpt lat="45.34161" lon="4.52108">
        <ele>1264.27</ele>
        <time>2017-02-26T10:16:50Z</time>
      </trkpt>
      <trkpt lat="45.34159" lon="4.52112">
        <ele>1264.27</ele>
        <time>2017-02-26T10:16:51Z</time>
      </trkpt>
      <trkpt lat="45.34158" lon="4.52116">
        <ele>1264.75</ele>
        <time>2017-02-26T10:16:52Z</time>
      </trkpt>
      <trkpt lat="45.34147" lon="4.52158">
        <ele>1265.71</ele>
        <time>2017-02-26T10:17:02Z</time>
      </trkpt>
      <trkpt lat="45.34137" lon="4.52183">
        <ele>1266.19</ele>
        <time>2017-02-26T10:17:10Z</time>
      </trkpt>
      <trkpt lat="45.3412" lon="4.522">
        <ele>1264.27</ele>
        <time>2017-02-26T10:17:15Z</time>
      </trkpt>
      <trkpt lat="45.34116" lon="4.52206">
        <ele>1263.79</ele>
        <time>2017-02-26T10:17:16Z</time>
      </trkpt>
      <trkpt lat="45.34113" lon="4.52212">
        <ele>1263.31</ele>
        <time>2017-02-26T10:17:17Z</time>
      </trkpt>
      <trkpt lat="45.34109" lon="4.52218">
        <ele>1263.31</ele>
        <time>2017-02-26T10:17:18Z</time>
      </trkpt>
      <trkpt lat="45.34106" lon="4.52224">
        <ele>1262.83</ele>
        <time>2017-02-26T10:17:19Z</time>
      </trkpt>
      <trkpt lat="45.34103" lon="4.52229">
        <ele>1263.31</ele>
        <time>2017-02-26T10:17:20Z</time>
      </trkpt>
      <trkpt lat="45.34101" lon="4.52235">
        <ele>1263.31</ele>
        <time>2017-02-26T10:17:21Z</time>
      </trkpt>
      <trkpt lat="45.34099" lon="4.52239">
        <ele>1263.79</ele>
        <time>2017-02-26T10:17:22Z</time>
      </trkpt>
      <trkpt lat="45.34097" lon="4.52243">
        <ele>1263.79</ele>
        <time>2017-02-26T10:17:23Z</time>
      </trkpt>
      <trkpt lat="45.34093" lon="4.52253">
        <ele>1263.31</ele>
        <time>2017-02-26T10:17:25Z</time>
      </trkpt>
      <trkpt lat="45.3409" lon="4.52258">
        <ele>1263.31</ele>
        <time>2017-02-26T10:17:26Z</time>
      </trkpt>
      <trkpt lat="45.34087" lon="4.52264">
        <ele>1263.31</ele>
        <time>2017-02-26T10:17:27Z</time>
      </trkpt>
      <trkpt lat="45.34055" lon="4.52327">
        <ele>1263.31</ele>
        <time>2017-02-26T10:17:37Z</time>
      </trkpt>
      <trkpt lat="45.34052" lon="4.52333">
        <ele>1263.79</ele>
        <time>2017-02-26T10:17:38Z</time>
      </trkpt>
      <trkpt lat="45.34049" lon="4.52338">
        <ele>1263.79</ele>
        <time>2017-02-26T10:17:39Z</time>
      </trkpt>
      <trkpt lat="45.34047" lon="4.52342">
        <ele>1263.79</ele>
        <time>2017-02-26T10:17:40Z</time>
      </trkpt>
      <trkpt lat="45.34045" lon="4.52346">
        <ele>1264.27</ele>
        <time>2017-02-26T10:17:41Z</time>
      </trkpt>
      <trkpt lat="45.34043" lon="4.52349">
        <ele>1264.27</ele>
        <time>2017-02-26T10:17:42Z</time>
      </trkpt>
      <trkpt lat="45.3404" lon="4.52351">
        <ele>1264.27</ele>
        <time>2017-02-26T10:17:43Z</time>
      </trkpt>
      <trkpt lat="45.34038" lon="4.52353">
        <ele>1264.27</ele>
        <time>2017-02-26T10:17:44Z</time>
      </trkpt>
      <trkpt lat="45.34035" lon="4.52355">
        <ele>1264.75</ele>
        <time>2017-02-26T10:17:55Z</time>
      </trkpt>
      <trkpt lat="45.34036" lon="4.52354">
        <ele>1264.75</ele>
        <time>2017-02-26T10:18:12Z</time>
      </trkpt>
      <trkpt lat="45.34037" lon="4.52352">
        <ele>1264.75</ele>
        <time>2017-02-26T10:18:16Z</time>
      </trkpt>
      <trkpt lat="45.34038" lon="4.52351">
        <ele>1264.75</ele>
        <time>2017-02-26T10:18:17Z</time>
      </trkpt>
      <trkpt lat="45.3404" lon="4.52349">
        <ele>1264.75</ele>
        <time>2017-02-26T10:18:18Z</time>
      </trkpt>
      <trkpt lat="45.34041" lon="4.52348">
        <ele>1264.75</ele>
        <time>2017-02-26T10:18:19Z</time>
      </trkpt>
      <trkpt lat="45.34043" lon="4.52347">
        <ele>1264.75</ele>
        <time>2017-02-26T10:18:20Z</time>
      </trkpt>
      <trkpt lat="45.34044" lon="4.52345">
        <ele>1264.75</ele>
        <time>2017-02-26T10:18:21Z</time>
      </trkpt>
      <trkpt lat="45.34046" lon="4.52343">
        <ele>1264.27</ele>
        <time>2017-02-26T10:18:22Z</time>
      </trkpt>
      <trkpt lat="45.34047" lon="4.52341">
        <ele>1264.27</ele>
        <time>2017-02-26T10:18:23Z</time>
      </trkpt>
      <trkpt lat="45.34047" lon="4.52339">
        <ele>1264.75</ele>
        <time>2017-02-26T10:18:34Z</time>
      </trkpt>
      <trkpt lat="45.34047" lon="4.52336">
        <ele>1265.23</ele>
        <time>2017-02-26T10:18:47Z</time>
      </trkpt>
      <trkpt lat="45.34046" lon="4.52335">
        <ele>1264.27</ele>
        <time>2017-02-26T10:19:04Z</time>
      </trkpt>
      <trkpt lat="45.34032" lon="4.52356">
        <ele>1264.75</ele>
        <time>2017-02-26T10:19:56Z</time>
      </trkpt>
      <trkpt lat="45.34021" lon="4.52374">
        <ele>1264.75</ele>
        <time>2017-02-26T10:20:04Z</time>
      </trkpt>
      <trkpt lat="45.33998" lon="4.52399">
        <ele>1264.75</ele>
        <time>2017-02-26T10:20:15Z</time>
      </trkpt>
      <trkpt lat="45.33979" lon="4.52422">
        <ele>1265.23</ele>
        <time>2017-02-26T10:20:24Z</time>
      </trkpt>
      <trkpt lat="45.33977" lon="4.52425">
        <ele>1265.23</ele>
        <time>2017-02-26T10:20:25Z</time>
      </trkpt>
      <trkpt lat="45.33961" lon="4.52439">
        <ele>1265.23</ele>
        <time>2017-02-26T10:20:32Z</time>
      </trkpt>
      <trkpt lat="45.33941" lon="4.52455">
        <ele>1266.19</ele>
        <time>2017-02-26T10:20:43Z</time>
      </trkpt>
      <trkpt lat="45.33936" lon="4.52462">
        <ele>1266.19</ele>
        <time>2017-02-26T10:20:45Z</time>
      </trkpt>
      <trkpt lat="45.3392" lon="4.52497">
        <ele>1267.64</ele>
        <time>2017-02-26T10:20:55Z</time>
      </trkpt>
      <trkpt lat="45.33918" lon="4.52499">
        <ele>1267.64</ele>
        <time>2017-02-26T10:20:56Z</time>
      </trkpt>
      <trkpt lat="45.339" lon="4.5253">
        <ele>1266.67</ele>
        <time>2017-02-26T10:21:03Z</time>
      </trkpt>
      <trkpt lat="45.33897" lon="4.52534">
        <ele>1266.67</ele>
        <time>2017-02-26T10:21:04Z</time>
      </trkpt>
      <trkpt lat="45.33894" lon="4.52538">
        <ele>1266.67</ele>
        <time>2017-02-26T10:21:05Z</time>
      </trkpt>
      <trkpt lat="45.33891" lon="4.52543">
        <ele>1266.67</ele>
        <time>2017-02-26T10:21:06Z</time>
      </trkpt>
      <trkpt lat="45.33888" lon="4.52548">
        <ele>1266.19</ele>
        <time>2017-02-26T10:21:07Z</time>
      </trkpt>
      <trkpt lat="45.33871" lon="4.52573">
        <ele>1266.19</ele>
        <time>2017-02-26T10:21:13Z</time>
      </trkpt>
      <trkpt lat="45.33868" lon="4.52576">
        <ele>1266.67</ele>
        <time>2017-02-26T10:21:14Z</time>
      </trkpt>
      <trkpt lat="45.33865" lon="4.52579">
        <ele>1266.19</ele>
        <time>2017-02-26T10:21:15Z</time>
      </trkpt>
      <trkpt lat="45.33862" lon="4.52584">
        <ele>1266.19</ele>
        <time>2017-02-26T10:21:16Z</time>
      </trkpt>
      <trkpt lat="45.3386" lon="4.52587">
        <ele>1264.27</ele>
        <time>2017-02-26T10:21:17Z</time>
      </trkpt>
      <trkpt lat="45.33856" lon="4.52595">
        <ele>1265.23</ele>
        <time>2017-02-26T10:21:19Z</time>
      </trkpt>
      <trkpt lat="45.33855" lon="4.52598">
        <ele>1268.12</ele>
        <time>2017-02-26T10:21:20Z</time>
      </trkpt>
      <trkpt lat="45.33853" lon="4.52601">
        <ele>1266.19</ele>
        <time>2017-02-26T10:21:21Z</time>
      </trkpt>
      <trkpt lat="45.3384" lon="4.5263">
        <ele>1266.67</ele>
        <time>2017-02-26T10:21:29Z</time>
      </trkpt>
      <trkpt lat="45.33838" lon="4.52647">
        <ele>1266.67</ele>
        <time>2017-02-26T10:21:34Z</time>
      </trkpt>
      <trkpt lat="45.33839" lon="4.52649">
        <ele>1267.16</ele>
        <time>2017-02-26T10:21:35Z</time>
      </trkpt>
      <trkpt lat="45.33838" lon="4.52653">
        <ele>1272.44</ele>
        <time>2017-02-26T10:21:50Z</time>
      </trkpt>
      <trkpt lat="45.33838" lon="4.52653">
        <ele>1264.27</ele>
        <time>2017-02-26T10:21:51Z</time>
      </trkpt>
      <trkpt lat="45.33838" lon="4.52653">
        <ele>1272.44</ele>
        <time>2017-02-26T10:21:53Z</time>
      </trkpt>
      <trkpt lat="45.33838" lon="4.52653">
        <ele>1265.71</ele>
        <time>2017-02-26T10:21:54Z</time>
      </trkpt>
      <trkpt lat="45.33838" lon="4.52653">
        <ele>1268.6</ele>
        <time>2017-02-26T10:21:55Z</time>
      </trkpt>
      <trkpt lat="45.33838" lon="4.52653">
        <ele>1264.75</ele>
        <time>2017-02-26T10:21:56Z</time>
      </trkpt>
      <trkpt lat="45.33838" lon="4.52653">
        <ele>1268.6</ele>
        <time>2017-02-26T10:21:57Z</time>
      </trkpt>
      <trkpt lat="45.33838" lon="4.52653">
        <ele>1261.87</ele>
        <time>2017-02-26T10:21:58Z</time>
      </trkpt>
      <trkpt lat="45.33838" lon="4.52653">
        <ele>1271</ele>
        <time>2017-02-26T10:21:59Z</time>
      </trkpt>
      <trkpt lat="45.33838" lon="4.52653">
        <ele>1266.19</ele>
        <time>2017-02-26T10:22:00Z</time>
      </trkpt>
      <trkpt lat="45.33838" lon="4.52653">
        <ele>1261.87</ele>
        <time>2017-02-26T10:22:03Z</time>
      </trkpt>
      <trkpt lat="45.33838" lon="4.52653">
        <ele>1271.96</ele>
        <time>2017-02-26T10:22:04Z</time>
      </trkpt>
      <trkpt lat="45.33838" lon="4.52653">
        <ele>1268.12</ele>
        <time>2017-02-26T10:22:05Z</time>
      </trkpt>
      <trkpt lat="45.33838" lon="4.52653">
        <ele>1262.83</ele>
        <time>2017-02-26T10:22:08Z</time>
      </trkpt>
      <trkpt lat="45.33838" lon="4.52653">
        <ele>1265.71</ele>
        <time>2017-02-26T10:22:09Z</time>
      </trkpt>
      <trkpt lat="45.33838" lon="4.52653">
        <ele>1271.96</ele>
        <time>2017-02-26T10:22:10Z</time>
      </trkpt>
      <trkpt lat="45.33838" lon="4.52653">
        <ele>1267.16</ele>
        <time>2017-02-26T10:22:11Z</time>
      </trkpt>
      <trkpt lat="45.33838" lon="4.52653">
        <ele>1261.87</ele>
        <time>2017-02-26T10:22:15Z</time>
      </trkpt>
      <trkpt lat="45.33838" lon="4.52653">
        <ele>1272.44</ele>
        <time>2017-02-26T10:22:16Z</time>
      </trkpt>
      <trkpt lat="45.33838" lon="4.52653">
        <ele>1266.67</ele>
        <time>2017-02-26T10:22:17Z</time>
      </trkpt>
      <trkpt lat="45.33838" lon="4.52653">
        <ele>1262.83</ele>
        <time>2017-02-26T10:22:21Z</time>
      </trkpt>
      <trkpt lat="45.33838" lon="4.52653">
        <ele>1271.96</ele>
        <time>2017-02-26T10:22:22Z</time>
      </trkpt>
      <trkpt lat="45.33838" lon="4.52653">
        <ele>1267.64</ele>
        <time>2017-02-26T10:22:23Z</time>
      </trkpt>
      <trkpt lat="45.33838" lon="4.52653">
        <ele>1267.16</ele>
        <time>2017-02-26T10:22:40Z</time>
      </trkpt>
      <trkpt lat="45.33839" lon="4.52654">
        <ele>1267.16</ele>
        <time>2017-02-26T10:22:48Z</time>
      </trkpt>
      <trkpt lat="45.3384" lon="4.52655">
        <ele>1267.16</ele>
        <time>2017-02-26T10:22:49Z</time>
      </trkpt>
      <trkpt lat="45.33842" lon="4.52656">
        <ele>1267.64</ele>
        <time>2017-02-26T10:22:50Z</time>
      </trkpt>
      <trkpt lat="45.33843" lon="4.52658">
        <ele>1267.64</ele>
        <time>2017-02-26T10:22:51Z</time>
      </trkpt>
      <trkpt lat="45.33846" lon="4.52661">
        <ele>1268.6</ele>
        <time>2017-02-26T10:22:53Z</time>
      </trkpt>
      <trkpt lat="45.33848" lon="4.52663">
        <ele>1268.6</ele>
        <time>2017-02-26T10:22:55Z</time>
      </trkpt>
      <trkpt lat="45.33855" lon="4.52671">
        <ele>1270.04</ele>
        <time>2017-02-26T10:23:00Z</time>
      </trkpt>
      <trkpt lat="45.33868" lon="4.52695">
        <ele>1271.96</ele>
        <time>2017-02-26T10:23:10Z</time>
      </trkpt>
      <trkpt lat="45.33879" lon="4.52719">
        <ele>1273.88</ele>
        <time>2017-02-26T10:23:20Z</time>
      </trkpt>
      <trkpt lat="45.33885" lon="4.52726">
        <ele>1274.85</ele>
        <time>2017-02-26T10:23:23Z</time>
      </trkpt>
      <trkpt lat="45.33896" lon="4.52741">
        <ele>1276.29</ele>
        <time>2017-02-26T10:23:33Z</time>
      </trkpt>
      <trkpt lat="45.33898" lon="4.52744">
        <ele>1276.77</ele>
        <time>2017-02-26T10:23:35Z</time>
      </trkpt>
      <trkpt lat="45.33904" lon="4.52752">
        <ele>1277.25</ele>
        <time>2017-02-26T10:23:39Z</time>
      </trkpt>
      <trkpt lat="45.33911" lon="4.52757">
        <ele>1277.73</ele>
        <time>2017-02-26T10:23:42Z</time>
      </trkpt>
      <trkpt lat="45.33915" lon="4.5276">
        <ele>1277.73</ele>
        <time>2017-02-26T10:23:44Z</time>
      </trkpt>
      <trkpt lat="45.33929" lon="4.52768">
        <ele>1278.69</ele>
        <time>2017-02-26T10:23:51Z</time>
      </trkpt>
      <trkpt lat="45.3396" lon="4.5276">
        <ele>1279.17</ele>
        <time>2017-02-26T10:24:04Z</time>
      </trkpt>
      <trkpt lat="45.33986" lon="4.52756">
        <ele>1279.17</ele>
        <time>2017-02-26T10:24:15Z</time>
      </trkpt>
      <trkpt lat="45.34015" lon="4.52746">
        <ele>1279.17</ele>
        <time>2017-02-26T10:24:26Z</time>
      </trkpt>
      <trkpt lat="45.34019" lon="4.52745">
        <ele>1279.17</ele>
        <time>2017-02-26T10:24:27Z</time>
      </trkpt>
      <trkpt lat="45.34023" lon="4.52743">
        <ele>1279.65</ele>
        <time>2017-02-26T10:24:28Z</time>
      </trkpt>
      <trkpt lat="45.34037" lon="4.52737">
        <ele>1279.17</ele>
        <time>2017-02-26T10:24:33Z</time>
      </trkpt>
      <trkpt lat="45.34039" lon="4.52735">
        <ele>1279.17</ele>
        <time>2017-02-26T10:24:34Z</time>
      </trkpt>
      <trkpt lat="45.34042" lon="4.52733">
        <ele>1279.17</ele>
        <time>2017-02-26T10:24:35Z</time>
      </trkpt>
      <trkpt lat="45.34045" lon="4.52731">
        <ele>1279.65</ele>
        <time>2017-02-26T10:24:36Z</time>
      </trkpt>
      <trkpt lat="45.34047" lon="4.5273">
        <ele>1279.65</ele>
        <time>2017-02-26T10:24:37Z</time>
      </trkpt>
      <trkpt lat="45.34049" lon="4.52729">
        <ele>1279.65</ele>
        <time>2017-02-26T10:24:38Z</time>
      </trkpt>
      <trkpt lat="45.34052" lon="4.52728">
        <ele>1279.65</ele>
        <time>2017-02-26T10:24:39Z</time>
      </trkpt>
      <trkpt lat="45.34054" lon="4.52726">
        <ele>1279.65</ele>
        <time>2017-02-26T10:24:40Z</time>
      </trkpt>
      <trkpt lat="45.34056" lon="4.52725">
        <ele>1279.65</ele>
        <time>2017-02-26T10:24:41Z</time>
      </trkpt>
      <trkpt lat="45.34057" lon="4.52725">
        <ele>1279.65</ele>
        <time>2017-02-26T10:24:42Z</time>
      </trkpt>
      <trkpt lat="45.34082" lon="4.52717">
        <ele>1279.65</ele>
        <time>2017-02-26T10:24:50Z</time>
      </trkpt>
      <trkpt lat="45.34094" lon="4.52714">
        <ele>1280.13</ele>
        <time>2017-02-26T10:24:55Z</time>
      </trkpt>
      <trkpt lat="45.34097" lon="4.52712">
        <ele>1280.13</ele>
        <time>2017-02-26T10:24:56Z</time>
      </trkpt>
      <trkpt lat="45.341" lon="4.52711">
        <ele>1280.13</ele>
        <time>2017-02-26T10:24:57Z</time>
      </trkpt>
      <trkpt lat="45.34102" lon="4.5271">
        <ele>1280.13</ele>
        <time>2017-02-26T10:24:58Z</time>
      </trkpt>
      <trkpt lat="45.34105" lon="4.52708">
        <ele>1280.13</ele>
        <time>2017-02-26T10:24:59Z</time>
      </trkpt>
      <trkpt lat="45.34107" lon="4.52706">
        <ele>1280.61</ele>
        <time>2017-02-26T10:25:00Z</time>
      </trkpt>
      <trkpt lat="45.34132" lon="4.52692">
        <ele>1282.54</ele>
        <time>2017-02-26T10:25:11Z</time>
      </trkpt>
      <trkpt lat="45.34136" lon="4.52692">
        <ele>1283.02</ele>
        <time>2017-02-26T10:25:13Z</time>
      </trkpt>
      <trkpt lat="45.34139" lon="4.52692">
        <ele>1283.02</ele>
        <time>2017-02-26T10:25:14Z</time>
      </trkpt>
      <trkpt lat="45.34141" lon="4.52692">
        <ele>1283.02</ele>
        <time>2017-02-26T10:25:15Z</time>
      </trkpt>
      <trkpt lat="45.34142" lon="4.52693">
        <ele>1283.5</ele>
        <time>2017-02-26T10:25:16Z</time>
      </trkpt>
      <trkpt lat="45.34144" lon="4.52694">
        <ele>1283.5</ele>
        <time>2017-02-26T10:25:17Z</time>
      </trkpt>
      <trkpt lat="45.34146" lon="4.52694">
        <ele>1283.98</ele>
        <time>2017-02-26T10:25:18Z</time>
      </trkpt>
      <trkpt lat="45.34148" lon="4.52695">
        <ele>1283.98</ele>
        <time>2017-02-26T10:25:19Z</time>
      </trkpt>
      <trkpt lat="45.3415" lon="4.52695">
        <ele>1283.98</ele>
        <time>2017-02-26T10:25:20Z</time>
      </trkpt>
      <trkpt lat="45.34152" lon="4.52695">
        <ele>1283.98</ele>
        <time>2017-02-26T10:25:21Z</time>
      </trkpt>
      <trkpt lat="45.34176" lon="4.52697">
        <ele>1286.38</ele>
        <time>2017-02-26T10:25:33Z</time>
      </trkpt>
      <trkpt lat="45.34178" lon="4.52697">
        <ele>1286.38</ele>
        <time>2017-02-26T10:25:34Z</time>
      </trkpt>
      <trkpt lat="45.3418" lon="4.52697">
        <ele>1286.38</ele>
        <time>2017-02-26T10:25:35Z</time>
      </trkpt>
      <trkpt lat="45.34182" lon="4.52697">
        <ele>1286.38</ele>
        <time>2017-02-26T10:25:36Z</time>
      </trkpt>
      <trkpt lat="45.34183" lon="4.52697">
        <ele>1286.86</ele>
        <time>2017-02-26T10:25:37Z</time>
      </trkpt>
      <trkpt lat="45.34185" lon="4.52697">
        <ele>1286.86</ele>
        <time>2017-02-26T10:25:38Z</time>
      </trkpt>
      <trkpt lat="45.34197" lon="4.527">
        <ele>1287.34</ele>
        <time>2017-02-26T10:25:45Z</time>
      </trkpt>
      <trkpt lat="45.34198" lon="4.527">
        <ele>1287.82</ele>
        <time>2017-02-26T10:25:46Z</time>
      </trkpt>
      <trkpt lat="45.342" lon="4.52701">
        <ele>1287.34</ele>
        <time>2017-02-26T10:25:47Z</time>
      </trkpt>
      <trkpt lat="45.34202" lon="4.52703">
        <ele>1287.82</ele>
        <time>2017-02-26T10:25:48Z</time>
      </trkpt>
      <trkpt lat="45.34205" lon="4.52704">
        <ele>1287.34</ele>
        <time>2017-02-26T10:25:49Z</time>
      </trkpt>
      <trkpt lat="45.34207" lon="4.52705">
        <ele>1287.34</ele>
        <time>2017-02-26T10:25:50Z</time>
      </trkpt>
      <trkpt lat="45.34231" lon="4.5272">
        <ele>1287.34</ele>
        <time>2017-02-26T10:26:00Z</time>
      </trkpt>
      <trkpt lat="45.34256" lon="4.52727">
        <ele>1289.27</ele>
        <time>2017-02-26T10:26:10Z</time>
      </trkpt>
      <trkpt lat="45.34271" lon="4.52728">
        <ele>1289.75</ele>
        <time>2017-02-26T10:26:16Z</time>
      </trkpt>
      <trkpt lat="45.34274" lon="4.52729">
        <ele>1289.27</ele>
        <time>2017-02-26T10:26:17Z</time>
      </trkpt>
      <trkpt lat="45.34311" lon="4.52738">
        <ele>1290.23</ele>
        <time>2017-02-26T10:26:30Z</time>
      </trkpt>
      <trkpt lat="45.3433" lon="4.52757">
        <ele>1290.23</ele>
        <time>2017-02-26T10:26:40Z</time>
      </trkpt>
      <trkpt lat="45.34332" lon="4.52758">
        <ele>1289.75</ele>
        <time>2017-02-26T10:26:41Z</time>
      </trkpt>
      <trkpt lat="45.34333" lon="4.52759">
        <ele>1290.23</ele>
        <time>2017-02-26T10:26:42Z</time>
      </trkpt>
      <trkpt lat="45.34334" lon="4.5276">
        <ele>1290.23</ele>
        <time>2017-02-26T10:26:43Z</time>
      </trkpt>
      <trkpt lat="45.34335" lon="4.52761">
        <ele>1290.23</ele>
        <time>2017-02-26T10:26:44Z</time>
      </trkpt>
      <trkpt lat="45.34336" lon="4.52763">
        <ele>1290.23</ele>
        <time>2017-02-26T10:26:45Z</time>
      </trkpt>
      <trkpt lat="45.34339" lon="4.52764">
        <ele>1290.23</ele>
        <time>2017-02-26T10:26:46Z</time>
      </trkpt>
      <trkpt lat="45.3434" lon="4.52766">
        <ele>1290.23</ele>
        <time>2017-02-26T10:26:47Z</time>
      </trkpt>
      <trkpt lat="45.34342" lon="4.52769">
        <ele>1289.75</ele>
        <time>2017-02-26T10:26:48Z</time>
      </trkpt>
      <trkpt lat="45.34344" lon="4.5277">
        <ele>1289.75</ele>
        <time>2017-02-26T10:26:49Z</time>
      </trkpt>
      <trkpt lat="45.34345" lon="4.52772">
        <ele>1290.23</ele>
        <time>2017-02-26T10:26:50Z</time>
      </trkpt>
      <trkpt lat="45.34348" lon="4.52774">
        <ele>1290.23</ele>
        <time>2017-02-26T10:26:52Z</time>
      </trkpt>
      <trkpt lat="45.34348" lon="4.52775">
        <ele>1290.23</ele>
        <time>2017-02-26T10:26:53Z</time>
      </trkpt>
      <trkpt lat="45.34349" lon="4.52776">
        <ele>1289.75</ele>
        <time>2017-02-26T10:26:54Z</time>
      </trkpt>
      <trkpt lat="45.3435" lon="4.52777">
        <ele>1290.23</ele>
        <time>2017-02-26T10:26:55Z</time>
      </trkpt>
      <trkpt lat="45.34353" lon="4.52779">
        <ele>1290.23</ele>
        <time>2017-02-26T10:26:56Z</time>
      </trkpt>
      <trkpt lat="45.34355" lon="4.52781">
        <ele>1289.75</ele>
        <time>2017-02-26T10:26:57Z</time>
      </trkpt>
      <trkpt lat="45.34357" lon="4.52783">
        <ele>1289.75</ele>
        <time>2017-02-26T10:26:58Z</time>
      </trkpt>
      <trkpt lat="45.3436" lon="4.52785">
        <ele>1289.75</ele>
        <time>2017-02-26T10:26:59Z</time>
      </trkpt>
      <trkpt lat="45.34362" lon="4.52787">
        <ele>1290.23</ele>
        <time>2017-02-26T10:27:00Z</time>
      </trkpt>
      <trkpt lat="45.34365" lon="4.52788">
        <ele>1290.23</ele>
        <time>2017-02-26T10:27:01Z</time>
      </trkpt>
      <trkpt lat="45.34397" lon="4.52798">
        <ele>1290.71</ele>
        <time>2017-02-26T10:27:13Z</time>
      </trkpt>
      <trkpt lat="45.34431" lon="4.52798">
        <ele>1291.19</ele>
        <time>2017-02-26T10:27:25Z</time>
      </trkpt>
      <trkpt lat="45.34456" lon="4.52792">
        <ele>1290.23</ele>
        <time>2017-02-26T10:27:33Z</time>
      </trkpt>
      <trkpt lat="45.3446" lon="4.52791">
        <ele>1290.71</ele>
        <time>2017-02-26T10:27:34Z</time>
      </trkpt>
      <trkpt lat="45.34464" lon="4.52789">
        <ele>1290.71</ele>
        <time>2017-02-26T10:27:37Z</time>
      </trkpt>
      <trkpt lat="45.34468" lon="4.5279">
        <ele>1290.23</ele>
        <time>2017-02-26T10:27:41Z</time>
      </trkpt>
      <trkpt lat="45.3447" lon="4.52792">
        <ele>1290.23</ele>
        <time>2017-02-26T10:27:42Z</time>
      </trkpt>
      <trkpt lat="45.34473" lon="4.52793">
        <ele>1290.23</ele>
        <time>2017-02-26T10:27:43Z</time>
      </trkpt>
      <trkpt lat="45.34475" lon="4.52793">
        <ele>1289.75</ele>
        <time>2017-02-26T10:27:44Z</time>
      </trkpt>
      <trkpt lat="45.34478" lon="4.52792">
        <ele>1289.27</ele>
        <time>2017-02-26T10:27:45Z</time>
      </trkpt>
      <trkpt lat="45.34481" lon="4.52792">
        <ele>1289.27</ele>
        <time>2017-02-26T10:27:46Z</time>
      </trkpt>
      <trkpt lat="45.34483" lon="4.52793">
        <ele>1289.27</ele>
        <time>2017-02-26T10:27:47Z</time>
      </trkpt>
      <trkpt lat="45.34486" lon="4.52792">
        <ele>1288.78</ele>
        <time>2017-02-26T10:27:48Z</time>
      </trkpt>
      <trkpt lat="45.34489" lon="4.52792">
        <ele>1288.3</ele>
        <time>2017-02-26T10:27:49Z</time>
      </trkpt>
      <trkpt lat="45.34492" lon="4.52791">
        <ele>1288.3</ele>
        <time>2017-02-26T10:27:50Z</time>
      </trkpt>
      <trkpt lat="45.34493" lon="4.52791">
        <ele>1288.3</ele>
        <time>2017-02-26T10:27:57Z</time>
      </trkpt>
      <trkpt lat="45.345" lon="4.52793">
        <ele>1287.34</ele>
        <time>2017-02-26T10:28:08Z</time>
      </trkpt>
      <trkpt lat="45.34503" lon="4.52793">
        <ele>1286.86</ele>
        <time>2017-02-26T10:28:09Z</time>
      </trkpt>
      <trkpt lat="45.34507" lon="4.52793">
        <ele>1286.38</ele>
        <time>2017-02-26T10:28:10Z</time>
      </trkpt>
      <trkpt lat="45.34512" lon="4.52791">
        <ele>1285.9</ele>
        <time>2017-02-26T10:28:11Z</time>
      </trkpt>
      <trkpt lat="45.34517" lon="4.52789">
        <ele>1285.42</ele>
        <time>2017-02-26T10:28:12Z</time>
      </trkpt>
      <trkpt lat="45.34522" lon="4.52785">
        <ele>1284.94</ele>
        <time>2017-02-26T10:28:13Z</time>
      </trkpt>
      <trkpt lat="45.34527" lon="4.52781">
        <ele>1284.46</ele>
        <time>2017-02-26T10:28:14Z</time>
      </trkpt>
      <trkpt lat="45.34532" lon="4.52776">
        <ele>1284.46</ele>
        <time>2017-02-26T10:28:15Z</time>
      </trkpt>
      <trkpt lat="45.34549" lon="4.52764">
        <ele>1283.98</ele>
        <time>2017-02-26T10:28:18Z</time>
      </trkpt>
      <trkpt lat="45.34556" lon="4.52762">
        <ele>1283.5</ele>
        <time>2017-02-26T10:28:19Z</time>
      </trkpt>
      <trkpt lat="45.34563" lon="4.52758">
        <ele>1283.02</ele>
        <time>2017-02-26T10:28:20Z</time>
      </trkpt>
      <trkpt lat="45.34569" lon="4.52755">
        <ele>1282.54</ele>
        <time>2017-02-26T10:28:21Z</time>
      </trkpt>
      <trkpt lat="45.34575" lon="4.52753">
        <ele>1282.54</ele>
        <time>2017-02-26T10:28:22Z</time>
      </trkpt>
      <trkpt lat="45.34581" lon="4.52751">
        <ele>1282.54</ele>
        <time>2017-02-26T10:28:23Z</time>
      </trkpt>
      <trkpt lat="45.34587" lon="4.52751">
        <ele>1282.06</ele>
        <time>2017-02-26T10:28:24Z</time>
      </trkpt>
      <trkpt lat="45.34594" lon="4.52751">
        <ele>1281.57</ele>
        <time>2017-02-26T10:28:25Z</time>
      </trkpt>
      <trkpt lat="45.346" lon="4.52749">
        <ele>1281.09</ele>
        <time>2017-02-26T10:28:26Z</time>
      </trkpt>
      <trkpt lat="45.34606" lon="4.52748">
        <ele>1280.61</ele>
        <time>2017-02-26T10:28:27Z</time>
      </trkpt>
      <trkpt lat="45.34612" lon="4.52748">
        <ele>1280.13</ele>
        <time>2017-02-26T10:28:28Z</time>
      </trkpt>
      <trkpt lat="45.34631" lon="4.52748">
        <ele>1278.69</ele>
        <time>2017-02-26T10:28:31Z</time>
      </trkpt>
      <trkpt lat="45.34639" lon="4.52749">
        <ele>1277.73</ele>
        <time>2017-02-26T10:28:32Z</time>
      </trkpt>
      <trkpt lat="45.34646" lon="4.52748">
        <ele>1277.73</ele>
        <time>2017-02-26T10:28:33Z</time>
      </trkpt>
      <trkpt lat="45.34653" lon="4.52746">
        <ele>1277.25</ele>
        <time>2017-02-26T10:28:34Z</time>
      </trkpt>
      <trkpt lat="45.34659" lon="4.52743">
        <ele>1277.25</ele>
        <time>2017-02-26T10:28:35Z</time>
      </trkpt>
      <trkpt lat="45.34665" lon="4.52738">
        <ele>1276.77</ele>
        <time>2017-02-26T10:28:36Z</time>
      </trkpt>
      <trkpt lat="45.34671" lon="4.52732">
        <ele>1276.77</ele>
        <time>2017-02-26T10:28:37Z</time>
      </trkpt>
      <trkpt lat="45.34676" lon="4.52727">
        <ele>1276.77</ele>
        <time>2017-02-26T10:28:38Z</time>
      </trkpt>
      <trkpt lat="45.34682" lon="4.52722">
        <ele>1276.29</ele>
        <time>2017-02-26T10:28:39Z</time>
      </trkpt>
      <trkpt lat="45.3469" lon="4.52712">
        <ele>1276.77</ele>
        <time>2017-02-26T10:28:41Z</time>
      </trkpt>
      <trkpt lat="45.34695" lon="4.52708">
        <ele>1276.77</ele>
        <time>2017-02-26T10:28:42Z</time>
      </trkpt>
      <trkpt lat="45.34699" lon="4.52704">
        <ele>1276.77</ele>
        <time>2017-02-26T10:28:43Z</time>
      </trkpt>
      <trkpt lat="45.34703" lon="4.527">
        <ele>1276.77</ele>
        <time>2017-02-26T10:28:44Z</time>
      </trkpt>
      <trkpt lat="45.34707" lon="4.52695">
        <ele>1276.77</ele>
        <time>2017-02-26T10:28:45Z</time>
      </trkpt>
      <trkpt lat="45.34711" lon="4.52691">
        <ele>1276.77</ele>
        <time>2017-02-26T10:28:46Z</time>
      </trkpt>
      <trkpt lat="45.34714" lon="4.52686">
        <ele>1276.77</ele>
        <time>2017-02-26T10:28:47Z</time>
      </trkpt>
      <trkpt lat="45.34718" lon="4.52682">
        <ele>1276.29</ele>
        <time>2017-02-26T10:28:48Z</time>
      </trkpt>
      <trkpt lat="45.34723" lon="4.52679">
        <ele>1276.29</ele>
        <time>2017-02-26T10:28:49Z</time>
      </trkpt>
      <trkpt lat="45.34727" lon="4.52675">
        <ele>1276.29</ele>
        <time>2017-02-26T10:28:50Z</time>
      </trkpt>
      <trkpt lat="45.34729" lon="4.52672">
        <ele>1276.77</ele>
        <time>2017-02-26T10:28:51Z</time>
      </trkpt>
      <trkpt lat="45.34731" lon="4.52667">
        <ele>1276.77</ele>
        <time>2017-02-26T10:28:52Z</time>
      </trkpt>
      <trkpt lat="45.34734" lon="4.52661">
        <ele>1276.77</ele>
        <time>2017-02-26T10:28:53Z</time>
      </trkpt>
      <trkpt lat="45.34735" lon="4.52656">
        <ele>1276.77</ele>
        <time>2017-02-26T10:28:54Z</time>
      </trkpt>
      <trkpt lat="45.34737" lon="4.5265">
        <ele>1276.77</ele>
        <time>2017-02-26T10:28:55Z</time>
      </trkpt>
      <trkpt lat="45.3474" lon="4.52645">
        <ele>1276.77</ele>
        <time>2017-02-26T10:28:56Z</time>
      </trkpt>
      <trkpt lat="45.34748" lon="4.52631">
        <ele>1276.77</ele>
        <time>2017-02-26T10:28:59Z</time>
      </trkpt>
      <trkpt lat="45.34751" lon="4.52628">
        <ele>1276.77</ele>
        <time>2017-02-26T10:29:00Z</time>
      </trkpt>
      <trkpt lat="45.34754" lon="4.52625">
        <ele>1276.77</ele>
        <time>2017-02-26T10:29:01Z</time>
      </trkpt>
      <trkpt lat="45.34756" lon="4.52623">
        <ele>1276.77</ele>
        <time>2017-02-26T10:29:02Z</time>
      </trkpt>
      <trkpt lat="45.34759" lon="4.52623">
        <ele>1276.77</ele>
        <time>2017-02-26T10:29:03Z</time>
      </trkpt>
      <trkpt lat="45.3476" lon="4.52623">
        <ele>1276.77</ele>
        <time>2017-02-26T10:29:04Z</time>
      </trkpt>
      <trkpt lat="45.34763" lon="4.52623">
        <ele>1277.25</ele>
        <time>2017-02-26T10:29:07Z</time>
      </trkpt>
      <trkpt lat="45.3477" lon="4.52624">
        <ele>1277.25</ele>
        <time>2017-02-26T10:29:14Z</time>
      </trkpt>
      <trkpt lat="45.34772" lon="4.52624">
        <ele>1276.77</ele>
        <time>2017-02-26T10:29:15Z</time>
      </trkpt>
      <trkpt lat="45.34774" lon="4.52623">
        <ele>1277.25</ele>
        <time>2017-02-26T10:29:16Z</time>
      </trkpt>
      <trkpt lat="45.34795" lon="4.52623">
        <ele>1277.25</ele>
        <time>2017-02-26T10:29:26Z</time>
      </trkpt>
      <trkpt lat="45.34813" lon="4.52624">
        <ele>1278.69</ele>
        <time>2017-02-26T10:29:35Z</time>
      </trkpt>
      <trkpt lat="45.34824" lon="4.52621">
        <ele>1279.17</ele>
        <time>2017-02-26T10:29:40Z</time>
      </trkpt>
      <trkpt lat="45.34838" lon="4.52621">
        <ele>1279.65</ele>
        <time>2017-02-26T10:29:46Z</time>
      </trkpt>
      <trkpt lat="45.34841" lon="4.52621">
        <ele>1280.13</ele>
        <time>2017-02-26T10:29:47Z</time>
      </trkpt>
      <trkpt lat="45.34858" lon="4.52617">
        <ele>1281.09</ele>
        <time>2017-02-26T10:29:55Z</time>
      </trkpt>
      <trkpt lat="45.34875" lon="4.52611">
        <ele>1283.5</ele>
        <time>2017-02-26T10:30:04Z</time>
      </trkpt>
      <trkpt lat="45.34877" lon="4.52611">
        <ele>1283.5</ele>
        <time>2017-02-26T10:30:05Z</time>
      </trkpt>
      <trkpt lat="45.34879" lon="4.52611">
        <ele>1283.98</ele>
        <time>2017-02-26T10:30:06Z</time>
      </trkpt>
      <trkpt lat="45.3488" lon="4.5261">
        <ele>1283.98</ele>
        <time>2017-02-26T10:30:07Z</time>
      </trkpt>
      <trkpt lat="45.34896" lon="4.52604">
        <ele>1285.42</ele>
        <time>2017-02-26T10:30:16Z</time>
      </trkpt>
      <trkpt lat="45.34913" lon="4.52598">
        <ele>1287.34</ele>
        <time>2017-02-26T10:30:26Z</time>
      </trkpt>
      <trkpt lat="45.34923" lon="4.52596">
        <ele>1288.3</ele>
        <time>2017-02-26T10:30:32Z</time>
      </trkpt>
      <trkpt lat="45.34932" lon="4.52592">
        <ele>1288.78</ele>
        <time>2017-02-26T10:30:37Z</time>
      </trkpt>
      <trkpt lat="45.34934" lon="4.52591">
        <ele>1289.27</ele>
        <time>2017-02-26T10:30:39Z</time>
      </trkpt>
      <trkpt lat="45.34936" lon="4.5259">
        <ele>1289.27</ele>
        <time>2017-02-26T10:30:40Z</time>
      </trkpt>
      <trkpt lat="45.34937" lon="4.52589">
        <ele>1289.27</ele>
        <time>2017-02-26T10:30:41Z</time>
      </trkpt>
      <trkpt lat="45.34939" lon="4.52588">
        <ele>1289.75</ele>
        <time>2017-02-26T10:30:42Z</time>
      </trkpt>
      <trkpt lat="45.34941" lon="4.52586">
        <ele>1289.75</ele>
        <time>2017-02-26T10:30:43Z</time>
      </trkpt>
      <trkpt lat="45.34943" lon="4.52586">
        <ele>1290.23</ele>
        <time>2017-02-26T10:30:44Z</time>
      </trkpt>
      <trkpt lat="45.34944" lon="4.52586">
        <ele>1290.23</ele>
        <time>2017-02-26T10:30:45Z</time>
      </trkpt>
      <trkpt lat="45.34946" lon="4.52585">
        <ele>1290.23</ele>
        <time>2017-02-26T10:30:46Z</time>
      </trkpt>
      <trkpt lat="45.34966" lon="4.52579">
        <ele>1292.15</ele>
        <time>2017-02-26T10:30:58Z</time>
      </trkpt>
      <trkpt lat="45.34977" lon="4.52577">
        <ele>1292.63</ele>
        <time>2017-02-26T10:31:04Z</time>
      </trkpt>
      <trkpt lat="45.34979" lon="4.52577">
        <ele>1293.11</ele>
        <time>2017-02-26T10:31:05Z</time>
      </trkpt>
      <trkpt lat="45.34981" lon="4.52578">
        <ele>1292.63</ele>
        <time>2017-02-26T10:31:06Z</time>
      </trkpt>
      <trkpt lat="45.34983" lon="4.52577">
        <ele>1293.11</ele>
        <time>2017-02-26T10:31:07Z</time>
      </trkpt>
      <trkpt lat="45.34984" lon="4.52577">
        <ele>1293.11</ele>
        <time>2017-02-26T10:31:08Z</time>
      </trkpt>
      <trkpt lat="45.34986" lon="4.52576">
        <ele>1293.11</ele>
        <time>2017-02-26T10:31:09Z</time>
      </trkpt>
      <trkpt lat="45.34988" lon="4.52575">
        <ele>1293.11</ele>
        <time>2017-02-26T10:31:10Z</time>
      </trkpt>
      <trkpt lat="45.34989" lon="4.52574">
        <ele>1293.11</ele>
        <time>2017-02-26T10:31:11Z</time>
      </trkpt>
      <trkpt lat="45.34991" lon="4.52574">
        <ele>1293.11</ele>
        <time>2017-02-26T10:31:12Z</time>
      </trkpt>
      <trkpt lat="45.34994" lon="4.52573">
        <ele>1293.11</ele>
        <time>2017-02-26T10:31:13Z</time>
      </trkpt>
      <trkpt lat="45.34996" lon="4.52573">
        <ele>1293.11</ele>
        <time>2017-02-26T10:31:14Z</time>
      </trkpt>
      <trkpt lat="45.34998" lon="4.52573">
        <ele>1293.11</ele>
        <time>2017-02-26T10:31:15Z</time>
      </trkpt>
      <trkpt lat="45.35" lon="4.52573">
        <ele>1293.11</ele>
        <time>2017-02-26T10:31:16Z</time>
      </trkpt>
      <trkpt lat="45.35009" lon="4.52572">
        <ele>1293.59</ele>
        <time>2017-02-26T10:31:21Z</time>
      </trkpt>
      <trkpt lat="45.35012" lon="4.5257">
        <ele>1293.59</ele>
        <time>2017-02-26T10:31:23Z</time>
      </trkpt>
      <trkpt lat="45.35013" lon="4.52571">
        <ele>1293.59</ele>
        <time>2017-02-26T10:31:24Z</time>
      </trkpt>
      <trkpt lat="45.35015" lon="4.5257">
        <ele>1293.59</ele>
        <time>2017-02-26T10:31:25Z</time>
      </trkpt>
      <trkpt lat="45.35035" lon="4.5257">
        <ele>1294.07</ele>
        <time>2017-02-26T10:31:34Z</time>
      </trkpt>
      <trkpt lat="45.35042" lon="4.52572">
        <ele>1294.55</ele>
        <time>2017-02-26T10:31:37Z</time>
      </trkpt>
      <trkpt lat="45.35045" lon="4.52573">
        <ele>1294.55</ele>
        <time>2017-02-26T10:31:38Z</time>
      </trkpt>
      <trkpt lat="45.35046" lon="4.52573">
        <ele>1294.55</ele>
        <time>2017-02-26T10:31:39Z</time>
      </trkpt>
      <trkpt lat="45.35048" lon="4.52573">
        <ele>1295.03</ele>
        <time>2017-02-26T10:31:40Z</time>
      </trkpt>
      <trkpt lat="45.3505" lon="4.52574">
        <ele>1295.03</ele>
        <time>2017-02-26T10:31:41Z</time>
      </trkpt>
      <trkpt lat="45.35081" lon="4.52572">
        <ele>1295.99</ele>
        <time>2017-02-26T10:31:54Z</time>
      </trkpt>
      <trkpt lat="45.35097" lon="4.52572">
        <ele>1296.48</ele>
        <time>2017-02-26T10:32:01Z</time>
      </trkpt>
      <trkpt lat="45.35098" lon="4.52572">
        <ele>1296.48</ele>
        <time>2017-02-26T10:32:02Z</time>
      </trkpt>
      <trkpt lat="45.35118" lon="4.52571">
        <ele>1297.44</ele>
        <time>2017-02-26T10:32:11Z</time>
      </trkpt>
      <trkpt lat="45.35141" lon="4.52574">
        <ele>1298.4</ele>
        <time>2017-02-26T10:32:21Z</time>
      </trkpt>
      <trkpt lat="45.35154" lon="4.52576">
        <ele>1298.88</ele>
        <time>2017-02-26T10:32:28Z</time>
      </trkpt>
      <trkpt lat="45.35162" lon="4.52577">
        <ele>1298.88</ele>
        <time>2017-02-26T10:32:33Z</time>
      </trkpt>
      <trkpt lat="45.35164" lon="4.52578">
        <ele>1298.88</ele>
        <time>2017-02-26T10:32:34Z</time>
      </trkpt>
      <trkpt lat="45.35166" lon="4.52578">
        <ele>1298.88</ele>
        <time>2017-02-26T10:32:35Z</time>
      </trkpt>
      <trkpt lat="45.35168" lon="4.52577">
        <ele>1298.88</ele>
        <time>2017-02-26T10:32:36Z</time>
      </trkpt>
      <trkpt lat="45.35173" lon="4.52577">
        <ele>1298.88</ele>
        <time>2017-02-26T10:32:38Z</time>
      </trkpt>
      <trkpt lat="45.35175" lon="4.52577">
        <ele>1298.88</ele>
        <time>2017-02-26T10:32:39Z</time>
      </trkpt>
      <trkpt lat="45.35178" lon="4.52577">
        <ele>1298.88</ele>
        <time>2017-02-26T10:32:40Z</time>
      </trkpt>
      <trkpt lat="45.3519" lon="4.52578">
        <ele>1298.88</ele>
        <time>2017-02-26T10:32:44Z</time>
      </trkpt>
      <trkpt lat="45.35192" lon="4.52578">
        <ele>1298.88</ele>
        <time>2017-02-26T10:32:45Z</time>
      </trkpt>
      <trkpt lat="45.35194" lon="4.52578">
        <ele>1299.36</ele>
        <time>2017-02-26T10:32:46Z</time>
      </trkpt>
      <trkpt lat="45.35195" lon="4.52578">
        <ele>1298.88</ele>
        <time>2017-02-26T10:32:47Z</time>
      </trkpt>
      <trkpt lat="45.35196" lon="4.52579">
        <ele>1299.36</ele>
        <time>2017-02-26T10:32:48Z</time>
      </trkpt>
      <trkpt lat="45.35217" lon="4.52587">
        <ele>1299.36</ele>
        <time>2017-02-26T10:32:57Z</time>
      </trkpt>
      <trkpt lat="45.3522" lon="4.52589">
        <ele>1295.03</ele>
        <time>2017-02-26T10:33:07Z</time>
      </trkpt>
      <trkpt lat="45.3522" lon="4.52589">
        <ele>1302.72</ele>
        <time>2017-02-26T10:33:08Z</time>
      </trkpt>
      <trkpt lat="45.3522" lon="4.52589">
        <ele>1299.84</ele>
        <time>2017-02-26T10:33:09Z</time>
      </trkpt>
      <trkpt lat="45.3522" lon="4.52589">
        <ele>1299.84</ele>
        <time>2017-02-26T10:33:31Z</time>
      </trkpt>
      <trkpt lat="45.3522" lon="4.52589">
        <ele>1299.84</ele>
        <time>2017-02-26T10:33:59Z</time>
      </trkpt>
      <trkpt lat="45.3522" lon="4.52589">
        <ele>1299.84</ele>
        <time>2017-02-26T10:34:24Z</time>
      </trkpt>
      <trkpt lat="45.3522" lon="4.52589">
        <ele>1299.84</ele>
        <time>2017-02-26T10:34:43Z</time>
      </trkpt>
      <trkpt lat="45.35221" lon="4.52591">
        <ele>1299.84</ele>
        <time>2017-02-26T10:35:05Z</time>
      </trkpt>
      <trkpt lat="45.35227" lon="4.52597">
        <ele>1299.36</ele>
        <time>2017-02-26T10:35:10Z</time>
      </trkpt>
      <trkpt lat="45.3523" lon="4.52599">
        <ele>1298.88</ele>
        <time>2017-02-26T10:35:11Z</time>
      </trkpt>
      <trkpt lat="45.35233" lon="4.526">
        <ele>1299.36</ele>
        <time>2017-02-26T10:35:12Z</time>
      </trkpt>
      <trkpt lat="45.35236" lon="4.52602">
        <ele>1298.4</ele>
        <time>2017-02-26T10:35:13Z</time>
      </trkpt>
      <trkpt lat="45.35238" lon="4.52604">
        <ele>1298.4</ele>
        <time>2017-02-26T10:35:14Z</time>
      </trkpt>
      <trkpt lat="45.35241" lon="4.52606">
        <ele>1298.4</ele>
        <time>2017-02-26T10:35:15Z</time>
      </trkpt>
      <trkpt lat="45.35244" lon="4.52609">
        <ele>1297.92</ele>
        <time>2017-02-26T10:35:16Z</time>
      </trkpt>
      <trkpt lat="45.35248" lon="4.52612">
        <ele>1297.92</ele>
        <time>2017-02-26T10:35:17Z</time>
      </trkpt>
      <trkpt lat="45.35252" lon="4.52615">
        <ele>1297.44</ele>
        <time>2017-02-26T10:35:18Z</time>
      </trkpt>
      <trkpt lat="45.35256" lon="4.52617">
        <ele>1297.44</ele>
        <time>2017-02-26T10:35:19Z</time>
      </trkpt>
      <trkpt lat="45.3526" lon="4.5262">
        <ele>1297.44</ele>
        <time>2017-02-26T10:35:20Z</time>
      </trkpt>
      <trkpt lat="45.35265" lon="4.52622">
        <ele>1296.96</ele>
        <time>2017-02-26T10:35:21Z</time>
      </trkpt>
      <trkpt lat="45.3527" lon="4.52625">
        <ele>1296.96</ele>
        <time>2017-02-26T10:35:22Z</time>
      </trkpt>
      <trkpt lat="45.35284" lon="4.52633">
        <ele>1295.99</ele>
        <time>2017-02-26T10:35:25Z</time>
      </trkpt>
      <trkpt lat="45.35288" lon="4.52637">
        <ele>1295.99</ele>
        <time>2017-02-26T10:35:26Z</time>
      </trkpt>
      <trkpt lat="45.35293" lon="4.5264">
        <ele>1295.99</ele>
        <time>2017-02-26T10:35:27Z</time>
      </trkpt>
      <trkpt lat="45.35297" lon="4.52644">
        <ele>1295.99</ele>
        <time>2017-02-26T10:35:28Z</time>
      </trkpt>
      <trkpt lat="45.35301" lon="4.52649">
        <ele>1295.51</ele>
        <time>2017-02-26T10:35:29Z</time>
      </trkpt>
      <trkpt lat="45.35315" lon="4.52662">
        <ele>1295.03</ele>
        <time>2017-02-26T10:35:32Z</time>
      </trkpt>
      <trkpt lat="45.35324" lon="4.52669">
        <ele>1294.55</ele>
        <time>2017-02-26T10:35:34Z</time>
      </trkpt>
      <trkpt lat="45.3533" lon="4.52672">
        <ele>1294.07</ele>
        <time>2017-02-26T10:35:35Z</time>
      </trkpt>
      <trkpt lat="45.35336" lon="4.52675">
        <ele>1293.59</ele>
        <time>2017-02-26T10:35:36Z</time>
      </trkpt>
      <trkpt lat="45.35341" lon="4.52678">
        <ele>1293.59</ele>
        <time>2017-02-26T10:35:37Z</time>
      </trkpt>
      <trkpt lat="45.35346" lon="4.52681">
        <ele>1293.11</ele>
        <time>2017-02-26T10:35:38Z</time>
      </trkpt>
      <trkpt lat="45.3535" lon="4.52685">
        <ele>1291.67</ele>
        <time>2017-02-26T10:35:39Z</time>
      </trkpt>
      <trkpt lat="45.35356" lon="4.52688">
        <ele>1291.67</ele>
        <time>2017-02-26T10:35:40Z</time>
      </trkpt>
      <trkpt lat="45.35359" lon="4.52692">
        <ele>1291.19</ele>
        <time>2017-02-26T10:35:41Z</time>
      </trkpt>
      <trkpt lat="45.35363" lon="4.52696">
        <ele>1290.71</ele>
        <time>2017-02-26T10:35:42Z</time>
      </trkpt>
      <trkpt lat="45.35367" lon="4.527">
        <ele>1290.71</ele>
        <time>2017-02-26T10:35:43Z</time>
      </trkpt>
      <trkpt lat="45.35371" lon="4.52703">
        <ele>1289.75</ele>
        <time>2017-02-26T10:35:44Z</time>
      </trkpt>
      <trkpt lat="45.35375" lon="4.52707">
        <ele>1289.27</ele>
        <time>2017-02-26T10:35:45Z</time>
      </trkpt>
      <trkpt lat="45.35379" lon="4.52712">
        <ele>1288.78</ele>
        <time>2017-02-26T10:35:46Z</time>
      </trkpt>
      <trkpt lat="45.35383" lon="4.52717">
        <ele>1287.82</ele>
        <time>2017-02-26T10:35:47Z</time>
      </trkpt>
      <trkpt lat="45.35388" lon="4.52721">
        <ele>1287.34</ele>
        <time>2017-02-26T10:35:48Z</time>
      </trkpt>
      <trkpt lat="45.35394" lon="4.52724">
        <ele>1286.86</ele>
        <time>2017-02-26T10:35:49Z</time>
      </trkpt>
      <trkpt lat="45.35398" lon="4.52729">
        <ele>1285.9</ele>
        <time>2017-02-26T10:35:50Z</time>
      </trkpt>
      <trkpt lat="45.35402" lon="4.52733">
        <ele>1285.42</ele>
        <time>2017-02-26T10:35:51Z</time>
      </trkpt>
      <trkpt lat="45.35406" lon="4.52737">
        <ele>1285.42</ele>
        <time>2017-02-26T10:35:52Z</time>
      </trkpt>
      <trkpt lat="45.3541" lon="4.5274">
        <ele>1284.46</ele>
        <time>2017-02-26T10:35:53Z</time>
      </trkpt>
      <trkpt lat="45.35414" lon="4.52743">
        <ele>1284.46</ele>
        <time>2017-02-26T10:35:54Z</time>
      </trkpt>
      <trkpt lat="45.35423" lon="4.52749">
        <ele>1282.54</ele>
        <time>2017-02-26T10:35:56Z</time>
      </trkpt>
      <trkpt lat="45.35439" lon="4.52756">
        <ele>1280.61</ele>
        <time>2017-02-26T10:35:59Z</time>
      </trkpt>
      <trkpt lat="45.35444" lon="4.52757">
        <ele>1279.65</ele>
        <time>2017-02-26T10:36:00Z</time>
      </trkpt>
      <trkpt lat="45.35475" lon="4.5277">
        <ele>1277.25</ele>
        <time>2017-02-26T10:36:05Z</time>
      </trkpt>
      <trkpt lat="45.35487" lon="4.52774">
        <ele>1277.25</ele>
        <time>2017-02-26T10:36:08Z</time>
      </trkpt>
      <trkpt lat="45.35494" lon="4.52773">
        <ele>1276.77</ele>
        <time>2017-02-26T10:36:09Z</time>
      </trkpt>
      <trkpt lat="45.35508" lon="4.52769">
        <ele>1276.77</ele>
        <time>2017-02-26T10:36:11Z</time>
      </trkpt>
      <trkpt lat="45.35522" lon="4.52763">
        <ele>1276.29</ele>
        <time>2017-02-26T10:36:13Z</time>
      </trkpt>
      <trkpt lat="45.35527" lon="4.52759">
        <ele>1276.29</ele>
        <time>2017-02-26T10:36:14Z</time>
      </trkpt>
      <trkpt lat="45.35531" lon="4.52753">
        <ele>1275.81</ele>
        <time>2017-02-26T10:36:15Z</time>
      </trkpt>
      <trkpt lat="45.35536" lon="4.52748">
        <ele>1275.33</ele>
        <time>2017-02-26T10:36:16Z</time>
      </trkpt>
      <trkpt lat="45.3554" lon="4.52745">
        <ele>1275.33</ele>
        <time>2017-02-26T10:36:17Z</time>
      </trkpt>
      <trkpt lat="45.35546" lon="4.52743">
        <ele>1275.33</ele>
        <time>2017-02-26T10:36:18Z</time>
      </trkpt>
      <trkpt lat="45.35552" lon="4.52744">
        <ele>1274.85</ele>
        <time>2017-02-26T10:36:19Z</time>
      </trkpt>
      <trkpt lat="45.35558" lon="4.52744">
        <ele>1274.36</ele>
        <time>2017-02-26T10:36:20Z</time>
      </trkpt>
      <trkpt lat="45.35583" lon="4.52744">
        <ele>1273.88</ele>
        <time>2017-02-26T10:36:24Z</time>
      </trkpt>
      <trkpt lat="45.35607" lon="4.52737">
        <ele>1272.44</ele>
        <time>2017-02-26T10:36:28Z</time>
      </trkpt>
      <trkpt lat="45.35618" lon="4.52728">
        <ele>1271.48</ele>
        <time>2017-02-26T10:36:30Z</time>
      </trkpt>
      <trkpt lat="45.35623" lon="4.52722">
        <ele>1271</ele>
        <time>2017-02-26T10:36:31Z</time>
      </trkpt>
      <trkpt lat="45.35628" lon="4.52714">
        <ele>1270.52</ele>
        <time>2017-02-26T10:36:32Z</time>
      </trkpt>
      <trkpt lat="45.35641" lon="4.52694">
        <ele>1269.08</ele>
        <time>2017-02-26T10:36:35Z</time>
      </trkpt>
      <trkpt lat="45.35642" lon="4.52688">
        <ele>1264.75</ele>
        <time>2017-02-26T10:36:42Z</time>
      </trkpt>
      <trkpt lat="45.35642" lon="4.52688">
        <ele>1273.88</ele>
        <time>2017-02-26T10:36:43Z</time>
      </trkpt>
      <trkpt lat="45.35642" lon="4.52688">
        <ele>1266.67</ele>
        <time>2017-02-26T10:36:44Z</time>
      </trkpt>
      <trkpt lat="45.35642" lon="4.52688">
        <ele>1271</ele>
        <time>2017-02-26T10:36:45Z</time>
      </trkpt>
      <trkpt lat="45.35639" lon="4.52692">
        <ele>1270.04</ele>
        <time>2017-02-26T10:37:00Z</time>
      </trkpt>
      <trkpt lat="45.35637" lon="4.52695">
        <ele>1270.04</ele>
        <time>2017-02-26T10:37:02Z</time>
      </trkpt>
      <trkpt lat="45.35637" lon="4.52696">
        <ele>1270.52</ele>
        <time>2017-02-26T10:37:03Z</time>
      </trkpt>
      <trkpt lat="45.35636" lon="4.52698">
        <ele>1270.04</ele>
        <time>2017-02-26T10:37:04Z</time>
      </trkpt>
      <trkpt lat="45.35633" lon="4.52712">
        <ele>1271.48</ele>
        <time>2017-02-26T10:37:13Z</time>
      </trkpt>
      <trkpt lat="45.35632" lon="4.52714">
        <ele>1271.96</ele>
        <time>2017-02-26T10:37:14Z</time>
      </trkpt>
      <trkpt lat="45.35631" lon="4.52715">
        <ele>1271.96</ele>
        <time>2017-02-26T10:37:15Z</time>
      </trkpt>
      <trkpt lat="45.3563" lon="4.52716">
        <ele>1271.96</ele>
        <time>2017-02-26T10:37:16Z</time>
      </trkpt>
      <trkpt lat="45.3563" lon="4.52718">
        <ele>1272.44</ele>
        <time>2017-02-26T10:37:17Z</time>
      </trkpt>
      <trkpt lat="45.35628" lon="4.52723">
        <ele>1272.44</ele>
        <time>2017-02-26T10:37:25Z</time>
      </trkpt>
      <trkpt lat="45.35627" lon="4.52724">
        <ele>1272.44</ele>
        <time>2017-02-26T10:37:26Z</time>
      </trkpt>
      <trkpt lat="45.35626" lon="4.52726">
        <ele>1272.92</ele>
        <time>2017-02-26T10:37:27Z</time>
      </trkpt>
      <trkpt lat="45.35622" lon="4.5273">
        <ele>1273.4</ele>
        <time>2017-02-26T10:37:31Z</time>
      </trkpt>
      <trkpt lat="45.35621" lon="4.5273">
        <ele>1273.4</ele>
        <time>2017-02-26T10:37:32Z</time>
      </trkpt>
      <trkpt lat="45.35616" lon="4.52732">
        <ele>1274.36</ele>
        <time>2017-02-26T10:37:40Z</time>
      </trkpt>
      <trkpt lat="45.35602" lon="4.52738">
        <ele>1274.36</ele>
        <time>2017-02-26T10:37:50Z</time>
      </trkpt>
      <trkpt lat="45.35593" lon="4.5274">
        <ele>1274.85</ele>
        <time>2017-02-26T10:37:55Z</time>
      </trkpt>
      <trkpt lat="45.3559" lon="4.52742">
        <ele>1274.85</ele>
        <time>2017-02-26T10:37:57Z</time>
      </trkpt>
      <trkpt lat="45.35587" lon="4.52742">
        <ele>1275.33</ele>
        <time>2017-02-26T10:37:58Z</time>
      </trkpt>
      <trkpt lat="45.35582" lon="4.52741">
        <ele>1275.33</ele>
        <time>2017-02-26T10:37:59Z</time>
      </trkpt>
      <trkpt lat="45.35551" lon="4.52745">
        <ele>1276.29</ele>
        <time>2017-02-26T10:38:10Z</time>
      </trkpt>
      <trkpt lat="45.35537" lon="4.52764">
        <ele>1277.73</ele>
        <time>2017-02-26T10:38:17Z</time>
      </trkpt>
      <trkpt lat="45.35535" lon="4.52768">
        <ele>1277.73</ele>
        <time>2017-02-26T10:38:19Z</time>
      </trkpt>
      <trkpt lat="45.35536" lon="4.52768">
        <ele>1277.73</ele>
        <time>2017-02-26T10:38:21Z</time>
      </trkpt>
      <trkpt lat="45.35536" lon="4.52767">
        <ele>1277.73</ele>
        <time>2017-02-26T10:38:22Z</time>
      </trkpt>
      <trkpt lat="45.35535" lon="4.52767">
        <ele>1277.73</ele>
        <time>2017-02-26T10:38:24Z</time>
      </trkpt>
      <trkpt lat="45.35533" lon="4.52767">
        <ele>1277.73</ele>
        <time>2017-02-26T10:38:25Z</time>
      </trkpt>
      <trkpt lat="45.35531" lon="4.52768">
        <ele>1277.73</ele>
        <time>2017-02-26T10:38:26Z</time>
      </trkpt>
      <trkpt lat="45.35518" lon="4.52774">
        <ele>1278.21</ele>
        <time>2017-02-26T10:38:36Z</time>
      </trkpt>
      <trkpt lat="45.35518" lon="4.52774">
        <ele>1278.21</ele>
        <time>2017-02-26T10:39:06Z</time>
      </trkpt>
      <trkpt lat="45.35517" lon="4.52773">
        <ele>1278.69</ele>
        <time>2017-02-26T10:39:22Z</time>
      </trkpt>
      <trkpt lat="45.35519" lon="4.52774">
        <ele>1278.21</ele>
        <time>2017-02-26T10:39:31Z</time>
      </trkpt>
      <trkpt lat="45.35521" lon="4.52773">
        <ele>1278.21</ele>
        <time>2017-02-26T10:39:32Z</time>
      </trkpt>
      <trkpt lat="45.35523" lon="4.52772">
        <ele>1277.73</ele>
        <time>2017-02-26T10:39:33Z</time>
      </trkpt>
      <trkpt lat="45.35525" lon="4.52771">
        <ele>1277.73</ele>
        <time>2017-02-26T10:39:34Z</time>
      </trkpt>
      <trkpt lat="45.35527" lon="4.52771">
        <ele>1277.73</ele>
        <time>2017-02-26T10:39:35Z</time>
      </trkpt>
      <trkpt lat="45.3553" lon="4.5277">
        <ele>1277.73</ele>
        <time>2017-02-26T10:39:36Z</time>
      </trkpt>
      <trkpt lat="45.35538" lon="4.5277">
        <ele>1277.73</ele>
        <time>2017-02-26T10:39:39Z</time>
      </trkpt>
      <trkpt lat="45.35541" lon="4.52771">
        <ele>1277.25</ele>
        <time>2017-02-26T10:39:40Z</time>
      </trkpt>
      <trkpt lat="45.35562" lon="4.52781">
        <ele>1276.77</ele>
        <time>2017-02-26T10:39:47Z</time>
      </trkpt>
      <trkpt lat="45.35577" lon="4.52786">
        <ele>1276.77</ele>
        <time>2017-02-26T10:39:51Z</time>
      </trkpt>
      <trkpt lat="45.35598" lon="4.52786">
        <ele>1276.29</ele>
        <time>2017-02-26T10:39:56Z</time>
      </trkpt>
      <trkpt lat="45.3561" lon="4.52788">
        <ele>1276.29</ele>
        <time>2017-02-26T10:40:00Z</time>
      </trkpt>
      <trkpt lat="45.35627" lon="4.5279">
        <ele>1276.29</ele>
        <time>2017-02-26T10:40:04Z</time>
      </trkpt>
      <trkpt lat="45.35631" lon="4.5279">
        <ele>1276.29</ele>
        <time>2017-02-26T10:40:05Z</time>
      </trkpt>
      <trkpt lat="45.35668" lon="4.52777">
        <ele>1275.33</ele>
        <time>2017-02-26T10:40:14Z</time>
      </trkpt>
      <trkpt lat="45.35688" lon="4.52773">
        <ele>1275.33</ele>
        <time>2017-02-26T10:40:18Z</time>
      </trkpt>
      <trkpt lat="45.35693" lon="4.52772">
        <ele>1274.85</ele>
        <time>2017-02-26T10:40:19Z</time>
      </trkpt>
      <trkpt lat="45.35702" lon="4.52768">
        <ele>1274.85</ele>
        <time>2017-02-26T10:40:21Z</time>
      </trkpt>
      <trkpt lat="45.35722" lon="4.52761">
        <ele>1273.4</ele>
        <time>2017-02-26T10:40:25Z</time>
      </trkpt>
      <trkpt lat="45.35727" lon="4.52758">
        <ele>1272.44</ele>
        <time>2017-02-26T10:40:26Z</time>
      </trkpt>
      <trkpt lat="45.35733" lon="4.52755">
        <ele>1271.96</ele>
        <time>2017-02-26T10:40:27Z</time>
      </trkpt>
      <trkpt lat="45.35738" lon="4.52752">
        <ele>1271.96</ele>
        <time>2017-02-26T10:40:28Z</time>
      </trkpt>
      <trkpt lat="45.35751" lon="4.52746">
        <ele>1271.96</ele>
        <time>2017-02-26T10:40:30Z</time>
      </trkpt>
      <trkpt lat="45.35757" lon="4.52742">
        <ele>1271.96</ele>
        <time>2017-02-26T10:40:31Z</time>
      </trkpt>
      <trkpt lat="45.35763" lon="4.52737">
        <ele>1270.52</ele>
        <time>2017-02-26T10:40:32Z</time>
      </trkpt>
      <trkpt lat="45.35769" lon="4.52732">
        <ele>1270.04</ele>
        <time>2017-02-26T10:40:33Z</time>
      </trkpt>
      <trkpt lat="45.35774" lon="4.52727">
        <ele>1269.56</ele>
        <time>2017-02-26T10:40:34Z</time>
      </trkpt>
      <trkpt lat="45.35793" lon="4.52713">
        <ele>1269.08</ele>
        <time>2017-02-26T10:40:38Z</time>
      </trkpt>
      <trkpt lat="45.35798" lon="4.52713">
        <ele>1268.6</ele>
        <time>2017-02-26T10:40:39Z</time>
      </trkpt>
      <trkpt lat="45.35819" lon="4.52705">
        <ele>1267.64</ele>
        <time>2017-02-26T10:40:44Z</time>
      </trkpt>
      <trkpt lat="45.35825" lon="4.52706">
        <ele>1268.12</ele>
        <time>2017-02-26T10:40:48Z</time>
      </trkpt>
      <trkpt lat="45.35826" lon="4.52704">
        <ele>1268.12</ele>
        <time>2017-02-26T10:40:49Z</time>
      </trkpt>
      <trkpt lat="45.35828" lon="4.52702">
        <ele>1267.64</ele>
        <time>2017-02-26T10:40:50Z</time>
      </trkpt>
      <trkpt lat="45.35831" lon="4.527">
        <ele>1267.16</ele>
        <time>2017-02-26T10:40:51Z</time>
      </trkpt>
      <trkpt lat="45.35833" lon="4.52699">
        <ele>1266.67</ele>
        <time>2017-02-26T10:40:52Z</time>
      </trkpt>
      <trkpt lat="45.35837" lon="4.52697">
        <ele>1266.19</ele>
        <time>2017-02-26T10:40:53Z</time>
      </trkpt>
      <trkpt lat="45.35841" lon="4.52694">
        <ele>1265.71</ele>
        <time>2017-02-26T10:40:54Z</time>
      </trkpt>
      <trkpt lat="45.35845" lon="4.52691">
        <ele>1265.71</ele>
        <time>2017-02-26T10:40:55Z</time>
      </trkpt>
      <trkpt lat="45.35849" lon="4.52688">
        <ele>1264.75</ele>
        <time>2017-02-26T10:40:56Z</time>
      </trkpt>
      <trkpt lat="45.35853" lon="4.52684">
        <ele>1263.79</ele>
        <time>2017-02-26T10:40:57Z</time>
      </trkpt>
      <trkpt lat="45.35858" lon="4.52682">
        <ele>1263.31</ele>
        <time>2017-02-26T10:40:58Z</time>
      </trkpt>
      <trkpt lat="45.35864" lon="4.52679">
        <ele>1262.83</ele>
        <time>2017-02-26T10:40:59Z</time>
      </trkpt>
      <trkpt lat="45.3587" lon="4.52676">
        <ele>1262.35</ele>
        <time>2017-02-26T10:41:00Z</time>
      </trkpt>
      <trkpt lat="45.35883" lon="4.52669">
        <ele>1261.39</ele>
        <time>2017-02-26T10:41:03Z</time>
      </trkpt>
      <trkpt lat="45.35887" lon="4.52666">
        <ele>1260.91</ele>
        <time>2017-02-26T10:41:04Z</time>
      </trkpt>
      <trkpt lat="45.35895" lon="4.5266">
        <ele>1259.94</ele>
        <time>2017-02-26T10:41:06Z</time>
      </trkpt>
      <trkpt lat="45.359" lon="4.52657">
        <ele>1259.94</ele>
        <time>2017-02-26T10:41:07Z</time>
      </trkpt>
      <trkpt lat="45.35946" lon="4.52642">
        <ele>1259.46</ele>
        <time>2017-02-26T10:41:17Z</time>
      </trkpt>
      <trkpt lat="45.35971" lon="4.52637">
        <ele>1257.54</ele>
        <time>2017-02-26T10:41:22Z</time>
      </trkpt>
      <trkpt lat="45.35989" lon="4.5263">
        <ele>1256.58</ele>
        <time>2017-02-26T10:41:25Z</time>
      </trkpt>
      <trkpt lat="45.35995" lon="4.52626">
        <ele>1255.62</ele>
        <time>2017-02-26T10:41:26Z</time>
      </trkpt>
      <trkpt lat="45.36" lon="4.52623">
        <ele>1255.14</ele>
        <time>2017-02-26T10:41:27Z</time>
      </trkpt>
      <trkpt lat="45.36005" lon="4.52621">
        <ele>1254.66</ele>
        <time>2017-02-26T10:41:28Z</time>
      </trkpt>
      <trkpt lat="45.3601" lon="4.52619">
        <ele>1254.18</ele>
        <time>2017-02-26T10:41:29Z</time>
      </trkpt>
      <trkpt lat="45.36015" lon="4.52617">
        <ele>1253.7</ele>
        <time>2017-02-26T10:41:30Z</time>
      </trkpt>
      <trkpt lat="45.36019" lon="4.52615">
        <ele>1253.7</ele>
        <time>2017-02-26T10:41:31Z</time>
      </trkpt>
      <trkpt lat="45.36023" lon="4.52612">
        <ele>1253.22</ele>
        <time>2017-02-26T10:41:32Z</time>
      </trkpt>
      <trkpt lat="45.36027" lon="4.52608">
        <ele>1252.74</ele>
        <time>2017-02-26T10:41:33Z</time>
      </trkpt>
      <trkpt lat="45.3603" lon="4.52604">
        <ele>1252.25</ele>
        <time>2017-02-26T10:41:34Z</time>
      </trkpt>
      <trkpt lat="45.36033" lon="4.52599">
        <ele>1252.25</ele>
        <time>2017-02-26T10:41:38Z</time>
      </trkpt>
      <trkpt lat="45.36035" lon="4.52595">
        <ele>1251.29</ele>
        <time>2017-02-26T10:41:39Z</time>
      </trkpt>
      <trkpt lat="45.36043" lon="4.52582">
        <ele>1249.37</ele>
        <time>2017-02-26T10:41:42Z</time>
      </trkpt>
      <trkpt lat="45.3605" lon="4.52572">
        <ele>1247.93</ele>
        <time>2017-02-26T10:41:44Z</time>
      </trkpt>
      <trkpt lat="45.36053" lon="4.52567">
        <ele>1247.93</ele>
        <time>2017-02-26T10:41:45Z</time>
      </trkpt>
      <trkpt lat="45.36055" lon="4.52563">
        <ele>1246.97</ele>
        <time>2017-02-26T10:41:46Z</time>
      </trkpt>
      <trkpt lat="45.36058" lon="4.5256">
        <ele>1246.49</ele>
        <time>2017-02-26T10:41:47Z</time>
      </trkpt>
      <trkpt lat="45.36062" lon="4.52558">
        <ele>1246.49</ele>
        <time>2017-02-26T10:41:48Z</time>
      </trkpt>
      <trkpt lat="45.36066" lon="4.52555">
        <ele>1246.01</ele>
        <time>2017-02-26T10:41:49Z</time>
      </trkpt>
      <trkpt lat="45.3607" lon="4.52552">
        <ele>1245.53</ele>
        <time>2017-02-26T10:41:50Z</time>
      </trkpt>
      <trkpt lat="45.36074" lon="4.52548">
        <ele>1244.56</ele>
        <time>2017-02-26T10:41:51Z</time>
      </trkpt>
      <trkpt lat="45.36078" lon="4.52545">
        <ele>1244.56</ele>
        <time>2017-02-26T10:41:52Z</time>
      </trkpt>
      <trkpt lat="45.36082" lon="4.52544">
        <ele>1244.08</ele>
        <time>2017-02-26T10:41:53Z</time>
      </trkpt>
      <trkpt lat="45.36086" lon="4.52543">
        <ele>1244.08</ele>
        <time>2017-02-26T10:41:54Z</time>
      </trkpt>
      <trkpt lat="45.36089" lon="4.52542">
        <ele>1243.6</ele>
        <time>2017-02-26T10:41:55Z</time>
      </trkpt>
      <trkpt lat="45.36096" lon="4.52538">
        <ele>1243.12</ele>
        <time>2017-02-26T10:41:58Z</time>
      </trkpt>
      <trkpt lat="45.36098" lon="4.52539">
        <ele>1243.12</ele>
        <time>2017-02-26T10:41:59Z</time>
      </trkpt>
      <trkpt lat="45.36101" lon="4.52538">
        <ele>1243.6</ele>
        <time>2017-02-26T10:42:00Z</time>
      </trkpt>
      <trkpt lat="45.36103" lon="4.52538">
        <ele>1243.6</ele>
        <time>2017-02-26T10:42:01Z</time>
      </trkpt>
      <trkpt lat="45.36104" lon="4.52538">
        <ele>1243.6</ele>
        <time>2017-02-26T10:42:02Z</time>
      </trkpt>
      <trkpt lat="45.36115" lon="4.52545">
        <ele>1243.6</ele>
        <time>2017-02-26T10:42:14Z</time>
      </trkpt>
      <trkpt lat="45.36135" lon="4.52549">
        <ele>1243.12</ele>
        <time>2017-02-26T10:42:20Z</time>
      </trkpt>
      <trkpt lat="45.36138" lon="4.52549">
        <ele>1242.64</ele>
        <time>2017-02-26T10:42:21Z</time>
      </trkpt>
      <trkpt lat="45.36142" lon="4.5255">
        <ele>1242.64</ele>
        <time>2017-02-26T10:42:22Z</time>
      </trkpt>
      <trkpt lat="45.36146" lon="4.52551">
        <ele>1242.16</ele>
        <time>2017-02-26T10:42:23Z</time>
      </trkpt>
      <trkpt lat="45.36149" lon="4.52552">
        <ele>1241.68</ele>
        <time>2017-02-26T10:42:24Z</time>
      </trkpt>
      <trkpt lat="45.36153" lon="4.52553">
        <ele>1241.2</ele>
        <time>2017-02-26T10:42:25Z</time>
      </trkpt>
      <trkpt lat="45.3616" lon="4.52556">
        <ele>1240.72</ele>
        <time>2017-02-26T10:42:27Z</time>
      </trkpt>
      <trkpt lat="45.36162" lon="4.52559">
        <ele>1240.72</ele>
        <time>2017-02-26T10:42:28Z</time>
      </trkpt>
      <trkpt lat="45.36166" lon="4.52562">
        <ele>1240.24</ele>
        <time>2017-02-26T10:42:29Z</time>
      </trkpt>
      <trkpt lat="45.36192" lon="4.52576">
        <ele>1238.8</ele>
        <time>2017-02-26T10:42:35Z</time>
      </trkpt>
      <trkpt lat="45.36198" lon="4.52576">
        <ele>1238.32</ele>
        <time>2017-02-26T10:42:36Z</time>
      </trkpt>
      <trkpt lat="45.36212" lon="4.5258">
        <ele>1236.87</ele>
        <time>2017-02-26T10:42:39Z</time>
      </trkpt>
      <trkpt lat="45.36246" lon="4.52594">
        <ele>1233.51</ele>
        <time>2017-02-26T10:42:46Z</time>
      </trkpt>
      <trkpt lat="45.36253" lon="4.52595">
        <ele>1233.03</ele>
        <time>2017-02-26T10:42:47Z</time>
      </trkpt>
      <trkpt lat="45.36273" lon="4.52595">
        <ele>1231.59</ele>
        <time>2017-02-26T10:42:50Z</time>
      </trkpt>
      <trkpt lat="45.36293" lon="4.52599">
        <ele>1230.14</ele>
        <time>2017-02-26T10:42:53Z</time>
      </trkpt>
      <trkpt lat="45.36298" lon="4.52602">
        <ele>1229.18</ele>
        <time>2017-02-26T10:42:54Z</time>
      </trkpt>
      <trkpt lat="45.36304" lon="4.52603">
        <ele>1228.22</ele>
        <time>2017-02-26T10:42:55Z</time>
      </trkpt>
      <trkpt lat="45.36309" lon="4.52605">
        <ele>1227.74</ele>
        <time>2017-02-26T10:42:56Z</time>
      </trkpt>
      <trkpt lat="45.36315" lon="4.52607">
        <ele>1227.26</ele>
        <time>2017-02-26T10:42:57Z</time>
      </trkpt>
      <trkpt lat="45.36321" lon="4.5261">
        <ele>1227.26</ele>
        <time>2017-02-26T10:42:58Z</time>
      </trkpt>
      <trkpt lat="45.36342" lon="4.52616">
        <ele>1229.18</ele>
        <time>2017-02-26T10:43:02Z</time>
      </trkpt>
      <trkpt lat="45.36379" lon="4.52625">
        <ele>1230.62</ele>
        <time>2017-02-26T10:43:11Z</time>
      </trkpt>
      <trkpt lat="45.36402" lon="4.52636">
        <ele>1231.59</ele>
        <time>2017-02-26T10:43:19Z</time>
      </trkpt>
      <trkpt lat="45.36406" lon="4.52637">
        <ele>1232.07</ele>
        <time>2017-02-26T10:43:20Z</time>
      </trkpt>
      <trkpt lat="45.36409" lon="4.52638">
        <ele>1232.07</ele>
        <time>2017-02-26T10:43:21Z</time>
      </trkpt>
      <trkpt lat="45.36414" lon="4.52639">
        <ele>1232.07</ele>
        <time>2017-02-26T10:43:22Z</time>
      </trkpt>
      <trkpt lat="45.3642" lon="4.52639">
        <ele>1232.07</ele>
        <time>2017-02-26T10:43:23Z</time>
      </trkpt>
      <trkpt lat="45.36424" lon="4.52641">
        <ele>1232.55</ele>
        <time>2017-02-26T10:43:24Z</time>
      </trkpt>
      <trkpt lat="45.36428" lon="4.52643">
        <ele>1232.55</ele>
        <time>2017-02-26T10:43:25Z</time>
      </trkpt>
      <trkpt lat="45.36432" lon="4.52644">
        <ele>1232.55</ele>
        <time>2017-02-26T10:43:26Z</time>
      </trkpt>
      <trkpt lat="45.3644" lon="4.52646">
        <ele>1232.07</ele>
        <time>2017-02-26T10:43:28Z</time>
      </trkpt>
      <trkpt lat="45.36444" lon="4.52649">
        <ele>1232.07</ele>
        <time>2017-02-26T10:43:29Z</time>
      </trkpt>
      <trkpt lat="45.36446" lon="4.5265">
        <ele>1233.03</ele>
        <time>2017-02-26T10:43:30Z</time>
      </trkpt>
      <trkpt lat="45.36449" lon="4.5265">
        <ele>1233.51</ele>
        <time>2017-02-26T10:43:31Z</time>
      </trkpt>
      <trkpt lat="45.36452" lon="4.5265">
        <ele>1233.03</ele>
        <time>2017-02-26T10:43:32Z</time>
      </trkpt>
      <trkpt lat="45.36455" lon="4.52648">
        <ele>1233.03</ele>
        <time>2017-02-26T10:43:33Z</time>
      </trkpt>
      <trkpt lat="45.36457" lon="4.52648">
        <ele>1232.55</ele>
        <time>2017-02-26T10:43:34Z</time>
      </trkpt>
      <trkpt lat="45.3646" lon="4.52649">
        <ele>1232.07</ele>
        <time>2017-02-26T10:43:35Z</time>
      </trkpt>
      <trkpt lat="45.36462" lon="4.52651">
        <ele>1232.07</ele>
        <time>2017-02-26T10:43:36Z</time>
      </trkpt>
      <trkpt lat="45.36464" lon="4.52654">
        <ele>1232.07</ele>
        <time>2017-02-26T10:43:37Z</time>
      </trkpt>
      <trkpt lat="45.36468" lon="4.52655">
        <ele>1232.07</ele>
        <time>2017-02-26T10:43:38Z</time>
      </trkpt>
      <trkpt lat="45.36472" lon="4.52656">
        <ele>1231.59</ele>
        <time>2017-02-26T10:43:39Z</time>
      </trkpt>
      <trkpt lat="45.36503" lon="4.52664">
        <ele>1228.7</ele>
        <time>2017-02-26T10:43:45Z</time>
      </trkpt>
      <trkpt lat="45.36509" lon="4.52666">
        <ele>1227.74</ele>
        <time>2017-02-26T10:43:46Z</time>
      </trkpt>
      <trkpt lat="45.36516" lon="4.5267">
        <ele>1227.26</ele>
        <time>2017-02-26T10:43:48Z</time>
      </trkpt>
      <trkpt lat="45.36519" lon="4.52671">
        <ele>1226.78</ele>
        <time>2017-02-26T10:43:49Z</time>
      </trkpt>
      <trkpt lat="45.36526" lon="4.52676">
        <ele>1226.78</ele>
        <time>2017-02-26T10:43:54Z</time>
      </trkpt>
      <trkpt lat="45.36528" lon="4.52678">
        <ele>1226.3</ele>
        <time>2017-02-26T10:43:55Z</time>
      </trkpt>
      <trkpt lat="45.36529" lon="4.52681">
        <ele>1225.82</ele>
        <time>2017-02-26T10:43:56Z</time>
      </trkpt>
      <trkpt lat="45.36531" lon="4.52686">
        <ele>1225.34</ele>
        <time>2017-02-26T10:43:58Z</time>
      </trkpt>
      <trkpt lat="45.36529" lon="4.52696">
        <ele>1223.9</ele>
        <time>2017-02-26T10:44:01Z</time>
      </trkpt>
      <trkpt lat="45.36529" lon="4.52707">
        <ele>1222.45</ele>
        <time>2017-02-26T10:44:05Z</time>
      </trkpt>
      <trkpt lat="45.36551" lon="4.52706">
        <ele>1219.57</ele>
        <time>2017-02-26T10:44:12Z</time>
      </trkpt>
      <trkpt lat="45.36554" lon="4.52704">
        <ele>1219.57</ele>
        <time>2017-02-26T10:44:13Z</time>
      </trkpt>
      <trkpt lat="45.3656" lon="4.52704">
        <ele>1220.05</ele>
        <time>2017-02-26T10:44:15Z</time>
      </trkpt>
      <trkpt lat="45.36578" lon="4.527">
        <ele>1218.61</ele>
        <time>2017-02-26T10:44:26Z</time>
      </trkpt>
      <trkpt lat="45.36589" lon="4.52701">
        <ele>1217.65</ele>
        <time>2017-02-26T10:44:28Z</time>
      </trkpt>
      <trkpt lat="45.36609" lon="4.52713">
        <ele>1217.65</ele>
        <time>2017-02-26T10:44:35Z</time>
      </trkpt>
      <trkpt lat="45.36614" lon="4.52725">
        <ele>1214.28</ele>
        <time>2017-02-26T10:44:37Z</time>
      </trkpt>
      <trkpt lat="45.36617" lon="4.52728">
        <ele>1214.28</ele>
        <time>2017-02-26T10:44:38Z</time>
      </trkpt>
      <trkpt lat="45.3662" lon="4.52729">
        <ele>1213.32</ele>
        <time>2017-02-26T10:44:39Z</time>
      </trkpt>
      <trkpt lat="45.36621" lon="4.52729">
        <ele>1212.36</ele>
        <time>2017-02-26T10:44:40Z</time>
      </trkpt>
      <trkpt lat="45.36623" lon="4.52729">
        <ele>1212.84</ele>
        <time>2017-02-26T10:44:41Z</time>
      </trkpt>
      <trkpt lat="45.36636" lon="4.52729">
        <ele>1212.36</ele>
        <time>2017-02-26T10:44:49Z</time>
      </trkpt>
      <trkpt lat="45.3664" lon="4.5273">
        <ele>1211.88</ele>
        <time>2017-02-26T10:44:50Z</time>
      </trkpt>
      <trkpt lat="45.36646" lon="4.52732">
        <ele>1210.92</ele>
        <time>2017-02-26T10:44:51Z</time>
      </trkpt>
      <trkpt lat="45.36651" lon="4.52734">
        <ele>1210.44</ele>
        <time>2017-02-26T10:44:52Z</time>
      </trkpt>
      <trkpt lat="45.36657" lon="4.52737">
        <ele>1209.96</ele>
        <time>2017-02-26T10:44:53Z</time>
      </trkpt>
      <trkpt lat="45.36667" lon="4.52741">
        <ele>1209</ele>
        <time>2017-02-26T10:44:55Z</time>
      </trkpt>
      <trkpt lat="45.36671" lon="4.52741">
        <ele>1209</ele>
        <time>2017-02-26T10:44:56Z</time>
      </trkpt>
      <trkpt lat="45.36674" lon="4.52741">
        <ele>1209</ele>
        <time>2017-02-26T10:44:57Z</time>
      </trkpt>
      <trkpt lat="45.36675" lon="4.52741">
        <ele>1209.96</ele>
        <time>2017-02-26T10:44:58Z</time>
      </trkpt>
      <trkpt lat="45.36678" lon="4.52741">
        <ele>1209.96</ele>
        <time>2017-02-26T10:44:59Z</time>
      </trkpt>
      <trkpt lat="45.36682" lon="4.52741">
        <ele>1209.48</ele>
        <time>2017-02-26T10:45:00Z</time>
      </trkpt>
      <trkpt lat="45.36686" lon="4.5274">
        <ele>1209</ele>
        <time>2017-02-26T10:45:01Z</time>
      </trkpt>
      <trkpt lat="45.3669" lon="4.52741">
        <ele>1209</ele>
        <time>2017-02-26T10:45:02Z</time>
      </trkpt>
      <trkpt lat="45.36695" lon="4.52743">
        <ele>1208.51</ele>
        <time>2017-02-26T10:45:03Z</time>
      </trkpt>
      <trkpt lat="45.3671" lon="4.5275">
        <ele>1207.55</ele>
        <time>2017-02-26T10:45:06Z</time>
      </trkpt>
      <trkpt lat="45.36715" lon="4.52754">
        <ele>1207.55</ele>
        <time>2017-02-26T10:45:07Z</time>
      </trkpt>
      <trkpt lat="45.36719" lon="4.52757">
        <ele>1207.07</ele>
        <time>2017-02-26T10:45:08Z</time>
      </trkpt>
      <trkpt lat="45.36724" lon="4.5276">
        <ele>1206.59</ele>
        <time>2017-02-26T10:45:09Z</time>
      </trkpt>
      <trkpt lat="45.36729" lon="4.52763">
        <ele>1206.59</ele>
        <time>2017-02-26T10:45:10Z</time>
      </trkpt>
      <trkpt lat="45.36734" lon="4.52767">
        <ele>1206.11</ele>
        <time>2017-02-26T10:45:11Z</time>
      </trkpt>
      <trkpt lat="45.36745" lon="4.52773">
        <ele>1205.15</ele>
        <time>2017-02-26T10:45:13Z</time>
      </trkpt>
      <trkpt lat="45.36751" lon="4.52775">
        <ele>1204.19</ele>
        <time>2017-02-26T10:45:14Z</time>
      </trkpt>
      <trkpt lat="45.36757" lon="4.52776">
        <ele>1204.19</ele>
        <time>2017-02-26T10:45:15Z</time>
      </trkpt>
      <trkpt lat="45.36762" lon="4.52779">
        <ele>1203.71</ele>
        <time>2017-02-26T10:45:16Z</time>
      </trkpt>
      <trkpt lat="45.36764" lon="4.52784">
        <ele>1203.23</ele>
        <time>2017-02-26T10:45:17Z</time>
      </trkpt>
      <trkpt lat="45.36766" lon="4.52789">
        <ele>1203.23</ele>
        <time>2017-02-26T10:45:18Z</time>
      </trkpt>
      <trkpt lat="45.36768" lon="4.52795">
        <ele>1202.75</ele>
        <time>2017-02-26T10:45:19Z</time>
      </trkpt>
      <trkpt lat="45.36771" lon="4.52801">
        <ele>1202.75</ele>
        <time>2017-02-26T10:45:20Z</time>
      </trkpt>
      <trkpt lat="45.36772" lon="4.52807">
        <ele>1202.27</ele>
        <time>2017-02-26T10:45:21Z</time>
      </trkpt>
      <trkpt lat="45.36771" lon="4.52812">
        <ele>1202.27</ele>
        <time>2017-02-26T10:45:22Z</time>
      </trkpt>
      <trkpt lat="45.3677" lon="4.52816">
        <ele>1202.75</ele>
        <time>2017-02-26T10:45:23Z</time>
      </trkpt>
      <trkpt lat="45.36768" lon="4.52819">
        <ele>1202.75</ele>
        <time>2017-02-26T10:45:24Z</time>
      </trkpt>
      <trkpt lat="45.36766" lon="4.52822">
        <ele>1202.75</ele>
        <time>2017-02-26T10:45:25Z</time>
      </trkpt>
      <trkpt lat="45.36763" lon="4.52822">
        <ele>1202.27</ele>
        <time>2017-02-26T10:45:26Z</time>
      </trkpt>
      <trkpt lat="45.3676" lon="4.52823">
        <ele>1202.75</ele>
        <time>2017-02-26T10:45:27Z</time>
      </trkpt>
      <trkpt lat="45.36757" lon="4.52824">
        <ele>1202.27</ele>
        <time>2017-02-26T10:45:28Z</time>
      </trkpt>
      <trkpt lat="45.3675" lon="4.52827">
        <ele>1202.27</ele>
        <time>2017-02-26T10:45:30Z</time>
      </trkpt>
      <trkpt lat="45.36747" lon="4.52826">
        <ele>1202.27</ele>
        <time>2017-02-26T10:45:31Z</time>
      </trkpt>
      <trkpt lat="45.36745" lon="4.52824">
        <ele>1202.27</ele>
        <time>2017-02-26T10:45:32Z</time>
      </trkpt>
      <trkpt lat="45.36744" lon="4.52821">
        <ele>1202.27</ele>
        <time>2017-02-26T10:45:33Z</time>
      </trkpt>
      <trkpt lat="45.36745" lon="4.52819">
        <ele>1202.27</ele>
        <time>2017-02-26T10:45:34Z</time>
      </trkpt>
      <trkpt lat="45.36748" lon="4.52819">
        <ele>1202.27</ele>
        <time>2017-02-26T10:45:35Z</time>
      </trkpt>
      <trkpt lat="45.3675" lon="4.52819">
        <ele>1202.27</ele>
        <time>2017-02-26T10:45:36Z</time>
      </trkpt>
      <trkpt lat="45.36762" lon="4.52817">
        <ele>1202.27</ele>
        <time>2017-02-26T10:45:40Z</time>
      </trkpt>
      <trkpt lat="45.36763" lon="4.52814">
        <ele>1201.79</ele>
        <time>2017-02-26T10:45:41Z</time>
      </trkpt>
      <trkpt lat="45.36763" lon="4.5281">
        <ele>1202.27</ele>
        <time>2017-02-26T10:45:42Z</time>
      </trkpt>
      <trkpt lat="45.36762" lon="4.52807">
        <ele>1202.75</ele>
        <time>2017-02-26T10:45:43Z</time>
      </trkpt>
      <trkpt lat="45.3676" lon="4.52806">
        <ele>1202.75</ele>
        <time>2017-02-26T10:45:44Z</time>
      </trkpt>
      <trkpt lat="45.36758" lon="4.52805">
        <ele>1203.23</ele>
        <time>2017-02-26T10:45:45Z</time>
      </trkpt>
      <trkpt lat="45.36756" lon="4.52804">
        <ele>1203.71</ele>
        <time>2017-02-26T10:45:46Z</time>
      </trkpt>
      <trkpt lat="45.36755" lon="4.52804">
        <ele>1203.71</ele>
        <time>2017-02-26T10:45:47Z</time>
      </trkpt>
      <trkpt lat="45.36753" lon="4.52803">
        <ele>1204.19</ele>
        <time>2017-02-26T10:45:48Z</time>
      </trkpt>
      <trkpt lat="45.36753" lon="4.52804">
        <ele>1204.19</ele>
        <time>2017-02-26T10:45:49Z</time>
      </trkpt>
      <trkpt lat="45.36752" lon="4.52806">
        <ele>1204.19</ele>
        <time>2017-02-26T10:45:50Z</time>
      </trkpt>
      <trkpt lat="45.36752" lon="4.52808">
        <ele>1204.19</ele>
        <time>2017-02-26T10:45:51Z</time>
      </trkpt>
      <trkpt lat="45.36752" lon="4.52812">
        <ele>1204.19</ele>
        <time>2017-02-26T10:45:56Z</time>
      </trkpt>
      <trkpt lat="45.36754" lon="4.52812">
        <ele>1204.19</ele>
        <time>2017-02-26T10:46:08Z</time>
      </trkpt>
      <trkpt lat="45.36754" lon="4.52812">
        <ele>1206.11</ele>
        <time>2017-02-26T10:46:22Z</time>
      </trkpt>
      <trkpt lat="45.36754" lon="4.52812">
        <ele>1204.19</ele>
        <time>2017-02-26T10:46:25Z</time>
      </trkpt>
      <trkpt lat="45.36754" lon="4.52812">
        <ele>1201.79</ele>
        <time>2017-02-26T10:46:27Z</time>
      </trkpt>
      <trkpt lat="45.36756" lon="4.52804">
        <ele>1205.15</ele>
        <time>2017-02-26T11:04:18Z</time>
      </trkpt>
      <trkpt lat="45.36757" lon="4.52804">
        <ele>1204.67</ele>
        <time>2017-02-26T11:04:19Z</time>
      </trkpt>
      <trkpt lat="45.36758" lon="4.52804">
        <ele>1200.82</ele>
        <time>2017-02-26T11:04:20Z</time>
      </trkpt>
      <trkpt lat="45.36757" lon="4.52805">
        <ele>1201.79</ele>
        <time>2017-02-26T11:04:22Z</time>
      </trkpt>
      <trkpt lat="45.36755" lon="4.52811">
        <ele>1204.67</ele>
        <time>2017-02-26T11:04:23Z</time>
      </trkpt>
      <trkpt lat="45.3675" lon="4.52811">
        <ele>1198.42</ele>
        <time>2017-02-26T11:04:32Z</time>
      </trkpt>
      <trkpt lat="45.3675" lon="4.52811">
        <ele>1210.92</ele>
        <time>2017-02-26T11:04:33Z</time>
      </trkpt>
      <trkpt lat="45.3675" lon="4.52811">
        <ele>1203.23</ele>
        <time>2017-02-26T11:04:34Z</time>
      </trkpt>
      <trkpt lat="45.3675" lon="4.52813">
        <ele>1208.03</ele>
        <time>2017-02-26T11:04:37Z</time>
      </trkpt>
      <trkpt lat="45.3675" lon="4.52814">
        <ele>1201.79</ele>
        <time>2017-02-26T11:04:38Z</time>
      </trkpt>
      <trkpt lat="45.36751" lon="4.52814">
        <ele>1208.03</ele>
        <time>2017-02-26T11:04:39Z</time>
      </trkpt>
      <trkpt lat="45.36751" lon="4.52815">
        <ele>1200.34</ele>
        <time>2017-02-26T11:04:40Z</time>
      </trkpt>
      <trkpt lat="45.36751" lon="4.52815">
        <ele>1208.51</ele>
        <time>2017-02-26T11:04:41Z</time>
      </trkpt>
      <trkpt lat="45.36751" lon="4.52815">
        <ele>1199.86</ele>
        <time>2017-02-26T11:04:42Z</time>
      </trkpt>
      <trkpt lat="45.36751" lon="4.52815">
        <ele>1208.03</ele>
        <time>2017-02-26T11:04:43Z</time>
      </trkpt>
      <trkpt lat="45.36751" lon="4.52816">
        <ele>1204.19</ele>
        <time>2017-02-26T11:04:44Z</time>
      </trkpt>
      <trkpt lat="45.36753" lon="4.52812">
        <ele>1204.67</ele>
        <time>2017-02-26T11:05:04Z</time>
      </trkpt>
      <trkpt lat="45.36753" lon="4.52812">
        <ele>1204.67</ele>
        <time>2017-02-26T11:05:09Z</time>
      </trkpt>
      <trkpt lat="45.36761" lon="4.52815">
        <ele>1203.71</ele>
        <time>2017-02-26T11:05:13Z</time>
      </trkpt>
      <trkpt lat="45.36765" lon="4.52816">
        <ele>1202.75</ele>
        <time>2017-02-26T11:05:14Z</time>
      </trkpt>
      <trkpt lat="45.36768" lon="4.52816">
        <ele>1202.75</ele>
        <time>2017-02-26T11:05:15Z</time>
      </trkpt>
      <trkpt lat="45.36812" lon="4.52812">
        <ele>1202.27</ele>
        <time>2017-02-26T11:05:28Z</time>
      </trkpt>
      <trkpt lat="45.36818" lon="4.52808">
        <ele>1202.27</ele>
        <time>2017-02-26T11:05:40Z</time>
      </trkpt>
      <trkpt lat="45.36817" lon="4.52808">
        <ele>1202.27</ele>
        <time>2017-02-26T11:06:05Z</time>
      </trkpt>
      <trkpt lat="45.36817" lon="4.52808">
        <ele>1202.27</ele>
        <time>2017-02-26T11:06:07Z</time>
      </trkpt>
      <trkpt lat="45.36818" lon="4.52809">
        <ele>1202.27</ele>
        <time>2017-02-26T11:06:08Z</time>
      </trkpt>
      <trkpt lat="45.36819" lon="4.52809">
        <ele>1202.27</ele>
        <time>2017-02-26T11:06:09Z</time>
      </trkpt>
      <trkpt lat="45.36821" lon="4.52809">
        <ele>1201.79</ele>
        <time>2017-02-26T11:06:10Z</time>
      </trkpt>
      <trkpt lat="45.36823" lon="4.5281">
        <ele>1201.79</ele>
        <time>2017-02-26T11:06:11Z</time>
      </trkpt>
      <trkpt lat="45.36825" lon="4.52811">
        <ele>1201.79</ele>
        <time>2017-02-26T11:06:12Z</time>
      </trkpt>
      <trkpt lat="45.36853" lon="4.52814">
        <ele>1200.34</ele>
        <time>2017-02-26T11:06:19Z</time>
      </trkpt>
      <trkpt lat="45.36865" lon="4.52813">
        <ele>1197.94</ele>
        <time>2017-02-26T11:06:21Z</time>
      </trkpt>
      <trkpt lat="45.36894" lon="4.52814">
        <ele>1196.02</ele>
        <time>2017-02-26T11:06:25Z</time>
      </trkpt>
      <trkpt lat="45.369" lon="4.52814">
        <ele>1196.02</ele>
        <time>2017-02-26T11:06:26Z</time>
      </trkpt>
      <trkpt lat="45.36904" lon="4.52816">
        <ele>1196.5</ele>
        <time>2017-02-26T11:06:27Z</time>
      </trkpt>
      <trkpt lat="45.36907" lon="4.52819">
        <ele>1196.5</ele>
        <time>2017-02-26T11:06:28Z</time>
      </trkpt>
      <trkpt lat="45.36909" lon="4.52821">
        <ele>1196.5</ele>
        <time>2017-02-26T11:06:29Z</time>
      </trkpt>
      <trkpt lat="45.36911" lon="4.52823">
        <ele>1196.5</ele>
        <time>2017-02-26T11:06:30Z</time>
      </trkpt>
      <trkpt lat="45.36913" lon="4.52826">
        <ele>1196.5</ele>
        <time>2017-02-26T11:06:31Z</time>
      </trkpt>
      <trkpt lat="45.36917" lon="4.52829">
        <ele>1196.5</ele>
        <time>2017-02-26T11:06:33Z</time>
      </trkpt>
      <trkpt lat="45.36919" lon="4.52829">
        <ele>1196.5</ele>
        <time>2017-02-26T11:06:34Z</time>
      </trkpt>
      <trkpt lat="45.36921" lon="4.52829">
        <ele>1196.5</ele>
        <time>2017-02-26T11:06:35Z</time>
      </trkpt>
      <trkpt lat="45.36923" lon="4.5283">
        <ele>1196.5</ele>
        <time>2017-02-26T11:06:36Z</time>
      </trkpt>
      <trkpt lat="45.36924" lon="4.5283">
        <ele>1196.02</ele>
        <time>2017-02-26T11:06:37Z</time>
      </trkpt>
      <trkpt lat="45.36927" lon="4.5283">
        <ele>1188.33</ele>
        <time>2017-02-26T11:06:42Z</time>
      </trkpt>
      <trkpt lat="45.36927" lon="4.5283">
        <ele>1197.46</ele>
        <time>2017-02-26T11:06:43Z</time>
      </trkpt>
      <trkpt lat="45.36926" lon="4.52829">
        <ele>1195.54</ele>
        <time>2017-02-26T11:06:54Z</time>
      </trkpt>
      <trkpt lat="45.36924" lon="4.52827">
        <ele>1195.54</ele>
        <time>2017-02-26T11:06:56Z</time>
      </trkpt>
      <trkpt lat="45.36917" lon="4.52827">
        <ele>1196.5</ele>
        <time>2017-02-26T11:07:06Z</time>
      </trkpt>
      <trkpt lat="45.36916" lon="4.52825">
        <ele>1196.5</ele>
        <time>2017-02-26T11:07:08Z</time>
      </trkpt>
      <trkpt lat="45.36915" lon="4.52823">
        <ele>1196.98</ele>
        <time>2017-02-26T11:07:09Z</time>
      </trkpt>
      <trkpt lat="45.36915" lon="4.52821">
        <ele>1196.5</ele>
        <time>2017-02-26T11:07:10Z</time>
      </trkpt>
      <trkpt lat="45.36914" lon="4.52819">
        <ele>1196.5</ele>
        <time>2017-02-26T11:07:11Z</time>
      </trkpt>
      <trkpt lat="45.36912" lon="4.52818">
        <ele>1196.5</ele>
        <time>2017-02-26T11:07:12Z</time>
      </trkpt>
      <trkpt lat="45.3691" lon="4.5282">
        <ele>1196.5</ele>
        <time>2017-02-26T11:07:13Z</time>
      </trkpt>
      <trkpt lat="45.36911" lon="4.52822">
        <ele>1196.5</ele>
        <time>2017-02-26T11:07:14Z</time>
      </trkpt>
      <trkpt lat="45.36911" lon="4.52824">
        <ele>1196.98</ele>
        <time>2017-02-26T11:07:15Z</time>
      </trkpt>
      <trkpt lat="45.36913" lon="4.52826">
        <ele>1196.98</ele>
        <time>2017-02-26T11:07:16Z</time>
      </trkpt>
      <trkpt lat="45.36915" lon="4.52827">
        <ele>1196.5</ele>
        <time>2017-02-26T11:07:17Z</time>
      </trkpt>
      <trkpt lat="45.36917" lon="4.52828">
        <ele>1196.5</ele>
        <time>2017-02-26T11:07:18Z</time>
      </trkpt>
      <trkpt lat="45.36922" lon="4.5283">
        <ele>1196.02</ele>
        <time>2017-02-26T11:07:20Z</time>
      </trkpt>
      <trkpt lat="45.36926" lon="4.52831">
        <ele>1195.54</ele>
        <time>2017-02-26T11:07:21Z</time>
      </trkpt>
      <trkpt lat="45.3693" lon="4.52831">
        <ele>1195.06</ele>
        <time>2017-02-26T11:07:22Z</time>
      </trkpt>
      <trkpt lat="45.36972" lon="4.5283">
        <ele>1191.69</ele>
        <time>2017-02-26T11:07:29Z</time>
      </trkpt>
      <trkpt lat="45.37012" lon="4.52836">
        <ele>1188.33</ele>
        <time>2017-02-26T11:07:34Z</time>
      </trkpt>
      <trkpt lat="45.37042" lon="4.52835">
        <ele>1184.48</ele>
        <time>2017-02-26T11:07:38Z</time>
      </trkpt>
      <trkpt lat="45.37084" lon="4.52824">
        <ele>1181.12</ele>
        <time>2017-02-26T11:07:43Z</time>
      </trkpt>
      <trkpt lat="45.37102" lon="4.52818">
        <ele>1179.19</ele>
        <time>2017-02-26T11:07:45Z</time>
      </trkpt>
      <trkpt lat="45.37137" lon="4.52804">
        <ele>1175.83</ele>
        <time>2017-02-26T11:07:49Z</time>
      </trkpt>
      <trkpt lat="45.37154" lon="4.52796">
        <ele>1174.39</ele>
        <time>2017-02-26T11:07:51Z</time>
      </trkpt>
      <trkpt lat="45.37163" lon="4.52791">
        <ele>1173.43</ele>
        <time>2017-02-26T11:07:52Z</time>
      </trkpt>
      <trkpt lat="45.37199" lon="4.52777">
        <ele>1170.06</ele>
        <time>2017-02-26T11:07:56Z</time>
      </trkpt>
      <trkpt lat="45.3723" lon="4.52767">
        <ele>1166.7</ele>
        <time>2017-02-26T11:07:59Z</time>
      </trkpt>
      <trkpt lat="45.37273" lon="4.52762">
        <ele>1163.33</ele>
        <time>2017-02-26T11:08:03Z</time>
      </trkpt>
      <trkpt lat="45.37314" lon="4.52757">
        <ele>1159.97</ele>
        <time>2017-02-26T11:08:07Z</time>
      </trkpt>
      <trkpt lat="45.37364" lon="4.52749">
        <ele>1156.6</ele>
        <time>2017-02-26T11:08:12Z</time>
      </trkpt>
      <trkpt lat="45.37374" lon="4.52749">
        <ele>1156.6</ele>
        <time>2017-02-26T11:08:13Z</time>
      </trkpt>
      <trkpt lat="45.37382" lon="4.5275">
        <ele>1156.6</ele>
        <time>2017-02-26T11:08:14Z</time>
      </trkpt>
      <trkpt lat="45.37388" lon="4.52752">
        <ele>1157.56</ele>
        <time>2017-02-26T11:08:15Z</time>
      </trkpt>
      <trkpt lat="45.37391" lon="4.52753">
        <ele>1159.49</ele>
        <time>2017-02-26T11:08:16Z</time>
      </trkpt>
      <trkpt lat="45.37396" lon="4.52754">
        <ele>1161.41</ele>
        <time>2017-02-26T11:08:18Z</time>
      </trkpt>
      <trkpt lat="45.37397" lon="4.52753">
        <ele>1161.41</ele>
        <time>2017-02-26T11:08:19Z</time>
      </trkpt>
      <trkpt lat="45.37418" lon="4.52749">
        <ele>1158.53</ele>
        <time>2017-02-26T11:08:28Z</time>
      </trkpt>
      <trkpt lat="45.37422" lon="4.52749">
        <ele>1158.53</ele>
        <time>2017-02-26T11:08:29Z</time>
      </trkpt>
      <trkpt lat="45.37427" lon="4.5275">
        <ele>1158.05</ele>
        <time>2017-02-26T11:08:30Z</time>
      </trkpt>
      <trkpt lat="45.37432" lon="4.52749">
        <ele>1157.56</ele>
        <time>2017-02-26T11:08:31Z</time>
      </trkpt>
      <trkpt lat="45.37437" lon="4.52748">
        <ele>1157.56</ele>
        <time>2017-02-26T11:08:38Z</time>
      </trkpt>
      <trkpt lat="45.3744" lon="4.52748">
        <ele>1157.08</ele>
        <time>2017-02-26T11:08:57Z</time>
      </trkpt>
      <trkpt lat="45.37459" lon="4.52748">
        <ele>1153.72</ele>
        <time>2017-02-26T11:09:04Z</time>
      </trkpt>
      <trkpt lat="45.37464" lon="4.52748">
        <ele>1152.76</ele>
        <time>2017-02-26T11:09:05Z</time>
      </trkpt>
      <trkpt lat="45.3747" lon="4.52748">
        <ele>1152.28</ele>
        <time>2017-02-26T11:09:06Z</time>
      </trkpt>
      <trkpt lat="45.37476" lon="4.52748">
        <ele>1151.32</ele>
        <time>2017-02-26T11:09:07Z</time>
      </trkpt>
      <trkpt lat="45.37482" lon="4.52746">
        <ele>1150.35</ele>
        <time>2017-02-26T11:09:08Z</time>
      </trkpt>
      <trkpt lat="45.37488" lon="4.52744">
        <ele>1149.39</ele>
        <time>2017-02-26T11:09:09Z</time>
      </trkpt>
      <trkpt lat="45.37495" lon="4.52741">
        <ele>1148.91</ele>
        <time>2017-02-26T11:09:10Z</time>
      </trkpt>
      <trkpt lat="45.37501" lon="4.5274">
        <ele>1147.95</ele>
        <time>2017-02-26T11:09:11Z</time>
      </trkpt>
      <trkpt lat="45.37505" lon="4.52739">
        <ele>1147.47</ele>
        <time>2017-02-26T11:09:12Z</time>
      </trkpt>
      <trkpt lat="45.37509" lon="4.52738">
        <ele>1147.47</ele>
        <time>2017-02-26T11:09:13Z</time>
      </trkpt>
      <trkpt lat="45.37517" lon="4.52735">
        <ele>1145.55</ele>
        <time>2017-02-26T11:09:18Z</time>
      </trkpt>
      <trkpt lat="45.37518" lon="4.52735">
        <ele>1145.55</ele>
        <time>2017-02-26T11:09:19Z</time>
      </trkpt>
      <trkpt lat="45.3752" lon="4.52734">
        <ele>1145.07</ele>
        <time>2017-02-26T11:09:20Z</time>
      </trkpt>
      <trkpt lat="45.37534" lon="4.52733">
        <ele>1144.59</ele>
        <time>2017-02-26T11:09:26Z</time>
      </trkpt>
      <trkpt lat="45.37535" lon="4.52731">
        <ele>1144.11</ele>
        <time>2017-02-26T11:09:27Z</time>
      </trkpt>
      <trkpt lat="45.37537" lon="4.52725">
        <ele>1144.59</ele>
        <time>2017-02-26T11:09:35Z</time>
      </trkpt>
      <trkpt lat="45.37529" lon="4.52722">
        <ele>1145.55</ele>
        <time>2017-02-26T11:09:42Z</time>
      </trkpt>
      <trkpt lat="45.37506" lon="4.52713">
        <ele>1145.55</ele>
        <time>2017-02-26T11:09:53Z</time>
      </trkpt>
      <trkpt lat="45.37494" lon="4.52709">
        <ele>1144.11</ele>
        <time>2017-02-26T11:09:55Z</time>
      </trkpt>
      <trkpt lat="45.3749" lon="4.52707">
        <ele>1143.14</ele>
        <time>2017-02-26T11:09:56Z</time>
      </trkpt>
      <trkpt lat="45.37485" lon="4.52706">
        <ele>1142.66</ele>
        <time>2017-02-26T11:09:57Z</time>
      </trkpt>
      <trkpt lat="45.37479" lon="4.52703">
        <ele>1142.66</ele>
        <time>2017-02-26T11:09:58Z</time>
      </trkpt>
      <trkpt lat="45.37474" lon="4.52701">
        <ele>1142.18</ele>
        <time>2017-02-26T11:09:59Z</time>
      </trkpt>
      <trkpt lat="45.37471" lon="4.527">
        <ele>1142.18</ele>
        <time>2017-02-26T11:10:00Z</time>
      </trkpt>
      <trkpt lat="45.37453" lon="4.52692">
        <ele>1141.22</ele>
        <time>2017-02-26T11:10:04Z</time>
      </trkpt>
      <trkpt lat="45.37447" lon="4.52691">
        <ele>1141.22</ele>
        <time>2017-02-26T11:10:05Z</time>
      </trkpt>
      <trkpt lat="45.37414" lon="4.52681">
        <ele>1139.3</ele>
        <time>2017-02-26T11:10:11Z</time>
      </trkpt>
      <trkpt lat="45.37402" lon="4.52677">
        <ele>1139.3</ele>
        <time>2017-02-26T11:10:13Z</time>
      </trkpt>
      <trkpt lat="45.37396" lon="4.52675">
        <ele>1139.3</ele>
        <time>2017-02-26T11:10:14Z</time>
      </trkpt>
      <trkpt lat="45.37391" lon="4.52673">
        <ele>1139.3</ele>
        <time>2017-02-26T11:10:15Z</time>
      </trkpt>
      <trkpt lat="45.37385" lon="4.5267">
        <ele>1138.82</ele>
        <time>2017-02-26T11:10:16Z</time>
      </trkpt>
      <trkpt lat="45.37379" lon="4.52668">
        <ele>1139.3</ele>
        <time>2017-02-26T11:10:17Z</time>
      </trkpt>
      <trkpt lat="45.37373" lon="4.52665">
        <ele>1139.3</ele>
        <time>2017-02-26T11:10:18Z</time>
      </trkpt>
      <trkpt lat="45.37367" lon="4.52662">
        <ele>1138.82</ele>
        <time>2017-02-26T11:10:19Z</time>
      </trkpt>
      <trkpt lat="45.3736" lon="4.52658">
        <ele>1138.34</ele>
        <time>2017-02-26T11:10:20Z</time>
      </trkpt>
      <trkpt lat="45.37354" lon="4.52655">
        <ele>1138.34</ele>
        <time>2017-02-26T11:10:21Z</time>
      </trkpt>
      <trkpt lat="45.37348" lon="4.52652">
        <ele>1138.82</ele>
        <time>2017-02-26T11:10:22Z</time>
      </trkpt>
      <trkpt lat="45.37343" lon="4.52651">
        <ele>1139.3</ele>
        <time>2017-02-26T11:10:23Z</time>
      </trkpt>
      <trkpt lat="45.37334" lon="4.52649">
        <ele>1140.26</ele>
        <time>2017-02-26T11:10:33Z</time>
      </trkpt>
      <trkpt lat="45.37334" lon="4.52649">
        <ele>1144.11</ele>
        <time>2017-02-26T11:10:48Z</time>
      </trkpt>
      <trkpt lat="45.37334" lon="4.52649">
        <ele>1140.74</ele>
        <time>2017-02-26T11:10:49Z</time>
      </trkpt>
      <trkpt lat="45.37334" lon="4.52649">
        <ele>1137.38</ele>
        <time>2017-02-26T11:10:51Z</time>
      </trkpt>
      <trkpt lat="45.37334" lon="4.52649">
        <ele>1142.18</ele>
        <time>2017-02-26T11:10:53Z</time>
      </trkpt>
      <trkpt lat="45.37318" lon="4.52645">
        <ele>1140.26</ele>
        <time>2017-02-26T11:11:06Z</time>
      </trkpt>
      <trkpt lat="45.37303" lon="4.52641">
        <ele>1141.7</ele>
        <time>2017-02-26T11:11:14Z</time>
      </trkpt>
      <trkpt lat="45.37298" lon="4.52641">
        <ele>1141.7</ele>
        <time>2017-02-26T11:11:17Z</time>
      </trkpt>
      <trkpt lat="45.37287" lon="4.52638">
        <ele>1141.7</ele>
        <time>2017-02-26T11:11:22Z</time>
      </trkpt>
      <trkpt lat="45.37282" lon="4.52636">
        <ele>1142.18</ele>
        <time>2017-02-26T11:11:24Z</time>
      </trkpt>
      <trkpt lat="45.37261" lon="4.5264">
        <ele>1143.14</ele>
        <time>2017-02-26T11:11:33Z</time>
      </trkpt>
      <trkpt lat="45.37259" lon="4.5264">
        <ele>1143.63</ele>
        <time>2017-02-26T11:11:34Z</time>
      </trkpt>
      <trkpt lat="45.37243" lon="4.52644">
        <ele>1144.59</ele>
        <time>2017-02-26T11:11:42Z</time>
      </trkpt>
      <trkpt lat="45.3724" lon="4.52646">
        <ele>1145.07</ele>
        <time>2017-02-26T11:11:44Z</time>
      </trkpt>
      <trkpt lat="45.37238" lon="4.52647">
        <ele>1145.07</ele>
        <time>2017-02-26T11:11:45Z</time>
      </trkpt>
      <trkpt lat="45.37234" lon="4.52649">
        <ele>1145.07</ele>
        <time>2017-02-26T11:11:47Z</time>
      </trkpt>
      <trkpt lat="45.37233" lon="4.5265">
        <ele>1145.07</ele>
        <time>2017-02-26T11:11:48Z</time>
      </trkpt>
      <trkpt lat="45.37216" lon="4.52658">
        <ele>1146.51</ele>
        <time>2017-02-26T11:11:56Z</time>
      </trkpt>
      <trkpt lat="45.37214" lon="4.52659">
        <ele>1146.51</ele>
        <time>2017-02-26T11:11:57Z</time>
      </trkpt>
      <trkpt lat="45.37211" lon="4.52662">
        <ele>1146.51</ele>
        <time>2017-02-26T11:11:59Z</time>
      </trkpt>
      <trkpt lat="45.37188" lon="4.52674">
        <ele>1148.91</ele>
        <time>2017-02-26T11:12:10Z</time>
      </trkpt>
      <trkpt lat="45.37185" lon="4.52676">
        <ele>1148.91</ele>
        <time>2017-02-26T11:12:12Z</time>
      </trkpt>
      <trkpt lat="45.37183" lon="4.52678">
        <ele>1148.91</ele>
        <time>2017-02-26T11:12:13Z</time>
      </trkpt>
      <trkpt lat="45.37178" lon="4.52684">
        <ele>1149.39</ele>
        <time>2017-02-26T11:12:16Z</time>
      </trkpt>
      <trkpt lat="45.37167" lon="4.5269">
        <ele>1149.87</ele>
        <time>2017-02-26T11:12:22Z</time>
      </trkpt>
      <trkpt lat="45.37163" lon="4.52692">
        <ele>1149.87</ele>
        <time>2017-02-26T11:12:23Z</time>
      </trkpt>
      <trkpt lat="45.3715" lon="4.52697">
        <ele>1150.35</ele>
        <time>2017-02-26T11:12:29Z</time>
      </trkpt>
      <trkpt lat="45.37146" lon="4.52698">
        <ele>1150.35</ele>
        <time>2017-02-26T11:12:31Z</time>
      </trkpt>
      <trkpt lat="45.37144" lon="4.52699">
        <ele>1150.84</ele>
        <time>2017-02-26T11:12:32Z</time>
      </trkpt>
      <trkpt lat="45.37136" lon="4.52705">
        <ele>1151.8</ele>
        <time>2017-02-26T11:12:37Z</time>
      </trkpt>
      <trkpt lat="45.37126" lon="4.52708">
        <ele>1153.72</ele>
        <time>2017-02-26T11:12:46Z</time>
      </trkpt>
      <trkpt lat="45.37112" lon="4.52709">
        <ele>1154.68</ele>
        <time>2017-02-26T11:12:53Z</time>
      </trkpt>
      <trkpt lat="45.37108" lon="4.52709">
        <ele>1155.16</ele>
        <time>2017-02-26T11:12:54Z</time>
      </trkpt>
      <trkpt lat="45.37106" lon="4.5271">
        <ele>1155.16</ele>
        <time>2017-02-26T11:12:55Z</time>
      </trkpt>
      <trkpt lat="45.37104" lon="4.5271">
        <ele>1155.16</ele>
        <time>2017-02-26T11:12:56Z</time>
      </trkpt>
      <trkpt lat="45.37102" lon="4.52709">
        <ele>1155.16</ele>
        <time>2017-02-26T11:12:57Z</time>
      </trkpt>
      <trkpt lat="45.37088" lon="4.52708">
        <ele>1155.64</ele>
        <time>2017-02-26T11:13:05Z</time>
      </trkpt>
      <trkpt lat="45.37083" lon="4.52707">
        <ele>1156.12</ele>
        <time>2017-02-26T11:13:08Z</time>
      </trkpt>
      <trkpt lat="45.37081" lon="4.52708">
        <ele>1155.64</ele>
        <time>2017-02-26T11:13:09Z</time>
      </trkpt>
      <trkpt lat="45.37076" lon="4.52709">
        <ele>1156.6</ele>
        <time>2017-02-26T11:13:12Z</time>
      </trkpt>
      <trkpt lat="45.37073" lon="4.52709">
        <ele>1156.12</ele>
        <time>2017-02-26T11:13:13Z</time>
      </trkpt>
      <trkpt lat="45.37071" lon="4.52708">
        <ele>1156.6</ele>
        <time>2017-02-26T11:13:14Z</time>
      </trkpt>
      <trkpt lat="45.37068" lon="4.52708">
        <ele>1156.6</ele>
        <time>2017-02-26T11:13:15Z</time>
      </trkpt>
      <trkpt lat="45.37049" lon="4.52706">
        <ele>1157.56</ele>
        <time>2017-02-26T11:13:24Z</time>
      </trkpt>
      <trkpt lat="45.37023" lon="4.52694">
        <ele>1156.6</ele>
        <time>2017-02-26T11:13:35Z</time>
      </trkpt>
      <trkpt lat="45.3701" lon="4.5267">
        <ele>1155.16</ele>
        <time>2017-02-26T11:13:43Z</time>
      </trkpt>
      <trkpt lat="45.37013" lon="4.52668">
        <ele>1154.68</ele>
        <time>2017-02-26T11:13:44Z</time>
      </trkpt>
      <trkpt lat="45.37024" lon="4.52634">
        <ele>1152.28</ele>
        <time>2017-02-26T11:13:51Z</time>
      </trkpt>
      <trkpt lat="45.37028" lon="4.52628">
        <ele>1151.32</ele>
        <time>2017-02-26T11:13:52Z</time>
      </trkpt>
      <trkpt lat="45.37037" lon="4.52607">
        <ele>1148.91</ele>
        <time>2017-02-26T11:13:55Z</time>
      </trkpt>
      <trkpt lat="45.37043" lon="4.52595">
        <ele>1146.03</ele>
        <time>2017-02-26T11:13:57Z</time>
      </trkpt>
      <trkpt lat="45.37047" lon="4.52589">
        <ele>1145.07</ele>
        <time>2017-02-26T11:13:58Z</time>
      </trkpt>
      <trkpt lat="45.3706" lon="4.52566">
        <ele>1141.7</ele>
        <time>2017-02-26T11:14:01Z</time>
      </trkpt>
      <trkpt lat="45.37063" lon="4.52555">
        <ele>1140.74</ele>
        <time>2017-02-26T11:14:02Z</time>
      </trkpt>
      <trkpt lat="45.3707" lon="4.52534">
        <ele>1138.34</ele>
        <time>2017-02-26T11:14:04Z</time>
      </trkpt>
      <trkpt lat="45.37072" lon="4.5252">
        <ele>1137.86</ele>
        <time>2017-02-26T11:14:05Z</time>
      </trkpt>
      <trkpt lat="45.37074" lon="4.52436">
        <ele>1135.45</ele>
        <time>2017-02-26T11:14:12Z</time>
      </trkpt>
      <trkpt lat="45.37066" lon="4.52416">
        <ele>1135.45</ele>
        <time>2017-02-26T11:14:21Z</time>
      </trkpt>
      <trkpt lat="45.37064" lon="4.52416">
        <ele>1135.45</ele>
        <time>2017-02-26T11:14:29Z</time>
      </trkpt>
      <trkpt lat="45.37067" lon="4.52419">
        <ele>1134.97</ele>
        <time>2017-02-26T11:14:32Z</time>
      </trkpt>
      <trkpt lat="45.37067" lon="4.52427">
        <ele>1133.53</ele>
        <time>2017-02-26T11:14:41Z</time>
      </trkpt>
      <trkpt lat="45.37072" lon="4.5244">
        <ele>1131.13</ele>
        <time>2017-02-26T11:14:50Z</time>
      </trkpt>
      <trkpt lat="45.37072" lon="4.52444">
        <ele>1130.65</ele>
        <time>2017-02-26T11:15:10Z</time>
      </trkpt>
      <trkpt lat="45.37073" lon="4.52442">
        <ele>1129.69</ele>
        <time>2017-02-26T11:15:17Z</time>
      </trkpt>
      <trkpt lat="45.37069" lon="4.52432">
        <ele>1130.65</ele>
        <time>2017-02-26T11:15:23Z</time>
      </trkpt>
      <trkpt lat="45.3706" lon="4.52419">
        <ele>1132.09</ele>
        <time>2017-02-26T11:15:38Z</time>
      </trkpt>
      <trkpt lat="45.3706" lon="4.52417">
        <ele>1132.57</ele>
        <time>2017-02-26T11:15:44Z</time>
      </trkpt>
      <trkpt lat="45.37058" lon="4.52404">
        <ele>1132.57</ele>
        <time>2017-02-26T11:15:49Z</time>
      </trkpt>
      <trkpt lat="45.37062" lon="4.52379">
        <ele>1133.53</ele>
        <time>2017-02-26T11:15:57Z</time>
      </trkpt>
      <trkpt lat="45.37061" lon="4.52377">
        <ele>1133.53</ele>
        <time>2017-02-26T11:16:12Z</time>
      </trkpt>
      <trkpt lat="45.37061" lon="4.52371">
        <ele>1133.53</ele>
        <time>2017-02-26T11:16:19Z</time>
      </trkpt>
      <trkpt lat="45.37056" lon="4.5235">
        <ele>1136.42</ele>
        <time>2017-02-26T11:16:31Z</time>
      </trkpt>
      <trkpt lat="45.37055" lon="4.52347">
        <ele>1136.9</ele>
        <time>2017-02-26T11:16:33Z</time>
      </trkpt>
      <trkpt lat="45.3705" lon="4.5233">
        <ele>1139.3</ele>
        <time>2017-02-26T11:16:43Z</time>
      </trkpt>
      <trkpt lat="45.37049" lon="4.52325">
        <ele>1139.78</ele>
        <time>2017-02-26T11:16:46Z</time>
      </trkpt>
      <trkpt lat="45.37046" lon="4.52313">
        <ele>1142.18</ele>
        <time>2017-02-26T11:16:53Z</time>
      </trkpt>
      <trkpt lat="45.37045" lon="4.52308">
        <ele>1143.14</ele>
        <time>2017-02-26T11:16:56Z</time>
      </trkpt>
      <trkpt lat="45.37038" lon="4.52299">
        <ele>1145.07</ele>
        <time>2017-02-26T11:17:10Z</time>
      </trkpt>
      <trkpt lat="45.37035" lon="4.523">
        <ele>1145.55</ele>
        <time>2017-02-26T11:17:20Z</time>
      </trkpt>
      <trkpt lat="45.37034" lon="4.52291">
        <ele>1146.99</ele>
        <time>2017-02-26T11:17:31Z</time>
      </trkpt>
      <trkpt lat="45.37034" lon="4.5229">
        <ele>1146.99</ele>
        <time>2017-02-26T11:17:42Z</time>
      </trkpt>
      <trkpt lat="45.37034" lon="4.5229">
        <ele>1146.99</ele>
        <time>2017-02-26T11:18:03Z</time>
      </trkpt>
      <trkpt lat="45.37032" lon="4.52267">
        <ele>1147.95</ele>
        <time>2017-02-26T11:18:15Z</time>
      </trkpt>
      <trkpt lat="45.37032" lon="4.52257">
        <ele>1147.95</ele>
        <time>2017-02-26T11:18:20Z</time>
      </trkpt>
      <trkpt lat="45.3703" lon="4.52219">
        <ele>1149.87</ele>
        <time>2017-02-26T11:18:38Z</time>
      </trkpt>
      <trkpt lat="45.37028" lon="4.52201">
        <ele>1150.84</ele>
        <time>2017-02-26T11:18:47Z</time>
      </trkpt>
      <trkpt lat="45.37025" lon="4.52192">
        <ele>1151.8</ele>
        <time>2017-02-26T11:19:00Z</time>
      </trkpt>
      <trkpt lat="45.37025" lon="4.5219">
        <ele>1151.8</ele>
        <time>2017-02-26T11:19:06Z</time>
      </trkpt>
      <trkpt lat="45.37024" lon="4.52184">
        <ele>1152.28</ele>
        <time>2017-02-26T11:19:15Z</time>
      </trkpt>
      <trkpt lat="45.37024" lon="4.52179">
        <ele>1152.28</ele>
        <time>2017-02-26T11:19:19Z</time>
      </trkpt>
      <trkpt lat="45.37024" lon="4.52171">
        <ele>1152.76</ele>
        <time>2017-02-26T11:19:23Z</time>
      </trkpt>
      <trkpt lat="45.37022" lon="4.52162">
        <ele>1153.24</ele>
        <time>2017-02-26T11:19:32Z</time>
      </trkpt>
      <trkpt lat="45.3702" lon="4.5215">
        <ele>1154.2</ele>
        <time>2017-02-26T11:19:43Z</time>
      </trkpt>
      <trkpt lat="45.37018" lon="4.52142">
        <ele>1155.16</ele>
        <time>2017-02-26T11:19:56Z</time>
      </trkpt>
      <trkpt lat="45.37014" lon="4.52124">
        <ele>1156.12</ele>
        <time>2017-02-26T11:20:07Z</time>
      </trkpt>
      <trkpt lat="45.37011" lon="4.52118">
        <ele>1156.12</ele>
        <time>2017-02-26T11:20:10Z</time>
      </trkpt>
      <trkpt lat="45.37006" lon="4.52103">
        <ele>1156.6</ele>
        <time>2017-02-26T11:20:18Z</time>
      </trkpt>
      <trkpt lat="45.37001" lon="4.52094">
        <ele>1157.56</ele>
        <time>2017-02-26T11:20:23Z</time>
      </trkpt>
      <trkpt lat="45.3699" lon="4.52074">
        <ele>1157.56</ele>
        <time>2017-02-26T11:20:36Z</time>
      </trkpt>
      <trkpt lat="45.36978" lon="4.5205">
        <ele>1157.08</ele>
        <time>2017-02-26T11:20:48Z</time>
      </trkpt>
      <trkpt lat="45.36968" lon="4.5204">
        <ele>1159.01</ele>
        <time>2017-02-26T11:20:59Z</time>
      </trkpt>
      <trkpt lat="45.36967" lon="4.5204">
        <ele>1159.01</ele>
        <time>2017-02-26T11:21:10Z</time>
      </trkpt>
      <trkpt lat="45.36967" lon="4.5204">
        <ele>1159.49</ele>
        <time>2017-02-26T11:21:23Z</time>
      </trkpt>
      <trkpt lat="45.36967" lon="4.5204">
        <ele>1159.01</ele>
        <time>2017-02-26T11:21:34Z</time>
      </trkpt>
      <trkpt lat="45.36959" lon="4.52024">
        <ele>1159.01</ele>
        <time>2017-02-26T11:21:45Z</time>
      </trkpt>
      <trkpt lat="45.36949" lon="4.52005">
        <ele>1159.01</ele>
        <time>2017-02-26T11:21:56Z</time>
      </trkpt>
      <trkpt lat="45.36936" lon="4.51973">
        <ele>1158.05</ele>
        <time>2017-02-26T11:22:07Z</time>
      </trkpt>
      <trkpt lat="45.36925" lon="4.51949">
        <ele>1158.53</ele>
        <time>2017-02-26T11:22:17Z</time>
      </trkpt>
      <trkpt lat="45.3691" lon="4.51917">
        <ele>1158.53</ele>
        <time>2017-02-26T11:22:28Z</time>
      </trkpt>
      <trkpt lat="45.36891" lon="4.51874">
        <ele>1159.97</ele>
        <time>2017-02-26T11:22:42Z</time>
      </trkpt>
      <trkpt lat="45.36893" lon="4.51853">
        <ele>1159.49</ele>
        <time>2017-02-26T11:22:49Z</time>
      </trkpt>
      <trkpt lat="45.36902" lon="4.51797">
        <ele>1159.49</ele>
        <time>2017-02-26T11:23:04Z</time>
      </trkpt>
      <trkpt lat="45.3691" lon="4.51744">
        <ele>1161.41</ele>
        <time>2017-02-26T11:23:18Z</time>
      </trkpt>
      <trkpt lat="45.36914" lon="4.51719">
        <ele>1162.85</ele>
        <time>2017-02-26T11:23:26Z</time>
      </trkpt>
      <trkpt lat="45.36916" lon="4.51699">
        <ele>1163.81</ele>
        <time>2017-02-26T11:23:36Z</time>
      </trkpt>
      <trkpt lat="45.36916" lon="4.51699">
        <ele>1163.33</ele>
        <time>2017-02-26T11:23:50Z</time>
      </trkpt>
      <trkpt lat="45.36918" lon="4.51697">
        <ele>1164.29</ele>
        <time>2017-02-26T11:24:04Z</time>
      </trkpt>
      <trkpt lat="45.36916" lon="4.51694">
        <ele>1164.77</ele>
        <time>2017-02-26T11:24:21Z</time>
      </trkpt>
      <trkpt lat="45.36906" lon="4.51675">
        <ele>1167.66</ele>
        <time>2017-02-26T11:24:37Z</time>
      </trkpt>
      <trkpt lat="45.36906" lon="4.51675">
        <ele>1168.14</ele>
        <time>2017-02-26T11:24:57Z</time>
      </trkpt>
      <trkpt lat="45.36906" lon="4.51675">
        <ele>1168.14</ele>
        <time>2017-02-26T11:25:02Z</time>
      </trkpt>
      <trkpt lat="45.36913" lon="4.51665">
        <ele>1168.62</ele>
        <time>2017-02-26T11:25:14Z</time>
      </trkpt>
      <trkpt lat="45.36909" lon="4.51646">
        <ele>1169.58</ele>
        <time>2017-02-26T11:25:23Z</time>
      </trkpt>
      <trkpt lat="45.36906" lon="4.51643">
        <ele>1170.54</ele>
        <time>2017-02-26T11:25:25Z</time>
      </trkpt>
      <trkpt lat="45.36897" lon="4.51616">
        <ele>1173.43</ele>
        <time>2017-02-26T11:25:37Z</time>
      </trkpt>
      <trkpt lat="45.36898" lon="4.51614">
        <ele>1173.43</ele>
        <time>2017-02-26T11:25:38Z</time>
      </trkpt>
      <trkpt lat="45.36901" lon="4.51595">
        <ele>1173.91</ele>
        <time>2017-02-26T11:25:45Z</time>
      </trkpt>
      <trkpt lat="45.36894" lon="4.51581">
        <ele>1174.87</ele>
        <time>2017-02-26T11:25:52Z</time>
      </trkpt>
      <trkpt lat="45.36895" lon="4.51572">
        <ele>1175.35</ele>
        <time>2017-02-26T11:25:56Z</time>
      </trkpt>
      <trkpt lat="45.36899" lon="4.51562">
        <ele>1175.83</ele>
        <time>2017-02-26T11:26:01Z</time>
      </trkpt>
      <trkpt lat="45.36899" lon="4.51559">
        <ele>1175.83</ele>
        <time>2017-02-26T11:26:09Z</time>
      </trkpt>
      <trkpt lat="45.36908" lon="4.51518">
        <ele>1176.79</ele>
        <time>2017-02-26T11:26:24Z</time>
      </trkpt>
      <trkpt lat="45.36922" lon="4.51472">
        <ele>1177.75</ele>
        <time>2017-02-26T11:26:39Z</time>
      </trkpt>
      <trkpt lat="45.36943" lon="4.51431">
        <ele>1176.31</ele>
        <time>2017-02-26T11:26:52Z</time>
      </trkpt>
      <trkpt lat="45.36953" lon="4.51422">
        <ele>1176.79</ele>
        <time>2017-02-26T11:26:57Z</time>
      </trkpt>
      <trkpt lat="45.36961" lon="4.51399">
        <ele>1174.39</ele>
        <time>2017-02-26T11:27:02Z</time>
      </trkpt>
      <trkpt lat="45.36966" lon="4.5139">
        <ele>1173.91</ele>
        <time>2017-02-26T11:27:04Z</time>
      </trkpt>
      <trkpt lat="45.36973" lon="4.51373">
        <ele>1173.91</ele>
        <time>2017-02-26T11:27:08Z</time>
      </trkpt>
      <trkpt lat="45.36974" lon="4.51365">
        <ele>1173.43</ele>
        <time>2017-02-26T11:27:09Z</time>
      </trkpt>
      <trkpt lat="45.36975" lon="4.51358">
        <ele>1171.02</ele>
        <time>2017-02-26T11:27:10Z</time>
      </trkpt>
      <trkpt lat="45.36978" lon="4.51354">
        <ele>1171.02</ele>
        <time>2017-02-26T11:27:11Z</time>
      </trkpt>
      <trkpt lat="45.36981" lon="4.51349">
        <ele>1169.58</ele>
        <time>2017-02-26T11:27:12Z</time>
      </trkpt>
      <trkpt lat="45.36985" lon="4.51346">
        <ele>1169.1</ele>
        <time>2017-02-26T11:27:13Z</time>
      </trkpt>
      <trkpt lat="45.36993" lon="4.5134">
        <ele>1168.62</ele>
        <time>2017-02-26T11:27:15Z</time>
      </trkpt>
      <trkpt lat="45.36998" lon="4.51337">
        <ele>1168.14</ele>
        <time>2017-02-26T11:27:16Z</time>
      </trkpt>
      <trkpt lat="45.37025" lon="4.51316">
        <ele>1164.77</ele>
        <time>2017-02-26T11:27:21Z</time>
      </trkpt>
      <trkpt lat="45.37031" lon="4.5131">
        <ele>1163.81</ele>
        <time>2017-02-26T11:27:22Z</time>
      </trkpt>
      <trkpt lat="45.37042" lon="4.51299">
        <ele>1162.85</ele>
        <time>2017-02-26T11:27:24Z</time>
      </trkpt>
      <trkpt lat="45.37047" lon="4.51297">
        <ele>1162.85</ele>
        <time>2017-02-26T11:27:25Z</time>
      </trkpt>
      <trkpt lat="45.37052" lon="4.51295">
        <ele>1162.85</ele>
        <time>2017-02-26T11:27:26Z</time>
      </trkpt>
      <trkpt lat="45.37062" lon="4.51293">
        <ele>1162.85</ele>
        <time>2017-02-26T11:27:28Z</time>
      </trkpt>
      <trkpt lat="45.37067" lon="4.5129">
        <ele>1162.37</ele>
        <time>2017-02-26T11:27:29Z</time>
      </trkpt>
      <trkpt lat="45.3707" lon="4.51287">
        <ele>1162.37</ele>
        <time>2017-02-26T11:27:30Z</time>
      </trkpt>
      <trkpt lat="45.37073" lon="4.51285">
        <ele>1162.85</ele>
        <time>2017-02-26T11:27:31Z</time>
      </trkpt>
      <trkpt lat="45.37076" lon="4.51285">
        <ele>1162.85</ele>
        <time>2017-02-26T11:27:32Z</time>
      </trkpt>
      <trkpt lat="45.37077" lon="4.51286">
        <ele>1163.33</ele>
        <time>2017-02-26T11:27:33Z</time>
      </trkpt>
      <trkpt lat="45.37078" lon="4.51287">
        <ele>1163.81</ele>
        <time>2017-02-26T11:27:34Z</time>
      </trkpt>
      <trkpt lat="45.37079" lon="4.51286">
        <ele>1163.81</ele>
        <time>2017-02-26T11:27:35Z</time>
      </trkpt>
      <trkpt lat="45.3708" lon="4.51285">
        <ele>1163.81</ele>
        <time>2017-02-26T11:27:36Z</time>
      </trkpt>
      <trkpt lat="45.37081" lon="4.51283">
        <ele>1163.81</ele>
        <time>2017-02-26T11:27:37Z</time>
      </trkpt>
      <trkpt lat="45.3708" lon="4.51281">
        <ele>1163.81</ele>
        <time>2017-02-26T11:27:38Z</time>
      </trkpt>
      <trkpt lat="45.37078" lon="4.5128">
        <ele>1163.81</ele>
        <time>2017-02-26T11:27:39Z</time>
      </trkpt>
      <trkpt lat="45.37077" lon="4.51282">
        <ele>1163.81</ele>
        <time>2017-02-26T11:27:40Z</time>
      </trkpt>
      <trkpt lat="45.37076" lon="4.51284">
        <ele>1163.81</ele>
        <time>2017-02-26T11:27:41Z</time>
      </trkpt>
      <trkpt lat="45.37075" lon="4.51289">
        <ele>1163.81</ele>
        <time>2017-02-26T11:27:45Z</time>
      </trkpt>
      <trkpt lat="45.37077" lon="4.5129">
        <ele>1163.81</ele>
        <time>2017-02-26T11:27:46Z</time>
      </trkpt>
      <trkpt lat="45.37078" lon="4.51291">
        <ele>1163.81</ele>
        <time>2017-02-26T11:27:47Z</time>
      </trkpt>
      <trkpt lat="45.37079" lon="4.51291">
        <ele>1163.81</ele>
        <time>2017-02-26T11:27:49Z</time>
      </trkpt>
      <trkpt lat="45.3708" lon="4.51289">
        <ele>1163.33</ele>
        <time>2017-02-26T11:27:50Z</time>
      </trkpt>
      <trkpt lat="45.37079" lon="4.51287">
        <ele>1163.33</ele>
        <time>2017-02-26T11:27:51Z</time>
      </trkpt>
      <trkpt lat="45.37077" lon="4.51286">
        <ele>1163.81</ele>
        <time>2017-02-26T11:28:03Z</time>
      </trkpt>
      <trkpt lat="45.37077" lon="4.51286">
        <ele>1163.81</ele>
        <time>2017-02-26T11:28:30Z</time>
      </trkpt>
      <trkpt lat="45.37078" lon="4.51289">
        <ele>1163.81</ele>
        <time>2017-02-26T11:28:35Z</time>
      </trkpt>
      <trkpt lat="45.37079" lon="4.51291">
        <ele>1163.81</ele>
        <time>2017-02-26T11:28:36Z</time>
      </trkpt>
      <trkpt lat="45.37079" lon="4.51293">
        <ele>1163.81</ele>
        <time>2017-02-26T11:28:37Z</time>
      </trkpt>
      <trkpt lat="45.3708" lon="4.51296">
        <ele>1163.81</ele>
        <time>2017-02-26T11:28:38Z</time>
      </trkpt>
      <trkpt lat="45.37081" lon="4.51299">
        <ele>1163.81</ele>
        <time>2017-02-26T11:28:39Z</time>
      </trkpt>
      <trkpt lat="45.37082" lon="4.51303">
        <ele>1163.33</ele>
        <time>2017-02-26T11:28:40Z</time>
      </trkpt>
      <trkpt lat="45.37082" lon="4.51307">
        <ele>1163.33</ele>
        <time>2017-02-26T11:28:41Z</time>
      </trkpt>
      <trkpt lat="45.37083" lon="4.51368">
        <ele>1162.85</ele>
        <time>2017-02-26T11:28:55Z</time>
      </trkpt>
      <trkpt lat="45.37082" lon="4.51413">
        <ele>1162.85</ele>
        <time>2017-02-26T11:29:06Z</time>
      </trkpt>
      <trkpt lat="45.37078" lon="4.51455">
        <ele>1160.93</ele>
        <time>2017-02-26T11:29:14Z</time>
      </trkpt>
      <trkpt lat="45.37075" lon="4.5147">
        <ele>1159.49</ele>
        <time>2017-02-26T11:29:16Z</time>
      </trkpt>
      <trkpt lat="45.37074" lon="4.51477">
        <ele>1159.01</ele>
        <time>2017-02-26T11:29:17Z</time>
      </trkpt>
      <trkpt lat="45.37071" lon="4.51484">
        <ele>1157.56</ele>
        <time>2017-02-26T11:29:18Z</time>
      </trkpt>
      <trkpt lat="45.37066" lon="4.51498">
        <ele>1156.12</ele>
        <time>2017-02-26T11:29:20Z</time>
      </trkpt>
      <trkpt lat="45.37065" lon="4.51506">
        <ele>1155.64</ele>
        <time>2017-02-26T11:29:21Z</time>
      </trkpt>
      <trkpt lat="45.37063" lon="4.51521">
        <ele>1154.2</ele>
        <time>2017-02-26T11:29:23Z</time>
      </trkpt>
      <trkpt lat="45.3706" lon="4.51537">
        <ele>1152.76</ele>
        <time>2017-02-26T11:29:25Z</time>
      </trkpt>
      <trkpt lat="45.37059" lon="4.51544">
        <ele>1152.28</ele>
        <time>2017-02-26T11:29:26Z</time>
      </trkpt>
      <trkpt lat="45.37058" lon="4.5155">
        <ele>1151.32</ele>
        <time>2017-02-26T11:29:27Z</time>
      </trkpt>
      <trkpt lat="45.37057" lon="4.51555">
        <ele>1150.84</ele>
        <time>2017-02-26T11:29:28Z</time>
      </trkpt>
      <trkpt lat="45.37056" lon="4.51561">
        <ele>1150.84</ele>
        <time>2017-02-26T11:29:29Z</time>
      </trkpt>
      <trkpt lat="45.37056" lon="4.51564">
        <ele>1150.35</ele>
        <time>2017-02-26T11:29:30Z</time>
      </trkpt>
      <trkpt lat="45.37055" lon="4.51567">
        <ele>1149.87</ele>
        <time>2017-02-26T11:29:31Z</time>
      </trkpt>
      <trkpt lat="45.37055" lon="4.51569">
        <ele>1148.91</ele>
        <time>2017-02-26T11:29:32Z</time>
      </trkpt>
      <trkpt lat="45.37055" lon="4.51575">
        <ele>1147.47</ele>
        <time>2017-02-26T11:29:33Z</time>
      </trkpt>
      <trkpt lat="45.37053" lon="4.51582">
        <ele>1146.51</ele>
        <time>2017-02-26T11:29:34Z</time>
      </trkpt>
      <trkpt lat="45.37052" lon="4.51588">
        <ele>1145.07</ele>
        <time>2017-02-26T11:29:35Z</time>
      </trkpt>
      <trkpt lat="45.37052" lon="4.51595">
        <ele>1144.11</ele>
        <time>2017-02-26T11:29:36Z</time>
      </trkpt>
      <trkpt lat="45.37051" lon="4.51602">
        <ele>1143.63</ele>
        <time>2017-02-26T11:29:37Z</time>
      </trkpt>
      <trkpt lat="45.37049" lon="4.51609">
        <ele>1143.14</ele>
        <time>2017-02-26T11:29:38Z</time>
      </trkpt>
      <trkpt lat="45.37048" lon="4.51618">
        <ele>1141.7</ele>
        <time>2017-02-26T11:29:39Z</time>
      </trkpt>
      <trkpt lat="45.37048" lon="4.51628">
        <ele>1141.22</ele>
        <time>2017-02-26T11:29:40Z</time>
      </trkpt>
      <trkpt lat="45.37049" lon="4.51638">
        <ele>1139.78</ele>
        <time>2017-02-26T11:29:41Z</time>
      </trkpt>
      <trkpt lat="45.37048" lon="4.51648">
        <ele>1139.3</ele>
        <time>2017-02-26T11:29:42Z</time>
      </trkpt>
      <trkpt lat="45.37048" lon="4.5168">
        <ele>1135.45</ele>
        <time>2017-02-26T11:29:45Z</time>
      </trkpt>
      <trkpt lat="45.37047" lon="4.51691">
        <ele>1134.49</ele>
        <time>2017-02-26T11:29:46Z</time>
      </trkpt>
      <trkpt lat="45.37047" lon="4.51702">
        <ele>1133.53</ele>
        <time>2017-02-26T11:29:47Z</time>
      </trkpt>
      <trkpt lat="45.37046" lon="4.51712">
        <ele>1132.57</ele>
        <time>2017-02-26T11:29:48Z</time>
      </trkpt>
      <trkpt lat="45.37043" lon="4.51746">
        <ele>1128.24</ele>
        <time>2017-02-26T11:29:51Z</time>
      </trkpt>
      <trkpt lat="45.37042" lon="4.51757">
        <ele>1126.8</ele>
        <time>2017-02-26T11:29:52Z</time>
      </trkpt>
      <trkpt lat="45.3704" lon="4.51768">
        <ele>1125.84</ele>
        <time>2017-02-26T11:29:53Z</time>
      </trkpt>
      <trkpt lat="45.37037" lon="4.51786">
        <ele>1124.88</ele>
        <time>2017-02-26T11:29:55Z</time>
      </trkpt>
      <trkpt lat="45.37035" lon="4.51795">
        <ele>1123.92</ele>
        <time>2017-02-26T11:29:56Z</time>
      </trkpt>
      <trkpt lat="45.37033" lon="4.51802">
        <ele>1123.92</ele>
        <time>2017-02-26T11:29:57Z</time>
      </trkpt>
      <trkpt lat="45.37031" lon="4.51809">
        <ele>1123.44</ele>
        <time>2017-02-26T11:29:58Z</time>
      </trkpt>
      <trkpt lat="45.3703" lon="4.51816">
        <ele>1122.96</ele>
        <time>2017-02-26T11:29:59Z</time>
      </trkpt>
      <trkpt lat="45.37024" lon="4.5184">
        <ele>1120.07</ele>
        <time>2017-02-26T11:30:02Z</time>
      </trkpt>
      <trkpt lat="45.37024" lon="4.51848">
        <ele>1119.11</ele>
        <time>2017-02-26T11:30:03Z</time>
      </trkpt>
      <trkpt lat="45.37025" lon="4.51855">
        <ele>1117.67</ele>
        <time>2017-02-26T11:30:04Z</time>
      </trkpt>
      <trkpt lat="45.37027" lon="4.51862">
        <ele>1117.67</ele>
        <time>2017-02-26T11:30:05Z</time>
      </trkpt>
      <trkpt lat="45.3703" lon="4.51868">
        <ele>1116.71</ele>
        <time>2017-02-26T11:30:06Z</time>
      </trkpt>
      <trkpt lat="45.37033" lon="4.51875">
        <ele>1116.23</ele>
        <time>2017-02-26T11:30:07Z</time>
      </trkpt>
      <trkpt lat="45.37045" lon="4.51893">
        <ele>1113.82</ele>
        <time>2017-02-26T11:30:10Z</time>
      </trkpt>
      <trkpt lat="45.37056" lon="4.51909">
        <ele>1111.9</ele>
        <time>2017-02-26T11:30:13Z</time>
      </trkpt>
      <trkpt lat="45.37059" lon="4.51915">
        <ele>1110.94</ele>
        <time>2017-02-26T11:30:14Z</time>
      </trkpt>
      <trkpt lat="45.37063" lon="4.51922">
        <ele>1110.94</ele>
        <time>2017-02-26T11:30:15Z</time>
      </trkpt>
      <trkpt lat="45.37068" lon="4.51928">
        <ele>1109.98</ele>
        <time>2017-02-26T11:30:16Z</time>
      </trkpt>
      <trkpt lat="45.37072" lon="4.51934">
        <ele>1109.98</ele>
        <time>2017-02-26T11:30:17Z</time>
      </trkpt>
      <trkpt lat="45.37077" lon="4.51939">
        <ele>1109.98</ele>
        <time>2017-02-26T11:30:18Z</time>
      </trkpt>
      <trkpt lat="45.37082" lon="4.51943">
        <ele>1109.5</ele>
        <time>2017-02-26T11:30:19Z</time>
      </trkpt>
      <trkpt lat="45.37087" lon="4.51947">
        <ele>1109.02</ele>
        <time>2017-02-26T11:30:20Z</time>
      </trkpt>
      <trkpt lat="45.37097" lon="4.51955">
        <ele>1108.06</ele>
        <time>2017-02-26T11:30:22Z</time>
      </trkpt>
      <trkpt lat="45.37106" lon="4.51965">
        <ele>1107.1</ele>
        <time>2017-02-26T11:30:24Z</time>
      </trkpt>
      <trkpt lat="45.37115" lon="4.51976">
        <ele>1105.65</ele>
        <time>2017-02-26T11:30:26Z</time>
      </trkpt>
      <trkpt lat="45.37119" lon="4.51982">
        <ele>1105.65</ele>
        <time>2017-02-26T11:30:27Z</time>
      </trkpt>
      <trkpt lat="45.37124" lon="4.51988">
        <ele>1105.17</ele>
        <time>2017-02-26T11:30:28Z</time>
      </trkpt>
      <trkpt lat="45.37134" lon="4.51999">
        <ele>1103.73</ele>
        <time>2017-02-26T11:30:30Z</time>
      </trkpt>
      <trkpt lat="45.37139" lon="4.52005">
        <ele>1103.25</ele>
        <time>2017-02-26T11:30:31Z</time>
      </trkpt>
      <trkpt lat="45.37161" lon="4.52028">
        <ele>1099.4</ele>
        <time>2017-02-26T11:30:36Z</time>
      </trkpt>
      <trkpt lat="45.37165" lon="4.52035">
        <ele>1098.92</ele>
        <time>2017-02-26T11:30:37Z</time>
      </trkpt>
      <trkpt lat="45.37168" lon="4.52042">
        <ele>1098.92</ele>
        <time>2017-02-26T11:30:38Z</time>
      </trkpt>
      <trkpt lat="45.37172" lon="4.52047">
        <ele>1098.44</ele>
        <time>2017-02-26T11:30:39Z</time>
      </trkpt>
      <trkpt lat="45.37176" lon="4.52053">
        <ele>1097.96</ele>
        <time>2017-02-26T11:30:40Z</time>
      </trkpt>
      <trkpt lat="45.37179" lon="4.5206">
        <ele>1097.96</ele>
        <time>2017-02-26T11:30:41Z</time>
      </trkpt>
      <trkpt lat="45.37181" lon="4.52067">
        <ele>1097.48</ele>
        <time>2017-02-26T11:30:42Z</time>
      </trkpt>
      <trkpt lat="45.37183" lon="4.52074">
        <ele>1097.48</ele>
        <time>2017-02-26T11:30:43Z</time>
      </trkpt>
      <trkpt lat="45.37184" lon="4.52081">
        <ele>1097</ele>
        <time>2017-02-26T11:30:44Z</time>
      </trkpt>
      <trkpt lat="45.3719" lon="4.52102">
        <ele>1096.52</ele>
        <time>2017-02-26T11:30:51Z</time>
      </trkpt>
      <trkpt lat="45.3719" lon="4.52102">
        <ele>1096.52</ele>
        <time>2017-02-26T11:31:16Z</time>
      </trkpt>
      <trkpt lat="45.3719" lon="4.52102">
        <ele>1093.16</ele>
        <time>2017-02-26T11:31:23Z</time>
      </trkpt>
      <trkpt lat="45.3719" lon="4.52102">
        <ele>1097.48</ele>
        <time>2017-02-26T11:31:24Z</time>
      </trkpt>
      <trkpt lat="45.3719" lon="4.52102">
        <ele>1093.64</ele>
        <time>2017-02-26T11:31:26Z</time>
      </trkpt>
      <trkpt lat="45.3719" lon="4.52102">
        <ele>1099.4</ele>
        <time>2017-02-26T11:31:27Z</time>
      </trkpt>
      <trkpt lat="45.37191" lon="4.52102">
        <ele>1096.52</ele>
        <time>2017-02-26T11:31:30Z</time>
      </trkpt>
      <trkpt lat="45.37191" lon="4.52107">
        <ele>1095.56</ele>
        <time>2017-02-26T11:31:40Z</time>
      </trkpt>
      <trkpt lat="45.37191" lon="4.52107">
        <ele>1095.08</ele>
        <time>2017-02-26T11:31:53Z</time>
      </trkpt>
      <trkpt lat="45.37184" lon="4.52092">
        <ele>1098.92</ele>
        <time>2017-02-26T11:54:22Z</time>
      </trkpt>
      <trkpt lat="45.37186" lon="4.52093">
        <ele>1098.44</ele>
        <time>2017-02-26T11:54:23Z</time>
      </trkpt>
      <trkpt lat="45.37194" lon="4.52106">
        <ele>1098.92</ele>
        <time>2017-02-26T11:54:34Z</time>
      </trkpt>
      <trkpt lat="45.37195" lon="4.52111">
        <ele>1098.44</ele>
        <time>2017-02-26T11:54:36Z</time>
      </trkpt>
      <trkpt lat="45.37203" lon="4.52148">
        <ele>1094.6</ele>
        <time>2017-02-26T11:54:45Z</time>
      </trkpt>
      <trkpt lat="45.37204" lon="4.52153">
        <ele>1093.64</ele>
        <time>2017-02-26T11:54:46Z</time>
      </trkpt>
      <trkpt lat="45.37209" lon="4.52161">
        <ele>1093.16</ele>
        <time>2017-02-26T11:54:49Z</time>
      </trkpt>
      <trkpt lat="45.37208" lon="4.52206">
        <ele>1091.23</ele>
        <time>2017-02-26T11:54:58Z</time>
      </trkpt>
      <trkpt lat="45.37206" lon="4.52212">
        <ele>1090.75</ele>
        <time>2017-02-26T11:54:59Z</time>
      </trkpt>
      <trkpt lat="45.37204" lon="4.52219">
        <ele>1090.75</ele>
        <time>2017-02-26T11:55:00Z</time>
      </trkpt>
      <trkpt lat="45.37203" lon="4.52226">
        <ele>1090.75</ele>
        <time>2017-02-26T11:55:01Z</time>
      </trkpt>
      <trkpt lat="45.37202" lon="4.52233">
        <ele>1090.27</ele>
        <time>2017-02-26T11:55:02Z</time>
      </trkpt>
      <trkpt lat="45.37201" lon="4.5224">
        <ele>1090.27</ele>
        <time>2017-02-26T11:55:03Z</time>
      </trkpt>
      <trkpt lat="45.37199" lon="4.52246">
        <ele>1090.27</ele>
        <time>2017-02-26T11:55:04Z</time>
      </trkpt>
      <trkpt lat="45.37198" lon="4.5225">
        <ele>1089.31</ele>
        <time>2017-02-26T11:55:05Z</time>
      </trkpt>
      <trkpt lat="45.37195" lon="4.5226">
        <ele>1088.83</ele>
        <time>2017-02-26T11:55:06Z</time>
      </trkpt>
      <trkpt lat="45.37192" lon="4.52265">
        <ele>1088.35</ele>
        <time>2017-02-26T11:55:07Z</time>
      </trkpt>
      <trkpt lat="45.37192" lon="4.52271">
        <ele>1087.87</ele>
        <time>2017-02-26T11:55:08Z</time>
      </trkpt>
      <trkpt lat="45.37192" lon="4.52277">
        <ele>1087.87</ele>
        <time>2017-02-26T11:55:09Z</time>
      </trkpt>
      <trkpt lat="45.37191" lon="4.52284">
        <ele>1088.35</ele>
        <time>2017-02-26T11:55:10Z</time>
      </trkpt>
      <trkpt lat="45.37191" lon="4.52291">
        <ele>1088.35</ele>
        <time>2017-02-26T11:55:11Z</time>
      </trkpt>
      <trkpt lat="45.3719" lon="4.52299">
        <ele>1088.35</ele>
        <time>2017-02-26T11:55:12Z</time>
      </trkpt>
      <trkpt lat="45.37191" lon="4.52335">
        <ele>1088.83</ele>
        <time>2017-02-26T11:55:16Z</time>
      </trkpt>
      <trkpt lat="45.37197" lon="4.52376">
        <ele>1090.27</ele>
        <time>2017-02-26T11:55:22Z</time>
      </trkpt>
      <trkpt lat="45.372" lon="4.52376">
        <ele>1090.27</ele>
        <time>2017-02-26T11:55:23Z</time>
      </trkpt>
      <trkpt lat="45.37234" lon="4.52369">
        <ele>1089.79</ele>
        <time>2017-02-26T11:55:32Z</time>
      </trkpt>
      <trkpt lat="45.37239" lon="4.52368">
        <ele>1089.31</ele>
        <time>2017-02-26T11:55:33Z</time>
      </trkpt>
      <trkpt lat="45.37243" lon="4.52366">
        <ele>1088.83</ele>
        <time>2017-02-26T11:55:34Z</time>
      </trkpt>
      <trkpt lat="45.37246" lon="4.52364">
        <ele>1088.35</ele>
        <time>2017-02-26T11:55:35Z</time>
      </trkpt>
      <trkpt lat="45.37249" lon="4.52361">
        <ele>1087.87</ele>
        <time>2017-02-26T11:55:36Z</time>
      </trkpt>
      <trkpt lat="45.37254" lon="4.52357">
        <ele>1085.95</ele>
        <time>2017-02-26T11:55:38Z</time>
      </trkpt>
      <trkpt lat="45.3727" lon="4.52352">
        <ele>1084.02</ele>
        <time>2017-02-26T11:55:43Z</time>
      </trkpt>
      <trkpt lat="45.37273" lon="4.5235">
        <ele>1083.54</ele>
        <time>2017-02-26T11:55:44Z</time>
      </trkpt>
      <trkpt lat="45.37276" lon="4.52349">
        <ele>1083.06</ele>
        <time>2017-02-26T11:55:45Z</time>
      </trkpt>
      <trkpt lat="45.37296" lon="4.52337">
        <ele>1079.7</ele>
        <time>2017-02-26T11:55:53Z</time>
      </trkpt>
      <trkpt lat="45.37305" lon="4.52333">
        <ele>1078.26</ele>
        <time>2017-02-26T11:55:57Z</time>
      </trkpt>
      <trkpt lat="45.37308" lon="4.52331">
        <ele>1077.78</ele>
        <time>2017-02-26T11:55:58Z</time>
      </trkpt>
      <trkpt lat="45.37309" lon="4.5233">
        <ele>1077.29</ele>
        <time>2017-02-26T11:55:59Z</time>
      </trkpt>
      <trkpt lat="45.37311" lon="4.52329">
        <ele>1077.29</ele>
        <time>2017-02-26T11:56:00Z</time>
      </trkpt>
      <trkpt lat="45.37315" lon="4.52327">
        <ele>1076.81</ele>
        <time>2017-02-26T11:56:01Z</time>
      </trkpt>
      <trkpt lat="45.37317" lon="4.52326">
        <ele>1076.33</ele>
        <time>2017-02-26T11:56:02Z</time>
      </trkpt>
      <trkpt lat="45.37321" lon="4.52324">
        <ele>1076.33</ele>
        <time>2017-02-26T11:56:03Z</time>
      </trkpt>
      <trkpt lat="45.37324" lon="4.52323">
        <ele>1075.85</ele>
        <time>2017-02-26T11:56:04Z</time>
      </trkpt>
      <trkpt lat="45.37327" lon="4.52322">
        <ele>1075.85</ele>
        <time>2017-02-26T11:56:05Z</time>
      </trkpt>
      <trkpt lat="45.3733" lon="4.52322">
        <ele>1075.37</ele>
        <time>2017-02-26T11:56:06Z</time>
      </trkpt>
      <trkpt lat="45.37333" lon="4.52322">
        <ele>1075.37</ele>
        <time>2017-02-26T11:56:07Z</time>
      </trkpt>
      <trkpt lat="45.37353" lon="4.52315">
        <ele>1074.89</ele>
        <time>2017-02-26T11:56:17Z</time>
      </trkpt>
      <trkpt lat="45.37393" lon="4.52328">
        <ele>1071.53</ele>
        <time>2017-02-26T11:56:27Z</time>
      </trkpt>
      <trkpt lat="45.37404" lon="4.52332">
        <ele>1070.57</ele>
        <time>2017-02-26T11:56:29Z</time>
      </trkpt>
      <trkpt lat="45.37409" lon="4.52336">
        <ele>1070.08</ele>
        <time>2017-02-26T11:56:30Z</time>
      </trkpt>
      <trkpt lat="45.37413" lon="4.52341">
        <ele>1069.6</ele>
        <time>2017-02-26T11:56:31Z</time>
      </trkpt>
      <trkpt lat="45.37417" lon="4.52345">
        <ele>1069.12</ele>
        <time>2017-02-26T11:56:32Z</time>
      </trkpt>
      <trkpt lat="45.37423" lon="4.52348">
        <ele>1067.68</ele>
        <time>2017-02-26T11:56:33Z</time>
      </trkpt>
      <trkpt lat="45.37428" lon="4.52349">
        <ele>1067.2</ele>
        <time>2017-02-26T11:56:34Z</time>
      </trkpt>
      <trkpt lat="45.37433" lon="4.5235">
        <ele>1066.24</ele>
        <time>2017-02-26T11:56:35Z</time>
      </trkpt>
      <trkpt lat="45.3744" lon="4.52351">
        <ele>1065.28</ele>
        <time>2017-02-26T11:56:36Z</time>
      </trkpt>
      <trkpt lat="45.37447" lon="4.52353">
        <ele>1064.8</ele>
        <time>2017-02-26T11:56:37Z</time>
      </trkpt>
      <trkpt lat="45.37454" lon="4.52354">
        <ele>1064.8</ele>
        <time>2017-02-26T11:56:38Z</time>
      </trkpt>
      <trkpt lat="45.37465" lon="4.52357">
        <ele>1065.28</ele>
        <time>2017-02-26T11:56:40Z</time>
      </trkpt>
      <trkpt lat="45.3747" lon="4.52359">
        <ele>1064.8</ele>
        <time>2017-02-26T11:56:41Z</time>
      </trkpt>
      <trkpt lat="45.37475" lon="4.52361">
        <ele>1064.8</ele>
        <time>2017-02-26T11:56:42Z</time>
      </trkpt>
      <trkpt lat="45.37481" lon="4.52363">
        <ele>1064.32</ele>
        <time>2017-02-26T11:56:43Z</time>
      </trkpt>
      <trkpt lat="45.37487" lon="4.52364">
        <ele>1064.32</ele>
        <time>2017-02-26T11:56:44Z</time>
      </trkpt>
      <trkpt lat="45.37491" lon="4.52366">
        <ele>1063.84</ele>
        <time>2017-02-26T11:56:45Z</time>
      </trkpt>
      <trkpt lat="45.37496" lon="4.52368">
        <ele>1063.84</ele>
        <time>2017-02-26T11:56:46Z</time>
      </trkpt>
      <trkpt lat="45.37501" lon="4.52368">
        <ele>1063.36</ele>
        <time>2017-02-26T11:56:47Z</time>
      </trkpt>
      <trkpt lat="45.37506" lon="4.52368">
        <ele>1062.87</ele>
        <time>2017-02-26T11:56:48Z</time>
      </trkpt>
      <trkpt lat="45.3751" lon="4.52368">
        <ele>1062.39</ele>
        <time>2017-02-26T11:56:49Z</time>
      </trkpt>
      <trkpt lat="45.37516" lon="4.52368">
        <ele>1061.91</ele>
        <time>2017-02-26T11:56:50Z</time>
      </trkpt>
      <trkpt lat="45.37521" lon="4.52368">
        <ele>1061.43</ele>
        <time>2017-02-26T11:56:51Z</time>
      </trkpt>
      <trkpt lat="45.37527" lon="4.52368">
        <ele>1060.95</ele>
        <time>2017-02-26T11:56:52Z</time>
      </trkpt>
      <trkpt lat="45.37533" lon="4.52367">
        <ele>1060.47</ele>
        <time>2017-02-26T11:56:53Z</time>
      </trkpt>
      <trkpt lat="45.37568" lon="4.52362">
        <ele>1058.07</ele>
        <time>2017-02-26T11:56:58Z</time>
      </trkpt>
      <trkpt lat="45.37575" lon="4.52363">
        <ele>1058.55</ele>
        <time>2017-02-26T11:56:59Z</time>
      </trkpt>
      <trkpt lat="45.37582" lon="4.52363">
        <ele>1057.59</ele>
        <time>2017-02-26T11:57:00Z</time>
      </trkpt>
      <trkpt lat="45.37588" lon="4.52361">
        <ele>1056.63</ele>
        <time>2017-02-26T11:57:01Z</time>
      </trkpt>
      <trkpt lat="45.37594" lon="4.52359">
        <ele>1056.15</ele>
        <time>2017-02-26T11:57:02Z</time>
      </trkpt>
      <trkpt lat="45.37601" lon="4.52355">
        <ele>1055.67</ele>
        <time>2017-02-26T11:57:03Z</time>
      </trkpt>
      <trkpt lat="45.3761" lon="4.52351">
        <ele>1055.67</ele>
        <time>2017-02-26T11:57:04Z</time>
      </trkpt>
      <trkpt lat="45.37634" lon="4.52344">
        <ele>1054.22</ele>
        <time>2017-02-26T11:57:06Z</time>
      </trkpt>
      <trkpt lat="45.37654" lon="4.52339">
        <ele>1052.78</ele>
        <time>2017-02-26T11:57:08Z</time>
      </trkpt>
      <trkpt lat="45.37662" lon="4.52338">
        <ele>1052.78</ele>
        <time>2017-02-26T11:57:09Z</time>
      </trkpt>
      <trkpt lat="45.37715" lon="4.52327">
        <ele>1049.42</ele>
        <time>2017-02-26T11:57:16Z</time>
      </trkpt>
      <trkpt lat="45.37747" lon="4.52318">
        <ele>1046.53</ele>
        <time>2017-02-26T11:57:20Z</time>
      </trkpt>
      <trkpt lat="45.37754" lon="4.52317">
        <ele>1046.05</ele>
        <time>2017-02-26T11:57:21Z</time>
      </trkpt>
      <trkpt lat="45.37775" lon="4.52318">
        <ele>1044.13</ele>
        <time>2017-02-26T11:57:24Z</time>
      </trkpt>
      <trkpt lat="45.3778" lon="4.5232">
        <ele>1043.17</ele>
        <time>2017-02-26T11:57:25Z</time>
      </trkpt>
      <trkpt lat="45.37794" lon="4.5233">
        <ele>1040.28</ele>
        <time>2017-02-26T11:57:27Z</time>
      </trkpt>
      <trkpt lat="45.3781" lon="4.52344">
        <ele>1036.44</ele>
        <time>2017-02-26T11:57:29Z</time>
      </trkpt>
      <trkpt lat="45.37817" lon="4.52353">
        <ele>1035</ele>
        <time>2017-02-26T11:57:30Z</time>
      </trkpt>
      <trkpt lat="45.3784" lon="4.52383">
        <ele>1030.67</ele>
        <time>2017-02-26T11:57:33Z</time>
      </trkpt>
      <trkpt lat="45.37847" lon="4.52394">
        <ele>1029.23</ele>
        <time>2017-02-26T11:57:34Z</time>
      </trkpt>
      <trkpt lat="45.37866" lon="4.52432">
        <ele>1025.38</ele>
        <time>2017-02-26T11:57:37Z</time>
      </trkpt>
      <trkpt lat="45.37869" lon="4.52439">
        <ele>1025.86</ele>
        <time>2017-02-26T11:57:38Z</time>
      </trkpt>
      <trkpt lat="45.37872" lon="4.52443">
        <ele>1027.31</ele>
        <time>2017-02-26T11:57:39Z</time>
      </trkpt>
      <trkpt lat="45.37874" lon="4.52444">
        <ele>1027.79</ele>
        <time>2017-02-26T11:57:40Z</time>
      </trkpt>
      <trkpt lat="45.37876" lon="4.52444">
        <ele>1027.79</ele>
        <time>2017-02-26T11:57:41Z</time>
      </trkpt>
      <trkpt lat="45.37878" lon="4.52444">
        <ele>1027.31</ele>
        <time>2017-02-26T11:57:42Z</time>
      </trkpt>
      <trkpt lat="45.37882" lon="4.52443">
        <ele>1027.79</ele>
        <time>2017-02-26T11:57:43Z</time>
      </trkpt>
      <trkpt lat="45.37885" lon="4.52443">
        <ele>1027.79</ele>
        <time>2017-02-26T11:57:44Z</time>
      </trkpt>
      <trkpt lat="45.37887" lon="4.52442">
        <ele>1027.79</ele>
        <time>2017-02-26T11:57:45Z</time>
      </trkpt>
      <trkpt lat="45.37886" lon="4.5244">
        <ele>1027.79</ele>
        <time>2017-02-26T11:57:47Z</time>
      </trkpt>
      <trkpt lat="45.37885" lon="4.52439">
        <ele>1027.79</ele>
        <time>2017-02-26T11:57:48Z</time>
      </trkpt>
      <trkpt lat="45.37884" lon="4.52438">
        <ele>1027.79</ele>
        <time>2017-02-26T11:57:49Z</time>
      </trkpt>
      <trkpt lat="45.3788" lon="4.5244">
        <ele>1028.27</ele>
        <time>2017-02-26T11:57:52Z</time>
      </trkpt>
      <trkpt lat="45.37862" lon="4.5244">
        <ele>1028.75</ele>
        <time>2017-02-26T11:58:03Z</time>
      </trkpt>
      <trkpt lat="45.37861" lon="4.52437">
        <ele>1028.75</ele>
        <time>2017-02-26T11:58:05Z</time>
      </trkpt>
      <trkpt lat="45.37859" lon="4.52428">
        <ele>1028.27</ele>
        <time>2017-02-26T11:58:09Z</time>
      </trkpt>
      <trkpt lat="45.37856" lon="4.52397">
        <ele>1026.34</ele>
        <time>2017-02-26T11:58:17Z</time>
      </trkpt>
      <trkpt lat="45.37854" lon="4.52383">
        <ele>1025.86</ele>
        <time>2017-02-26T11:58:19Z</time>
      </trkpt>
      <trkpt lat="45.37854" lon="4.52377">
        <ele>1025.38</ele>
        <time>2017-02-26T11:58:20Z</time>
      </trkpt>
      <trkpt lat="45.37851" lon="4.52365">
        <ele>1024.9</ele>
        <time>2017-02-26T11:58:22Z</time>
      </trkpt>
      <trkpt lat="45.3785" lon="4.52358">
        <ele>1024.9</ele>
        <time>2017-02-26T11:58:23Z</time>
      </trkpt>
      <trkpt lat="45.37834" lon="4.52298">
        <ele>1022.5</ele>
        <time>2017-02-26T11:58:33Z</time>
      </trkpt>
      <trkpt lat="45.37813" lon="4.52263">
        <ele>1021.06</ele>
        <time>2017-02-26T11:58:40Z</time>
      </trkpt>
      <trkpt lat="45.37808" lon="4.5226">
        <ele>1020.58</ele>
        <time>2017-02-26T11:58:41Z</time>
      </trkpt>
      <trkpt lat="45.37796" lon="4.52245">
        <ele>1020.1</ele>
        <time>2017-02-26T11:58:43Z</time>
      </trkpt>
      <trkpt lat="45.37788" lon="4.52239">
        <ele>1019.62</ele>
        <time>2017-02-26T11:58:44Z</time>
      </trkpt>
      <trkpt lat="45.37781" lon="4.52236">
        <ele>1018.65</ele>
        <time>2017-02-26T11:58:45Z</time>
      </trkpt>
      <trkpt lat="45.37773" lon="4.52234">
        <ele>1018.17</ele>
        <time>2017-02-26T11:58:46Z</time>
      </trkpt>
      <trkpt lat="45.37767" lon="4.52233">
        <ele>1017.69</ele>
        <time>2017-02-26T11:58:47Z</time>
      </trkpt>
      <trkpt lat="45.37761" lon="4.52232">
        <ele>1017.21</ele>
        <time>2017-02-26T11:58:48Z</time>
      </trkpt>
      <trkpt lat="45.37742" lon="4.52233">
        <ele>1016.73</ele>
        <time>2017-02-26T11:58:51Z</time>
      </trkpt>
      <trkpt lat="45.37731" lon="4.52234">
        <ele>1016.25</ele>
        <time>2017-02-26T11:58:53Z</time>
      </trkpt>
      <trkpt lat="45.37725" lon="4.52234">
        <ele>1016.25</ele>
        <time>2017-02-26T11:58:54Z</time>
      </trkpt>
      <trkpt lat="45.37714" lon="4.52235">
        <ele>1015.77</ele>
        <time>2017-02-26T11:58:56Z</time>
      </trkpt>
      <trkpt lat="45.37686" lon="4.52231">
        <ele>1014.81</ele>
        <time>2017-02-26T11:59:01Z</time>
      </trkpt>
      <trkpt lat="45.3768" lon="4.52229">
        <ele>1013.85</ele>
        <time>2017-02-26T11:59:02Z</time>
      </trkpt>
      <trkpt lat="45.37675" lon="4.52228">
        <ele>1013.85</ele>
        <time>2017-02-26T11:59:03Z</time>
      </trkpt>
      <trkpt lat="45.37658" lon="4.52226">
        <ele>1012.89</ele>
        <time>2017-02-26T11:59:06Z</time>
      </trkpt>
      <trkpt lat="45.37652" lon="4.52224">
        <ele>1012.41</ele>
        <time>2017-02-26T11:59:07Z</time>
      </trkpt>
      <trkpt lat="45.37646" lon="4.52222">
        <ele>1012.41</ele>
        <time>2017-02-26T11:59:08Z</time>
      </trkpt>
      <trkpt lat="45.3764" lon="4.5222">
        <ele>1011.93</ele>
        <time>2017-02-26T11:59:09Z</time>
      </trkpt>
      <trkpt lat="45.37634" lon="4.52219">
        <ele>1011.93</ele>
        <time>2017-02-26T11:59:10Z</time>
      </trkpt>
      <trkpt lat="45.37622" lon="4.52217">
        <ele>1011.44</ele>
        <time>2017-02-26T11:59:12Z</time>
      </trkpt>
      <trkpt lat="45.37599" lon="4.52215">
        <ele>1010</ele>
        <time>2017-02-26T11:59:16Z</time>
      </trkpt>
      <trkpt lat="45.37593" lon="4.52214">
        <ele>1010</ele>
        <time>2017-02-26T11:59:17Z</time>
      </trkpt>
      <trkpt lat="45.37587" lon="4.52212">
        <ele>1009.52</ele>
        <time>2017-02-26T11:59:18Z</time>
      </trkpt>
      <trkpt lat="45.37582" lon="4.52212">
        <ele>1010</ele>
        <time>2017-02-26T11:59:19Z</time>
      </trkpt>
      <trkpt lat="45.37576" lon="4.52211">
        <ele>1009.52</ele>
        <time>2017-02-26T11:59:20Z</time>
      </trkpt>
      <trkpt lat="45.37565" lon="4.52211">
        <ele>1009.04</ele>
        <time>2017-02-26T11:59:22Z</time>
      </trkpt>
      <trkpt lat="45.3756" lon="4.52211">
        <ele>1008.56</ele>
        <time>2017-02-26T11:59:23Z</time>
      </trkpt>
      <trkpt lat="45.37554" lon="4.5221">
        <ele>1008.08</ele>
        <time>2017-02-26T11:59:24Z</time>
      </trkpt>
      <trkpt lat="45.37549" lon="4.52209">
        <ele>1007.6</ele>
        <time>2017-02-26T11:59:25Z</time>
      </trkpt>
      <trkpt lat="45.37544" lon="4.52207">
        <ele>1006.64</ele>
        <time>2017-02-26T11:59:26Z</time>
      </trkpt>
      <trkpt lat="45.37538" lon="4.52203">
        <ele>1006.16</ele>
        <time>2017-02-26T11:59:27Z</time>
      </trkpt>
      <trkpt lat="45.37531" lon="4.52198">
        <ele>1005.68</ele>
        <time>2017-02-26T11:59:28Z</time>
      </trkpt>
      <trkpt lat="45.37495" lon="4.52173">
        <ele>1001.83</ele>
        <time>2017-02-26T11:59:33Z</time>
      </trkpt>
      <trkpt lat="45.37488" lon="4.52167">
        <ele>1000.87</ele>
        <time>2017-02-26T11:59:34Z</time>
      </trkpt>
      <trkpt lat="45.37481" lon="4.5216">
        <ele>1000.87</ele>
        <time>2017-02-26T11:59:35Z</time>
      </trkpt>
      <trkpt lat="45.37469" lon="4.52145">
        <ele>999.43</ele>
        <time>2017-02-26T11:59:37Z</time>
      </trkpt>
      <trkpt lat="45.37464" lon="4.52136">
        <ele>998.95</ele>
        <time>2017-02-26T11:59:38Z</time>
      </trkpt>
      <trkpt lat="45.37461" lon="4.52126">
        <ele>998.47</ele>
        <time>2017-02-26T11:59:39Z</time>
      </trkpt>
      <trkpt lat="45.37461" lon="4.52117">
        <ele>998.95</ele>
        <time>2017-02-26T11:59:40Z</time>
      </trkpt>
      <trkpt lat="45.37464" lon="4.52108">
        <ele>998.95</ele>
        <time>2017-02-26T11:59:41Z</time>
      </trkpt>
      <trkpt lat="45.37468" lon="4.52101">
        <ele>998.95</ele>
        <time>2017-02-26T11:59:42Z</time>
      </trkpt>
      <trkpt lat="45.37472" lon="4.52095">
        <ele>998.95</ele>
        <time>2017-02-26T11:59:43Z</time>
      </trkpt>
      <trkpt lat="45.37476" lon="4.52089">
        <ele>999.43</ele>
        <time>2017-02-26T11:59:44Z</time>
      </trkpt>
      <trkpt lat="45.37479" lon="4.52083">
        <ele>999.43</ele>
        <time>2017-02-26T11:59:45Z</time>
      </trkpt>
      <trkpt lat="45.3748" lon="4.52077">
        <ele>999.91</ele>
        <time>2017-02-26T11:59:46Z</time>
      </trkpt>
      <trkpt lat="45.37481" lon="4.52072">
        <ele>999.91</ele>
        <time>2017-02-26T11:59:47Z</time>
      </trkpt>
      <trkpt lat="45.37484" lon="4.52066">
        <ele>1000.39</ele>
        <time>2017-02-26T11:59:48Z</time>
      </trkpt>
      <trkpt lat="45.37488" lon="4.5206">
        <ele>1000.39</ele>
        <time>2017-02-26T11:59:49Z</time>
      </trkpt>
      <trkpt lat="45.37493" lon="4.52054">
        <ele>1000.87</ele>
        <time>2017-02-26T11:59:50Z</time>
      </trkpt>
      <trkpt lat="45.37499" lon="4.52048">
        <ele>1000.87</ele>
        <time>2017-02-26T11:59:51Z</time>
      </trkpt>
      <trkpt lat="45.37504" lon="4.52042">
        <ele>1000.39</ele>
        <time>2017-02-26T11:59:52Z</time>
      </trkpt>
      <trkpt lat="45.37508" lon="4.52037">
        <ele>1000.87</ele>
        <time>2017-02-26T11:59:53Z</time>
      </trkpt>
      <trkpt lat="45.37513" lon="4.52033">
        <ele>1000.87</ele>
        <time>2017-02-26T11:59:54Z</time>
      </trkpt>
      <trkpt lat="45.37517" lon="4.52027">
        <ele>1000.87</ele>
        <time>2017-02-26T11:59:55Z</time>
      </trkpt>
      <trkpt lat="45.3752" lon="4.52019">
        <ele>1001.35</ele>
        <time>2017-02-26T11:59:56Z</time>
      </trkpt>
      <trkpt lat="45.37523" lon="4.52012">
        <ele>1000.87</ele>
        <time>2017-02-26T11:59:57Z</time>
      </trkpt>
      <trkpt lat="45.37524" lon="4.52005">
        <ele>1000.39</ele>
        <time>2017-02-26T11:59:58Z</time>
      </trkpt>
      <trkpt lat="45.37525" lon="4.51997">
        <ele>999.91</ele>
        <time>2017-02-26T11:59:59Z</time>
      </trkpt>
      <trkpt lat="45.37524" lon="4.51988">
        <ele>999.43</ele>
        <time>2017-02-26T12:00:00Z</time>
      </trkpt>
      <trkpt lat="45.37521" lon="4.5198">
        <ele>999.43</ele>
        <time>2017-02-26T12:00:01Z</time>
      </trkpt>
      <trkpt lat="45.37518" lon="4.51972">
        <ele>999.43</ele>
        <time>2017-02-26T12:00:02Z</time>
      </trkpt>
      <trkpt lat="45.37502" lon="4.51937">
        <ele>998.47</ele>
        <time>2017-02-26T12:00:07Z</time>
      </trkpt>
      <trkpt lat="45.37499" lon="4.51928">
        <ele>998.47</ele>
        <time>2017-02-26T12:00:08Z</time>
      </trkpt>
      <trkpt lat="45.37497" lon="4.51919">
        <ele>998.47</ele>
        <time>2017-02-26T12:00:09Z</time>
      </trkpt>
      <trkpt lat="45.37498" lon="4.51912">
        <ele>997.99</ele>
        <time>2017-02-26T12:00:10Z</time>
      </trkpt>
      <trkpt lat="45.375" lon="4.51906">
        <ele>998.47</ele>
        <time>2017-02-26T12:00:11Z</time>
      </trkpt>
      <trkpt lat="45.37504" lon="4.51901">
        <ele>998.95</ele>
        <time>2017-02-26T12:00:12Z</time>
      </trkpt>
      <trkpt lat="45.37508" lon="4.51898">
        <ele>999.43</ele>
        <time>2017-02-26T12:00:13Z</time>
      </trkpt>
      <trkpt lat="45.37512" lon="4.51897">
        <ele>999.43</ele>
        <time>2017-02-26T12:00:14Z</time>
      </trkpt>
      <trkpt lat="45.37538" lon="4.51891">
        <ele>1000.87</ele>
        <time>2017-02-26T12:00:22Z</time>
      </trkpt>
      <trkpt lat="45.37551" lon="4.51888">
        <ele>1002.79</ele>
        <time>2017-02-26T12:00:29Z</time>
      </trkpt>
      <trkpt lat="45.3756" lon="4.51887">
        <ele>1004.72</ele>
        <time>2017-02-26T12:00:34Z</time>
      </trkpt>
      <trkpt lat="45.37563" lon="4.51886">
        <ele>1004.72</ele>
        <time>2017-02-26T12:00:35Z</time>
      </trkpt>
      <trkpt lat="45.37598" lon="4.51883">
        <ele>1006.64</ele>
        <time>2017-02-26T12:00:44Z</time>
      </trkpt>
      <trkpt lat="45.37644" lon="4.51855">
        <ele>1005.2</ele>
        <time>2017-02-26T12:00:57Z</time>
      </trkpt>
      <trkpt lat="45.37658" lon="4.51832">
        <ele>1003.75</ele>
        <time>2017-02-26T12:01:03Z</time>
      </trkpt>
      <trkpt lat="45.37661" lon="4.51828">
        <ele>1003.27</ele>
        <time>2017-02-26T12:01:04Z</time>
      </trkpt>
      <trkpt lat="45.37664" lon="4.51822">
        <ele>1002.79</ele>
        <time>2017-02-26T12:01:05Z</time>
      </trkpt>
      <trkpt lat="45.37667" lon="4.51816">
        <ele>1001.83</ele>
        <time>2017-02-26T12:01:06Z</time>
      </trkpt>
      <trkpt lat="45.37671" lon="4.5181">
        <ele>1001.35</ele>
        <time>2017-02-26T12:01:07Z</time>
      </trkpt>
      <trkpt lat="45.37674" lon="4.51803">
        <ele>1000.39</ele>
        <time>2017-02-26T12:01:08Z</time>
      </trkpt>
      <trkpt lat="45.37687" lon="4.51771">
        <ele>997.99</ele>
        <time>2017-02-26T12:01:12Z</time>
      </trkpt>
      <trkpt lat="45.37698" lon="4.51731">
        <ele>994.14</ele>
        <time>2017-02-26T12:01:16Z</time>
      </trkpt>
      <trkpt lat="45.377" lon="4.51707">
        <ele>991.74</ele>
        <time>2017-02-26T12:01:18Z</time>
      </trkpt>
      <trkpt lat="45.37698" lon="4.51693">
        <ele>990.3</ele>
        <time>2017-02-26T12:01:19Z</time>
      </trkpt>
      <trkpt lat="45.37698" lon="4.51679">
        <ele>988.85</ele>
        <time>2017-02-26T12:01:20Z</time>
      </trkpt>
      <trkpt lat="45.377" lon="4.51639">
        <ele>985.49</ele>
        <time>2017-02-26T12:01:23Z</time>
      </trkpt>
      <trkpt lat="45.377" lon="4.51628">
        <ele>985.01</ele>
        <time>2017-02-26T12:01:24Z</time>
      </trkpt>
      <trkpt lat="45.37701" lon="4.5162">
        <ele>985.01</ele>
        <time>2017-02-26T12:01:25Z</time>
      </trkpt>
      <trkpt lat="45.37707" lon="4.51615">
        <ele>985.97</ele>
        <time>2017-02-26T12:01:26Z</time>
      </trkpt>
      <trkpt lat="45.37713" lon="4.51613">
        <ele>985.97</ele>
        <time>2017-02-26T12:01:27Z</time>
      </trkpt>
      <trkpt lat="45.37718" lon="4.51612">
        <ele>986.45</ele>
        <time>2017-02-26T12:01:28Z</time>
      </trkpt>
      <trkpt lat="45.37723" lon="4.5161">
        <ele>986.45</ele>
        <time>2017-02-26T12:01:29Z</time>
      </trkpt>
      <trkpt lat="45.37728" lon="4.51608">
        <ele>986.45</ele>
        <time>2017-02-26T12:01:30Z</time>
      </trkpt>
      <trkpt lat="45.37764" lon="4.51594">
        <ele>987.41</ele>
        <time>2017-02-26T12:01:38Z</time>
      </trkpt>
      <trkpt lat="45.37777" lon="4.51583">
        <ele>987.41</ele>
        <time>2017-02-26T12:01:41Z</time>
      </trkpt>
      <trkpt lat="45.37783" lon="4.51579">
        <ele>986.93</ele>
        <time>2017-02-26T12:01:42Z</time>
      </trkpt>
      <trkpt lat="45.37786" lon="4.51575">
        <ele>986.93</ele>
        <time>2017-02-26T12:01:43Z</time>
      </trkpt>
      <trkpt lat="45.3779" lon="4.51571">
        <ele>986.93</ele>
        <time>2017-02-26T12:01:44Z</time>
      </trkpt>
      <trkpt lat="45.37793" lon="4.51566">
        <ele>986.93</ele>
        <time>2017-02-26T12:01:45Z</time>
      </trkpt>
      <trkpt lat="45.37796" lon="4.51561">
        <ele>986.93</ele>
        <time>2017-02-26T12:01:46Z</time>
      </trkpt>
      <trkpt lat="45.37799" lon="4.51557">
        <ele>986.93</ele>
        <time>2017-02-26T12:01:47Z</time>
      </trkpt>
      <trkpt lat="45.37802" lon="4.51553">
        <ele>986.93</ele>
        <time>2017-02-26T12:01:48Z</time>
      </trkpt>
      <trkpt lat="45.37805" lon="4.51548">
        <ele>986.93</ele>
        <time>2017-02-26T12:01:49Z</time>
      </trkpt>
      <trkpt lat="45.37839" lon="4.51509">
        <ele>985.01</ele>
        <time>2017-02-26T12:02:00Z</time>
      </trkpt>
      <trkpt lat="45.37843" lon="4.51504">
        <ele>984.05</ele>
        <time>2017-02-26T12:02:01Z</time>
      </trkpt>
      <trkpt lat="45.37863" lon="4.51478">
        <ele>980.2</ele>
        <time>2017-02-26T12:02:05Z</time>
      </trkpt>
      <trkpt lat="45.37872" lon="4.51464">
        <ele>978.28</ele>
        <time>2017-02-26T12:02:07Z</time>
      </trkpt>
      <trkpt lat="45.37876" lon="4.51457">
        <ele>977.32</ele>
        <time>2017-02-26T12:02:08Z</time>
      </trkpt>
      <trkpt lat="45.3788" lon="4.51448">
        <ele>976.36</ele>
        <time>2017-02-26T12:02:09Z</time>
      </trkpt>
      <trkpt lat="45.37888" lon="4.51428">
        <ele>973.95</ele>
        <time>2017-02-26T12:02:11Z</time>
      </trkpt>
      <trkpt lat="45.37901" lon="4.51382">
        <ele>972.99</ele>
        <time>2017-02-26T12:02:16Z</time>
      </trkpt>
      <trkpt lat="45.37904" lon="4.51376">
        <ele>972.99</ele>
        <time>2017-02-26T12:02:17Z</time>
      </trkpt>
      <trkpt lat="45.37907" lon="4.5137">
        <ele>972.99</ele>
        <time>2017-02-26T12:02:18Z</time>
      </trkpt>
      <trkpt lat="45.37911" lon="4.51357">
        <ele>971.55</ele>
        <time>2017-02-26T12:02:20Z</time>
      </trkpt>
      <trkpt lat="45.37913" lon="4.5135">
        <ele>971.55</ele>
        <time>2017-02-26T12:02:21Z</time>
      </trkpt>
      <trkpt lat="45.37916" lon="4.51343">
        <ele>971.07</ele>
        <time>2017-02-26T12:02:22Z</time>
      </trkpt>
      <trkpt lat="45.37928" lon="4.51313">
        <ele>970.11</ele>
        <time>2017-02-26T12:02:27Z</time>
      </trkpt>
      <trkpt lat="45.3793" lon="4.51308">
        <ele>969.63</ele>
        <time>2017-02-26T12:02:28Z</time>
      </trkpt>
      <trkpt lat="45.37931" lon="4.51303">
        <ele>969.15</ele>
        <time>2017-02-26T12:02:29Z</time>
      </trkpt>
      <trkpt lat="45.37933" lon="4.51299">
        <ele>969.15</ele>
        <time>2017-02-26T12:02:30Z</time>
      </trkpt>
      <trkpt lat="45.37936" lon="4.51294">
        <ele>969.63</ele>
        <time>2017-02-26T12:02:31Z</time>
      </trkpt>
      <trkpt lat="45.37954" lon="4.51267">
        <ele>969.63</ele>
        <time>2017-02-26T12:02:40Z</time>
      </trkpt>
      <trkpt lat="45.37954" lon="4.51267">
        <ele>970.11</ele>
        <time>2017-02-26T12:03:02Z</time>
      </trkpt>
      <trkpt lat="45.37954" lon="4.51267">
        <ele>969.15</ele>
        <time>2017-02-26T12:03:17Z</time>
      </trkpt>
      <trkpt lat="45.37952" lon="4.51263">
        <ele>968.67</ele>
        <time>2017-02-26T12:03:18Z</time>
      </trkpt>
      <trkpt lat="45.37943" lon="4.51276">
        <ele>968.67</ele>
        <time>2017-02-26T12:03:26Z</time>
      </trkpt>
      <trkpt lat="45.37943" lon="4.51278">
        <ele>968.67</ele>
        <time>2017-02-26T12:03:27Z</time>
      </trkpt>
      <trkpt lat="45.37942" lon="4.5128">
        <ele>968.67</ele>
        <time>2017-02-26T12:03:28Z</time>
      </trkpt>
      <trkpt lat="45.37941" lon="4.51282">
        <ele>968.67</ele>
        <time>2017-02-26T12:03:29Z</time>
      </trkpt>
      <trkpt lat="45.3794" lon="4.51285">
        <ele>968.67</ele>
        <time>2017-02-26T12:03:30Z</time>
      </trkpt>
      <trkpt lat="45.37936" lon="4.51296">
        <ele>968.67</ele>
        <time>2017-02-26T12:03:34Z</time>
      </trkpt>
      <trkpt lat="45.37935" lon="4.51298">
        <ele>969.15</ele>
        <time>2017-02-26T12:03:35Z</time>
      </trkpt>
      <trkpt lat="45.37934" lon="4.51301">
        <ele>969.15</ele>
        <time>2017-02-26T12:03:36Z</time>
      </trkpt>
      <trkpt lat="45.37934" lon="4.51304">
        <ele>969.15</ele>
        <time>2017-02-26T12:03:37Z</time>
      </trkpt>
      <trkpt lat="45.37933" lon="4.51307">
        <ele>969.63</ele>
        <time>2017-02-26T12:03:38Z</time>
      </trkpt>
      <trkpt lat="45.37933" lon="4.51309">
        <ele>969.63</ele>
        <time>2017-02-26T12:03:39Z</time>
      </trkpt>
      <trkpt lat="45.37931" lon="4.51313">
        <ele>969.63</ele>
        <time>2017-02-26T12:03:40Z</time>
      </trkpt>
      <trkpt lat="45.3793" lon="4.51316">
        <ele>969.63</ele>
        <time>2017-02-26T12:03:41Z</time>
      </trkpt>
      <trkpt lat="45.37929" lon="4.51319">
        <ele>970.11</ele>
        <time>2017-02-26T12:03:42Z</time>
      </trkpt>
      <trkpt lat="45.37927" lon="4.51323">
        <ele>970.11</ele>
        <time>2017-02-26T12:03:43Z</time>
      </trkpt>
      <trkpt lat="45.37927" lon="4.51326">
        <ele>970.11</ele>
        <time>2017-02-26T12:03:44Z</time>
      </trkpt>
      <trkpt lat="45.37926" lon="4.51328">
        <ele>970.11</ele>
        <time>2017-02-26T12:03:45Z</time>
      </trkpt>
      <trkpt lat="45.37925" lon="4.5133">
        <ele>970.11</ele>
        <time>2017-02-26T12:03:46Z</time>
      </trkpt>
      <trkpt lat="45.37923" lon="4.51336">
        <ele>970.59</ele>
        <time>2017-02-26T12:03:49Z</time>
      </trkpt>
      <trkpt lat="45.37922" lon="4.51339">
        <ele>970.59</ele>
        <time>2017-02-26T12:03:50Z</time>
      </trkpt>
      <trkpt lat="45.37921" lon="4.51342">
        <ele>970.59</ele>
        <time>2017-02-26T12:03:51Z</time>
      </trkpt>
      <trkpt lat="45.3792" lon="4.51345">
        <ele>971.07</ele>
        <time>2017-02-26T12:03:52Z</time>
      </trkpt>
      <trkpt lat="45.37918" lon="4.51348">
        <ele>971.07</ele>
        <time>2017-02-26T12:03:53Z</time>
      </trkpt>
      <trkpt lat="45.37917" lon="4.51351">
        <ele>971.55</ele>
        <time>2017-02-26T12:03:54Z</time>
      </trkpt>
      <trkpt lat="45.37915" lon="4.51355">
        <ele>971.55</ele>
        <time>2017-02-26T12:03:55Z</time>
      </trkpt>
      <trkpt lat="45.37913" lon="4.51358">
        <ele>971.55</ele>
        <time>2017-02-26T12:03:56Z</time>
      </trkpt>
      <trkpt lat="45.37913" lon="4.5136">
        <ele>971.55</ele>
        <time>2017-02-26T12:03:57Z</time>
      </trkpt>
      <trkpt lat="45.37911" lon="4.51364">
        <ele>972.03</ele>
        <time>2017-02-26T12:03:58Z</time>
      </trkpt>
      <trkpt lat="45.37897" lon="4.51397">
        <ele>972.51</ele>
        <time>2017-02-26T12:04:10Z</time>
      </trkpt>
      <trkpt lat="45.37889" lon="4.51429">
        <ele>972.03</ele>
        <time>2017-02-26T12:04:20Z</time>
      </trkpt>
      <trkpt lat="45.37884" lon="4.51442">
        <ele>973.47</ele>
        <time>2017-02-26T12:04:27Z</time>
      </trkpt>
      <trkpt lat="45.37883" lon="4.51443">
        <ele>973.95</ele>
        <time>2017-02-26T12:04:28Z</time>
      </trkpt>
      <trkpt lat="45.37882" lon="4.51445">
        <ele>973.47</ele>
        <time>2017-02-26T12:04:29Z</time>
      </trkpt>
      <trkpt lat="45.37882" lon="4.51447">
        <ele>974.91</ele>
        <time>2017-02-26T12:04:30Z</time>
      </trkpt>
      <trkpt lat="45.37874" lon="4.51463">
        <ele>975.88</ele>
        <time>2017-02-26T12:04:39Z</time>
      </trkpt>
      <trkpt lat="45.37862" lon="4.51483">
        <ele>978.28</ele>
        <time>2017-02-26T12:04:52Z</time>
      </trkpt>
      <trkpt lat="45.37861" lon="4.51484">
        <ele>978.28</ele>
        <time>2017-02-26T12:04:53Z</time>
      </trkpt>
      <trkpt lat="45.37855" lon="4.51488">
        <ele>979.24</ele>
        <time>2017-02-26T12:04:58Z</time>
      </trkpt>
      <trkpt lat="45.37838" lon="4.51509">
        <ele>981.64</ele>
        <time>2017-02-26T12:05:12Z</time>
      </trkpt>
      <trkpt lat="45.37821" lon="4.51529">
        <ele>983.09</ele>
        <time>2017-02-26T12:05:26Z</time>
      </trkpt>
      <trkpt lat="45.37808" lon="4.51545">
        <ele>983.57</ele>
        <time>2017-02-26T12:05:37Z</time>
      </trkpt>
      <trkpt lat="45.37807" lon="4.51547">
        <ele>983.57</ele>
        <time>2017-02-26T12:05:38Z</time>
      </trkpt>
      <trkpt lat="45.37806" lon="4.51547">
        <ele>983.09</ele>
        <time>2017-02-26T12:05:39Z</time>
      </trkpt>
      <trkpt lat="45.37802" lon="4.51548">
        <ele>983.09</ele>
        <time>2017-02-26T12:05:41Z</time>
      </trkpt>
      <trkpt lat="45.37802" lon="4.51545">
        <ele>984.05</ele>
        <time>2017-02-26T12:05:44Z</time>
      </trkpt>
      <trkpt lat="45.37802" lon="4.51543">
        <ele>984.53</ele>
        <time>2017-02-26T12:05:45Z</time>
      </trkpt>
      <trkpt lat="45.37806" lon="4.51539">
        <ele>984.53</ele>
        <time>2017-02-26T12:05:48Z</time>
      </trkpt>
      <trkpt lat="45.37807" lon="4.51537">
        <ele>984.53</ele>
        <time>2017-02-26T12:05:49Z</time>
      </trkpt>
      <trkpt lat="45.37808" lon="4.51535">
        <ele>985.01</ele>
        <time>2017-02-26T12:05:50Z</time>
      </trkpt>
      <trkpt lat="45.37819" lon="4.51511">
        <ele>985.49</ele>
        <time>2017-02-26T12:06:03Z</time>
      </trkpt>
      <trkpt lat="45.37818" lon="4.51511">
        <ele>985.01</ele>
        <time>2017-02-26T12:06:23Z</time>
      </trkpt>
      <trkpt lat="45.37822" lon="4.51501">
        <ele>984.53</ele>
        <time>2017-02-26T12:06:39Z</time>
      </trkpt>
      <trkpt lat="45.37825" lon="4.51495">
        <ele>985.01</ele>
        <time>2017-02-26T12:06:42Z</time>
      </trkpt>
      <trkpt lat="45.37833" lon="4.51479">
        <ele>985.01</ele>
        <time>2017-02-26T12:06:50Z</time>
      </trkpt>
      <trkpt lat="45.37834" lon="4.51478">
        <ele>985.01</ele>
        <time>2017-02-26T12:06:51Z</time>
      </trkpt>
      <trkpt lat="45.37837" lon="4.51471">
        <ele>985.97</ele>
        <time>2017-02-26T12:06:55Z</time>
      </trkpt>
      <trkpt lat="45.37838" lon="4.51469">
        <ele>985.97</ele>
        <time>2017-02-26T12:06:56Z</time>
      </trkpt>
      <trkpt lat="45.37838" lon="4.51467">
        <ele>985.97</ele>
        <time>2017-02-26T12:06:57Z</time>
      </trkpt>
      <trkpt lat="45.37839" lon="4.51465">
        <ele>986.45</ele>
        <time>2017-02-26T12:06:58Z</time>
      </trkpt>
      <trkpt lat="45.37847" lon="4.51439">
        <ele>987.89</ele>
        <time>2017-02-26T12:07:10Z</time>
      </trkpt>
      <trkpt lat="45.37851" lon="4.51413">
        <ele>987.89</ele>
        <time>2017-02-26T12:07:20Z</time>
      </trkpt>
      <trkpt lat="45.37852" lon="4.5141">
        <ele>987.89</ele>
        <time>2017-02-26T12:07:21Z</time>
      </trkpt>
      <trkpt lat="45.37853" lon="4.51407">
        <ele>987.89</ele>
        <time>2017-02-26T12:07:22Z</time>
      </trkpt>
      <trkpt lat="45.37853" lon="4.51404">
        <ele>987.89</ele>
        <time>2017-02-26T12:07:23Z</time>
      </trkpt>
      <trkpt lat="45.37854" lon="4.51401">
        <ele>987.89</ele>
        <time>2017-02-26T12:07:24Z</time>
      </trkpt>
      <trkpt lat="45.37855" lon="4.51398">
        <ele>987.89</ele>
        <time>2017-02-26T12:07:25Z</time>
      </trkpt>
      <trkpt lat="45.37869" lon="4.51372">
        <ele>986.45</ele>
        <time>2017-02-26T12:07:33Z</time>
      </trkpt>
      <trkpt lat="45.37871" lon="4.51366">
        <ele>986.45</ele>
        <time>2017-02-26T12:07:34Z</time>
      </trkpt>
      <trkpt lat="45.37873" lon="4.5136">
        <ele>985.97</ele>
        <time>2017-02-26T12:07:35Z</time>
      </trkpt>
      <trkpt lat="45.37885" lon="4.51336">
        <ele>984.53</ele>
        <time>2017-02-26T12:07:39Z</time>
      </trkpt>
      <trkpt lat="45.37895" lon="4.51316">
        <ele>983.57</ele>
        <time>2017-02-26T12:07:42Z</time>
      </trkpt>
      <trkpt lat="45.379" lon="4.51309">
        <ele>983.09</ele>
        <time>2017-02-26T12:07:43Z</time>
      </trkpt>
      <trkpt lat="45.37903" lon="4.51302">
        <ele>982.6</ele>
        <time>2017-02-26T12:07:44Z</time>
      </trkpt>
      <trkpt lat="45.37906" lon="4.51294">
        <ele>982.12</ele>
        <time>2017-02-26T12:07:45Z</time>
      </trkpt>
      <trkpt lat="45.3791" lon="4.51287">
        <ele>981.64</ele>
        <time>2017-02-26T12:07:46Z</time>
      </trkpt>
      <trkpt lat="45.37914" lon="4.51279">
        <ele>981.64</ele>
        <time>2017-02-26T12:07:47Z</time>
      </trkpt>
      <trkpt lat="45.3793" lon="4.51252">
        <ele>981.16</ele>
        <time>2017-02-26T12:07:51Z</time>
      </trkpt>
      <trkpt lat="45.37933" lon="4.51244">
        <ele>981.64</ele>
        <time>2017-02-26T12:07:52Z</time>
      </trkpt>
      <trkpt lat="45.37935" lon="4.51237">
        <ele>981.64</ele>
        <time>2017-02-26T12:07:53Z</time>
      </trkpt>
      <trkpt lat="45.37941" lon="4.51224">
        <ele>982.6</ele>
        <time>2017-02-26T12:07:55Z</time>
      </trkpt>
      <trkpt lat="45.37956" lon="4.51178">
        <ele>985.49</ele>
        <time>2017-02-26T12:08:04Z</time>
      </trkpt>
      <trkpt lat="45.37969" lon="4.51131">
        <ele>985.97</ele>
        <time>2017-02-26T12:08:14Z</time>
      </trkpt>
      <trkpt lat="45.3797" lon="4.51126">
        <ele>986.45</ele>
        <time>2017-02-26T12:08:15Z</time>
      </trkpt>
      <trkpt lat="45.37969" lon="4.51121">
        <ele>986.45</ele>
        <time>2017-02-26T12:08:16Z</time>
      </trkpt>
      <trkpt lat="45.37967" lon="4.51116">
        <ele>986.45</ele>
        <time>2017-02-26T12:08:17Z</time>
      </trkpt>
      <trkpt lat="45.37964" lon="4.51111">
        <ele>986.45</ele>
        <time>2017-02-26T12:08:18Z</time>
      </trkpt>
      <trkpt lat="45.37962" lon="4.51108">
        <ele>986.45</ele>
        <time>2017-02-26T12:08:19Z</time>
      </trkpt>
      <trkpt lat="45.37961" lon="4.51104">
        <ele>986.93</ele>
        <time>2017-02-26T12:08:20Z</time>
      </trkpt>
      <trkpt lat="45.37959" lon="4.51102">
        <ele>987.41</ele>
        <time>2017-02-26T12:08:21Z</time>
      </trkpt>
      <trkpt lat="45.37957" lon="4.511">
        <ele>987.41</ele>
        <time>2017-02-26T12:08:22Z</time>
      </trkpt>
      <trkpt lat="45.37955" lon="4.51099">
        <ele>987.41</ele>
        <time>2017-02-26T12:08:23Z</time>
      </trkpt>
      <trkpt lat="45.37953" lon="4.51098">
        <ele>987.41</ele>
        <time>2017-02-26T12:08:24Z</time>
      </trkpt>
      <trkpt lat="45.37951" lon="4.51098">
        <ele>987.89</ele>
        <time>2017-02-26T12:08:25Z</time>
      </trkpt>
      <trkpt lat="45.37949" lon="4.51097">
        <ele>987.89</ele>
        <time>2017-02-26T12:08:26Z</time>
      </trkpt>
      <trkpt lat="45.37947" lon="4.51097">
        <ele>987.89</ele>
        <time>2017-02-26T12:08:27Z</time>
      </trkpt>
      <trkpt lat="45.37926" lon="4.51093">
        <ele>990.3</ele>
        <time>2017-02-26T12:08:42Z</time>
      </trkpt>
      <trkpt lat="45.37908" lon="4.51095">
        <ele>992.7</ele>
        <time>2017-02-26T12:08:58Z</time>
      </trkpt>
      <trkpt lat="45.37904" lon="4.51096">
        <ele>993.18</ele>
        <time>2017-02-26T12:09:01Z</time>
      </trkpt>
      <trkpt lat="45.37903" lon="4.51097">
        <ele>993.18</ele>
        <time>2017-02-26T12:09:02Z</time>
      </trkpt>
      <trkpt lat="45.37902" lon="4.51096">
        <ele>993.66</ele>
        <time>2017-02-26T12:09:03Z</time>
      </trkpt>
      <trkpt lat="45.37901" lon="4.51096">
        <ele>993.66</ele>
        <time>2017-02-26T12:09:04Z</time>
      </trkpt>
      <trkpt lat="45.379" lon="4.51095">
        <ele>993.66</ele>
        <time>2017-02-26T12:09:05Z</time>
      </trkpt>
      <trkpt lat="45.37899" lon="4.51095">
        <ele>993.66</ele>
        <time>2017-02-26T12:09:06Z</time>
      </trkpt>
      <trkpt lat="45.37885" lon="4.51101">
        <ele>996.06</ele>
        <time>2017-02-26T12:09:20Z</time>
      </trkpt>
      <trkpt lat="45.37874" lon="4.51104">
        <ele>997.51</ele>
        <time>2017-02-26T12:09:28Z</time>
      </trkpt>
      <trkpt lat="45.37873" lon="4.51103">
        <ele>997.51</ele>
        <time>2017-02-26T12:09:29Z</time>
      </trkpt>
      <trkpt lat="45.3786" lon="4.51106">
        <ele>999.43</ele>
        <time>2017-02-26T12:09:42Z</time>
      </trkpt>
      <trkpt lat="45.37859" lon="4.51106">
        <ele>999.91</ele>
        <time>2017-02-26T12:09:43Z</time>
      </trkpt>
      <trkpt lat="45.37857" lon="4.51106">
        <ele>1000.39</ele>
        <time>2017-02-26T12:09:53Z</time>
      </trkpt>
      <trkpt lat="45.37848" lon="4.51107">
        <ele>1001.83</ele>
        <time>2017-02-26T12:10:01Z</time>
      </trkpt>
      <trkpt lat="45.37845" lon="4.51109">
        <ele>1001.83</ele>
        <time>2017-02-26T12:10:03Z</time>
      </trkpt>
      <trkpt lat="45.37836" lon="4.51109">
        <ele>1003.27</ele>
        <time>2017-02-26T12:10:14Z</time>
      </trkpt>
      <trkpt lat="45.37828" lon="4.51115">
        <ele>1005.68</ele>
        <time>2017-02-26T12:10:24Z</time>
      </trkpt>
      <trkpt lat="45.37805" lon="4.51109">
        <ele>1008.08</ele>
        <time>2017-02-26T12:10:37Z</time>
      </trkpt>
      <trkpt lat="45.37799" lon="4.51095">
        <ele>1010</ele>
        <time>2017-02-26T12:10:49Z</time>
      </trkpt>
      <trkpt lat="45.378" lon="4.51094">
        <ele>1010</ele>
        <time>2017-02-26T12:10:50Z</time>
      </trkpt>
      <trkpt lat="45.378" lon="4.51076">
        <ele>1011.93</ele>
        <time>2017-02-26T12:11:03Z</time>
      </trkpt>
      <trkpt lat="45.37799" lon="4.51069">
        <ele>1012.41</ele>
        <time>2017-02-26T12:11:09Z</time>
      </trkpt>
      <trkpt lat="45.37794" lon="4.51044">
        <ele>1014.33</ele>
        <time>2017-02-26T12:11:21Z</time>
      </trkpt>
      <trkpt lat="45.37792" lon="4.51039">
        <ele>1014.81</ele>
        <time>2017-02-26T12:11:23Z</time>
      </trkpt>
      <trkpt lat="45.37792" lon="4.51034">
        <ele>1015.77</ele>
        <time>2017-02-26T12:11:27Z</time>
      </trkpt>
      <trkpt lat="45.3779" lon="4.51014">
        <ele>1017.21</ele>
        <time>2017-02-26T12:11:35Z</time>
      </trkpt>
      <trkpt lat="45.3779" lon="4.51005">
        <ele>1017.69</ele>
        <time>2017-02-26T12:11:39Z</time>
      </trkpt>
      <trkpt lat="45.3779" lon="4.51003">
        <ele>1017.69</ele>
        <time>2017-02-26T12:11:40Z</time>
      </trkpt>
      <trkpt lat="45.3779" lon="4.51">
        <ele>1017.69</ele>
        <time>2017-02-26T12:11:41Z</time>
      </trkpt>
      <trkpt lat="45.3779" lon="4.5099">
        <ele>1018.17</ele>
        <time>2017-02-26T12:11:54Z</time>
      </trkpt>
      <trkpt lat="45.3779" lon="4.5099">
        <ele>1014.81</ele>
        <time>2017-02-26T12:11:56Z</time>
      </trkpt>
      <trkpt lat="45.3779" lon="4.5099">
        <ele>1020.1</ele>
        <time>2017-02-26T12:11:57Z</time>
      </trkpt>
      <trkpt lat="45.3779" lon="4.5099">
        <ele>1017.69</ele>
        <time>2017-02-26T12:12:20Z</time>
      </trkpt>
      <trkpt lat="45.37791" lon="4.50986">
        <ele>1017.69</ele>
        <time>2017-02-26T12:12:34Z</time>
      </trkpt>
      <trkpt lat="45.37795" lon="4.50977">
        <ele>1017.21</ele>
        <time>2017-02-26T12:12:53Z</time>
      </trkpt>
      <trkpt lat="45.37808" lon="4.50943">
        <ele>1014.33</ele>
        <time>2017-02-26T12:13:02Z</time>
      </trkpt>
      <trkpt lat="45.37811" lon="4.50937">
        <ele>1013.85</ele>
        <time>2017-02-26T12:13:03Z</time>
      </trkpt>
      <trkpt lat="45.37814" lon="4.50931">
        <ele>1013.37</ele>
        <time>2017-02-26T12:13:04Z</time>
      </trkpt>
      <trkpt lat="45.37819" lon="4.50919">
        <ele>1012.89</ele>
        <time>2017-02-26T12:13:06Z</time>
      </trkpt>
      <trkpt lat="45.37821" lon="4.50913">
        <ele>1012.41</ele>
        <time>2017-02-26T12:13:07Z</time>
      </trkpt>
      <trkpt lat="45.37824" lon="4.50898">
        <ele>1011.93</ele>
        <time>2017-02-26T12:13:09Z</time>
      </trkpt>
      <trkpt lat="45.37825" lon="4.50882">
        <ele>1011.44</ele>
        <time>2017-02-26T12:13:11Z</time>
      </trkpt>
      <trkpt lat="45.37826" lon="4.50867">
        <ele>1010</ele>
        <time>2017-02-26T12:13:13Z</time>
      </trkpt>
      <trkpt lat="45.37827" lon="4.50859">
        <ele>1009.52</ele>
        <time>2017-02-26T12:13:14Z</time>
      </trkpt>
      <trkpt lat="45.37829" lon="4.50852">
        <ele>1008.56</ele>
        <time>2017-02-26T12:13:15Z</time>
      </trkpt>
      <trkpt lat="45.3783" lon="4.50845">
        <ele>1009.04</ele>
        <time>2017-02-26T12:13:16Z</time>
      </trkpt>
      <trkpt lat="45.37833" lon="4.5084">
        <ele>1008.56</ele>
        <time>2017-02-26T12:13:17Z</time>
      </trkpt>
      <trkpt lat="45.37835" lon="4.50836">
        <ele>1009.04</ele>
        <time>2017-02-26T12:13:18Z</time>
      </trkpt>
      <trkpt lat="45.37837" lon="4.50832">
        <ele>1008.56</ele>
        <time>2017-02-26T12:13:19Z</time>
      </trkpt>
      <trkpt lat="45.37838" lon="4.50829">
        <ele>1008.56</ele>
        <time>2017-02-26T12:13:20Z</time>
      </trkpt>
      <trkpt lat="45.37839" lon="4.50827">
        <ele>1008.56</ele>
        <time>2017-02-26T12:13:21Z</time>
      </trkpt>
      <trkpt lat="45.37861" lon="4.50786">
        <ele>1010</ele>
        <time>2017-02-26T12:13:32Z</time>
      </trkpt>
      <trkpt lat="45.37881" lon="4.50759">
        <ele>1011.93</ele>
        <time>2017-02-26T12:13:43Z</time>
      </trkpt>
      <trkpt lat="45.37905" lon="4.5073">
        <ele>1010</ele>
        <time>2017-02-26T12:13:53Z</time>
      </trkpt>
      <trkpt lat="45.37912" lon="4.50721">
        <ele>1009.52</ele>
        <time>2017-02-26T12:13:55Z</time>
      </trkpt>
      <trkpt lat="45.37916" lon="4.50717">
        <ele>1009.52</ele>
        <time>2017-02-26T12:13:56Z</time>
      </trkpt>
      <trkpt lat="45.3792" lon="4.50713">
        <ele>1009.52</ele>
        <time>2017-02-26T12:13:57Z</time>
      </trkpt>
      <trkpt lat="45.37924" lon="4.50709">
        <ele>1009.52</ele>
        <time>2017-02-26T12:13:58Z</time>
      </trkpt>
      <trkpt lat="45.37927" lon="4.50705">
        <ele>1009.52</ele>
        <time>2017-02-26T12:13:59Z</time>
      </trkpt>
      <trkpt lat="45.37932" lon="4.50701">
        <ele>1009.52</ele>
        <time>2017-02-26T12:14:00Z</time>
      </trkpt>
      <trkpt lat="45.37937" lon="4.50697">
        <ele>1009.52</ele>
        <time>2017-02-26T12:14:01Z</time>
      </trkpt>
      <trkpt lat="45.37941" lon="4.50695">
        <ele>1009.52</ele>
        <time>2017-02-26T12:14:02Z</time>
      </trkpt>
      <trkpt lat="45.37978" lon="4.50667">
        <ele>1010.48</ele>
        <time>2017-02-26T12:14:12Z</time>
      </trkpt>
      <trkpt lat="45.37982" lon="4.50662">
        <ele>1011.44</ele>
        <time>2017-02-26T12:14:14Z</time>
      </trkpt>
      <trkpt lat="45.38028" lon="4.50637">
        <ele>1013.85</ele>
        <time>2017-02-26T12:14:27Z</time>
      </trkpt>
      <trkpt lat="45.38052" lon="4.5062">
        <ele>1016.73</ele>
        <time>2017-02-26T12:14:40Z</time>
      </trkpt>
      <trkpt lat="45.38073" lon="4.50608">
        <ele>1018.17</ele>
        <time>2017-02-26T12:14:51Z</time>
      </trkpt>
      <trkpt lat="45.38074" lon="4.50607">
        <ele>1018.17</ele>
        <time>2017-02-26T12:14:52Z</time>
      </trkpt>
      <trkpt lat="45.38076" lon="4.50605">
        <ele>1018.17</ele>
        <time>2017-02-26T12:14:53Z</time>
      </trkpt>
      <trkpt lat="45.38077" lon="4.50604">
        <ele>1018.17</ele>
        <time>2017-02-26T12:14:54Z</time>
      </trkpt>
      <trkpt lat="45.38078" lon="4.50602">
        <ele>1018.17</ele>
        <time>2017-02-26T12:14:55Z</time>
      </trkpt>
      <trkpt lat="45.3808" lon="4.50601">
        <ele>1018.17</ele>
        <time>2017-02-26T12:14:56Z</time>
      </trkpt>
      <trkpt lat="45.38081" lon="4.50599">
        <ele>1018.17</ele>
        <time>2017-02-26T12:14:57Z</time>
      </trkpt>
      <trkpt lat="45.38084" lon="4.50597">
        <ele>1018.17</ele>
        <time>2017-02-26T12:14:59Z</time>
      </trkpt>
      <trkpt lat="45.38086" lon="4.50596">
        <ele>1018.17</ele>
        <time>2017-02-26T12:15:00Z</time>
      </trkpt>
      <trkpt lat="45.38088" lon="4.50595">
        <ele>1017.69</ele>
        <time>2017-02-26T12:15:01Z</time>
      </trkpt>
      <trkpt lat="45.3809" lon="4.50594">
        <ele>1017.21</ele>
        <time>2017-02-26T12:15:02Z</time>
      </trkpt>
      <trkpt lat="45.38093" lon="4.50592">
        <ele>1016.73</ele>
        <time>2017-02-26T12:15:03Z</time>
      </trkpt>
      <trkpt lat="45.38093" lon="4.50591">
        <ele>1016.73</ele>
        <time>2017-02-26T12:15:13Z</time>
      </trkpt>
      <trkpt lat="45.38094" lon="4.50592">
        <ele>1016.73</ele>
        <time>2017-02-26T12:15:42Z</time>
      </trkpt>
      <trkpt lat="45.38093" lon="4.50591">
        <ele>1016.73</ele>
        <time>2017-02-26T12:16:02Z</time>
      </trkpt>
      <trkpt lat="45.38094" lon="4.50591">
        <ele>1016.25</ele>
        <time>2017-02-26T12:16:09Z</time>
      </trkpt>
      <trkpt lat="45.38093" lon="4.50589">
        <ele>1016.25</ele>
        <time>2017-02-26T12:16:10Z</time>
      </trkpt>
      <trkpt lat="45.38092" lon="4.50588">
        <ele>1016.73</ele>
        <time>2017-02-26T12:16:11Z</time>
      </trkpt>
      <trkpt lat="45.3809" lon="4.50587">
        <ele>1016.73</ele>
        <time>2017-02-26T12:16:12Z</time>
      </trkpt>
      <trkpt lat="45.38089" lon="4.50586">
        <ele>1016.73</ele>
        <time>2017-02-26T12:16:13Z</time>
      </trkpt>
      <trkpt lat="45.38088" lon="4.50586">
        <ele>1017.21</ele>
        <time>2017-02-26T12:16:14Z</time>
      </trkpt>
      <trkpt lat="45.38087" lon="4.50585">
        <ele>1017.21</ele>
        <time>2017-02-26T12:16:15Z</time>
      </trkpt>
      <trkpt lat="45.38086" lon="4.50584">
        <ele>1017.69</ele>
        <time>2017-02-26T12:16:16Z</time>
      </trkpt>
      <trkpt lat="45.38083" lon="4.5058">
        <ele>1017.21</ele>
        <time>2017-02-26T12:16:19Z</time>
      </trkpt>
      <trkpt lat="45.38082" lon="4.50578">
        <ele>1017.69</ele>
        <time>2017-02-26T12:16:20Z</time>
      </trkpt>
      <trkpt lat="45.38081" lon="4.50576">
        <ele>1017.21</ele>
        <time>2017-02-26T12:16:21Z</time>
      </trkpt>
      <trkpt lat="45.3808" lon="4.50575">
        <ele>1017.69</ele>
        <time>2017-02-26T12:16:22Z</time>
      </trkpt>
      <trkpt lat="45.3808" lon="4.50573">
        <ele>1017.69</ele>
        <time>2017-02-26T12:16:23Z</time>
      </trkpt>
      <trkpt lat="45.38079" lon="4.50571">
        <ele>1017.21</ele>
        <time>2017-02-26T12:16:24Z</time>
      </trkpt>
      <trkpt lat="45.38075" lon="4.50564">
        <ele>1017.21</ele>
        <time>2017-02-26T12:16:30Z</time>
      </trkpt>
      <trkpt lat="45.38073" lon="4.50563">
        <ele>1017.21</ele>
        <time>2017-02-26T12:16:31Z</time>
      </trkpt>
      <trkpt lat="45.38072" lon="4.5056">
        <ele>1016.73</ele>
        <time>2017-02-26T12:16:32Z</time>
      </trkpt>
      <trkpt lat="45.3807" lon="4.50557">
        <ele>1016.73</ele>
        <time>2017-02-26T12:16:33Z</time>
      </trkpt>
      <trkpt lat="45.38067" lon="4.50555">
        <ele>1016.73</ele>
        <time>2017-02-26T12:16:34Z</time>
      </trkpt>
      <trkpt lat="45.38065" lon="4.50553">
        <ele>1016.73</ele>
        <time>2017-02-26T12:16:35Z</time>
      </trkpt>
      <trkpt lat="45.38063" lon="4.50551">
        <ele>1016.25</ele>
        <time>2017-02-26T12:16:36Z</time>
      </trkpt>
      <trkpt lat="45.38061" lon="4.5055">
        <ele>1016.73</ele>
        <time>2017-02-26T12:16:37Z</time>
      </trkpt>
      <trkpt lat="45.38059" lon="4.50548">
        <ele>1016.73</ele>
        <time>2017-02-26T12:16:38Z</time>
      </trkpt>
      <trkpt lat="45.38058" lon="4.50547">
        <ele>1016.73</ele>
        <time>2017-02-26T12:16:39Z</time>
      </trkpt>
      <trkpt lat="45.38056" lon="4.50547">
        <ele>1016.73</ele>
        <time>2017-02-26T12:16:40Z</time>
      </trkpt>
      <trkpt lat="45.38055" lon="4.50546">
        <ele>1016.25</ele>
        <time>2017-02-26T12:16:52Z</time>
      </trkpt>
      <trkpt lat="45.38055" lon="4.50546">
        <ele>1016.73</ele>
        <time>2017-02-26T12:17:19Z</time>
      </trkpt>
      <trkpt lat="45.38049" lon="4.5054">
        <ele>1016.25</ele>
        <time>2017-02-26T12:17:38Z</time>
      </trkpt>
      <trkpt lat="45.38047" lon="4.50539">
        <ele>1016.25</ele>
        <time>2017-02-26T12:17:39Z</time>
      </trkpt>
      <trkpt lat="45.38046" lon="4.50538">
        <ele>1016.25</ele>
        <time>2017-02-26T12:17:40Z</time>
      </trkpt>
      <trkpt lat="45.38044" lon="4.50537">
        <ele>1016.25</ele>
        <time>2017-02-26T12:17:41Z</time>
      </trkpt>
      <trkpt lat="45.38043" lon="4.50536">
        <ele>1016.25</ele>
        <time>2017-02-26T12:17:42Z</time>
      </trkpt>
      <trkpt lat="45.38041" lon="4.50536">
        <ele>1016.73</ele>
        <time>2017-02-26T12:17:43Z</time>
      </trkpt>
      <trkpt lat="45.38039" lon="4.50534">
        <ele>1016.73</ele>
        <time>2017-02-26T12:17:45Z</time>
      </trkpt>
      <trkpt lat="45.38037" lon="4.50532">
        <ele>1016.73</ele>
        <time>2017-02-26T12:17:46Z</time>
      </trkpt>
      <trkpt lat="45.38035" lon="4.5053">
        <ele>1016.73</ele>
        <time>2017-02-26T12:17:48Z</time>
      </trkpt>
      <trkpt lat="45.38028" lon="4.50525">
        <ele>1017.69</ele>
        <time>2017-02-26T12:17:52Z</time>
      </trkpt>
      <trkpt lat="45.38026" lon="4.50525">
        <ele>1017.69</ele>
        <time>2017-02-26T12:17:53Z</time>
      </trkpt>
      <trkpt lat="45.38024" lon="4.50524">
        <ele>1018.17</ele>
        <time>2017-02-26T12:17:54Z</time>
      </trkpt>
      <trkpt lat="45.38003" lon="4.50511">
        <ele>1019.62</ele>
        <time>2017-02-26T12:18:06Z</time>
      </trkpt>
      <trkpt lat="45.37985" lon="4.50499">
        <ele>1020.58</ele>
        <time>2017-02-26T12:18:17Z</time>
      </trkpt>
      <trkpt lat="45.37967" lon="4.50483">
        <ele>1020.58</ele>
        <time>2017-02-26T12:18:26Z</time>
      </trkpt>
      <trkpt lat="45.3796" lon="4.50471">
        <ele>1020.58</ele>
        <time>2017-02-26T12:18:31Z</time>
      </trkpt>
      <trkpt lat="45.37959" lon="4.50469">
        <ele>1021.06</ele>
        <time>2017-02-26T12:18:32Z</time>
      </trkpt>
      <trkpt lat="45.37958" lon="4.50467">
        <ele>1021.06</ele>
        <time>2017-02-26T12:18:33Z</time>
      </trkpt>
      <trkpt lat="45.37942" lon="4.50444">
        <ele>1022.98</ele>
        <time>2017-02-26T12:18:45Z</time>
      </trkpt>
      <trkpt lat="45.37941" lon="4.50444">
        <ele>1022.98</ele>
        <time>2017-02-26T12:18:46Z</time>
      </trkpt>
      <trkpt lat="45.37939" lon="4.50442">
        <ele>1022.98</ele>
        <time>2017-02-26T12:18:47Z</time>
      </trkpt>
      <trkpt lat="45.37938" lon="4.5044">
        <ele>1023.46</ele>
        <time>2017-02-26T12:18:49Z</time>
      </trkpt>
      <trkpt lat="45.37936" lon="4.50437">
        <ele>1023.94</ele>
        <time>2017-02-26T12:18:51Z</time>
      </trkpt>
      <trkpt lat="45.37935" lon="4.50436">
        <ele>1024.42</ele>
        <time>2017-02-26T12:18:52Z</time>
      </trkpt>
      <trkpt lat="45.37927" lon="4.50423">
        <ele>1025.38</ele>
        <time>2017-02-26T12:19:01Z</time>
      </trkpt>
      <trkpt lat="45.37926" lon="4.50422">
        <ele>1025.86</ele>
        <time>2017-02-26T12:19:02Z</time>
      </trkpt>
      <trkpt lat="45.37914" lon="4.50403">
        <ele>1027.31</ele>
        <time>2017-02-26T12:19:13Z</time>
      </trkpt>
      <trkpt lat="45.37909" lon="4.50393">
        <ele>1028.27</ele>
        <time>2017-02-26T12:19:18Z</time>
      </trkpt>
      <trkpt lat="45.37907" lon="4.50392">
        <ele>1028.27</ele>
        <time>2017-02-26T12:19:19Z</time>
      </trkpt>
      <trkpt lat="45.37906" lon="4.5039">
        <ele>1029.71</ele>
        <time>2017-02-26T12:19:25Z</time>
      </trkpt>
      <trkpt lat="45.37907" lon="4.50383">
        <ele>1030.67</ele>
        <time>2017-02-26T12:19:28Z</time>
      </trkpt>
      <trkpt lat="45.37907" lon="4.5038">
        <ele>1031.15</ele>
        <time>2017-02-26T12:19:29Z</time>
      </trkpt>
      <trkpt lat="45.37909" lon="4.50377">
        <ele>1031.63</ele>
        <time>2017-02-26T12:19:32Z</time>
      </trkpt>
      <trkpt lat="45.37911" lon="4.50369">
        <ele>1033.07</ele>
        <time>2017-02-26T12:19:42Z</time>
      </trkpt>
      <trkpt lat="45.37928" lon="4.50353">
        <ele>1035.48</ele>
        <time>2017-02-26T12:19:55Z</time>
      </trkpt>
      <trkpt lat="45.37935" lon="4.50349">
        <ele>1036.92</ele>
        <time>2017-02-26T12:20:07Z</time>
      </trkpt>
      <trkpt lat="45.37935" lon="4.50349">
        <ele>1033.55</ele>
        <time>2017-02-26T12:20:12Z</time>
      </trkpt>
      <trkpt lat="45.37935" lon="4.50349">
        <ele>1039.8</ele>
        <time>2017-02-26T12:20:13Z</time>
      </trkpt>
      <trkpt lat="45.37935" lon="4.50349">
        <ele>1035.96</ele>
        <time>2017-02-26T12:20:16Z</time>
      </trkpt>
      <trkpt lat="45.37935" lon="4.50349">
        <ele>1042.69</ele>
        <time>2017-02-26T12:20:19Z</time>
      </trkpt>
      <trkpt lat="45.37935" lon="4.50349">
        <ele>1037.4</ele>
        <time>2017-02-26T12:20:20Z</time>
      </trkpt>
      <trkpt lat="45.37941" lon="4.50342">
        <ele>1038.36</ele>
        <time>2017-02-26T12:20:31Z</time>
      </trkpt>
      <trkpt lat="45.37948" lon="4.50332">
        <ele>1040.28</ele>
        <time>2017-02-26T12:20:41Z</time>
      </trkpt>
      <trkpt lat="45.37956" lon="4.50324">
        <ele>1042.21</ele>
        <time>2017-02-26T12:20:51Z</time>
      </trkpt>
      <trkpt lat="45.37964" lon="4.50314">
        <ele>1044.61</ele>
        <time>2017-02-26T12:21:02Z</time>
      </trkpt>
      <trkpt lat="45.37974" lon="4.50303">
        <ele>1047.49</ele>
        <time>2017-02-26T12:21:14Z</time>
      </trkpt>
      <trkpt lat="45.37984" lon="4.50293">
        <ele>1049.9</ele>
        <time>2017-02-26T12:21:27Z</time>
      </trkpt>
      <trkpt lat="45.37993" lon="4.50283">
        <ele>1051.82</ele>
        <time>2017-02-26T12:21:38Z</time>
      </trkpt>
      <trkpt lat="45.37994" lon="4.50282">
        <ele>1052.3</ele>
        <time>2017-02-26T12:21:39Z</time>
      </trkpt>
      <trkpt lat="45.38005" lon="4.50271">
        <ele>1054.22</ele>
        <time>2017-02-26T12:21:50Z</time>
      </trkpt>
      <trkpt lat="45.38014" lon="4.5026">
        <ele>1056.15</ele>
        <time>2017-02-26T12:22:03Z</time>
      </trkpt>
      <trkpt lat="45.38023" lon="4.50252">
        <ele>1058.07</ele>
        <time>2017-02-26T12:22:16Z</time>
      </trkpt>
      <trkpt lat="45.38036" lon="4.50234">
        <ele>1060.95</ele>
        <time>2017-02-26T12:22:30Z</time>
      </trkpt>
      <trkpt lat="45.38045" lon="4.50219">
        <ele>1062.87</ele>
        <time>2017-02-26T12:22:41Z</time>
      </trkpt>
      <trkpt lat="45.38056" lon="4.50204">
        <ele>1065.28</ele>
        <time>2017-02-26T12:22:53Z</time>
      </trkpt>
      <trkpt lat="45.38057" lon="4.50202">
        <ele>1065.76</ele>
        <time>2017-02-26T12:22:54Z</time>
      </trkpt>
      <trkpt lat="45.38062" lon="4.50193">
        <ele>1066.24</ele>
        <time>2017-02-26T12:23:00Z</time>
      </trkpt>
      <trkpt lat="45.38071" lon="4.50169">
        <ele>1068.64</ele>
        <time>2017-02-26T12:23:14Z</time>
      </trkpt>
      <trkpt lat="45.38075" lon="4.5016">
        <ele>1069.12</ele>
        <time>2017-02-26T12:23:19Z</time>
      </trkpt>
      <trkpt lat="45.38076" lon="4.50158">
        <ele>1069.12</ele>
        <time>2017-02-26T12:23:20Z</time>
      </trkpt>
      <trkpt lat="45.38077" lon="4.50156">
        <ele>1069.12</ele>
        <time>2017-02-26T12:23:21Z</time>
      </trkpt>
      <trkpt lat="45.3808" lon="4.50147">
        <ele>1069.6</ele>
        <time>2017-02-26T12:23:27Z</time>
      </trkpt>
      <trkpt lat="45.38082" lon="4.50134">
        <ele>1072.01</ele>
        <time>2017-02-26T12:23:33Z</time>
      </trkpt>
      <trkpt lat="45.38084" lon="4.5013">
        <ele>1070.57</ele>
        <time>2017-02-26T12:23:35Z</time>
      </trkpt>
      <trkpt lat="45.38091" lon="4.50104">
        <ele>1071.53</ele>
        <time>2017-02-26T12:23:47Z</time>
      </trkpt>
      <trkpt lat="45.38092" lon="4.50102">
        <ele>1072.01</ele>
        <time>2017-02-26T12:23:48Z</time>
      </trkpt>
      <trkpt lat="45.38093" lon="4.50094">
        <ele>1072.01</ele>
        <time>2017-02-26T12:23:51Z</time>
      </trkpt>
      <trkpt lat="45.38094" lon="4.50092">
        <ele>1072.01</ele>
        <time>2017-02-26T12:23:52Z</time>
      </trkpt>
      <trkpt lat="45.38094" lon="4.50089">
        <ele>1072.01</ele>
        <time>2017-02-26T12:23:53Z</time>
      </trkpt>
      <trkpt lat="45.38094" lon="4.50072">
        <ele>1073.93</ele>
        <time>2017-02-26T12:24:04Z</time>
      </trkpt>
      <trkpt lat="45.38093" lon="4.5007">
        <ele>1073.93</ele>
        <time>2017-02-26T12:24:05Z</time>
      </trkpt>
      <trkpt lat="45.38093" lon="4.50068">
        <ele>1074.41</ele>
        <time>2017-02-26T12:24:06Z</time>
      </trkpt>
      <trkpt lat="45.38091" lon="4.50042">
        <ele>1076.81</ele>
        <time>2017-02-26T12:24:20Z</time>
      </trkpt>
      <trkpt lat="45.3809" lon="4.50034">
        <ele>1077.78</ele>
        <time>2017-02-26T12:24:25Z</time>
      </trkpt>
      <trkpt lat="45.38091" lon="4.50019">
        <ele>1078.26</ele>
        <time>2017-02-26T12:24:31Z</time>
      </trkpt>
      <trkpt lat="45.38089" lon="4.50015">
        <ele>1078.26</ele>
        <time>2017-02-26T12:24:33Z</time>
      </trkpt>
      <trkpt lat="45.38089" lon="4.50006">
        <ele>1078.74</ele>
        <time>2017-02-26T12:24:37Z</time>
      </trkpt>
      <trkpt lat="45.38089" lon="4.50004">
        <ele>1078.74</ele>
        <time>2017-02-26T12:24:38Z</time>
      </trkpt>
      <trkpt lat="45.38089" lon="4.50002">
        <ele>1078.74</ele>
        <time>2017-02-26T12:24:39Z</time>
      </trkpt>
      <trkpt lat="45.38089" lon="4.5">
        <ele>1078.74</ele>
        <time>2017-02-26T12:24:40Z</time>
      </trkpt>
      <trkpt lat="45.38089" lon="4.49976">
        <ele>1080.18</ele>
        <time>2017-02-26T12:24:52Z</time>
      </trkpt>
      <trkpt lat="45.38089" lon="4.49975">
        <ele>1080.18</ele>
        <time>2017-02-26T12:24:53Z</time>
      </trkpt>
      <trkpt lat="45.38086" lon="4.49952">
        <ele>1082.58</ele>
        <time>2017-02-26T12:25:07Z</time>
      </trkpt>
      <trkpt lat="45.38085" lon="4.49949">
        <ele>1083.06</ele>
        <time>2017-02-26T12:25:09Z</time>
      </trkpt>
      <trkpt lat="45.38082" lon="4.49938">
        <ele>1084.5</ele>
        <time>2017-02-26T12:25:22Z</time>
      </trkpt>
      <trkpt lat="45.38077" lon="4.49924">
        <ele>1085.95</ele>
        <time>2017-02-26T12:25:35Z</time>
      </trkpt>
      <trkpt lat="45.38074" lon="4.49915">
        <ele>1086.91</ele>
        <time>2017-02-26T12:25:40Z</time>
      </trkpt>
      <trkpt lat="45.38068" lon="4.49906">
        <ele>1088.35</ele>
        <time>2017-02-26T12:25:47Z</time>
      </trkpt>
      <trkpt lat="45.38067" lon="4.49898">
        <ele>1089.31</ele>
        <time>2017-02-26T12:25:53Z</time>
      </trkpt>
      <trkpt lat="45.38062" lon="4.49893">
        <ele>1090.27</ele>
        <time>2017-02-26T12:26:03Z</time>
      </trkpt>
      <trkpt lat="45.38048" lon="4.49884">
        <ele>1092.2</ele>
        <time>2017-02-26T12:26:13Z</time>
      </trkpt>
      <trkpt lat="45.38032" lon="4.49874">
        <ele>1093.64</ele>
        <time>2017-02-26T12:26:22Z</time>
      </trkpt>
      <trkpt lat="45.38017" lon="4.49867">
        <ele>1095.08</ele>
        <time>2017-02-26T12:26:34Z</time>
      </trkpt>
      <trkpt lat="45.38003" lon="4.49865">
        <ele>1096.52</ele>
        <time>2017-02-26T12:26:46Z</time>
      </trkpt>
      <trkpt lat="45.38002" lon="4.49865">
        <ele>1097</ele>
        <time>2017-02-26T12:26:47Z</time>
      </trkpt>
      <trkpt lat="45.37987" lon="4.49862">
        <ele>1098.92</ele>
        <time>2017-02-26T12:26:58Z</time>
      </trkpt>
      <trkpt lat="45.3797" lon="4.49864">
        <ele>1100.85</ele>
        <time>2017-02-26T12:27:11Z</time>
      </trkpt>
      <trkpt lat="45.37947" lon="4.49863">
        <ele>1103.25</ele>
        <time>2017-02-26T12:27:25Z</time>
      </trkpt>
      <trkpt lat="45.37946" lon="4.49862">
        <ele>1103.73</ele>
        <time>2017-02-26T12:27:27Z</time>
      </trkpt>
      <trkpt lat="45.37938" lon="4.49861">
        <ele>1104.69</ele>
        <time>2017-02-26T12:27:34Z</time>
      </trkpt>
      <trkpt lat="45.3792" lon="4.49862">
        <ele>1106.61</ele>
        <time>2017-02-26T12:27:47Z</time>
      </trkpt>
      <trkpt lat="45.37903" lon="4.49863">
        <ele>1108.54</ele>
        <time>2017-02-26T12:28:00Z</time>
      </trkpt>
      <trkpt lat="45.37888" lon="4.49864">
        <ele>1109.98</ele>
        <time>2017-02-26T12:28:11Z</time>
      </trkpt>
      <trkpt lat="45.37879" lon="4.49864">
        <ele>1111.42</ele>
        <time>2017-02-26T12:28:20Z</time>
      </trkpt>
      <trkpt lat="45.37873" lon="4.49862">
        <ele>1112.38</ele>
        <time>2017-02-26T12:28:25Z</time>
      </trkpt>
      <trkpt lat="45.37864" lon="4.49861">
        <ele>1112.86</ele>
        <time>2017-02-26T12:28:30Z</time>
      </trkpt>
      <trkpt lat="45.37844" lon="4.4986">
        <ele>1115.27</ele>
        <time>2017-02-26T12:28:43Z</time>
      </trkpt>
      <trkpt lat="45.3784" lon="4.49859">
        <ele>1115.75</ele>
        <time>2017-02-26T12:28:46Z</time>
      </trkpt>
      <trkpt lat="45.37835" lon="4.49859">
        <ele>1116.23</ele>
        <time>2017-02-26T12:28:50Z</time>
      </trkpt>
      <trkpt lat="45.37829" lon="4.49857">
        <ele>1116.71</ele>
        <time>2017-02-26T12:28:54Z</time>
      </trkpt>
      <trkpt lat="45.37818" lon="4.49855">
        <ele>1116.71</ele>
        <time>2017-02-26T12:29:08Z</time>
      </trkpt>
      <trkpt lat="45.37831" lon="4.49826">
        <ele>1118.15</ele>
        <time>2017-02-26T12:31:50Z</time>
      </trkpt>
      <trkpt lat="45.37833" lon="4.49828">
        <ele>1117.67</ele>
        <time>2017-02-26T12:31:51Z</time>
      </trkpt>
      <trkpt lat="45.37805" lon="4.49871">
        <ele>1117.67</ele>
        <time>2017-02-26T12:32:20Z</time>
      </trkpt>
      <trkpt lat="45.37804" lon="4.4987">
        <ele>1117.67</ele>
        <time>2017-02-26T12:32:22Z</time>
      </trkpt>
      <trkpt lat="45.37792" lon="4.49859">
        <ele>1119.11</ele>
        <time>2017-02-26T12:32:35Z</time>
      </trkpt>
      <trkpt lat="45.37788" lon="4.49859">
        <ele>1119.59</ele>
        <time>2017-02-26T12:32:37Z</time>
      </trkpt>
      <trkpt lat="45.37785" lon="4.49858">
        <ele>1119.59</ele>
        <time>2017-02-26T12:32:39Z</time>
      </trkpt>
      <trkpt lat="45.37776" lon="4.49858">
        <ele>1119.59</ele>
        <time>2017-02-26T12:32:45Z</time>
      </trkpt>
      <trkpt lat="45.37756" lon="4.49854">
        <ele>1120.07</ele>
        <time>2017-02-26T12:32:56Z</time>
      </trkpt>
      <trkpt lat="45.37748" lon="4.4984">
        <ele>1121.03</ele>
        <time>2017-02-26T12:33:05Z</time>
      </trkpt>
      <trkpt lat="45.37747" lon="4.4983">
        <ele>1121.52</ele>
        <time>2017-02-26T12:33:09Z</time>
      </trkpt>
      <trkpt lat="45.37742" lon="4.49816">
        <ele>1122</ele>
        <time>2017-02-26T12:33:15Z</time>
      </trkpt>
      <trkpt lat="45.37741" lon="4.49811">
        <ele>1122</ele>
        <time>2017-02-26T12:33:17Z</time>
      </trkpt>
      <trkpt lat="45.37741" lon="4.49794">
        <ele>1122.96</ele>
        <time>2017-02-26T12:33:24Z</time>
      </trkpt>
      <trkpt lat="45.37741" lon="4.49771">
        <ele>1123.92</ele>
        <time>2017-02-26T12:33:34Z</time>
      </trkpt>
      <trkpt lat="45.37741" lon="4.49749">
        <ele>1125.36</ele>
        <time>2017-02-26T12:33:44Z</time>
      </trkpt>
      <trkpt lat="45.37743" lon="4.49731">
        <ele>1126.8</ele>
        <time>2017-02-26T12:33:56Z</time>
      </trkpt>
      <trkpt lat="45.37743" lon="4.49706">
        <ele>1129.21</ele>
        <time>2017-02-26T12:34:08Z</time>
      </trkpt>
      <trkpt lat="45.37742" lon="4.49704">
        <ele>1128.73</ele>
        <time>2017-02-26T12:34:09Z</time>
      </trkpt>
      <trkpt lat="45.37739" lon="4.49699">
        <ele>1129.21</ele>
        <time>2017-02-26T12:34:12Z</time>
      </trkpt>
      <trkpt lat="45.37737" lon="4.49687">
        <ele>1130.65</ele>
        <time>2017-02-26T12:34:18Z</time>
      </trkpt>
      <trkpt lat="45.37738" lon="4.49673">
        <ele>1132.09</ele>
        <time>2017-02-26T12:34:26Z</time>
      </trkpt>
      <trkpt lat="45.37737" lon="4.49665">
        <ele>1133.05</ele>
        <time>2017-02-26T12:34:30Z</time>
      </trkpt>
      <trkpt lat="45.37737" lon="4.49657">
        <ele>1134.01</ele>
        <time>2017-02-26T12:34:34Z</time>
      </trkpt>
      <trkpt lat="45.37736" lon="4.4965">
        <ele>1135.45</ele>
        <time>2017-02-26T12:34:38Z</time>
      </trkpt>
      <trkpt lat="45.37735" lon="4.49647">
        <ele>1135.94</ele>
        <time>2017-02-26T12:34:40Z</time>
      </trkpt>
      <trkpt lat="45.37733" lon="4.49644">
        <ele>1136.42</ele>
        <time>2017-02-26T12:34:42Z</time>
      </trkpt>
      <trkpt lat="45.37729" lon="4.49632">
        <ele>1137.38</ele>
        <time>2017-02-26T12:34:49Z</time>
      </trkpt>
      <trkpt lat="45.37726" lon="4.49619">
        <ele>1139.3</ele>
        <time>2017-02-26T12:34:57Z</time>
      </trkpt>
      <trkpt lat="45.37723" lon="4.49617">
        <ele>1139.78</ele>
        <time>2017-02-26T12:34:59Z</time>
      </trkpt>
      <trkpt lat="45.3772" lon="4.49606">
        <ele>1141.22</ele>
        <time>2017-02-26T12:35:05Z</time>
      </trkpt>
      <trkpt lat="45.37714" lon="4.49616">
        <ele>1142.18</ele>
        <time>2017-02-26T12:35:14Z</time>
      </trkpt>
      <trkpt lat="45.37711" lon="4.49624">
        <ele>1142.66</ele>
        <time>2017-02-26T12:35:20Z</time>
      </trkpt>
      <trkpt lat="45.37705" lon="4.49643">
        <ele>1143.14</ele>
        <time>2017-02-26T12:35:33Z</time>
      </trkpt>
      <trkpt lat="45.37705" lon="4.49645">
        <ele>1143.14</ele>
        <time>2017-02-26T12:35:49Z</time>
      </trkpt>
      <trkpt lat="45.37705" lon="4.49645">
        <ele>1143.14</ele>
        <time>2017-02-26T12:36:16Z</time>
      </trkpt>
      <trkpt lat="45.37705" lon="4.49645">
        <ele>1143.14</ele>
        <time>2017-02-26T12:36:46Z</time>
      </trkpt>
      <trkpt lat="45.37705" lon="4.49645">
        <ele>1143.14</ele>
        <time>2017-02-26T12:37:25Z</time>
      </trkpt>
      <trkpt lat="45.37703" lon="4.4965">
        <ele>1142.66</ele>
        <time>2017-02-26T12:37:51Z</time>
      </trkpt>
      <trkpt lat="45.37691" lon="4.49684">
        <ele>1143.14</ele>
        <time>2017-02-26T12:38:02Z</time>
      </trkpt>
      <trkpt lat="45.37689" lon="4.49687">
        <ele>1143.14</ele>
        <time>2017-02-26T12:38:03Z</time>
      </trkpt>
      <trkpt lat="45.37677" lon="4.49717">
        <ele>1144.59</ele>
        <time>2017-02-26T12:38:13Z</time>
      </trkpt>
      <trkpt lat="45.37669" lon="4.49742">
        <ele>1145.55</ele>
        <time>2017-02-26T12:38:22Z</time>
      </trkpt>
      <trkpt lat="45.37664" lon="4.49769">
        <ele>1146.99</ele>
        <time>2017-02-26T12:38:31Z</time>
      </trkpt>
      <trkpt lat="45.37661" lon="4.49773">
        <ele>1147.95</ele>
        <time>2017-02-26T12:38:36Z</time>
      </trkpt>
      <trkpt lat="45.37656" lon="4.49815">
        <ele>1147.95</ele>
        <time>2017-02-26T12:38:46Z</time>
      </trkpt>
      <trkpt lat="45.37649" lon="4.49842">
        <ele>1148.91</ele>
        <time>2017-02-26T12:38:53Z</time>
      </trkpt>
      <trkpt lat="45.37645" lon="4.49859">
        <ele>1149.87</ele>
        <time>2017-02-26T12:39:01Z</time>
      </trkpt>
      <trkpt lat="45.37643" lon="4.49872">
        <ele>1150.35</ele>
        <time>2017-02-26T12:39:05Z</time>
      </trkpt>
      <trkpt lat="45.37637" lon="4.49899">
        <ele>1152.28</ele>
        <time>2017-02-26T12:39:15Z</time>
      </trkpt>
      <trkpt lat="45.37635" lon="4.49915">
        <ele>1152.76</ele>
        <time>2017-02-26T12:39:19Z</time>
      </trkpt>
      <trkpt lat="45.37625" lon="4.49937">
        <ele>1154.2</ele>
        <time>2017-02-26T12:39:28Z</time>
      </trkpt>
      <trkpt lat="45.37613" lon="4.49966">
        <ele>1156.6</ele>
        <time>2017-02-26T12:39:38Z</time>
      </trkpt>
      <trkpt lat="45.37598" lon="4.49991">
        <ele>1158.05</ele>
        <time>2017-02-26T12:39:52Z</time>
      </trkpt>
      <trkpt lat="45.37592" lon="4.50003">
        <ele>1159.01</ele>
        <time>2017-02-26T12:39:59Z</time>
      </trkpt>
      <trkpt lat="45.37581" lon="4.50021">
        <ele>1159.49</ele>
        <time>2017-02-26T12:40:09Z</time>
      </trkpt>
      <trkpt lat="45.3758" lon="4.50022">
        <ele>1159.49</ele>
        <time>2017-02-26T12:40:10Z</time>
      </trkpt>
      <trkpt lat="45.37562" lon="4.50056">
        <ele>1160.93</ele>
        <time>2017-02-26T12:40:23Z</time>
      </trkpt>
      <trkpt lat="45.37541" lon="4.50084">
        <ele>1162.37</ele>
        <time>2017-02-26T12:40:35Z</time>
      </trkpt>
      <trkpt lat="45.37534" lon="4.50093">
        <ele>1162.85</ele>
        <time>2017-02-26T12:40:39Z</time>
      </trkpt>
      <trkpt lat="45.37513" lon="4.50124">
        <ele>1163.81</ele>
        <time>2017-02-26T12:40:52Z</time>
      </trkpt>
      <trkpt lat="45.37511" lon="4.50129">
        <ele>1164.29</ele>
        <time>2017-02-26T12:40:54Z</time>
      </trkpt>
      <trkpt lat="45.37496" lon="4.50155">
        <ele>1165.74</ele>
        <time>2017-02-26T12:41:06Z</time>
      </trkpt>
      <trkpt lat="45.37483" lon="4.5018">
        <ele>1167.18</ele>
        <time>2017-02-26T12:41:16Z</time>
      </trkpt>
      <trkpt lat="45.37479" lon="4.50188">
        <ele>1167.18</ele>
        <time>2017-02-26T12:41:19Z</time>
      </trkpt>
      <trkpt lat="45.37476" lon="4.50197">
        <ele>1168.14</ele>
        <time>2017-02-26T12:41:23Z</time>
      </trkpt>
      <trkpt lat="45.37464" lon="4.5022">
        <ele>1169.1</ele>
        <time>2017-02-26T12:41:32Z</time>
      </trkpt>
      <trkpt lat="45.37444" lon="4.50256">
        <ele>1170.54</ele>
        <time>2017-02-26T12:41:46Z</time>
      </trkpt>
      <trkpt lat="45.37426" lon="4.50289">
        <ele>1171.02</ele>
        <time>2017-02-26T12:41:58Z</time>
      </trkpt>
      <trkpt lat="45.37395" lon="4.50322">
        <ele>1171.98</ele>
        <time>2017-02-26T12:42:13Z</time>
      </trkpt>
      <trkpt lat="45.37383" lon="4.50324">
        <ele>1171.5</ele>
        <time>2017-02-26T12:42:17Z</time>
      </trkpt>
      <trkpt lat="45.37377" lon="4.5034">
        <ele>1171.98</ele>
        <time>2017-02-26T12:42:22Z</time>
      </trkpt>
      <trkpt lat="45.37362" lon="4.50381">
        <ele>1172.47</ele>
        <time>2017-02-26T12:42:34Z</time>
      </trkpt>
      <trkpt lat="45.37331" lon="4.50429">
        <ele>1172.95</ele>
        <time>2017-02-26T12:42:50Z</time>
      </trkpt>
      <trkpt lat="45.37302" lon="4.50474">
        <ele>1173.91</ele>
        <time>2017-02-26T12:43:05Z</time>
      </trkpt>
      <trkpt lat="45.37277" lon="4.50519">
        <ele>1176.79</ele>
        <time>2017-02-26T12:43:21Z</time>
      </trkpt>
      <trkpt lat="45.37261" lon="4.50548">
        <ele>1178.71</ele>
        <time>2017-02-26T12:43:33Z</time>
      </trkpt>
      <trkpt lat="45.37246" lon="4.50581">
        <ele>1180.64</ele>
        <time>2017-02-26T12:43:45Z</time>
      </trkpt>
      <trkpt lat="45.3723" lon="4.50621">
        <ele>1183.04</ele>
        <time>2017-02-26T12:43:59Z</time>
      </trkpt>
      <trkpt lat="45.37214" lon="4.5067">
        <ele>1185.92</ele>
        <time>2017-02-26T12:44:15Z</time>
      </trkpt>
      <trkpt lat="45.37206" lon="4.50707">
        <ele>1186.88</ele>
        <time>2017-02-26T12:44:27Z</time>
      </trkpt>
      <trkpt lat="45.37206" lon="4.5071">
        <ele>1187.37</ele>
        <time>2017-02-26T12:44:28Z</time>
      </trkpt>
      <trkpt lat="45.37201" lon="4.50736">
        <ele>1187.85</ele>
        <time>2017-02-26T12:44:36Z</time>
      </trkpt>
      <trkpt lat="45.37198" lon="4.50742">
        <ele>1187.85</ele>
        <time>2017-02-26T12:44:38Z</time>
      </trkpt>
      <trkpt lat="45.37193" lon="4.50778">
        <ele>1187.85</ele>
        <time>2017-02-26T12:44:49Z</time>
      </trkpt>
      <trkpt lat="45.37193" lon="4.50782">
        <ele>1187.85</ele>
        <time>2017-02-26T12:44:50Z</time>
      </trkpt>
      <trkpt lat="45.3719" lon="4.50806">
        <ele>1187.37</ele>
        <time>2017-02-26T12:44:56Z</time>
      </trkpt>
      <trkpt lat="45.37186" lon="4.50817">
        <ele>1186.4</ele>
        <time>2017-02-26T12:45:00Z</time>
      </trkpt>
      <trkpt lat="45.37182" lon="4.50837">
        <ele>1184</ele>
        <time>2017-02-26T12:45:09Z</time>
      </trkpt>
      <trkpt lat="45.37176" lon="4.50862">
        <ele>1181.12</ele>
        <time>2017-02-26T12:45:16Z</time>
      </trkpt>
      <trkpt lat="45.3717" lon="4.50878">
        <ele>1178.71</ele>
        <time>2017-02-26T12:45:20Z</time>
      </trkpt>
      <trkpt lat="45.37166" lon="4.5089">
        <ele>1177.27</ele>
        <time>2017-02-26T12:45:23Z</time>
      </trkpt>
      <trkpt lat="45.37163" lon="4.50896">
        <ele>1175.83</ele>
        <time>2017-02-26T12:45:26Z</time>
      </trkpt>
      <trkpt lat="45.37153" lon="4.50906">
        <ele>1176.31</ele>
        <time>2017-02-26T12:45:30Z</time>
      </trkpt>
      <trkpt lat="45.37141" lon="4.5091">
        <ele>1172.47</ele>
        <time>2017-02-26T12:45:36Z</time>
      </trkpt>
      <trkpt lat="45.37134" lon="4.50914">
        <ele>1171.5</ele>
        <time>2017-02-26T12:45:39Z</time>
      </trkpt>
      <trkpt lat="45.37125" lon="4.50915">
        <ele>1169.58</ele>
        <time>2017-02-26T12:45:44Z</time>
      </trkpt>
      <trkpt lat="45.37114" lon="4.50934">
        <ele>1168.14</ele>
        <time>2017-02-26T12:45:51Z</time>
      </trkpt>
      <trkpt lat="45.3711" lon="4.50961">
        <ele>1168.14</ele>
        <time>2017-02-26T12:45:59Z</time>
      </trkpt>
      <trkpt lat="45.37103" lon="4.51023">
        <ele>1168.14</ele>
        <time>2017-02-26T12:46:13Z</time>
      </trkpt>
      <trkpt lat="45.37091" lon="4.51135">
        <ele>1166.22</ele>
        <time>2017-02-26T12:46:33Z</time>
      </trkpt>
      <trkpt lat="45.37089" lon="4.51154">
        <ele>1167.18</ele>
        <time>2017-02-26T12:46:36Z</time>
      </trkpt>
      <trkpt lat="45.3708" lon="4.51209">
        <ele>1167.66</ele>
        <time>2017-02-26T12:46:45Z</time>
      </trkpt>
      <trkpt lat="45.37072" lon="4.51238">
        <ele>1167.18</ele>
        <time>2017-02-26T12:46:50Z</time>
      </trkpt>
      <trkpt lat="45.3707" lon="4.51244">
        <ele>1167.18</ele>
        <time>2017-02-26T12:46:51Z</time>
      </trkpt>
      <trkpt lat="45.37067" lon="4.51248">
        <ele>1167.66</ele>
        <time>2017-02-26T12:46:52Z</time>
      </trkpt>
      <trkpt lat="45.37028" lon="4.51279">
        <ele>1170.06</ele>
        <time>2017-02-26T12:47:04Z</time>
      </trkpt>
      <trkpt lat="45.37006" lon="4.51302">
        <ele>1171.5</ele>
        <time>2017-02-26T12:47:12Z</time>
      </trkpt>
      <trkpt lat="45.36959" lon="4.51327">
        <ele>1173.43</ele>
        <time>2017-02-26T12:47:28Z</time>
      </trkpt>
      <trkpt lat="45.36919" lon="4.51367">
        <ele>1175.35</ele>
        <time>2017-02-26T12:47:45Z</time>
      </trkpt>
      <trkpt lat="45.36895" lon="4.51414">
        <ele>1176.79</ele>
        <time>2017-02-26T12:48:00Z</time>
      </trkpt>
      <trkpt lat="45.36874" lon="4.51477">
        <ele>1178.23</ele>
        <time>2017-02-26T12:48:17Z</time>
      </trkpt>
      <trkpt lat="45.36866" lon="4.51527">
        <ele>1177.75</ele>
        <time>2017-02-26T12:48:28Z</time>
      </trkpt>
      <trkpt lat="45.36861" lon="4.51573">
        <ele>1178.23</ele>
        <time>2017-02-26T12:48:38Z</time>
      </trkpt>
      <trkpt lat="45.36851" lon="4.51629">
        <ele>1179.67</ele>
        <time>2017-02-26T12:48:50Z</time>
      </trkpt>
      <trkpt lat="45.36831" lon="4.51678">
        <ele>1179.67</ele>
        <time>2017-02-26T12:49:02Z</time>
      </trkpt>
      <trkpt lat="45.36827" lon="4.51699">
        <ele>1180.64</ele>
        <time>2017-02-26T12:49:07Z</time>
      </trkpt>
      <trkpt lat="45.36827" lon="4.51702">
        <ele>1181.12</ele>
        <time>2017-02-26T12:49:08Z</time>
      </trkpt>
      <trkpt lat="45.36827" lon="4.51706">
        <ele>1181.12</ele>
        <time>2017-02-26T12:49:09Z</time>
      </trkpt>
      <trkpt lat="45.36825" lon="4.5171">
        <ele>1181.12</ele>
        <time>2017-02-26T12:49:10Z</time>
      </trkpt>
      <trkpt lat="45.36824" lon="4.51714">
        <ele>1182.08</ele>
        <time>2017-02-26T12:49:11Z</time>
      </trkpt>
      <trkpt lat="45.36807" lon="4.51759">
        <ele>1184</ele>
        <time>2017-02-26T12:49:24Z</time>
      </trkpt>
      <trkpt lat="45.36791" lon="4.51806">
        <ele>1187.85</ele>
        <time>2017-02-26T12:49:38Z</time>
      </trkpt>
      <trkpt lat="45.36773" lon="4.51869">
        <ele>1188.81</ele>
        <time>2017-02-26T12:49:55Z</time>
      </trkpt>
      <trkpt lat="45.36779" lon="4.51923">
        <ele>1190.25</ele>
        <time>2017-02-26T12:50:09Z</time>
      </trkpt>
      <trkpt lat="45.36795" lon="4.51968">
        <ele>1190.73</ele>
        <time>2017-02-26T12:50:22Z</time>
      </trkpt>
      <trkpt lat="45.36809" lon="4.5203">
        <ele>1192.17</ele>
        <time>2017-02-26T12:50:38Z</time>
      </trkpt>
      <trkpt lat="45.36822" lon="4.52078">
        <ele>1193.13</ele>
        <time>2017-02-26T12:50:51Z</time>
      </trkpt>
      <trkpt lat="45.36825" lon="4.52088">
        <ele>1193.13</ele>
        <time>2017-02-26T12:50:54Z</time>
      </trkpt>
      <trkpt lat="45.36828" lon="4.52093">
        <ele>1193.61</ele>
        <time>2017-02-26T12:50:56Z</time>
      </trkpt>
      <trkpt lat="45.36829" lon="4.52096">
        <ele>1193.61</ele>
        <time>2017-02-26T12:50:57Z</time>
      </trkpt>
      <trkpt lat="45.36829" lon="4.52099">
        <ele>1194.09</ele>
        <time>2017-02-26T12:50:58Z</time>
      </trkpt>
      <trkpt lat="45.3683" lon="4.52103">
        <ele>1194.09</ele>
        <time>2017-02-26T12:50:59Z</time>
      </trkpt>
      <trkpt lat="45.36831" lon="4.52106">
        <ele>1194.09</ele>
        <time>2017-02-26T12:51:00Z</time>
      </trkpt>
      <trkpt lat="45.36847" lon="4.52169">
        <ele>1195.06</ele>
        <time>2017-02-26T12:51:18Z</time>
      </trkpt>
      <trkpt lat="45.3685" lon="4.52238">
        <ele>1196.98</ele>
        <time>2017-02-26T12:51:35Z</time>
      </trkpt>
      <trkpt lat="45.36848" lon="4.52316">
        <ele>1198.9</ele>
        <time>2017-02-26T12:51:53Z</time>
      </trkpt>
      <trkpt lat="45.36846" lon="4.52391">
        <ele>1200.82</ele>
        <time>2017-02-26T12:52:10Z</time>
      </trkpt>
      <trkpt lat="45.36845" lon="4.52452">
        <ele>1203.23</ele>
        <time>2017-02-26T12:52:25Z</time>
      </trkpt>
      <trkpt lat="45.3684" lon="4.52518">
        <ele>1204.19</ele>
        <time>2017-02-26T12:52:42Z</time>
      </trkpt>
      <trkpt lat="45.36834" lon="4.52594">
        <ele>1206.11</ele>
        <time>2017-02-26T12:52:59Z</time>
      </trkpt>
      <trkpt lat="45.3682" lon="4.52644">
        <ele>1207.55</ele>
        <time>2017-02-26T12:53:10Z</time>
      </trkpt>
      <trkpt lat="45.36812" lon="4.52685">
        <ele>1206.59</ele>
        <time>2017-02-26T12:53:20Z</time>
      </trkpt>
      <trkpt lat="45.36809" lon="4.52698">
        <ele>1207.07</ele>
        <time>2017-02-26T12:53:24Z</time>
      </trkpt>
      <trkpt lat="45.36808" lon="4.52701">
        <ele>1207.07</ele>
        <time>2017-02-26T12:53:25Z</time>
      </trkpt>
      <trkpt lat="45.36808" lon="4.52704">
        <ele>1207.07</ele>
        <time>2017-02-26T12:53:26Z</time>
      </trkpt>
      <trkpt lat="45.36807" lon="4.52706">
        <ele>1207.55</ele>
        <time>2017-02-26T12:53:27Z</time>
      </trkpt>
      <trkpt lat="45.36807" lon="4.52709">
        <ele>1207.07</ele>
        <time>2017-02-26T12:53:28Z</time>
      </trkpt>
      <trkpt lat="45.36806" lon="4.52711">
        <ele>1207.07</ele>
        <time>2017-02-26T12:53:29Z</time>
      </trkpt>
      <trkpt lat="45.36806" lon="4.52713">
        <ele>1207.07</ele>
        <time>2017-02-26T12:53:30Z</time>
      </trkpt>
      <trkpt lat="45.36806" lon="4.52714">
        <ele>1207.55</ele>
        <time>2017-02-26T12:53:31Z</time>
      </trkpt>
      <trkpt lat="45.36808" lon="4.52719">
        <ele>1208.03</ele>
        <time>2017-02-26T12:53:35Z</time>
      </trkpt>
      <trkpt lat="45.36809" lon="4.52719">
        <ele>1208.03</ele>
        <time>2017-02-26T12:53:36Z</time>
      </trkpt>
      <trkpt lat="45.3681" lon="4.5272">
        <ele>1208.03</ele>
        <time>2017-02-26T12:53:37Z</time>
      </trkpt>
      <trkpt lat="45.3681" lon="4.52723">
        <ele>1207.55</ele>
        <time>2017-02-26T12:53:38Z</time>
      </trkpt>
      <trkpt lat="45.36809" lon="4.52725">
        <ele>1207.07</ele>
        <time>2017-02-26T12:53:39Z</time>
      </trkpt>
      <trkpt lat="45.36808" lon="4.52727">
        <ele>1207.07</ele>
        <time>2017-02-26T12:53:40Z</time>
      </trkpt>
      <trkpt lat="45.36806" lon="4.52726">
        <ele>1207.55</ele>
        <time>2017-02-26T12:53:41Z</time>
      </trkpt>
      <trkpt lat="45.36805" lon="4.52725">
        <ele>1208.03</ele>
        <time>2017-02-26T12:53:42Z</time>
      </trkpt>
      <trkpt lat="45.36804" lon="4.52724">
        <ele>1208.03</ele>
        <time>2017-02-26T12:53:43Z</time>
      </trkpt>
      <trkpt lat="45.36802" lon="4.52723">
        <ele>1208.03</ele>
        <time>2017-02-26T12:53:44Z</time>
      </trkpt>
      <trkpt lat="45.36801" lon="4.52724">
        <ele>1207.55</ele>
        <time>2017-02-26T12:53:45Z</time>
      </trkpt>
      <trkpt lat="45.36801" lon="4.52725">
        <ele>1207.55</ele>
        <time>2017-02-26T12:53:46Z</time>
      </trkpt>
      <trkpt lat="45.368" lon="4.52727">
        <ele>1207.55</ele>
        <time>2017-02-26T12:53:47Z</time>
      </trkpt>
      <trkpt lat="45.368" lon="4.52729">
        <ele>1207.55</ele>
        <time>2017-02-26T12:53:48Z</time>
      </trkpt>
      <trkpt lat="45.36799" lon="4.52731">
        <ele>1207.07</ele>
        <time>2017-02-26T12:53:49Z</time>
      </trkpt>
      <trkpt lat="45.36798" lon="4.52734">
        <ele>1206.59</ele>
        <time>2017-02-26T12:53:50Z</time>
      </trkpt>
      <trkpt lat="45.36797" lon="4.52736">
        <ele>1206.59</ele>
        <time>2017-02-26T12:53:51Z</time>
      </trkpt>
      <trkpt lat="45.36795" lon="4.52739">
        <ele>1207.07</ele>
        <time>2017-02-26T12:53:52Z</time>
      </trkpt>
      <trkpt lat="45.36794" lon="4.52742">
        <ele>1207.07</ele>
        <time>2017-02-26T12:53:53Z</time>
      </trkpt>
      <trkpt lat="45.36793" lon="4.52745">
        <ele>1207.07</ele>
        <time>2017-02-26T12:53:54Z</time>
      </trkpt>
      <trkpt lat="45.3678" lon="4.52783">
        <ele>1206.11</ele>
        <time>2017-02-26T12:54:06Z</time>
      </trkpt>
      <trkpt lat="45.36776" lon="4.52798">
        <ele>1206.59</ele>
        <time>2017-02-26T12:54:13Z</time>
      </trkpt>
      <trkpt lat="45.36777" lon="4.528">
        <ele>1206.59</ele>
        <time>2017-02-26T12:54:14Z</time>
      </trkpt>
      <trkpt lat="45.36778" lon="4.52802">
        <ele>1206.59</ele>
        <time>2017-02-26T12:54:15Z</time>
      </trkpt>
      <trkpt lat="45.36778" lon="4.52804">
        <ele>1206.11</ele>
        <time>2017-02-26T12:54:16Z</time>
      </trkpt>
      <trkpt lat="45.36778" lon="4.52807">
        <ele>1205.63</ele>
        <time>2017-02-26T12:54:17Z</time>
      </trkpt>
      <trkpt lat="45.36777" lon="4.5281">
        <ele>1206.11</ele>
        <time>2017-02-26T12:54:18Z</time>
      </trkpt>
      <trkpt lat="45.36775" lon="4.52811">
        <ele>1206.11</ele>
        <time>2017-02-26T12:54:19Z</time>
      </trkpt>
      <trkpt lat="45.36774" lon="4.52812">
        <ele>1206.11</ele>
        <time>2017-02-26T12:54:20Z</time>
      </trkpt>
      <trkpt lat="45.36772" lon="4.52813">
        <ele>1206.59</ele>
        <time>2017-02-26T12:54:21Z</time>
      </trkpt>
      <trkpt lat="45.36771" lon="4.52813">
        <ele>1206.59</ele>
        <time>2017-02-26T12:54:22Z</time>
      </trkpt>
      <trkpt lat="45.3677" lon="4.52816">
        <ele>1206.59</ele>
        <time>2017-02-26T12:54:25Z</time>
      </trkpt>
      <trkpt lat="45.36768" lon="4.52819">
        <ele>1206.11</ele>
        <time>2017-02-26T12:54:28Z</time>
      </trkpt>
      <trkpt lat="45.36767" lon="4.52819">
        <ele>1206.11</ele>
        <time>2017-02-26T12:54:29Z</time>
      </trkpt>
      <trkpt lat="45.36765" lon="4.52818">
        <ele>1206.59</ele>
        <time>2017-02-26T12:54:30Z</time>
      </trkpt>
      <trkpt lat="45.36766" lon="4.52816">
        <ele>1207.07</ele>
        <time>2017-02-26T12:54:31Z</time>
      </trkpt>
      <trkpt lat="45.36766" lon="4.52814">
        <ele>1207.07</ele>
        <time>2017-02-26T12:54:32Z</time>
      </trkpt>
      <trkpt lat="45.36767" lon="4.52811">
        <ele>1207.07</ele>
        <time>2017-02-26T12:54:33Z</time>
      </trkpt>
      <trkpt lat="45.36767" lon="4.52809">
        <ele>1207.07</ele>
        <time>2017-02-26T12:54:34Z</time>
      </trkpt>
      <trkpt lat="45.36766" lon="4.52807">
        <ele>1207.07</ele>
        <time>2017-02-26T12:54:36Z</time>
      </trkpt>
      <trkpt lat="45.36765" lon="4.52806">
        <ele>1207.07</ele>
        <time>2017-02-26T12:54:37Z</time>
      </trkpt>
      <trkpt lat="45.36764" lon="4.52806">
        <ele>1207.07</ele>
        <time>2017-02-26T12:54:38Z</time>
      </trkpt>
      <trkpt lat="45.36762" lon="4.52805">
        <ele>1207.07</ele>
        <time>2017-02-26T12:54:39Z</time>
      </trkpt>
      <trkpt lat="45.3676" lon="4.52805">
        <ele>1207.55</ele>
        <time>2017-02-26T12:54:40Z</time>
      </trkpt>
      <trkpt lat="45.36759" lon="4.52805">
        <ele>1207.55</ele>
        <time>2017-02-26T12:54:41Z</time>
      </trkpt>
      <trkpt lat="45.36753" lon="4.52803">
        <ele>1208.51</ele>
        <time>2017-02-26T12:54:50Z</time>
      </trkpt>
      <trkpt lat="45.36754" lon="4.52804">
        <ele>1208.03</ele>
        <time>2017-02-26T12:55:06Z</time>
      </trkpt>
      <trkpt lat="45.36755" lon="4.52804">
        <ele>1208.03</ele>
        <time>2017-02-26T12:55:10Z</time>
      </trkpt>
      <trkpt lat="45.36778" lon="4.52822">
        <ele>1205.63</ele>
        <time>2017-02-26T12:55:18Z</time>
      </trkpt>
      <trkpt lat="45.36781" lon="4.52826">
        <ele>1206.11</ele>
        <time>2017-02-26T12:55:19Z</time>
      </trkpt>
      <trkpt lat="45.36783" lon="4.52832">
        <ele>1205.63</ele>
        <time>2017-02-26T12:55:20Z</time>
      </trkpt>
      <trkpt lat="45.36784" lon="4.52838">
        <ele>1205.15</ele>
        <time>2017-02-26T12:55:21Z</time>
      </trkpt>
      <trkpt lat="45.36783" lon="4.52844">
        <ele>1204.19</ele>
        <time>2017-02-26T12:55:22Z</time>
      </trkpt>
      <trkpt lat="45.36782" lon="4.5285">
        <ele>1204.19</ele>
        <time>2017-02-26T12:55:23Z</time>
      </trkpt>
      <trkpt lat="45.36781" lon="4.52856">
        <ele>1203.71</ele>
        <time>2017-02-26T12:55:24Z</time>
      </trkpt>
      <trkpt lat="45.36765" lon="4.52922">
        <ele>1202.27</ele>
        <time>2017-02-26T12:55:35Z</time>
      </trkpt>
      <trkpt lat="45.36765" lon="4.52928">
        <ele>1202.27</ele>
        <time>2017-02-26T12:55:36Z</time>
      </trkpt>
      <trkpt lat="45.36766" lon="4.52935">
        <ele>1202.27</ele>
        <time>2017-02-26T12:55:37Z</time>
      </trkpt>
      <trkpt lat="45.36768" lon="4.52941">
        <ele>1203.23</ele>
        <time>2017-02-26T12:55:38Z</time>
      </trkpt>
      <trkpt lat="45.36778" lon="4.52953">
        <ele>1204.67</ele>
        <time>2017-02-26T12:55:41Z</time>
      </trkpt>
      <trkpt lat="45.36785" lon="4.52954">
        <ele>1205.63</ele>
        <time>2017-02-26T12:55:43Z</time>
      </trkpt>
      <trkpt lat="45.36807" lon="4.52951">
        <ele>1208.51</ele>
        <time>2017-02-26T12:55:54Z</time>
      </trkpt>
    </trkseg>
  </trk>
</gpx>